<?xml version="1.0" encoding="UTF-8" standalone="no" ?>
<gpx xmlns="http://www.topografix.com/GPX/1/1" xmlns:xsi="http://www.w3.org/2001/XMLSchema-instance" xsi:schemaLocation="http://www.topografix.com/GPX/1/1 http://www.topografix.com/GPX/1/1/gpx.xsd" version="1.1" creator="VisuGPX - https://www.visugpx.com">
  <metadata>
    <name>Haldern-Budapest - Day 14: Landshut-Rottersdorf</name>
  </metadata>
  <trk>
    <name><![CDATA[Haldern-Budapest - Day 14: Landshut-Rottersdorf]]></name>
    <extensions>
      <line xmlns="http://www.topografix.com/GPX/gpx_style/0/2">
        <color>0000FF</color>
        <width>4</width>
      </line>
    </extensions>
    <trkseg>
      <trkpt lat="48.53615" lon="12.14675">
        <ele>425.972543</ele>
        <time>2023-07-14T07:00:11.335Z</time>
      </trkpt>
      <trkpt lat="48.53607" lon="12.14658">
        <ele>425.972543</ele>
        <time>2023-07-14T07:00:15.919Z</time>
      </trkpt>
      <trkpt lat="48.53599" lon="12.14664">
        <ele>425.972543</ele>
        <time>2023-07-14T07:00:28.939Z</time>
      </trkpt>
      <trkpt lat="48.53597" lon="12.14681">
        <ele>425.972543</ele>
        <time>2023-07-14T07:00:32.936Z</time>
      </trkpt>
      <trkpt lat="48.53597" lon="12.14689">
        <ele>425.972543</ele>
        <time>2023-07-14T07:00:40.437Z</time>
      </trkpt>
      <trkpt lat="48.53597" lon="12.14713">
        <ele>425.972543</ele>
        <time>2023-07-14T07:01:27.938Z</time>
      </trkpt>
      <trkpt lat="48.53604" lon="12.14725">
        <ele>425.972543</ele>
        <time>2023-07-14T07:01:32.947Z</time>
      </trkpt>
      <trkpt lat="48.53612" lon="12.14736">
        <ele>425.972543</ele>
        <time>2023-07-14T07:01:37.084Z</time>
      </trkpt>
      <trkpt lat="48.53603" lon="12.14724">
        <ele>425.972543</ele>
        <time>2023-07-14T07:01:51.958Z</time>
      </trkpt>
      <trkpt lat="48.53595" lon="12.14708">
        <ele>426.202613</ele>
        <time>2023-07-14T07:01:54.945Z</time>
      </trkpt>
      <trkpt lat="48.53589" lon="12.14693">
        <ele>426.424843</ele>
        <time>2023-07-14T07:01:56.936Z</time>
      </trkpt>
      <trkpt lat="48.53579" lon="12.14682">
        <ele>426.644391</ele>
        <time>2023-07-14T07:01:58.951Z</time>
      </trkpt>
      <trkpt lat="48.53571" lon="12.14671">
        <ele>426.844334</ele>
        <time>2023-07-14T07:02:00.959Z</time>
      </trkpt>
      <trkpt lat="48.53564" lon="12.14659">
        <ele>427.048397</ele>
        <time>2023-07-14T07:02:03.957Z</time>
      </trkpt>
      <trkpt lat="48.53557" lon="12.1465">
        <ele>427.229748</ele>
        <time>2023-07-14T07:02:06.951Z</time>
      </trkpt>
      <trkpt lat="48.5355" lon="12.14639">
        <ele>427.412402</ele>
        <time>2023-07-14T07:02:10.934Z</time>
      </trkpt>
      <trkpt lat="48.53542" lon="12.14628">
        <ele>427.611526</ele>
        <time>2023-07-14T07:02:15.974Z</time>
      </trkpt>
      <trkpt lat="48.53535" lon="12.14618">
        <ele>427.788748</ele>
        <time>2023-07-14T07:02:19.955Z</time>
      </trkpt>
      <trkpt lat="48.53527" lon="12.14606">
        <ele>428.009512</ele>
        <time>2023-07-14T07:02:23.948Z</time>
      </trkpt>
      <trkpt lat="48.5352" lon="12.14593">
        <ele>428.213038</ele>
        <time>2023-07-14T07:02:27.959Z</time>
      </trkpt>
      <trkpt lat="48.53513" lon="12.14582">
        <ele>428.393523</ele>
        <time>2023-07-14T07:02:30.944Z</time>
      </trkpt>
      <trkpt lat="48.53506" lon="12.14569">
        <ele>428.604009</ele>
        <time>2023-07-14T07:02:33.931Z</time>
      </trkpt>
      <trkpt lat="48.53498" lon="12.14555">
        <ele>428.843689</ele>
        <time>2023-07-14T07:02:36.955Z</time>
      </trkpt>
      <trkpt lat="48.5349" lon="12.14541">
        <ele>429.069166</ele>
        <time>2023-07-14T07:02:39.965Z</time>
      </trkpt>
      <trkpt lat="48.53482" lon="12.14528">
        <ele>429.290709</ele>
        <time>2023-07-14T07:02:42.945Z</time>
      </trkpt>
      <trkpt lat="48.53473" lon="12.14514">
        <ele>429.579629</ele>
        <time>2023-07-14T07:02:45.944Z</time>
      </trkpt>
      <trkpt lat="48.53465" lon="12.14502">
        <ele>429.837896</ele>
        <time>2023-07-14T07:02:48.964Z</time>
      </trkpt>
      <trkpt lat="48.53458" lon="12.1449">
        <ele>430.086864</ele>
        <time>2023-07-14T07:02:51.969Z</time>
      </trkpt>
      <trkpt lat="48.53449" lon="12.14479">
        <ele>430.353158</ele>
        <time>2023-07-14T07:02:54.964Z</time>
      </trkpt>
      <trkpt lat="48.5344" lon="12.14469">
        <ele>430.606052</ele>
        <time>2023-07-14T07:02:57.955Z</time>
      </trkpt>
      <trkpt lat="48.53432" lon="12.14458">
        <ele>430.857036</ele>
        <time>2023-07-14T07:03:00.957Z</time>
      </trkpt>
      <trkpt lat="48.53424" lon="12.14447">
        <ele>431.108019</ele>
        <time>2023-07-14T07:03:03.953Z</time>
      </trkpt>
      <trkpt lat="48.53415" lon="12.14436">
        <ele>431.383635</ele>
        <time>2023-07-14T07:03:06.950Z</time>
      </trkpt>
      <trkpt lat="48.53407" lon="12.14426">
        <ele>431.635609</ele>
        <time>2023-07-14T07:03:09.961Z</time>
      </trkpt>
      <trkpt lat="48.53397" lon="12.14417">
        <ele>431.898004</ele>
        <time>2023-07-14T07:03:12.958Z</time>
      </trkpt>
      <trkpt lat="48.53388" lon="12.14407">
        <ele>432.156466</ele>
        <time>2023-07-14T07:03:15.994Z</time>
      </trkpt>
      <trkpt lat="48.53381" lon="12.14397">
        <ele>432.397821</ele>
        <time>2023-07-14T07:03:18.962Z</time>
      </trkpt>
      <trkpt lat="48.53372" lon="12.14385">
        <ele>432.669911</ele>
        <time>2023-07-14T07:03:21.958Z</time>
      </trkpt>
      <trkpt lat="48.53363" lon="12.14375">
        <ele>432.927419</ele>
        <time>2023-07-14T07:03:24.946Z</time>
      </trkpt>
      <trkpt lat="48.53355" lon="12.14364">
        <ele>433.186405</ele>
        <time>2023-07-14T07:03:27.988Z</time>
      </trkpt>
      <trkpt lat="48.53346" lon="12.14353">
        <ele>433.452357</ele>
        <time>2023-07-14T07:03:30.949Z</time>
      </trkpt>
      <trkpt lat="48.53337" lon="12.14342">
        <ele>433.598052</ele>
        <time>2023-07-14T07:03:33.971Z</time>
      </trkpt>
      <trkpt lat="48.53329" lon="12.14332">
        <ele>433.692405</ele>
        <time>2023-07-14T07:03:36.951Z</time>
      </trkpt>
      <trkpt lat="48.53321" lon="12.1432">
        <ele>433.784975</ele>
        <time>2023-07-14T07:03:39.953Z</time>
      </trkpt>
      <trkpt lat="48.53315" lon="12.14308">
        <ele>433.876195</ele>
        <time>2023-07-14T07:03:42.952Z</time>
      </trkpt>
      <trkpt lat="48.53305" lon="12.143">
        <ele>433.971299</ele>
        <time>2023-07-14T07:03:45.954Z</time>
      </trkpt>
      <trkpt lat="48.53295" lon="12.14291">
        <ele>434.076029</ele>
        <time>2023-07-14T07:03:48.965Z</time>
      </trkpt>
      <trkpt lat="48.53287" lon="12.14284">
        <ele>434.15653</ele>
        <time>2023-07-14T07:03:50.962Z</time>
      </trkpt>
      <trkpt lat="48.53275" lon="12.14276">
        <ele>434.271774</ele>
        <time>2023-07-14T07:03:53.947Z</time>
      </trkpt>
      <trkpt lat="48.53262" lon="12.14268">
        <ele>434.391665</ele>
        <time>2023-07-14T07:03:56.950Z</time>
      </trkpt>
      <trkpt lat="48.5325" lon="12.14262">
        <ele>434.504377</ele>
        <time>2023-07-14T07:03:59.968Z</time>
      </trkpt>
      <trkpt lat="48.53239" lon="12.14257">
        <ele>434.610057</ele>
        <time>2023-07-14T07:04:02.961Z</time>
      </trkpt>
      <trkpt lat="48.53226" lon="12.14255">
        <ele>434.725223</ele>
        <time>2023-07-14T07:04:05.957Z</time>
      </trkpt>
      <trkpt lat="48.53213" lon="12.1425">
        <ele>434.838592</ele>
        <time>2023-07-14T07:04:08.949Z</time>
      </trkpt>
      <trkpt lat="48.53204" lon="12.14249">
        <ele>434.921435</ele>
        <time>2023-07-14T07:04:10.936Z</time>
      </trkpt>
      <trkpt lat="48.53191" lon="12.14245">
        <ele>435.038617</ele>
        <time>2023-07-14T07:04:13.948Z</time>
      </trkpt>
      <trkpt lat="48.53182" lon="12.14241">
        <ele>435.090518</ele>
        <time>2023-07-14T07:04:15.955Z</time>
      </trkpt>
      <trkpt lat="48.53173" lon="12.14238">
        <ele>434.990397</ele>
        <time>2023-07-14T07:04:17.957Z</time>
      </trkpt>
      <trkpt lat="48.53164" lon="12.14234">
        <ele>434.889723</ele>
        <time>2023-07-14T07:04:19.942Z</time>
      </trkpt>
      <trkpt lat="48.53151" lon="12.14226">
        <ele>434.742018</ele>
        <time>2023-07-14T07:04:22.943Z</time>
      </trkpt>
      <trkpt lat="48.53139" lon="12.14219">
        <ele>434.596622</ele>
        <time>2023-07-14T07:04:25.968Z</time>
      </trkpt>
      <trkpt lat="48.53127" lon="12.1421">
        <ele>434.447245</ele>
        <time>2023-07-14T07:04:28.955Z</time>
      </trkpt>
      <trkpt lat="48.53118" lon="12.14203">
        <ele>434.340078</ele>
        <time>2023-07-14T07:04:30.941Z</time>
      </trkpt>
      <trkpt lat="48.5311" lon="12.14196">
        <ele>434.238296</ele>
        <time>2023-07-14T07:04:32.972Z</time>
      </trkpt>
      <trkpt lat="48.53102" lon="12.14187">
        <ele>434.134232</ele>
        <time>2023-07-14T07:04:34.948Z</time>
      </trkpt>
      <trkpt lat="48.53094" lon="12.14179">
        <ele>434.029985</ele>
        <time>2023-07-14T07:04:36.945Z</time>
      </trkpt>
      <trkpt lat="48.53087" lon="12.14172">
        <ele>433.928354</ele>
        <time>2023-07-14T07:04:38.942Z</time>
      </trkpt>
      <trkpt lat="48.53079" lon="12.14164">
        <ele>433.824501</ele>
        <time>2023-07-14T07:04:40.960Z</time>
      </trkpt>
      <trkpt lat="48.53071" lon="12.14156">
        <ele>433.720436</ele>
        <time>2023-07-14T07:04:42.947Z</time>
      </trkpt>
      <trkpt lat="48.53062" lon="12.14147">
        <ele>433.610434</ele>
        <time>2023-07-14T07:04:44.975Z</time>
      </trkpt>
      <trkpt lat="48.53054" lon="12.14138">
        <ele>433.502937</ele>
        <time>2023-07-14T07:04:46.945Z</time>
      </trkpt>
      <trkpt lat="48.53046" lon="12.1413">
        <ele>433.397081</ele>
        <time>2023-07-14T07:04:48.966Z</time>
      </trkpt>
      <trkpt lat="48.53038" lon="12.14123">
        <ele>433.291962</ele>
        <time>2023-07-14T07:04:50.966Z</time>
      </trkpt>
      <trkpt lat="48.53031" lon="12.14113">
        <ele>433.182026</ele>
        <time>2023-07-14T07:04:52.955Z</time>
      </trkpt>
      <trkpt lat="48.53023" lon="12.14102">
        <ele>433.19856</ele>
        <time>2023-07-14T07:04:54.947Z</time>
      </trkpt>
      <trkpt lat="48.53017" lon="12.1409">
        <ele>433.276416</ele>
        <time>2023-07-14T07:04:56.952Z</time>
      </trkpt>
      <trkpt lat="48.53011" lon="12.14078">
        <ele>433.354412</ele>
        <time>2023-07-14T07:04:58.961Z</time>
      </trkpt>
      <trkpt lat="48.53005" lon="12.14068">
        <ele>433.429713</ele>
        <time>2023-07-14T07:05:00.931Z</time>
      </trkpt>
      <trkpt lat="48.52999" lon="12.14055">
        <ele>433.509686</ele>
        <time>2023-07-14T07:05:02.963Z</time>
      </trkpt>
      <trkpt lat="48.52995" lon="12.14043">
        <ele>433.583762</ele>
        <time>2023-07-14T07:05:04.944Z</time>
      </trkpt>
      <trkpt lat="48.52989" lon="12.14025">
        <ele>433.688776</ele>
        <time>2023-07-14T07:05:07.946Z</time>
      </trkpt>
      <trkpt lat="48.52983" lon="12.14008">
        <ele>433.788173</ele>
        <time>2023-07-14T07:05:10.962Z</time>
      </trkpt>
      <trkpt lat="48.52978" lon="12.13995">
        <ele>433.86819</ele>
        <time>2023-07-14T07:05:13.958Z</time>
      </trkpt>
      <trkpt lat="48.52972" lon="12.13976">
        <ele>433.979607</ele>
        <time>2023-07-14T07:05:36.957Z</time>
      </trkpt>
      <trkpt lat="48.52965" lon="12.13984">
        <ele>434.051365</ele>
        <time>2023-07-14T07:05:40.961Z</time>
      </trkpt>
      <trkpt lat="48.52956" lon="12.13991">
        <ele>434.130914</ele>
        <time>2023-07-14T07:05:44.962Z</time>
      </trkpt>
      <trkpt lat="48.52945" lon="12.13997">
        <ele>434.222786</ele>
        <time>2023-07-14T07:05:48.951Z</time>
      </trkpt>
      <trkpt lat="48.52934" lon="12.14004">
        <ele>434.318434</ele>
        <time>2023-07-14T07:05:52.962Z</time>
      </trkpt>
      <trkpt lat="48.52925" lon="12.1401">
        <ele>434.393841</ele>
        <time>2023-07-14T07:05:55.964Z</time>
      </trkpt>
      <trkpt lat="48.52916" lon="12.14016">
        <ele>434.469675</ele>
        <time>2023-07-14T07:05:58.981Z</time>
      </trkpt>
      <trkpt lat="48.52908" lon="12.14023">
        <ele>434.546218</ele>
        <time>2023-07-14T07:06:01.955Z</time>
      </trkpt>
      <trkpt lat="48.529" lon="12.14029">
        <ele>434.61057</ele>
        <time>2023-07-14T07:06:04.965Z</time>
      </trkpt>
      <trkpt lat="48.52891" lon="12.14035">
        <ele>434.670667</ele>
        <time>2023-07-14T07:06:07.959Z</time>
      </trkpt>
      <trkpt lat="48.52883" lon="12.14027">
        <ele>434.730729</ele>
        <time>2023-07-14T07:06:17.946Z</time>
      </trkpt>
      <trkpt lat="48.5288" lon="12.14012">
        <ele>434.797883</ele>
        <time>2023-07-14T07:06:22.946Z</time>
      </trkpt>
      <trkpt lat="48.52876" lon="12.13996">
        <ele>434.870663</ele>
        <time>2023-07-14T07:06:25.964Z</time>
      </trkpt>
      <trkpt lat="48.5287" lon="12.13979">
        <ele>434.945679</ele>
        <time>2023-07-14T07:06:28.946Z</time>
      </trkpt>
      <trkpt lat="48.52862" lon="12.13972">
        <ele>435.008833</ele>
        <time>2023-07-14T07:06:31.947Z</time>
      </trkpt>
      <trkpt lat="48.52849" lon="12.13976">
        <ele>435.09265</ele>
        <time>2023-07-14T07:06:34.945Z</time>
      </trkpt>
      <trkpt lat="48.52839" lon="12.13975">
        <ele>435.151751</ele>
        <time>2023-07-14T07:06:36.945Z</time>
      </trkpt>
      <trkpt lat="48.52829" lon="12.13976">
        <ele>435.215378</ele>
        <time>2023-07-14T07:06:38.951Z</time>
      </trkpt>
      <trkpt lat="48.52819" lon="12.13977">
        <ele>435.277784</ele>
        <time>2023-07-14T07:06:40.971Z</time>
      </trkpt>
      <trkpt lat="48.52807" lon="12.1398">
        <ele>435.355322</ele>
        <time>2023-07-14T07:06:43.959Z</time>
      </trkpt>
      <trkpt lat="48.52798" lon="12.13985">
        <ele>435.415135</ele>
        <time>2023-07-14T07:06:47.011Z</time>
      </trkpt>
      <trkpt lat="48.52788" lon="12.13994">
        <ele>435.489157</ele>
        <time>2023-07-14T07:06:50.961Z</time>
      </trkpt>
      <trkpt lat="48.5278" lon="12.14005">
        <ele>435.558353</ele>
        <time>2023-07-14T07:06:54.961Z</time>
      </trkpt>
      <trkpt lat="48.52772" lon="12.14018">
        <ele>435.628659</ele>
        <time>2023-07-14T07:06:58.950Z</time>
      </trkpt>
      <trkpt lat="48.52764" lon="12.14029">
        <ele>435.696291</ele>
        <time>2023-07-14T07:07:01.947Z</time>
      </trkpt>
      <trkpt lat="48.52757" lon="12.14043">
        <ele>435.932804</ele>
        <time>2023-07-14T07:07:04.957Z</time>
      </trkpt>
      <trkpt lat="48.5275" lon="12.14053">
        <ele>436.131961</ele>
        <time>2023-07-14T07:07:06.952Z</time>
      </trkpt>
      <trkpt lat="48.52742" lon="12.14063">
        <ele>436.346853</ele>
        <time>2023-07-14T07:07:08.948Z</time>
      </trkpt>
      <trkpt lat="48.52736" lon="12.14072">
        <ele>436.54001</ele>
        <time>2023-07-14T07:07:10.963Z</time>
      </trkpt>
      <trkpt lat="48.5273" lon="12.14082">
        <ele>436.733421</ele>
        <time>2023-07-14T07:07:12.969Z</time>
      </trkpt>
      <trkpt lat="48.5272" lon="12.14096">
        <ele>437.012542</ele>
        <time>2023-07-14T07:07:15.967Z</time>
      </trkpt>
      <trkpt lat="48.52713" lon="12.14104">
        <ele>437.209782</ele>
        <time>2023-07-14T07:07:17.950Z</time>
      </trkpt>
      <trkpt lat="48.52705" lon="12.14111">
        <ele>437.402529</ele>
        <time>2023-07-14T07:07:19.929Z</time>
      </trkpt>
      <trkpt lat="48.52692" lon="12.14115">
        <ele>437.670241</ele>
        <time>2023-07-14T07:07:22.948Z</time>
      </trkpt>
      <trkpt lat="48.5268" lon="12.14117">
        <ele>437.943368</ele>
        <time>2023-07-14T07:07:25.965Z</time>
      </trkpt>
      <trkpt lat="48.52667" lon="12.14115">
        <ele>438.219052</ele>
        <time>2023-07-14T07:07:28.945Z</time>
      </trkpt>
      <trkpt lat="48.52653" lon="12.14111">
        <ele>438.509858</ele>
        <time>2023-07-14T07:07:31.950Z</time>
      </trkpt>
      <trkpt lat="48.52641" lon="12.14107">
        <ele>438.773872</ele>
        <time>2023-07-14T07:07:34.962Z</time>
      </trkpt>
      <trkpt lat="48.52631" lon="12.14102">
        <ele>439.002186</ele>
        <time>2023-07-14T07:07:37.933Z</time>
      </trkpt>
      <trkpt lat="48.5262" lon="12.14095">
        <ele>439.256167</ele>
        <time>2023-07-14T07:07:40.960Z</time>
      </trkpt>
      <trkpt lat="48.52607" lon="12.1409">
        <ele>439.530418</ele>
        <time>2023-07-14T07:07:43.954Z</time>
      </trkpt>
      <trkpt lat="48.52598" lon="12.14089">
        <ele>439.602266</ele>
        <time>2023-07-14T07:07:45.958Z</time>
      </trkpt>
      <trkpt lat="48.52586" lon="12.14097">
        <ele>439.691308</ele>
        <time>2023-07-14T07:07:48.950Z</time>
      </trkpt>
      <trkpt lat="48.52576" lon="12.14109">
        <ele>439.779982</ele>
        <time>2023-07-14T07:07:51.953Z</time>
      </trkpt>
      <trkpt lat="48.52567" lon="12.14122">
        <ele>439.869097</ele>
        <time>2023-07-14T07:07:54.950Z</time>
      </trkpt>
      <trkpt lat="48.52561" lon="12.14133">
        <ele>439.933803</ele>
        <time>2023-07-14T07:07:56.964Z</time>
      </trkpt>
      <trkpt lat="48.52555" lon="12.14143">
        <ele>440.000564</ele>
        <time>2023-07-14T07:07:58.964Z</time>
      </trkpt>
      <trkpt lat="48.52548" lon="12.14151">
        <ele>440.064521</ele>
        <time>2023-07-14T07:08:00.965Z</time>
      </trkpt>
      <trkpt lat="48.52541" lon="12.14161">
        <ele>440.128347</ele>
        <time>2023-07-14T07:08:02.966Z</time>
      </trkpt>
      <trkpt lat="48.5253" lon="12.1417">
        <ele>440.2163</ele>
        <time>2023-07-14T07:08:05.936Z</time>
      </trkpt>
      <trkpt lat="48.5252" lon="12.14179">
        <ele>440.299561</ele>
        <time>2023-07-14T07:08:08.970Z</time>
      </trkpt>
      <trkpt lat="48.52508" lon="12.14185">
        <ele>440.38512</ele>
        <time>2023-07-14T07:08:11.951Z</time>
      </trkpt>
      <trkpt lat="48.52498" lon="12.14193">
        <ele>440.468859</ele>
        <time>2023-07-14T07:08:14.959Z</time>
      </trkpt>
      <trkpt lat="48.52486" lon="12.14201">
        <ele>440.560801</ele>
        <time>2023-07-14T07:08:17.965Z</time>
      </trkpt>
      <trkpt lat="48.52474" lon="12.1421">
        <ele>440.652989</ele>
        <time>2023-07-14T07:08:20.967Z</time>
      </trkpt>
      <trkpt lat="48.52462" lon="12.14218">
        <ele>440.743861</ele>
        <time>2023-07-14T07:08:23.953Z</time>
      </trkpt>
      <trkpt lat="48.52451" lon="12.14226">
        <ele>440.814053</ele>
        <time>2023-07-14T07:08:26.948Z</time>
      </trkpt>
      <trkpt lat="48.5244" lon="12.14236">
        <ele>440.851998</ele>
        <time>2023-07-14T07:08:29.957Z</time>
      </trkpt>
      <trkpt lat="48.52431" lon="12.14247">
        <ele>440.88567</ele>
        <time>2023-07-14T07:08:32.948Z</time>
      </trkpt>
      <trkpt lat="48.52423" lon="12.14262">
        <ele>440.923938</ele>
        <time>2023-07-14T07:08:35.961Z</time>
      </trkpt>
      <trkpt lat="48.52417" lon="12.14273">
        <ele>440.951267</ele>
        <time>2023-07-14T07:08:37.938Z</time>
      </trkpt>
      <trkpt lat="48.52408" lon="12.14287">
        <ele>440.99103</ele>
        <time>2023-07-14T07:08:40.957Z</time>
      </trkpt>
      <trkpt lat="48.52399" lon="12.14302">
        <ele>441.028782</ele>
        <time>2023-07-14T07:08:43.954Z</time>
      </trkpt>
      <trkpt lat="48.5239" lon="12.14315">
        <ele>441.066311</ele>
        <time>2023-07-14T07:08:46.948Z</time>
      </trkpt>
      <trkpt lat="48.52382" lon="12.14325">
        <ele>441.096891</ele>
        <time>2023-07-14T07:08:49.958Z</time>
      </trkpt>
      <trkpt lat="48.52371" lon="12.14332">
        <ele>441.13107</ele>
        <time>2023-07-14T07:08:52.951Z</time>
      </trkpt>
      <trkpt lat="48.52363" lon="12.14339">
        <ele>441.158128</ele>
        <time>2023-07-14T07:08:54.961Z</time>
      </trkpt>
      <trkpt lat="48.52355" lon="12.14346">
        <ele>441.186091</ele>
        <time>2023-07-14T07:08:56.956Z</time>
      </trkpt>
      <trkpt lat="48.52347" lon="12.14353">
        <ele>441.213911</ele>
        <time>2023-07-14T07:08:58.958Z</time>
      </trkpt>
      <trkpt lat="48.52338" lon="12.1436">
        <ele>441.242966</ele>
        <time>2023-07-14T07:09:00.955Z</time>
      </trkpt>
      <trkpt lat="48.5233" lon="12.14368">
        <ele>441.27193</ele>
        <time>2023-07-14T07:09:02.965Z</time>
      </trkpt>
      <trkpt lat="48.52321" lon="12.14377">
        <ele>441.302529</ele>
        <time>2023-07-14T07:09:04.957Z</time>
      </trkpt>
      <trkpt lat="48.52313" lon="12.14384">
        <ele>441.32968</ele>
        <time>2023-07-14T07:09:06.951Z</time>
      </trkpt>
      <trkpt lat="48.52306" lon="12.14392">
        <ele>441.473795</ele>
        <time>2023-07-14T07:09:08.957Z</time>
      </trkpt>
      <trkpt lat="48.52298" lon="12.14401">
        <ele>441.625059</ele>
        <time>2023-07-14T07:09:10.949Z</time>
      </trkpt>
      <trkpt lat="48.5229" lon="12.14409">
        <ele>441.785347</ele>
        <time>2023-07-14T07:09:12.945Z</time>
      </trkpt>
      <trkpt lat="48.52283" lon="12.14416">
        <ele>441.932908</ele>
        <time>2023-07-14T07:09:14.942Z</time>
      </trkpt>
      <trkpt lat="48.52272" lon="12.14427">
        <ele>442.141976</ele>
        <time>2023-07-14T07:09:17.955Z</time>
      </trkpt>
      <trkpt lat="48.52262" lon="12.14438">
        <ele>442.342834</ele>
        <time>2023-07-14T07:09:20.951Z</time>
      </trkpt>
      <trkpt lat="48.52252" lon="12.14448">
        <ele>442.547082</ele>
        <time>2023-07-14T07:09:23.944Z</time>
      </trkpt>
      <trkpt lat="48.52241" lon="12.14458">
        <ele>442.753232</ele>
        <time>2023-07-14T07:09:26.957Z</time>
      </trkpt>
      <trkpt lat="48.52231" lon="12.14469">
        <ele>442.959338</ele>
        <time>2023-07-14T07:09:29.969Z</time>
      </trkpt>
      <trkpt lat="48.5222" lon="12.14481">
        <ele>443.176428</ele>
        <time>2023-07-14T07:09:32.959Z</time>
      </trkpt>
      <trkpt lat="48.52211" lon="12.14495">
        <ele>443.386013</ele>
        <time>2023-07-14T07:09:35.950Z</time>
      </trkpt>
      <trkpt lat="48.52203" lon="12.1451">
        <ele>443.598795</ele>
        <time>2023-07-14T07:09:38.952Z</time>
      </trkpt>
      <trkpt lat="48.52195" lon="12.14524">
        <ele>443.797501</ele>
        <time>2023-07-14T07:09:41.965Z</time>
      </trkpt>
      <trkpt lat="48.52186" lon="12.14537">
        <ele>443.998619</ele>
        <time>2023-07-14T07:09:44.966Z</time>
      </trkpt>
      <trkpt lat="48.52178" lon="12.14551">
        <ele>444.198688</ele>
        <time>2023-07-14T07:09:47.956Z</time>
      </trkpt>
      <trkpt lat="48.52169" lon="12.14566">
        <ele>444.289364</ele>
        <time>2023-07-14T07:09:50.967Z</time>
      </trkpt>
      <trkpt lat="48.52163" lon="12.14577">
        <ele>444.307931</ele>
        <time>2023-07-14T07:09:52.962Z</time>
      </trkpt>
      <trkpt lat="48.52154" lon="12.14591">
        <ele>444.334745</ele>
        <time>2023-07-14T07:09:55.954Z</time>
      </trkpt>
      <trkpt lat="48.52144" lon="12.14605">
        <ele>444.362146</ele>
        <time>2023-07-14T07:09:58.949Z</time>
      </trkpt>
      <trkpt lat="48.52134" lon="12.14619">
        <ele>444.389621</ele>
        <time>2023-07-14T07:10:01.964Z</time>
      </trkpt>
      <trkpt lat="48.52125" lon="12.14632">
        <ele>444.416291</ele>
        <time>2023-07-14T07:10:04.958Z</time>
      </trkpt>
      <trkpt lat="48.52117" lon="12.14645">
        <ele>444.441009</ele>
        <time>2023-07-14T07:10:07.958Z</time>
      </trkpt>
      <trkpt lat="48.52108" lon="12.1466">
        <ele>444.467108</ele>
        <time>2023-07-14T07:10:10.949Z</time>
      </trkpt>
      <trkpt lat="48.52104" lon="12.14679">
        <ele>444.494225</ele>
        <time>2023-07-14T07:10:13.938Z</time>
      </trkpt>
      <trkpt lat="48.52101" lon="12.14696">
        <ele>444.51921</ele>
        <time>2023-07-14T07:10:16.981Z</time>
      </trkpt>
      <trkpt lat="48.52095" lon="12.14713">
        <ele>444.545128</ele>
        <time>2023-07-14T07:10:19.952Z</time>
      </trkpt>
      <trkpt lat="48.52089" lon="12.1473">
        <ele>444.571176</ele>
        <time>2023-07-14T07:10:22.924Z</time>
      </trkpt>
      <trkpt lat="48.52085" lon="12.14742">
        <ele>444.589978</ele>
        <time>2023-07-14T07:10:24.949Z</time>
      </trkpt>
      <trkpt lat="48.52079" lon="12.14759">
        <ele>444.615743</ele>
        <time>2023-07-14T07:10:27.939Z</time>
      </trkpt>
      <trkpt lat="48.52074" lon="12.14771">
        <ele>444.635636</ele>
        <time>2023-07-14T07:10:29.955Z</time>
      </trkpt>
      <trkpt lat="48.52067" lon="12.14788">
        <ele>444.584003</ele>
        <time>2023-07-14T07:10:32.946Z</time>
      </trkpt>
      <trkpt lat="48.5206" lon="12.14804">
        <ele>444.51806</ele>
        <time>2023-07-14T07:10:35.967Z</time>
      </trkpt>
      <trkpt lat="48.52054" lon="12.14815">
        <ele>444.467876</ele>
        <time>2023-07-14T07:10:37.955Z</time>
      </trkpt>
      <trkpt lat="48.52048" lon="12.14825">
        <ele>444.419739</ele>
        <time>2023-07-14T07:10:39.954Z</time>
      </trkpt>
      <trkpt lat="48.52041" lon="12.14835">
        <ele>444.367948</ele>
        <time>2023-07-14T07:10:41.949Z</time>
      </trkpt>
      <trkpt lat="48.52034" lon="12.14845">
        <ele>444.319875</ele>
        <time>2023-07-14T07:10:43.969Z</time>
      </trkpt>
      <trkpt lat="48.52025" lon="12.14857">
        <ele>444.253422</ele>
        <time>2023-07-14T07:10:46.948Z</time>
      </trkpt>
      <trkpt lat="48.52014" lon="12.14867">
        <ele>444.187677</ele>
        <time>2023-07-14T07:10:49.969Z</time>
      </trkpt>
      <trkpt lat="48.52003" lon="12.14876">
        <ele>444.122959</ele>
        <time>2023-07-14T07:10:52.961Z</time>
      </trkpt>
      <trkpt lat="48.51993" lon="12.14883">
        <ele>444.063066</ele>
        <time>2023-07-14T07:10:55.968Z</time>
      </trkpt>
      <trkpt lat="48.51983" lon="12.14889">
        <ele>444.008205</ele>
        <time>2023-07-14T07:10:58.981Z</time>
      </trkpt>
      <trkpt lat="48.51975" lon="12.14896">
        <ele>443.958397</ele>
        <time>2023-07-14T07:11:01.953Z</time>
      </trkpt>
      <trkpt lat="48.51964" lon="12.14903">
        <ele>443.894851</ele>
        <time>2023-07-14T07:11:05.961Z</time>
      </trkpt>
      <trkpt lat="48.51955" lon="12.1491">
        <ele>443.846271</ele>
        <time>2023-07-14T07:11:08.938Z</time>
      </trkpt>
      <trkpt lat="48.51947" lon="12.1492">
        <ele>443.78896</ele>
        <time>2023-07-14T07:11:12.937Z</time>
      </trkpt>
      <trkpt lat="48.51957" lon="12.14912">
        <ele>443.728819</ele>
        <time>2023-07-14T07:11:25.939Z</time>
      </trkpt>
      <trkpt lat="48.51966" lon="12.14903">
        <ele>443.737172</ele>
        <time>2023-07-14T07:11:28.956Z</time>
      </trkpt>
      <trkpt lat="48.51977" lon="12.14897">
        <ele>443.863892</ele>
        <time>2023-07-14T07:11:31.960Z</time>
      </trkpt>
      <trkpt lat="48.51988" lon="12.14889">
        <ele>443.995804</ele>
        <time>2023-07-14T07:11:34.959Z</time>
      </trkpt>
      <trkpt lat="48.51999" lon="12.14882">
        <ele>444.123413</ele>
        <time>2023-07-14T07:11:37.956Z</time>
      </trkpt>
      <trkpt lat="48.52009" lon="12.14876">
        <ele>444.240617</ele>
        <time>2023-07-14T07:11:40.955Z</time>
      </trkpt>
      <trkpt lat="48.5201" lon="12.14862">
        <ele>444.344532</ele>
        <time>2023-07-14T07:11:44.968Z</time>
      </trkpt>
      <trkpt lat="48.52001" lon="12.14854">
        <ele>444.453664</ele>
        <time>2023-07-14T07:11:49.931Z</time>
      </trkpt>
      <trkpt lat="48.51992" lon="12.14864">
        <ele>444.574287</ele>
        <time>2023-07-14T07:11:54.927Z</time>
      </trkpt>
      <trkpt lat="48.51982" lon="12.14869">
        <ele>444.692708</ele>
        <time>2023-07-14T07:11:58.941Z</time>
      </trkpt>
      <trkpt lat="48.51972" lon="12.14877">
        <ele>444.81502</ele>
        <time>2023-07-14T07:12:02.954Z</time>
      </trkpt>
      <trkpt lat="48.51963" lon="12.14881">
        <ele>444.916932</ele>
        <time>2023-07-14T07:12:05.939Z</time>
      </trkpt>
      <trkpt lat="48.51953" lon="12.14887">
        <ele>445.027307</ele>
        <time>2023-07-14T07:12:08.949Z</time>
      </trkpt>
      <trkpt lat="48.51943" lon="12.14892">
        <ele>445.143181</ele>
        <time>2023-07-14T07:12:11.955Z</time>
      </trkpt>
      <trkpt lat="48.51932" lon="12.14895">
        <ele>445.263467</ele>
        <time>2023-07-14T07:12:14.957Z</time>
      </trkpt>
      <trkpt lat="48.5192" lon="12.14897">
        <ele>445.389326</ele>
        <time>2023-07-14T07:12:17.967Z</time>
      </trkpt>
      <trkpt lat="48.51908" lon="12.14897">
        <ele>445.515145</ele>
        <time>2023-07-14T07:12:20.941Z</time>
      </trkpt>
      <trkpt lat="48.51897" lon="12.14895">
        <ele>445.633447</ele>
        <time>2023-07-14T07:12:23.950Z</time>
      </trkpt>
      <trkpt lat="48.51885" lon="12.14891">
        <ele>445.704946</ele>
        <time>2023-07-14T07:12:26.944Z</time>
      </trkpt>
      <trkpt lat="48.51879" lon="12.14903">
        <ele>445.764374</ele>
        <time>2023-07-14T07:12:30.940Z</time>
      </trkpt>
      <trkpt lat="48.51878" lon="12.1492">
        <ele>445.832555</ele>
        <time>2023-07-14T07:12:33.935Z</time>
      </trkpt>
      <trkpt lat="48.51874" lon="12.14939">
        <ele>445.909263</ele>
        <time>2023-07-14T07:12:36.974Z</time>
      </trkpt>
      <trkpt lat="48.51866" lon="12.14946">
        <ele>445.965213</ele>
        <time>2023-07-14T07:12:38.951Z</time>
      </trkpt>
      <trkpt lat="48.51854" lon="12.14952">
        <ele>446.04092</ele>
        <time>2023-07-14T07:12:41.967Z</time>
      </trkpt>
      <trkpt lat="48.51842" lon="12.14955">
        <ele>446.114039</ele>
        <time>2023-07-14T07:12:44.961Z</time>
      </trkpt>
      <trkpt lat="48.5183" lon="12.14959">
        <ele>446.182233</ele>
        <time>2023-07-14T07:12:47.940Z</time>
      </trkpt>
      <trkpt lat="48.5182" lon="12.14962">
        <ele>446.245776</ele>
        <time>2023-07-14T07:12:50.947Z</time>
      </trkpt>
      <trkpt lat="48.51809" lon="12.14967">
        <ele>446.312932</ele>
        <time>2023-07-14T07:12:54.019Z</time>
      </trkpt>
      <trkpt lat="48.51798" lon="12.14971">
        <ele>446.379556</ele>
        <time>2023-07-14T07:12:56.956Z</time>
      </trkpt>
      <trkpt lat="48.51788" lon="12.14976">
        <ele>446.439363</ele>
        <time>2023-07-14T07:12:59.954Z</time>
      </trkpt>
      <trkpt lat="48.5178" lon="12.14985">
        <ele>446.498518</ele>
        <time>2023-07-14T07:13:03.948Z</time>
      </trkpt>
      <trkpt lat="48.51773" lon="12.14994">
        <ele>446.555684</ele>
        <time>2023-07-14T07:13:06.950Z</time>
      </trkpt>
      <trkpt lat="48.51762" lon="12.15004">
        <ele>446.632012</ele>
        <time>2023-07-14T07:13:09.968Z</time>
      </trkpt>
      <trkpt lat="48.51751" lon="12.15011">
        <ele>446.714115</ele>
        <time>2023-07-14T07:13:12.948Z</time>
      </trkpt>
      <trkpt lat="48.51742" lon="12.1502">
        <ele>446.868057</ele>
        <time>2023-07-14T07:13:15.948Z</time>
      </trkpt>
      <trkpt lat="48.51732" lon="12.15028">
        <ele>447.010064</ele>
        <time>2023-07-14T07:13:18.948Z</time>
      </trkpt>
      <trkpt lat="48.51723" lon="12.15036">
        <ele>447.15678</ele>
        <time>2023-07-14T07:13:21.953Z</time>
      </trkpt>
      <trkpt lat="48.51713" lon="12.15042">
        <ele>447.309102</ele>
        <time>2023-07-14T07:13:24.953Z</time>
      </trkpt>
      <trkpt lat="48.51702" lon="12.15047">
        <ele>447.464594</ele>
        <time>2023-07-14T07:13:27.964Z</time>
      </trkpt>
      <trkpt lat="48.51689" lon="12.1505">
        <ele>447.635815</ele>
        <time>2023-07-14T07:13:30.940Z</time>
      </trkpt>
      <trkpt lat="48.51677" lon="12.15051">
        <ele>447.803849</ele>
        <time>2023-07-14T07:13:33.960Z</time>
      </trkpt>
      <trkpt lat="48.51665" lon="12.15051">
        <ele>447.97277</ele>
        <time>2023-07-14T07:13:36.946Z</time>
      </trkpt>
      <trkpt lat="48.51653" lon="12.15052">
        <ele>448.126921</ele>
        <time>2023-07-14T07:13:39.956Z</time>
      </trkpt>
      <trkpt lat="48.51643" lon="12.15053">
        <ele>448.271872</ele>
        <time>2023-07-14T07:13:42.963Z</time>
      </trkpt>
      <trkpt lat="48.51631" lon="12.15056">
        <ele>448.43028</ele>
        <time>2023-07-14T07:13:45.960Z</time>
      </trkpt>
      <trkpt lat="48.51621" lon="12.1506">
        <ele>448.581119</ele>
        <time>2023-07-14T07:13:48.960Z</time>
      </trkpt>
      <trkpt lat="48.51609" lon="12.15065">
        <ele>448.744399</ele>
        <time>2023-07-14T07:13:51.953Z</time>
      </trkpt>
      <trkpt lat="48.51598" lon="12.1507">
        <ele>448.906119</ele>
        <time>2023-07-14T07:13:54.947Z</time>
      </trkpt>
      <trkpt lat="48.51587" lon="12.15076">
        <ele>449.064988</ele>
        <time>2023-07-14T07:13:57.948Z</time>
      </trkpt>
      <trkpt lat="48.51576" lon="12.1508">
        <ele>449.188343</ele>
        <time>2023-07-14T07:14:00.953Z</time>
      </trkpt>
      <trkpt lat="48.51566" lon="12.15084">
        <ele>449.283641</ele>
        <time>2023-07-14T07:14:03.945Z</time>
      </trkpt>
      <trkpt lat="48.51557" lon="12.15077">
        <ele>449.37468</ele>
        <time>2023-07-14T07:14:06.958Z</time>
      </trkpt>
      <trkpt lat="48.51551" lon="12.15064">
        <ele>449.467029</ele>
        <time>2023-07-14T07:14:09.957Z</time>
      </trkpt>
      <trkpt lat="48.51546" lon="12.15052">
        <ele>449.555827</ele>
        <time>2023-07-14T07:14:12.959Z</time>
      </trkpt>
      <trkpt lat="48.51539" lon="12.1504">
        <ele>449.650694</ele>
        <time>2023-07-14T07:14:16.941Z</time>
      </trkpt>
      <trkpt lat="48.51528" lon="12.15043">
        <ele>449.749911</ele>
        <time>2023-07-14T07:14:19.944Z</time>
      </trkpt>
      <trkpt lat="48.51517" lon="12.15049">
        <ele>449.859513</ele>
        <time>2023-07-14T07:14:22.947Z</time>
      </trkpt>
      <trkpt lat="48.51506" lon="12.15055">
        <ele>449.9699</ele>
        <time>2023-07-14T07:14:25.952Z</time>
      </trkpt>
      <trkpt lat="48.51494" lon="12.1506">
        <ele>450.083843</ele>
        <time>2023-07-14T07:14:28.949Z</time>
      </trkpt>
      <trkpt lat="48.51482" lon="12.15067">
        <ele>450.201921</ele>
        <time>2023-07-14T07:14:31.940Z</time>
      </trkpt>
      <trkpt lat="48.51469" lon="12.15074">
        <ele>450.322387</ele>
        <time>2023-07-14T07:14:34.947Z</time>
      </trkpt>
      <trkpt lat="48.5146" lon="12.15078">
        <ele>450.406801</ele>
        <time>2023-07-14T07:14:36.955Z</time>
      </trkpt>
      <trkpt lat="48.51451" lon="12.15081">
        <ele>450.48946</ele>
        <time>2023-07-14T07:14:38.955Z</time>
      </trkpt>
      <trkpt lat="48.51439" lon="12.15087">
        <ele>450.610282</ele>
        <time>2023-07-14T07:14:41.948Z</time>
      </trkpt>
      <trkpt lat="48.51426" lon="12.15092">
        <ele>450.731379</ele>
        <time>2023-07-14T07:14:44.946Z</time>
      </trkpt>
      <trkpt lat="48.51414" lon="12.151">
        <ele>450.873643</ele>
        <time>2023-07-14T07:14:47.951Z</time>
      </trkpt>
      <trkpt lat="48.51402" lon="12.15107">
        <ele>451.03884</ele>
        <time>2023-07-14T07:14:50.943Z</time>
      </trkpt>
      <trkpt lat="48.5139" lon="12.15115">
        <ele>451.201913</ele>
        <time>2023-07-14T07:14:53.936Z</time>
      </trkpt>
      <trkpt lat="48.51382" lon="12.15121">
        <ele>451.315415</ele>
        <time>2023-07-14T07:14:55.960Z</time>
      </trkpt>
      <trkpt lat="48.5137" lon="12.1513">
        <ele>451.481238</ele>
        <time>2023-07-14T07:14:58.941Z</time>
      </trkpt>
      <trkpt lat="48.51358" lon="12.15139">
        <ele>451.6437</ele>
        <time>2023-07-14T07:15:01.952Z</time>
      </trkpt>
      <trkpt lat="48.51347" lon="12.15147">
        <ele>451.793211</ele>
        <time>2023-07-14T07:15:04.958Z</time>
      </trkpt>
      <trkpt lat="48.51338" lon="12.15159">
        <ele>451.94116</ele>
        <time>2023-07-14T07:15:07.964Z</time>
      </trkpt>
      <trkpt lat="48.51332" lon="12.15177">
        <ele>452.106832</ele>
        <time>2023-07-14T07:15:10.964Z</time>
      </trkpt>
      <trkpt lat="48.51327" lon="12.15189">
        <ele>452.221156</ele>
        <time>2023-07-14T07:15:12.945Z</time>
      </trkpt>
      <trkpt lat="48.51321" lon="12.15206">
        <ele>452.387686</ele>
        <time>2023-07-14T07:15:15.960Z</time>
      </trkpt>
      <trkpt lat="48.51317" lon="12.15219">
        <ele>452.505555</ele>
        <time>2023-07-14T07:15:17.950Z</time>
      </trkpt>
      <trkpt lat="48.51313" lon="12.15232">
        <ele>452.623834</ele>
        <time>2023-07-14T07:15:19.952Z</time>
      </trkpt>
      <trkpt lat="48.51309" lon="12.15246">
        <ele>452.745917</ele>
        <time>2023-07-14T07:15:21.953Z</time>
      </trkpt>
      <trkpt lat="48.51306" lon="12.15258">
        <ele>452.85772</ele>
        <time>2023-07-14T07:15:23.948Z</time>
      </trkpt>
      <trkpt lat="48.51302" lon="12.15272">
        <ele>452.976578</ele>
        <time>2023-07-14T07:15:25.962Z</time>
      </trkpt>
      <trkpt lat="48.513" lon="12.15286">
        <ele>453.142201</ele>
        <time>2023-07-14T07:15:27.955Z</time>
      </trkpt>
      <trkpt lat="48.51297" lon="12.153">
        <ele>453.340436</ele>
        <time>2023-07-14T07:15:29.964Z</time>
      </trkpt>
      <trkpt lat="48.51295" lon="12.15314">
        <ele>453.52212</ele>
        <time>2023-07-14T07:15:31.954Z</time>
      </trkpt>
      <trkpt lat="48.51294" lon="12.15328">
        <ele>453.713298</ele>
        <time>2023-07-14T07:15:33.946Z</time>
      </trkpt>
      <trkpt lat="48.51293" lon="12.15342">
        <ele>453.896443</ele>
        <time>2023-07-14T07:15:35.977Z</time>
      </trkpt>
      <trkpt lat="48.51292" lon="12.15361">
        <ele>454.155417</ele>
        <time>2023-07-14T07:15:38.947Z</time>
      </trkpt>
      <trkpt lat="48.5129" lon="12.15379">
        <ele>454.397493</ele>
        <time>2023-07-14T07:15:41.955Z</time>
      </trkpt>
      <trkpt lat="48.51287" lon="12.15399">
        <ele>454.666228</ele>
        <time>2023-07-14T07:15:44.959Z</time>
      </trkpt>
      <trkpt lat="48.51284" lon="12.15417">
        <ele>454.918566</ele>
        <time>2023-07-14T07:15:47.973Z</time>
      </trkpt>
      <trkpt lat="48.51279" lon="12.15435">
        <ele>455.178845</ele>
        <time>2023-07-14T07:15:50.947Z</time>
      </trkpt>
      <trkpt lat="48.51271" lon="12.1545">
        <ele>455.437365</ele>
        <time>2023-07-14T07:15:53.951Z</time>
      </trkpt>
      <trkpt lat="48.51259" lon="12.15457">
        <ele>455.688913</ele>
        <time>2023-07-14T07:15:56.941Z</time>
      </trkpt>
      <trkpt lat="48.51248" lon="12.15466">
        <ele>455.939168</ele>
        <time>2023-07-14T07:15:59.970Z</time>
      </trkpt>
      <trkpt lat="48.51238" lon="12.15474">
        <ele>456.16857</ele>
        <time>2023-07-14T07:16:02.957Z</time>
      </trkpt>
      <trkpt lat="48.51229" lon="12.15484">
        <ele>456.402063</ele>
        <time>2023-07-14T07:16:05.955Z</time>
      </trkpt>
      <trkpt lat="48.51222" lon="12.15494">
        <ele>456.591972</ele>
        <time>2023-07-14T07:16:08.923Z</time>
      </trkpt>
      <trkpt lat="48.51215" lon="12.15506">
        <ele>456.82243</ele>
        <time>2023-07-14T07:16:12.945Z</time>
      </trkpt>
      <trkpt lat="48.51209" lon="12.15519">
        <ele>457.026184</ele>
        <time>2023-07-14T07:16:16.941Z</time>
      </trkpt>
      <trkpt lat="48.51205" lon="12.15534">
        <ele>457.258909</ele>
        <time>2023-07-14T07:16:21.941Z</time>
      </trkpt>
      <trkpt lat="48.51202" lon="12.15549">
        <ele>457.464174</ele>
        <time>2023-07-14T07:16:26.966Z</time>
      </trkpt>
      <trkpt lat="48.51199" lon="12.15562">
        <ele>457.658966</ele>
        <time>2023-07-14T07:16:30.946Z</time>
      </trkpt>
      <trkpt lat="48.51197" lon="12.15577">
        <ele>457.867154</ele>
        <time>2023-07-14T07:16:35.946Z</time>
      </trkpt>
      <trkpt lat="48.51194" lon="12.15592">
        <ele>458.079816</ele>
        <time>2023-07-14T07:16:39.937Z</time>
      </trkpt>
      <trkpt lat="48.51188" lon="12.15602">
        <ele>458.270268</ele>
        <time>2023-07-14T07:16:44.945Z</time>
      </trkpt>
      <trkpt lat="48.51177" lon="12.15604">
        <ele>458.487486</ele>
        <time>2023-07-14T07:16:51.936Z</time>
      </trkpt>
      <trkpt lat="48.51168" lon="12.156">
        <ele>458.679706</ele>
        <time>2023-07-14T07:16:55.959Z</time>
      </trkpt>
      <trkpt lat="48.51158" lon="12.15599">
        <ele>458.887548</ele>
        <time>2023-07-14T07:16:59.947Z</time>
      </trkpt>
      <trkpt lat="48.51147" lon="12.15596">
        <ele>459.13094</ele>
        <time>2023-07-14T07:17:03.945Z</time>
      </trkpt>
      <trkpt lat="48.51137" lon="12.15597">
        <ele>459.334281</ele>
        <time>2023-07-14T07:17:06.950Z</time>
      </trkpt>
      <trkpt lat="48.51127" lon="12.15598">
        <ele>459.550286</ele>
        <time>2023-07-14T07:17:09.937Z</time>
      </trkpt>
      <trkpt lat="48.51116" lon="12.15602">
        <ele>459.776014</ele>
        <time>2023-07-14T07:17:12.964Z</time>
      </trkpt>
      <trkpt lat="48.51105" lon="12.15606">
        <ele>460.001789</ele>
        <time>2023-07-14T07:17:15.969Z</time>
      </trkpt>
      <trkpt lat="48.51095" lon="12.15611">
        <ele>460.221208</ele>
        <time>2023-07-14T07:17:18.947Z</time>
      </trkpt>
      <trkpt lat="48.51085" lon="12.15617">
        <ele>460.476663</ele>
        <time>2023-07-14T07:17:21.966Z</time>
      </trkpt>
      <trkpt lat="48.51076" lon="12.15624">
        <ele>460.776192</ele>
        <time>2023-07-14T07:17:24.969Z</time>
      </trkpt>
      <trkpt lat="48.51067" lon="12.15632">
        <ele>461.050544</ele>
        <time>2023-07-14T07:17:27.952Z</time>
      </trkpt>
      <trkpt lat="48.51059" lon="12.15641">
        <ele>461.336456</ele>
        <time>2023-07-14T07:17:30.959Z</time>
      </trkpt>
      <trkpt lat="48.51049" lon="12.15655">
        <ele>461.6992</ele>
        <time>2023-07-14T07:17:33.960Z</time>
      </trkpt>
      <trkpt lat="48.51041" lon="12.15668">
        <ele>462.035682</ele>
        <time>2023-07-14T07:17:36.954Z</time>
      </trkpt>
      <trkpt lat="48.51034" lon="12.15682">
        <ele>462.365958</ele>
        <time>2023-07-14T07:17:39.949Z</time>
      </trkpt>
      <trkpt lat="48.51026" lon="12.15696">
        <ele>462.702118</ele>
        <time>2023-07-14T07:17:42.962Z</time>
      </trkpt>
      <trkpt lat="48.51018" lon="12.15709">
        <ele>463.025343</ele>
        <time>2023-07-14T07:17:45.967Z</time>
      </trkpt>
      <trkpt lat="48.51011" lon="12.1572">
        <ele>463.320072</ele>
        <time>2023-07-14T07:17:48.960Z</time>
      </trkpt>
      <trkpt lat="48.51003" lon="12.1573">
        <ele>463.596428</ele>
        <time>2023-07-14T07:17:51.971Z</time>
      </trkpt>
      <trkpt lat="48.50994" lon="12.15741">
        <ele>463.918062</ele>
        <time>2023-07-14T07:17:55.952Z</time>
      </trkpt>
      <trkpt lat="48.50986" lon="12.15753">
        <ele>464.231938</ele>
        <time>2023-07-14T07:17:59.938Z</time>
      </trkpt>
      <trkpt lat="48.50978" lon="12.15762">
        <ele>464.509212</ele>
        <time>2023-07-14T07:18:02.966Z</time>
      </trkpt>
      <trkpt lat="48.5097" lon="12.15773">
        <ele>464.804557</ele>
        <time>2023-07-14T07:18:05.952Z</time>
      </trkpt>
      <trkpt lat="48.50963" lon="12.15784">
        <ele>465.091322</ele>
        <time>2023-07-14T07:18:08.969Z</time>
      </trkpt>
      <trkpt lat="48.50957" lon="12.15793">
        <ele>465.342687</ele>
        <time>2023-07-14T07:18:11.951Z</time>
      </trkpt>
      <trkpt lat="48.50948" lon="12.15804">
        <ele>465.757772</ele>
        <time>2023-07-14T07:18:14.968Z</time>
      </trkpt>
      <trkpt lat="48.50939" lon="12.15816">
        <ele>466.206973</ele>
        <time>2023-07-14T07:18:17.961Z</time>
      </trkpt>
      <trkpt lat="48.50931" lon="12.15828">
        <ele>466.642844</ele>
        <time>2023-07-14T07:18:20.953Z</time>
      </trkpt>
      <trkpt lat="48.50922" lon="12.15839">
        <ele>467.085684</ele>
        <time>2023-07-14T07:18:23.942Z</time>
      </trkpt>
      <trkpt lat="48.50914" lon="12.15849">
        <ele>467.483463</ele>
        <time>2023-07-14T07:18:26.964Z</time>
      </trkpt>
      <trkpt lat="48.50905" lon="12.1586">
        <ele>467.90753</ele>
        <time>2023-07-14T07:18:29.943Z</time>
      </trkpt>
      <trkpt lat="48.50896" lon="12.15871">
        <ele>468.341149</ele>
        <time>2023-07-14T07:18:32.941Z</time>
      </trkpt>
      <trkpt lat="48.50887" lon="12.1588">
        <ele>468.767421</ele>
        <time>2023-07-14T07:18:35.954Z</time>
      </trkpt>
      <trkpt lat="48.50878" lon="12.1589">
        <ele>469.193971</ele>
        <time>2023-07-14T07:18:38.953Z</time>
      </trkpt>
      <trkpt lat="48.50868" lon="12.159">
        <ele>469.627919</ele>
        <time>2023-07-14T07:18:41.953Z</time>
      </trkpt>
      <trkpt lat="48.5086" lon="12.15909">
        <ele>470.03119</ele>
        <time>2023-07-14T07:18:44.967Z</time>
      </trkpt>
      <trkpt lat="48.5085" lon="12.15919">
        <ele>470.474249</ele>
        <time>2023-07-14T07:18:47.966Z</time>
      </trkpt>
      <trkpt lat="48.5084" lon="12.15928">
        <ele>470.915211</ele>
        <time>2023-07-14T07:18:50.968Z</time>
      </trkpt>
      <trkpt lat="48.50831" lon="12.15937">
        <ele>471.315265</ele>
        <time>2023-07-14T07:18:53.951Z</time>
      </trkpt>
      <trkpt lat="48.50823" lon="12.15945">
        <ele>471.707559</ele>
        <time>2023-07-14T07:18:56.926Z</time>
      </trkpt>
      <trkpt lat="48.50814" lon="12.15953">
        <ele>472.086098</ele>
        <time>2023-07-14T07:18:59.957Z</time>
      </trkpt>
      <trkpt lat="48.50805" lon="12.1596">
        <ele>472.181269</ele>
        <time>2023-07-14T07:19:02.949Z</time>
      </trkpt>
      <trkpt lat="48.50796" lon="12.15969">
        <ele>472.137421</ele>
        <time>2023-07-14T07:19:05.947Z</time>
      </trkpt>
      <trkpt lat="48.50786" lon="12.15974">
        <ele>472.098154</ele>
        <time>2023-07-14T07:19:08.931Z</time>
      </trkpt>
      <trkpt lat="48.50777" lon="12.15978">
        <ele>472.059558</ele>
        <time>2023-07-14T07:19:11.936Z</time>
      </trkpt>
      <trkpt lat="48.50766" lon="12.15984">
        <ele>472.012716</ele>
        <time>2023-07-14T07:19:15.956Z</time>
      </trkpt>
      <trkpt lat="48.50756" lon="12.15989">
        <ele>471.972797</ele>
        <time>2023-07-14T07:19:19.950Z</time>
      </trkpt>
      <trkpt lat="48.50748" lon="12.15996">
        <ele>471.934466</ele>
        <time>2023-07-14T07:19:25.948Z</time>
      </trkpt>
      <trkpt lat="48.50748" lon="12.16012">
        <ele>471.894791</ele>
        <time>2023-07-14T07:19:32.959Z</time>
      </trkpt>
      <trkpt lat="48.50744" lon="12.16027">
        <ele>471.853195</ele>
        <time>2023-07-14T07:19:36.971Z</time>
      </trkpt>
      <trkpt lat="48.50739" lon="12.16041">
        <ele>471.81216</ele>
        <time>2023-07-14T07:19:40.980Z</time>
      </trkpt>
      <trkpt lat="48.50741" lon="12.16056">
        <ele>471.77308</ele>
        <time>2023-07-14T07:19:43.949Z</time>
      </trkpt>
      <trkpt lat="48.50742" lon="12.16071">
        <ele>471.73416</ele>
        <time>2023-07-14T07:19:46.947Z</time>
      </trkpt>
      <trkpt lat="48.50741" lon="12.16089">
        <ele>471.686134</ele>
        <time>2023-07-14T07:19:49.950Z</time>
      </trkpt>
      <trkpt lat="48.50739" lon="12.16103">
        <ele>471.649992</ele>
        <time>2023-07-14T07:19:51.953Z</time>
      </trkpt>
      <trkpt lat="48.50736" lon="12.16117">
        <ele>471.612946</ele>
        <time>2023-07-14T07:19:53.935Z</time>
      </trkpt>
      <trkpt lat="48.5073" lon="12.16135">
        <ele>471.560871</ele>
        <time>2023-07-14T07:19:56.947Z</time>
      </trkpt>
      <trkpt lat="48.50726" lon="12.16146">
        <ele>471.525534</ele>
        <time>2023-07-14T07:19:58.959Z</time>
      </trkpt>
      <trkpt lat="48.50722" lon="12.16159">
        <ele>471.515004</ele>
        <time>2023-07-14T07:20:00.968Z</time>
      </trkpt>
      <trkpt lat="48.50717" lon="12.16171">
        <ele>471.545673</ele>
        <time>2023-07-14T07:20:02.934Z</time>
      </trkpt>
      <trkpt lat="48.50713" lon="12.16184">
        <ele>471.577548</ele>
        <time>2023-07-14T07:20:04.955Z</time>
      </trkpt>
      <trkpt lat="48.50708" lon="12.16197">
        <ele>471.609681</ele>
        <time>2023-07-14T07:20:06.954Z</time>
      </trkpt>
      <trkpt lat="48.50703" lon="12.16211">
        <ele>471.643434</ele>
        <time>2023-07-14T07:20:08.951Z</time>
      </trkpt>
      <trkpt lat="48.50699" lon="12.16224">
        <ele>471.6757</ele>
        <time>2023-07-14T07:20:10.947Z</time>
      </trkpt>
      <trkpt lat="48.50695" lon="12.16236">
        <ele>471.706305</ele>
        <time>2023-07-14T07:20:12.954Z</time>
      </trkpt>
      <trkpt lat="48.5069" lon="12.16249">
        <ele>471.736628</ele>
        <time>2023-07-14T07:20:14.949Z</time>
      </trkpt>
      <trkpt lat="48.50686" lon="12.16261">
        <ele>471.767021</ele>
        <time>2023-07-14T07:20:16.957Z</time>
      </trkpt>
      <trkpt lat="48.50682" lon="12.16273">
        <ele>471.797484</ele>
        <time>2023-07-14T07:20:18.942Z</time>
      </trkpt>
      <trkpt lat="48.50677" lon="12.16285">
        <ele>471.827502</ele>
        <time>2023-07-14T07:20:20.967Z</time>
      </trkpt>
      <trkpt lat="48.50672" lon="12.16298">
        <ele>471.85875</ele>
        <time>2023-07-14T07:20:22.966Z</time>
      </trkpt>
      <trkpt lat="48.50668" lon="12.1631">
        <ele>471.889458</ele>
        <time>2023-07-14T07:20:24.959Z</time>
      </trkpt>
      <trkpt lat="48.50661" lon="12.16326">
        <ele>471.931448</ele>
        <time>2023-07-14T07:20:27.942Z</time>
      </trkpt>
      <trkpt lat="48.50656" lon="12.16342">
        <ele>471.970517</ele>
        <time>2023-07-14T07:20:30.969Z</time>
      </trkpt>
      <trkpt lat="48.50651" lon="12.16354">
        <ele>472.001794</ele>
        <time>2023-07-14T07:20:35.952Z</time>
      </trkpt>
      <trkpt lat="48.5064" lon="12.16354">
        <ele>472.035406</ele>
        <time>2023-07-14T07:20:41.945Z</time>
      </trkpt>
      <trkpt lat="48.50635" lon="12.16368">
        <ele>472.071767</ele>
        <time>2023-07-14T07:20:45.955Z</time>
      </trkpt>
      <trkpt lat="48.50631" lon="12.1638">
        <ele>472.142227</ele>
        <time>2023-07-14T07:20:48.957Z</time>
      </trkpt>
      <trkpt lat="48.50624" lon="12.16395">
        <ele>472.431448</ele>
        <time>2023-07-14T07:20:52.967Z</time>
      </trkpt>
      <trkpt lat="48.50619" lon="12.16407">
        <ele>472.657253</ele>
        <time>2023-07-14T07:20:55.950Z</time>
      </trkpt>
      <trkpt lat="48.50613" lon="12.16423">
        <ele>472.950708</ele>
        <time>2023-07-14T07:20:59.963Z</time>
      </trkpt>
      <trkpt lat="48.50607" lon="12.16437">
        <ele>473.226504</ele>
        <time>2023-07-14T07:21:03.958Z</time>
      </trkpt>
      <trkpt lat="48.50602" lon="12.16452">
        <ele>473.512206</ele>
        <time>2023-07-14T07:21:07.967Z</time>
      </trkpt>
      <trkpt lat="48.50596" lon="12.16467">
        <ele>473.789384</ele>
        <time>2023-07-14T07:21:11.954Z</time>
      </trkpt>
      <trkpt lat="48.50591" lon="12.16479">
        <ele>474.012685</ele>
        <time>2023-07-14T07:21:14.965Z</time>
      </trkpt>
      <trkpt lat="48.50585" lon="12.16494">
        <ele>474.302245</ele>
        <time>2023-07-14T07:21:18.946Z</time>
      </trkpt>
      <trkpt lat="48.50578" lon="12.16509">
        <ele>474.596973</ele>
        <time>2023-07-14T07:21:22.964Z</time>
      </trkpt>
      <trkpt lat="48.50572" lon="12.1652">
        <ele>474.817979</ele>
        <time>2023-07-14T07:21:25.964Z</time>
      </trkpt>
      <trkpt lat="48.50566" lon="12.16534">
        <ele>475.103077</ele>
        <time>2023-07-14T07:21:29.965Z</time>
      </trkpt>
      <trkpt lat="48.5056" lon="12.16545">
        <ele>475.327732</ele>
        <time>2023-07-14T07:21:32.969Z</time>
      </trkpt>
      <trkpt lat="48.50554" lon="12.16557">
        <ele>475.564285</ele>
        <time>2023-07-14T07:21:35.952Z</time>
      </trkpt>
      <trkpt lat="48.50549" lon="12.16568">
        <ele>475.790105</ele>
        <time>2023-07-14T07:21:38.949Z</time>
      </trkpt>
      <trkpt lat="48.50543" lon="12.16579">
        <ele>476.01449</ele>
        <time>2023-07-14T07:21:41.970Z</time>
      </trkpt>
      <trkpt lat="48.50535" lon="12.16592">
        <ele>476.298328</ele>
        <time>2023-07-14T07:21:45.957Z</time>
      </trkpt>
      <trkpt lat="48.50529" lon="12.16603">
        <ele>476.534443</ele>
        <time>2023-07-14T07:21:48.960Z</time>
      </trkpt>
      <trkpt lat="48.50522" lon="12.16614">
        <ele>476.769058</ele>
        <time>2023-07-14T07:21:51.950Z</time>
      </trkpt>
      <trkpt lat="48.50514" lon="12.16625">
        <ele>477.015054</ele>
        <time>2023-07-14T07:21:54.966Z</time>
      </trkpt>
      <trkpt lat="48.50506" lon="12.16638">
        <ele>477.278055</ele>
        <time>2023-07-14T07:21:57.958Z</time>
      </trkpt>
      <trkpt lat="48.50498" lon="12.16651">
        <ele>477.552771</ele>
        <time>2023-07-14T07:22:00.948Z</time>
      </trkpt>
      <trkpt lat="48.5049" lon="12.16663">
        <ele>477.829139</ele>
        <time>2023-07-14T07:22:03.948Z</time>
      </trkpt>
      <trkpt lat="48.5048" lon="12.16676">
        <ele>478.117011</ele>
        <time>2023-07-14T07:22:06.948Z</time>
      </trkpt>
      <trkpt lat="48.50471" lon="12.16689">
        <ele>478.412872</ele>
        <time>2023-07-14T07:22:09.952Z</time>
      </trkpt>
      <trkpt lat="48.50461" lon="12.16702">
        <ele>478.706855</ele>
        <time>2023-07-14T07:22:12.954Z</time>
      </trkpt>
      <trkpt lat="48.50452" lon="12.16713">
        <ele>478.977272</ele>
        <time>2023-07-14T07:22:15.967Z</time>
      </trkpt>
      <trkpt lat="48.50443" lon="12.16724">
        <ele>479.23957</ele>
        <time>2023-07-14T07:22:18.945Z</time>
      </trkpt>
      <trkpt lat="48.50435" lon="12.16736">
        <ele>479.506905</ele>
        <time>2023-07-14T07:22:21.949Z</time>
      </trkpt>
      <trkpt lat="48.50426" lon="12.16747">
        <ele>479.769588</ele>
        <time>2023-07-14T07:22:24.959Z</time>
      </trkpt>
      <trkpt lat="48.50418" lon="12.16758">
        <ele>480.01913</ele>
        <time>2023-07-14T07:22:27.962Z</time>
      </trkpt>
      <trkpt lat="48.5041" lon="12.16769">
        <ele>480.28133</ele>
        <time>2023-07-14T07:22:30.958Z</time>
      </trkpt>
      <trkpt lat="48.50401" lon="12.16781">
        <ele>480.560715</ele>
        <time>2023-07-14T07:22:33.949Z</time>
      </trkpt>
      <trkpt lat="48.50391" lon="12.16793">
        <ele>480.634901</ele>
        <time>2023-07-14T07:22:36.951Z</time>
      </trkpt>
      <trkpt lat="48.50384" lon="12.16802">
        <ele>480.626948</ele>
        <time>2023-07-14T07:22:38.950Z</time>
      </trkpt>
      <trkpt lat="48.50377" lon="12.16812">
        <ele>480.618809</ele>
        <time>2023-07-14T07:22:40.959Z</time>
      </trkpt>
      <trkpt lat="48.50369" lon="12.16822">
        <ele>480.610017</ele>
        <time>2023-07-14T07:22:42.957Z</time>
      </trkpt>
      <trkpt lat="48.50361" lon="12.16833">
        <ele>480.601086</ele>
        <time>2023-07-14T07:22:44.949Z</time>
      </trkpt>
      <trkpt lat="48.50354" lon="12.16844">
        <ele>480.591973</ele>
        <time>2023-07-14T07:22:46.941Z</time>
      </trkpt>
      <trkpt lat="48.50346" lon="12.16854">
        <ele>480.58322</ele>
        <time>2023-07-14T07:22:48.969Z</time>
      </trkpt>
      <trkpt lat="48.50339" lon="12.16864">
        <ele>480.574619</ele>
        <time>2023-07-14T07:22:50.959Z</time>
      </trkpt>
      <trkpt lat="48.50331" lon="12.16874">
        <ele>480.565803</ele>
        <time>2023-07-14T07:22:52.949Z</time>
      </trkpt>
      <trkpt lat="48.50323" lon="12.16884">
        <ele>480.556881</ele>
        <time>2023-07-14T07:22:54.964Z</time>
      </trkpt>
      <trkpt lat="48.50316" lon="12.16894">
        <ele>480.548333</ele>
        <time>2023-07-14T07:22:56.970Z</time>
      </trkpt>
      <trkpt lat="48.50308" lon="12.16905">
        <ele>480.539501</ele>
        <time>2023-07-14T07:22:58.969Z</time>
      </trkpt>
      <trkpt lat="48.50301" lon="12.16916">
        <ele>480.530388</ele>
        <time>2023-07-14T07:23:00.947Z</time>
      </trkpt>
      <trkpt lat="48.50293" lon="12.16927">
        <ele>480.521517</ele>
        <time>2023-07-14T07:23:02.954Z</time>
      </trkpt>
      <trkpt lat="48.50286" lon="12.16938">
        <ele>480.512262</ele>
        <time>2023-07-14T07:23:04.949Z</time>
      </trkpt>
      <trkpt lat="48.50278" lon="12.16949">
        <ele>480.503068</ele>
        <time>2023-07-14T07:23:06.957Z</time>
      </trkpt>
      <trkpt lat="48.50271" lon="12.1696">
        <ele>480.494237</ele>
        <time>2023-07-14T07:23:08.977Z</time>
      </trkpt>
      <trkpt lat="48.50263" lon="12.16972">
        <ele>480.488789</ele>
        <time>2023-07-14T07:23:10.957Z</time>
      </trkpt>
      <trkpt lat="48.50256" lon="12.16985">
        <ele>480.49249</ele>
        <time>2023-07-14T07:23:12.958Z</time>
      </trkpt>
      <trkpt lat="48.5025" lon="12.17001">
        <ele>480.496349</ele>
        <time>2023-07-14T07:23:14.962Z</time>
      </trkpt>
      <trkpt lat="48.50246" lon="12.17016">
        <ele>480.500028</ele>
        <time>2023-07-14T07:23:16.950Z</time>
      </trkpt>
      <trkpt lat="48.50241" lon="12.17032">
        <ele>480.503668</ele>
        <time>2023-07-14T07:23:18.951Z</time>
      </trkpt>
      <trkpt lat="48.50237" lon="12.17048">
        <ele>480.507374</ele>
        <time>2023-07-14T07:23:20.967Z</time>
      </trkpt>
      <trkpt lat="48.50233" lon="12.17063">
        <ele>480.510845</ele>
        <time>2023-07-14T07:23:22.952Z</time>
      </trkpt>
      <trkpt lat="48.5023" lon="12.17078">
        <ele>480.514337</ele>
        <time>2023-07-14T07:23:24.965Z</time>
      </trkpt>
      <trkpt lat="48.50227" lon="12.17093">
        <ele>480.517644</ele>
        <time>2023-07-14T07:23:26.964Z</time>
      </trkpt>
      <trkpt lat="48.50224" lon="12.17108">
        <ele>480.520945</ele>
        <time>2023-07-14T07:23:28.950Z</time>
      </trkpt>
      <trkpt lat="48.50221" lon="12.17122">
        <ele>480.524274</ele>
        <time>2023-07-14T07:23:30.963Z</time>
      </trkpt>
      <trkpt lat="48.50219" lon="12.17137">
        <ele>480.527438</ele>
        <time>2023-07-14T07:23:32.950Z</time>
      </trkpt>
      <trkpt lat="48.50217" lon="12.17151">
        <ele>480.530567</ele>
        <time>2023-07-14T07:23:34.943Z</time>
      </trkpt>
      <trkpt lat="48.50214" lon="12.17165">
        <ele>480.533655</ele>
        <time>2023-07-14T07:23:36.953Z</time>
      </trkpt>
      <trkpt lat="48.50212" lon="12.17179">
        <ele>480.536798</ele>
        <time>2023-07-14T07:23:38.969Z</time>
      </trkpt>
      <trkpt lat="48.50209" lon="12.17198">
        <ele>480.541041</ele>
        <time>2023-07-14T07:23:41.955Z</time>
      </trkpt>
      <trkpt lat="48.50205" lon="12.17216">
        <ele>480.545062</ele>
        <time>2023-07-14T07:23:44.954Z</time>
      </trkpt>
      <trkpt lat="48.50204" lon="12.17233">
        <ele>480.685303</ele>
        <time>2023-07-14T07:23:47.938Z</time>
      </trkpt>
      <trkpt lat="48.50202" lon="12.1725">
        <ele>480.875722</ele>
        <time>2023-07-14T07:23:50.960Z</time>
      </trkpt>
      <trkpt lat="48.502" lon="12.17265">
        <ele>481.049783</ele>
        <time>2023-07-14T07:23:53.951Z</time>
      </trkpt>
      <trkpt lat="48.50199" lon="12.17279">
        <ele>481.210265</ele>
        <time>2023-07-14T07:23:56.962Z</time>
      </trkpt>
      <trkpt lat="48.50197" lon="12.17297">
        <ele>481.409885</ele>
        <time>2023-07-14T07:24:00.952Z</time>
      </trkpt>
      <trkpt lat="48.50195" lon="12.17311">
        <ele>481.571772</ele>
        <time>2023-07-14T07:24:03.939Z</time>
      </trkpt>
      <trkpt lat="48.50193" lon="12.17328">
        <ele>481.776686</ele>
        <time>2023-07-14T07:24:07.953Z</time>
      </trkpt>
      <trkpt lat="48.50191" lon="12.17344">
        <ele>481.955392</ele>
        <time>2023-07-14T07:24:10.952Z</time>
      </trkpt>
      <trkpt lat="48.5019" lon="12.17359">
        <ele>482.129352</ele>
        <time>2023-07-14T07:24:13.947Z</time>
      </trkpt>
      <trkpt lat="48.50189" lon="12.17374">
        <ele>482.300582</ele>
        <time>2023-07-14T07:24:16.952Z</time>
      </trkpt>
      <trkpt lat="48.50187" lon="12.17389">
        <ele>482.468447</ele>
        <time>2023-07-14T07:24:19.969Z</time>
      </trkpt>
      <trkpt lat="48.50185" lon="12.17402">
        <ele>482.624108</ele>
        <time>2023-07-14T07:24:22.948Z</time>
      </trkpt>
      <trkpt lat="48.50182" lon="12.17416">
        <ele>482.787206</ele>
        <time>2023-07-14T07:24:25.961Z</time>
      </trkpt>
      <trkpt lat="48.50178" lon="12.1743">
        <ele>482.958631</ele>
        <time>2023-07-14T07:24:28.954Z</time>
      </trkpt>
      <trkpt lat="48.50174" lon="12.17443">
        <ele>483.121313</ele>
        <time>2023-07-14T07:24:31.958Z</time>
      </trkpt>
      <trkpt lat="48.5017" lon="12.17456">
        <ele>483.283783</ele>
        <time>2023-07-14T07:24:34.946Z</time>
      </trkpt>
      <trkpt lat="48.50165" lon="12.1747">
        <ele>483.453596</ele>
        <time>2023-07-14T07:24:37.948Z</time>
      </trkpt>
      <trkpt lat="48.5016" lon="12.17483">
        <ele>483.654853</ele>
        <time>2023-07-14T07:24:40.958Z</time>
      </trkpt>
      <trkpt lat="48.50155" lon="12.17496">
        <ele>484.012402</ele>
        <time>2023-07-14T07:24:43.948Z</time>
      </trkpt>
      <trkpt lat="48.50149" lon="12.17509">
        <ele>484.377689</ele>
        <time>2023-07-14T07:24:46.944Z</time>
      </trkpt>
      <trkpt lat="48.50144" lon="12.17521">
        <ele>484.719144</ele>
        <time>2023-07-14T07:24:49.965Z</time>
      </trkpt>
      <trkpt lat="48.50138" lon="12.17533">
        <ele>485.084413</ele>
        <time>2023-07-14T07:24:52.962Z</time>
      </trkpt>
      <trkpt lat="48.50132" lon="12.17545">
        <ele>485.437963</ele>
        <time>2023-07-14T07:24:55.955Z</time>
      </trkpt>
      <trkpt lat="48.50127" lon="12.17559">
        <ele>485.825075</ele>
        <time>2023-07-14T07:24:58.950Z</time>
      </trkpt>
      <trkpt lat="48.50121" lon="12.17574">
        <ele>486.238659</ele>
        <time>2023-07-14T07:25:01.970Z</time>
      </trkpt>
      <trkpt lat="48.50115" lon="12.17589">
        <ele>486.655754</ele>
        <time>2023-07-14T07:25:04.927Z</time>
      </trkpt>
      <trkpt lat="48.50108" lon="12.17604">
        <ele>487.072664</ele>
        <time>2023-07-14T07:25:07.953Z</time>
      </trkpt>
      <trkpt lat="48.50103" lon="12.17618">
        <ele>487.45821</ele>
        <time>2023-07-14T07:25:10.946Z</time>
      </trkpt>
      <trkpt lat="48.50097" lon="12.17631">
        <ele>487.843412</ele>
        <time>2023-07-14T07:25:13.947Z</time>
      </trkpt>
      <trkpt lat="48.50091" lon="12.17645">
        <ele>488.234719</ele>
        <time>2023-07-14T07:25:16.962Z</time>
      </trkpt>
      <trkpt lat="48.50084" lon="12.17659">
        <ele>488.653649</ele>
        <time>2023-07-14T07:25:19.970Z</time>
      </trkpt>
      <trkpt lat="48.50079" lon="12.17673">
        <ele>489.042931</ele>
        <time>2023-07-14T07:25:22.952Z</time>
      </trkpt>
      <trkpt lat="48.50072" lon="12.17688">
        <ele>489.453878</ele>
        <time>2023-07-14T07:25:25.951Z</time>
      </trkpt>
      <trkpt lat="48.50065" lon="12.17701">
        <ele>489.867485</ele>
        <time>2023-07-14T07:25:28.972Z</time>
      </trkpt>
      <trkpt lat="48.50059" lon="12.17715">
        <ele>490.391556</ele>
        <time>2023-07-14T07:25:31.956Z</time>
      </trkpt>
      <trkpt lat="48.50052" lon="12.17727">
        <ele>491.058051</ele>
        <time>2023-07-14T07:25:34.929Z</time>
      </trkpt>
      <trkpt lat="48.50046" lon="12.17739">
        <ele>491.677616</ele>
        <time>2023-07-14T07:25:37.956Z</time>
      </trkpt>
      <trkpt lat="48.50039" lon="12.17749">
        <ele>492.284963</ele>
        <time>2023-07-14T07:25:40.950Z</time>
      </trkpt>
      <trkpt lat="48.50032" lon="12.1776">
        <ele>492.893632</ele>
        <time>2023-07-14T07:25:43.953Z</time>
      </trkpt>
      <trkpt lat="48.50025" lon="12.17769">
        <ele>493.467768</ele>
        <time>2023-07-14T07:25:46.967Z</time>
      </trkpt>
      <trkpt lat="48.50018" lon="12.17778">
        <ele>494.054345</ele>
        <time>2023-07-14T07:25:49.973Z</time>
      </trkpt>
      <trkpt lat="48.50011" lon="12.17787">
        <ele>494.625892</ele>
        <time>2023-07-14T07:25:52.943Z</time>
      </trkpt>
      <trkpt lat="48.50001" lon="12.17796">
        <ele>495.333921</ele>
        <time>2023-07-14T07:25:56.953Z</time>
      </trkpt>
      <trkpt lat="48.49992" lon="12.17804">
        <ele>495.974701</ele>
        <time>2023-07-14T07:26:00.972Z</time>
      </trkpt>
      <trkpt lat="48.49983" lon="12.1781">
        <ele>496.590241</ele>
        <time>2023-07-14T07:26:04.959Z</time>
      </trkpt>
      <trkpt lat="48.49974" lon="12.17817">
        <ele>497.224924</ele>
        <time>2023-07-14T07:26:08.948Z</time>
      </trkpt>
      <trkpt lat="48.49965" lon="12.17822">
        <ele>497.827933</ele>
        <time>2023-07-14T07:26:12.952Z</time>
      </trkpt>
      <trkpt lat="48.49956" lon="12.17827">
        <ele>498.426767</ele>
        <time>2023-07-14T07:26:16.946Z</time>
      </trkpt>
      <trkpt lat="48.49945" lon="12.1783">
        <ele>499.101473</ele>
        <time>2023-07-14T07:26:21.960Z</time>
      </trkpt>
      <trkpt lat="48.49936" lon="12.17834">
        <ele>499.729445</ele>
        <time>2023-07-14T07:26:26.965Z</time>
      </trkpt>
      <trkpt lat="48.49926" lon="12.17836">
        <ele>500.334</ele>
        <time>2023-07-14T07:26:31.960Z</time>
      </trkpt>
      <trkpt lat="48.49916" lon="12.17838">
        <ele>500.96935</ele>
        <time>2023-07-14T07:26:36.961Z</time>
      </trkpt>
      <trkpt lat="48.49906" lon="12.17838">
        <ele>501.666404</ele>
        <time>2023-07-14T07:26:41.975Z</time>
      </trkpt>
      <trkpt lat="48.49895" lon="12.17838">
        <ele>502.40832</ele>
        <time>2023-07-14T07:26:46.952Z</time>
      </trkpt>
      <trkpt lat="48.49885" lon="12.17838">
        <ele>503.114567</ele>
        <time>2023-07-14T07:26:51.946Z</time>
      </trkpt>
      <trkpt lat="48.49875" lon="12.17836">
        <ele>503.826487</ele>
        <time>2023-07-14T07:26:56.953Z</time>
      </trkpt>
      <trkpt lat="48.49865" lon="12.17834">
        <ele>504.549575</ele>
        <time>2023-07-14T07:27:01.942Z</time>
      </trkpt>
      <trkpt lat="48.49855" lon="12.1783">
        <ele>505.303791</ele>
        <time>2023-07-14T07:27:06.925Z</time>
      </trkpt>
      <trkpt lat="48.49845" lon="12.17826">
        <ele>506.034535</ele>
        <time>2023-07-14T07:27:11.963Z</time>
      </trkpt>
      <trkpt lat="48.49835" lon="12.17821">
        <ele>506.799592</ele>
        <time>2023-07-14T07:27:16.959Z</time>
      </trkpt>
      <trkpt lat="48.49826" lon="12.17815">
        <ele>507.534245</ele>
        <time>2023-07-14T07:27:21.956Z</time>
      </trkpt>
      <trkpt lat="48.49816" lon="12.17809">
        <ele>508.281026</ele>
        <time>2023-07-14T07:27:26.966Z</time>
      </trkpt>
      <trkpt lat="48.49806" lon="12.17801">
        <ele>509.050285</ele>
        <time>2023-07-14T07:27:31.954Z</time>
      </trkpt>
      <trkpt lat="48.49797" lon="12.17793">
        <ele>509.793022</ele>
        <time>2023-07-14T07:27:36.946Z</time>
      </trkpt>
      <trkpt lat="48.49788" lon="12.17784">
        <ele>510.555475</ele>
        <time>2023-07-14T07:27:41.949Z</time>
      </trkpt>
      <trkpt lat="48.4978" lon="12.17777">
        <ele>511.256593</ele>
        <time>2023-07-14T07:27:46.946Z</time>
      </trkpt>
      <trkpt lat="48.4977" lon="12.17769">
        <ele>512.032663</ele>
        <time>2023-07-14T07:27:51.945Z</time>
      </trkpt>
      <trkpt lat="48.49762" lon="12.17761">
        <ele>512.761902</ele>
        <time>2023-07-14T07:27:56.953Z</time>
      </trkpt>
      <trkpt lat="48.49753" lon="12.17753">
        <ele>513.510744</ele>
        <time>2023-07-14T07:28:01.945Z</time>
      </trkpt>
      <trkpt lat="48.49745" lon="12.17745">
        <ele>514.146173</ele>
        <time>2023-07-14T07:28:06.964Z</time>
      </trkpt>
      <trkpt lat="48.49737" lon="12.17738">
        <ele>514.446591</ele>
        <time>2023-07-14T07:28:12.941Z</time>
      </trkpt>
      <trkpt lat="48.49729" lon="12.1773">
        <ele>514.75891</ele>
        <time>2023-07-14T07:29:23.940Z</time>
      </trkpt>
      <trkpt lat="48.49721" lon="12.17723">
        <ele>515.05801</ele>
        <time>2023-07-14T07:29:27.961Z</time>
      </trkpt>
      <trkpt lat="48.49711" lon="12.17718">
        <ele>515.405763</ele>
        <time>2023-07-14T07:29:31.949Z</time>
      </trkpt>
      <trkpt lat="48.49699" lon="12.17713">
        <ele>515.795948</ele>
        <time>2023-07-14T07:29:35.951Z</time>
      </trkpt>
      <trkpt lat="48.4969" lon="12.17711">
        <ele>516.114579</ele>
        <time>2023-07-14T07:29:38.952Z</time>
      </trkpt>
      <trkpt lat="48.4968" lon="12.17711">
        <ele>516.430856</ele>
        <time>2023-07-14T07:29:41.975Z</time>
      </trkpt>
      <trkpt lat="48.4967" lon="12.17712">
        <ele>516.745302</ele>
        <time>2023-07-14T07:29:44.949Z</time>
      </trkpt>
      <trkpt lat="48.49661" lon="12.17716">
        <ele>517.063622</ele>
        <time>2023-07-14T07:29:47.936Z</time>
      </trkpt>
      <trkpt lat="48.49651" lon="12.17718">
        <ele>517.391713</ele>
        <time>2023-07-14T07:29:50.959Z</time>
      </trkpt>
      <trkpt lat="48.49641" lon="12.17719">
        <ele>517.706604</ele>
        <time>2023-07-14T07:29:53.951Z</time>
      </trkpt>
      <trkpt lat="48.49631" lon="12.17721">
        <ele>518.031973</ele>
        <time>2023-07-14T07:29:56.948Z</time>
      </trkpt>
      <trkpt lat="48.49622" lon="12.17721">
        <ele>518.335303</ele>
        <time>2023-07-14T07:29:59.950Z</time>
      </trkpt>
      <trkpt lat="48.4961" lon="12.17718">
        <ele>518.724745</ele>
        <time>2023-07-14T07:30:03.949Z</time>
      </trkpt>
      <trkpt lat="48.49601" lon="12.17716">
        <ele>519.017226</ele>
        <time>2023-07-14T07:30:06.956Z</time>
      </trkpt>
      <trkpt lat="48.4959" lon="12.17713">
        <ele>519.379261</ele>
        <time>2023-07-14T07:30:10.961Z</time>
      </trkpt>
      <trkpt lat="48.4958" lon="12.17712">
        <ele>519.719677</ele>
        <time>2023-07-14T07:30:14.958Z</time>
      </trkpt>
      <trkpt lat="48.49569" lon="12.17711">
        <ele>520.018784</ele>
        <time>2023-07-14T07:30:19.958Z</time>
      </trkpt>
      <trkpt lat="48.4956" lon="12.17711">
        <ele>520.151225</ele>
        <time>2023-07-14T07:30:23.961Z</time>
      </trkpt>
      <trkpt lat="48.4955" lon="12.17713">
        <ele>520.299784</ele>
        <time>2023-07-14T07:30:27.955Z</time>
      </trkpt>
      <trkpt lat="48.4954" lon="12.17715">
        <ele>520.441447</ele>
        <time>2023-07-14T07:30:31.959Z</time>
      </trkpt>
      <trkpt lat="48.49529" lon="12.17717">
        <ele>520.615753</ele>
        <time>2023-07-14T07:30:35.956Z</time>
      </trkpt>
      <trkpt lat="48.49519" lon="12.1772">
        <ele>520.762889</ele>
        <time>2023-07-14T07:30:38.951Z</time>
      </trkpt>
      <trkpt lat="48.4951" lon="12.17721">
        <ele>520.895546</ele>
        <time>2023-07-14T07:30:41.054Z</time>
      </trkpt>
      <trkpt lat="48.495" lon="12.17724">
        <ele>521.040178</ele>
        <time>2023-07-14T07:30:42.954Z</time>
      </trkpt>
      <trkpt lat="48.4949" lon="12.17726">
        <ele>521.198355</ele>
        <time>2023-07-14T07:30:44.943Z</time>
      </trkpt>
      <trkpt lat="48.49479" lon="12.17728">
        <ele>521.363084</ele>
        <time>2023-07-14T07:30:46.954Z</time>
      </trkpt>
      <trkpt lat="48.49466" lon="12.17732">
        <ele>521.547822</ele>
        <time>2023-07-14T07:30:48.942Z</time>
      </trkpt>
      <trkpt lat="48.49454" lon="12.17739">
        <ele>521.734773</ele>
        <time>2023-07-14T07:30:50.953Z</time>
      </trkpt>
      <trkpt lat="48.49442" lon="12.17748">
        <ele>521.934578</ele>
        <time>2023-07-14T07:30:52.953Z</time>
      </trkpt>
      <trkpt lat="48.4943" lon="12.17757">
        <ele>522.13267</ele>
        <time>2023-07-14T07:30:54.947Z</time>
      </trkpt>
      <trkpt lat="48.4942" lon="12.17766">
        <ele>522.311158</ele>
        <time>2023-07-14T07:30:56.956Z</time>
      </trkpt>
      <trkpt lat="48.49411" lon="12.17775">
        <ele>522.467903</ele>
        <time>2023-07-14T07:30:58.950Z</time>
      </trkpt>
      <trkpt lat="48.49403" lon="12.17784">
        <ele>522.61473</ele>
        <time>2023-07-14T07:31:00.950Z</time>
      </trkpt>
      <trkpt lat="48.49393" lon="12.17797">
        <ele>523.198703</ele>
        <time>2023-07-14T07:31:03.963Z</time>
      </trkpt>
      <trkpt lat="48.49385" lon="12.17809">
        <ele>523.756658</ele>
        <time>2023-07-14T07:31:06.977Z</time>
      </trkpt>
      <trkpt lat="48.49378" lon="12.17821">
        <ele>524.246844</ele>
        <time>2023-07-14T07:31:09.958Z</time>
      </trkpt>
      <trkpt lat="48.49372" lon="12.17834">
        <ele>524.741957</ele>
        <time>2023-07-14T07:31:12.959Z</time>
      </trkpt>
      <trkpt lat="48.49366" lon="12.17847">
        <ele>525.210903</ele>
        <time>2023-07-14T07:31:15.954Z</time>
      </trkpt>
      <trkpt lat="48.4936" lon="12.17862">
        <ele>525.741584</ele>
        <time>2023-07-14T07:31:19.965Z</time>
      </trkpt>
      <trkpt lat="48.49355" lon="12.17876">
        <ele>526.245562</ele>
        <time>2023-07-14T07:31:23.932Z</time>
      </trkpt>
      <trkpt lat="48.49351" lon="12.17889">
        <ele>526.697247</ele>
        <time>2023-07-14T07:31:27.946Z</time>
      </trkpt>
      <trkpt lat="48.49348" lon="12.17903">
        <ele>527.156359</ele>
        <time>2023-07-14T07:31:31.976Z</time>
      </trkpt>
      <trkpt lat="48.49345" lon="12.17918">
        <ele>527.620039</ele>
        <time>2023-07-14T07:31:35.945Z</time>
      </trkpt>
      <trkpt lat="48.49342" lon="12.17932">
        <ele>528.072828</ele>
        <time>2023-07-14T07:31:39.954Z</time>
      </trkpt>
      <trkpt lat="48.4934" lon="12.17947">
        <ele>528.542516</ele>
        <time>2023-07-14T07:31:43.964Z</time>
      </trkpt>
      <trkpt lat="48.49338" lon="12.17962">
        <ele>529.021233</ele>
        <time>2023-07-14T07:31:48.946Z</time>
      </trkpt>
      <trkpt lat="48.49336" lon="12.17976">
        <ele>529.474003</ele>
        <time>2023-07-14T07:31:53.956Z</time>
      </trkpt>
      <trkpt lat="48.49334" lon="12.17991">
        <ele>529.931618</ele>
        <time>2023-07-14T07:31:58.951Z</time>
      </trkpt>
      <trkpt lat="48.49332" lon="12.18006">
        <ele>530.407902</ele>
        <time>2023-07-14T07:32:03.954Z</time>
      </trkpt>
      <trkpt lat="48.4933" lon="12.18021">
        <ele>530.868543</ele>
        <time>2023-07-14T07:32:08.940Z</time>
      </trkpt>
      <trkpt lat="48.49329" lon="12.18036">
        <ele>531.260582</ele>
        <time>2023-07-14T07:32:13.936Z</time>
      </trkpt>
      <trkpt lat="48.49327" lon="12.1805">
        <ele>531.569973</ele>
        <time>2023-07-14T07:32:17.966Z</time>
      </trkpt>
      <trkpt lat="48.49326" lon="12.18064">
        <ele>531.879854</ele>
        <time>2023-07-14T07:32:21.955Z</time>
      </trkpt>
      <trkpt lat="48.49325" lon="12.1808">
        <ele>532.233033</ele>
        <time>2023-07-14T07:32:26.949Z</time>
      </trkpt>
      <trkpt lat="48.49324" lon="12.18096">
        <ele>532.588634</ele>
        <time>2023-07-14T07:32:31.950Z</time>
      </trkpt>
      <trkpt lat="48.49322" lon="12.1811">
        <ele>532.908694</ele>
        <time>2023-07-14T07:32:35.947Z</time>
      </trkpt>
      <trkpt lat="48.4932" lon="12.18126">
        <ele>533.275737</ele>
        <time>2023-07-14T07:32:39.955Z</time>
      </trkpt>
      <trkpt lat="48.49318" lon="12.18139">
        <ele>533.577385</ele>
        <time>2023-07-14T07:32:42.952Z</time>
      </trkpt>
      <trkpt lat="48.49316" lon="12.18157">
        <ele>533.973194</ele>
        <time>2023-07-14T07:32:46.944Z</time>
      </trkpt>
      <trkpt lat="48.49315" lon="12.18172">
        <ele>534.304153</ele>
        <time>2023-07-14T07:32:49.950Z</time>
      </trkpt>
      <trkpt lat="48.49313" lon="12.18185">
        <ele>534.614834</ele>
        <time>2023-07-14T07:32:52.965Z</time>
      </trkpt>
      <trkpt lat="48.4931" lon="12.182">
        <ele>534.943682</ele>
        <time>2023-07-14T07:32:55.957Z</time>
      </trkpt>
      <trkpt lat="48.49308" lon="12.18214">
        <ele>535.274099</ele>
        <time>2023-07-14T07:32:58.948Z</time>
      </trkpt>
      <trkpt lat="48.49305" lon="12.18228">
        <ele>535.59508</ele>
        <time>2023-07-14T07:33:01.930Z</time>
      </trkpt>
      <trkpt lat="48.49303" lon="12.18242">
        <ele>535.926362</ele>
        <time>2023-07-14T07:33:04.950Z</time>
      </trkpt>
      <trkpt lat="48.49299" lon="12.18256">
        <ele>536.257324</ele>
        <time>2023-07-14T07:33:07.958Z</time>
      </trkpt>
      <trkpt lat="48.49295" lon="12.1827">
        <ele>536.602188</ele>
        <time>2023-07-14T07:33:10.954Z</time>
      </trkpt>
      <trkpt lat="48.4929" lon="12.18283">
        <ele>536.929706</ele>
        <time>2023-07-14T07:33:13.947Z</time>
      </trkpt>
      <trkpt lat="48.49287" lon="12.18297">
        <ele>537.246306</ele>
        <time>2023-07-14T07:33:16.949Z</time>
      </trkpt>
      <trkpt lat="48.49282" lon="12.1831">
        <ele>537.56794</ele>
        <time>2023-07-14T07:33:19.950Z</time>
      </trkpt>
      <trkpt lat="48.49278" lon="12.18323">
        <ele>537.882809</ele>
        <time>2023-07-14T07:33:22.936Z</time>
      </trkpt>
      <trkpt lat="48.49274" lon="12.18337">
        <ele>538.215586</ele>
        <time>2023-07-14T07:33:25.954Z</time>
      </trkpt>
      <trkpt lat="48.4927" lon="12.18351">
        <ele>538.543391</ele>
        <time>2023-07-14T07:33:28.957Z</time>
      </trkpt>
      <trkpt lat="48.49265" lon="12.18367">
        <ele>538.923648</ele>
        <time>2023-07-14T07:33:32.953Z</time>
      </trkpt>
      <trkpt lat="48.49261" lon="12.18379">
        <ele>539.218156</ele>
        <time>2023-07-14T07:33:35.959Z</time>
      </trkpt>
      <trkpt lat="48.49255" lon="12.18395">
        <ele>539.598576</ele>
        <time>2023-07-14T07:33:39.954Z</time>
      </trkpt>
      <trkpt lat="48.49252" lon="12.18407">
        <ele>539.896766</ele>
        <time>2023-07-14T07:33:42.969Z</time>
      </trkpt>
      <trkpt lat="48.49247" lon="12.18419">
        <ele>540.194845</ele>
        <time>2023-07-14T07:33:45.966Z</time>
      </trkpt>
      <trkpt lat="48.49242" lon="12.18434">
        <ele>540.560739</ele>
        <time>2023-07-14T07:33:49.938Z</time>
      </trkpt>
      <trkpt lat="48.49238" lon="12.18451">
        <ele>540.94277</ele>
        <time>2023-07-14T07:33:53.948Z</time>
      </trkpt>
      <trkpt lat="48.49234" lon="12.18464">
        <ele>541.250197</ele>
        <time>2023-07-14T07:33:56.967Z</time>
      </trkpt>
      <trkpt lat="48.4923" lon="12.18476">
        <ele>541.554193</ele>
        <time>2023-07-14T07:33:59.953Z</time>
      </trkpt>
      <trkpt lat="48.49225" lon="12.18488">
        <ele>541.857897</ele>
        <time>2023-07-14T07:34:02.962Z</time>
      </trkpt>
      <trkpt lat="48.49221" lon="12.18501">
        <ele>542.16272</ele>
        <time>2023-07-14T07:34:05.965Z</time>
      </trkpt>
      <trkpt lat="48.49217" lon="12.18514">
        <ele>542.466965</ele>
        <time>2023-07-14T07:34:08.956Z</time>
      </trkpt>
      <trkpt lat="48.49213" lon="12.18527">
        <ele>542.784305</ele>
        <time>2023-07-14T07:34:11.958Z</time>
      </trkpt>
      <trkpt lat="48.49209" lon="12.1854">
        <ele>542.864725</ele>
        <time>2023-07-14T07:34:14.954Z</time>
      </trkpt>
      <trkpt lat="48.49203" lon="12.18556">
        <ele>542.793033</ele>
        <time>2023-07-14T07:34:18.947Z</time>
      </trkpt>
      <trkpt lat="48.49198" lon="12.18571">
        <ele>542.724408</ele>
        <time>2023-07-14T07:34:22.970Z</time>
      </trkpt>
      <trkpt lat="48.49195" lon="12.18583">
        <ele>542.669126</ele>
        <time>2023-07-14T07:34:25.954Z</time>
      </trkpt>
      <trkpt lat="48.49191" lon="12.18596">
        <ele>542.61376</ele>
        <time>2023-07-14T07:34:28.949Z</time>
      </trkpt>
      <trkpt lat="48.49186" lon="12.18611">
        <ele>542.545354</ele>
        <time>2023-07-14T07:34:32.955Z</time>
      </trkpt>
      <trkpt lat="48.49181" lon="12.18623">
        <ele>542.488397</ele>
        <time>2023-07-14T07:34:35.965Z</time>
      </trkpt>
      <trkpt lat="48.49176" lon="12.18635">
        <ele>542.431559</ele>
        <time>2023-07-14T07:34:38.949Z</time>
      </trkpt>
      <trkpt lat="48.49172" lon="12.18648">
        <ele>542.370576</ele>
        <time>2023-07-14T07:34:41.952Z</time>
      </trkpt>
      <trkpt lat="48.49166" lon="12.18661">
        <ele>542.308578</ele>
        <time>2023-07-14T07:34:44.956Z</time>
      </trkpt>
      <trkpt lat="48.4916" lon="12.18675">
        <ele>542.242551</ele>
        <time>2023-07-14T07:34:47.962Z</time>
      </trkpt>
      <trkpt lat="48.49155" lon="12.18688">
        <ele>542.179145</ele>
        <time>2023-07-14T07:34:50.949Z</time>
      </trkpt>
      <trkpt lat="48.49149" lon="12.18702">
        <ele>542.113755</ele>
        <time>2023-07-14T07:34:53.945Z</time>
      </trkpt>
      <trkpt lat="48.49143" lon="12.18717">
        <ele>542.043616</ele>
        <time>2023-07-14T07:34:56.949Z</time>
      </trkpt>
      <trkpt lat="48.49137" lon="12.18732">
        <ele>541.972154</ele>
        <time>2023-07-14T07:34:59.962Z</time>
      </trkpt>
      <trkpt lat="48.49131" lon="12.18748">
        <ele>541.898612</ele>
        <time>2023-07-14T07:35:02.956Z</time>
      </trkpt>
      <trkpt lat="48.49125" lon="12.18764">
        <ele>541.824411</ele>
        <time>2023-07-14T07:35:05.963Z</time>
      </trkpt>
      <trkpt lat="48.49119" lon="12.18776">
        <ele>541.739211</ele>
        <time>2023-07-14T07:35:07.961Z</time>
      </trkpt>
      <trkpt lat="48.49114" lon="12.18788">
        <ele>541.641841</ele>
        <time>2023-07-14T07:35:09.961Z</time>
      </trkpt>
      <trkpt lat="48.4911" lon="12.188">
        <ele>541.54355</ele>
        <time>2023-07-14T07:35:11.967Z</time>
      </trkpt>
      <trkpt lat="48.49103" lon="12.18816">
        <ele>541.415046</ele>
        <time>2023-07-14T07:35:14.966Z</time>
      </trkpt>
      <trkpt lat="48.49097" lon="12.1883">
        <ele>541.302392</ele>
        <time>2023-07-14T07:35:17.952Z</time>
      </trkpt>
      <trkpt lat="48.49092" lon="12.18842">
        <ele>541.206381</ele>
        <time>2023-07-14T07:35:21.954Z</time>
      </trkpt>
      <trkpt lat="48.49085" lon="12.18856">
        <ele>541.092382</ele>
        <time>2023-07-14T07:35:25.959Z</time>
      </trkpt>
      <trkpt lat="48.4908" lon="12.18872">
        <ele>540.969017</ele>
        <time>2023-07-14T07:35:29.963Z</time>
      </trkpt>
      <trkpt lat="48.49076" lon="12.18885">
        <ele>540.871831</ele>
        <time>2023-07-14T07:35:33.950Z</time>
      </trkpt>
      <trkpt lat="48.4907" lon="12.18897">
        <ele>540.770095</ele>
        <time>2023-07-14T07:35:39.947Z</time>
      </trkpt>
      <trkpt lat="48.49065" lon="12.18909">
        <ele>540.672048</ele>
        <time>2023-07-14T07:35:43.945Z</time>
      </trkpt>
      <trkpt lat="48.4906" lon="12.18921">
        <ele>540.571841</ele>
        <time>2023-07-14T07:35:47.949Z</time>
      </trkpt>
      <trkpt lat="48.49056" lon="12.18937">
        <ele>540.461018</ele>
        <time>2023-07-14T07:35:51.940Z</time>
      </trkpt>
      <trkpt lat="48.49051" lon="12.18951">
        <ele>540.352761</ele>
        <time>2023-07-14T07:35:55.958Z</time>
      </trkpt>
      <trkpt lat="48.49047" lon="12.18967">
        <ele>540.237894</ele>
        <time>2023-07-14T07:35:59.931Z</time>
      </trkpt>
      <trkpt lat="48.49041" lon="12.18982">
        <ele>540.118002</ele>
        <time>2023-07-14T07:36:03.954Z</time>
      </trkpt>
      <trkpt lat="48.49039" lon="12.18998">
        <ele>540.009019</ele>
        <time>2023-07-14T07:36:07.951Z</time>
      </trkpt>
      <trkpt lat="48.49037" lon="12.19012">
        <ele>539.869634</ele>
        <time>2023-07-14T07:36:11.956Z</time>
      </trkpt>
      <trkpt lat="48.49034" lon="12.19025">
        <ele>539.697341</ele>
        <time>2023-07-14T07:36:15.953Z</time>
      </trkpt>
      <trkpt lat="48.49029" lon="12.19038">
        <ele>539.515382</ele>
        <time>2023-07-14T07:36:21.947Z</time>
      </trkpt>
      <trkpt lat="48.49018" lon="12.19042">
        <ele>539.321656</ele>
        <time>2023-07-14T07:36:31.959Z</time>
      </trkpt>
      <trkpt lat="48.49027" lon="12.19035">
        <ele>539.150875</ele>
        <time>2023-07-14T07:36:48.944Z</time>
      </trkpt>
      <trkpt lat="48.49026" lon="12.19052">
        <ele>538.946242</ele>
        <time>2023-07-14T07:37:11.939Z</time>
      </trkpt>
      <trkpt lat="48.49028" lon="12.1907">
        <ele>538.725763</ele>
        <time>2023-07-14T07:37:15.945Z</time>
      </trkpt>
      <trkpt lat="48.49029" lon="12.19084">
        <ele>538.555618</ele>
        <time>2023-07-14T07:37:18.951Z</time>
      </trkpt>
      <trkpt lat="48.49028" lon="12.191">
        <ele>538.359113</ele>
        <time>2023-07-14T07:37:21.955Z</time>
      </trkpt>
      <trkpt lat="48.49028" lon="12.19118">
        <ele>538.140138</ele>
        <time>2023-07-14T07:37:24.959Z</time>
      </trkpt>
      <trkpt lat="48.49028" lon="12.19132">
        <ele>537.971641</ele>
        <time>2023-07-14T07:37:26.972Z</time>
      </trkpt>
      <trkpt lat="48.49029" lon="12.19147">
        <ele>537.791862</ele>
        <time>2023-07-14T07:37:28.953Z</time>
      </trkpt>
      <trkpt lat="48.49031" lon="12.19162">
        <ele>537.609559</ele>
        <time>2023-07-14T07:37:30.955Z</time>
      </trkpt>
      <trkpt lat="48.49032" lon="12.19177">
        <ele>537.420076</ele>
        <time>2023-07-14T07:37:32.965Z</time>
      </trkpt>
      <trkpt lat="48.49034" lon="12.19193">
        <ele>537.227519</ele>
        <time>2023-07-14T07:37:34.954Z</time>
      </trkpt>
      <trkpt lat="48.49037" lon="12.19209">
        <ele>537.026173</ele>
        <time>2023-07-14T07:37:36.929Z</time>
      </trkpt>
      <trkpt lat="48.49041" lon="12.19226">
        <ele>536.812589</ele>
        <time>2023-07-14T07:37:38.956Z</time>
      </trkpt>
      <trkpt lat="48.49045" lon="12.19242">
        <ele>536.555074</ele>
        <time>2023-07-14T07:37:40.954Z</time>
      </trkpt>
      <trkpt lat="48.4905" lon="12.19259">
        <ele>536.241396</ele>
        <time>2023-07-14T07:37:42.948Z</time>
      </trkpt>
      <trkpt lat="48.49055" lon="12.19275">
        <ele>535.925586</ele>
        <time>2023-07-14T07:37:44.959Z</time>
      </trkpt>
      <trkpt lat="48.4906" lon="12.19291">
        <ele>535.610464</ele>
        <time>2023-07-14T07:37:46.963Z</time>
      </trkpt>
      <trkpt lat="48.49066" lon="12.19307">
        <ele>535.280334</ele>
        <time>2023-07-14T07:37:48.951Z</time>
      </trkpt>
      <trkpt lat="48.49072" lon="12.19323">
        <ele>534.951979</ele>
        <time>2023-07-14T07:37:50.950Z</time>
      </trkpt>
      <trkpt lat="48.49078" lon="12.19339">
        <ele>534.626871</ele>
        <time>2023-07-14T07:37:52.965Z</time>
      </trkpt>
      <trkpt lat="48.49084" lon="12.19355">
        <ele>534.307695</ele>
        <time>2023-07-14T07:37:54.972Z</time>
      </trkpt>
      <trkpt lat="48.4909" lon="12.1937">
        <ele>533.985278</ele>
        <time>2023-07-14T07:37:56.954Z</time>
      </trkpt>
      <trkpt lat="48.49096" lon="12.19386">
        <ele>533.671424</ele>
        <time>2023-07-14T07:37:58.969Z</time>
      </trkpt>
      <trkpt lat="48.49102" lon="12.19402">
        <ele>533.340537</ele>
        <time>2023-07-14T07:38:00.956Z</time>
      </trkpt>
      <trkpt lat="48.49109" lon="12.19418">
        <ele>533.008359</ele>
        <time>2023-07-14T07:38:02.949Z</time>
      </trkpt>
      <trkpt lat="48.49115" lon="12.19434">
        <ele>532.675605</ele>
        <time>2023-07-14T07:38:04.958Z</time>
      </trkpt>
      <trkpt lat="48.49122" lon="12.19451">
        <ele>532.339983</ele>
        <time>2023-07-14T07:38:06.933Z</time>
      </trkpt>
      <trkpt lat="48.49128" lon="12.19466">
        <ele>532.009216</ele>
        <time>2023-07-14T07:38:08.954Z</time>
      </trkpt>
      <trkpt lat="48.49135" lon="12.19484">
        <ele>531.706275</ele>
        <time>2023-07-14T07:38:10.953Z</time>
      </trkpt>
      <trkpt lat="48.49141" lon="12.19503">
        <ele>531.425954</ele>
        <time>2023-07-14T07:38:12.957Z</time>
      </trkpt>
      <trkpt lat="48.49148" lon="12.19521">
        <ele>531.145383</ele>
        <time>2023-07-14T07:38:14.967Z</time>
      </trkpt>
      <trkpt lat="48.49154" lon="12.19539">
        <ele>530.867837</ele>
        <time>2023-07-14T07:38:16.946Z</time>
      </trkpt>
      <trkpt lat="48.4916" lon="12.19559">
        <ele>530.583988</ele>
        <time>2023-07-14T07:38:18.947Z</time>
      </trkpt>
      <trkpt lat="48.49166" lon="12.19578">
        <ele>530.305143</ele>
        <time>2023-07-14T07:38:20.962Z</time>
      </trkpt>
      <trkpt lat="48.49171" lon="12.19597">
        <ele>530.03033</ele>
        <time>2023-07-14T07:38:22.956Z</time>
      </trkpt>
      <trkpt lat="48.49176" lon="12.19615">
        <ele>529.769936</ele>
        <time>2023-07-14T07:38:24.959Z</time>
      </trkpt>
      <trkpt lat="48.4918" lon="12.19634">
        <ele>529.502284</ele>
        <time>2023-07-14T07:38:26.960Z</time>
      </trkpt>
      <trkpt lat="48.49184" lon="12.19653">
        <ele>529.242212</ele>
        <time>2023-07-14T07:38:28.970Z</time>
      </trkpt>
      <trkpt lat="48.49187" lon="12.19671">
        <ele>528.985241</ele>
        <time>2023-07-14T07:38:30.952Z</time>
      </trkpt>
      <trkpt lat="48.4919" lon="12.1969">
        <ele>528.726483</ele>
        <time>2023-07-14T07:38:32.964Z</time>
      </trkpt>
      <trkpt lat="48.49193" lon="12.19709">
        <ele>528.477232</ele>
        <time>2023-07-14T07:38:34.960Z</time>
      </trkpt>
      <trkpt lat="48.49195" lon="12.19727">
        <ele>528.235528</ele>
        <time>2023-07-14T07:38:36.979Z</time>
      </trkpt>
      <trkpt lat="48.49197" lon="12.19746">
        <ele>528.049402</ele>
        <time>2023-07-14T07:38:38.953Z</time>
      </trkpt>
      <trkpt lat="48.49199" lon="12.19766">
        <ele>527.860367</ele>
        <time>2023-07-14T07:38:40.936Z</time>
      </trkpt>
      <trkpt lat="48.492" lon="12.19786">
        <ele>527.67356</ele>
        <time>2023-07-14T07:38:42.965Z</time>
      </trkpt>
      <trkpt lat="48.492" lon="12.19805">
        <ele>527.493562</ele>
        <time>2023-07-14T07:38:44.969Z</time>
      </trkpt>
      <trkpt lat="48.492" lon="12.19824">
        <ele>527.313525</ele>
        <time>2023-07-14T07:38:46.951Z</time>
      </trkpt>
      <trkpt lat="48.49201" lon="12.19843">
        <ele>527.140027</ele>
        <time>2023-07-14T07:38:48.953Z</time>
      </trkpt>
      <trkpt lat="48.49201" lon="12.19861">
        <ele>526.966669</ele>
        <time>2023-07-14T07:38:50.957Z</time>
      </trkpt>
      <trkpt lat="48.492" lon="12.19879">
        <ele>526.800635</ele>
        <time>2023-07-14T07:38:52.951Z</time>
      </trkpt>
      <trkpt lat="48.49199" lon="12.19896">
        <ele>526.63443</ele>
        <time>2023-07-14T07:38:54.966Z</time>
      </trkpt>
      <trkpt lat="48.49199" lon="12.19913">
        <ele>526.479816</ele>
        <time>2023-07-14T07:38:56.969Z</time>
      </trkpt>
      <trkpt lat="48.49198" lon="12.19929">
        <ele>526.321042</ele>
        <time>2023-07-14T07:38:58.953Z</time>
      </trkpt>
      <trkpt lat="48.49195" lon="12.19946">
        <ele>526.162399</ele>
        <time>2023-07-14T07:39:00.991Z</time>
      </trkpt>
      <trkpt lat="48.49194" lon="12.19961">
        <ele>526.014741</ele>
        <time>2023-07-14T07:39:02.963Z</time>
      </trkpt>
      <trkpt lat="48.49192" lon="12.19976">
        <ele>525.876433</ele>
        <time>2023-07-14T07:39:04.963Z</time>
      </trkpt>
      <trkpt lat="48.49196" lon="12.19991">
        <ele>525.716141</ele>
        <time>2023-07-14T07:39:07.956Z</time>
      </trkpt>
      <trkpt lat="48.49194" lon="12.20008">
        <ele>525.692173</ele>
        <time>2023-07-14T07:39:10.978Z</time>
      </trkpt>
      <trkpt lat="48.49191" lon="12.20025">
        <ele>525.684171</ele>
        <time>2023-07-14T07:39:13.948Z</time>
      </trkpt>
      <trkpt lat="48.49189" lon="12.2004">
        <ele>525.677631</ele>
        <time>2023-07-14T07:39:15.956Z</time>
      </trkpt>
      <trkpt lat="48.49187" lon="12.20055">
        <ele>525.671148</ele>
        <time>2023-07-14T07:39:17.963Z</time>
      </trkpt>
      <trkpt lat="48.49185" lon="12.20068">
        <ele>525.665159</ele>
        <time>2023-07-14T07:39:19.969Z</time>
      </trkpt>
      <trkpt lat="48.49186" lon="12.20086">
        <ele>525.657348</ele>
        <time>2023-07-14T07:39:22.951Z</time>
      </trkpt>
      <trkpt lat="48.49187" lon="12.20103">
        <ele>525.65</ele>
        <time>2023-07-14T07:39:25.972Z</time>
      </trkpt>
      <trkpt lat="48.49188" lon="12.20121">
        <ele>525.642372</ele>
        <time>2023-07-14T07:39:28.951Z</time>
      </trkpt>
      <trkpt lat="48.49187" lon="12.2014">
        <ele>525.63422</ele>
        <time>2023-07-14T07:39:31.960Z</time>
      </trkpt>
      <trkpt lat="48.49185" lon="12.20159">
        <ele>525.625655</ele>
        <time>2023-07-14T07:39:34.951Z</time>
      </trkpt>
      <trkpt lat="48.49179" lon="12.20171">
        <ele>525.619375</ele>
        <time>2023-07-14T07:39:36.961Z</time>
      </trkpt>
      <trkpt lat="48.49175" lon="12.20185">
        <ele>525.612638</ele>
        <time>2023-07-14T07:39:38.947Z</time>
      </trkpt>
      <trkpt lat="48.49172" lon="12.202">
        <ele>525.605808</ele>
        <time>2023-07-14T07:39:40.970Z</time>
      </trkpt>
      <trkpt lat="48.4917" lon="12.20217">
        <ele>525.598406</ele>
        <time>2023-07-14T07:39:42.952Z</time>
      </trkpt>
      <trkpt lat="48.49168" lon="12.20234">
        <ele>525.591105</ele>
        <time>2023-07-14T07:39:44.951Z</time>
      </trkpt>
      <trkpt lat="48.49165" lon="12.20251">
        <ele>525.583479</ele>
        <time>2023-07-14T07:39:46.952Z</time>
      </trkpt>
      <trkpt lat="48.49162" lon="12.20268">
        <ele>525.478089</ele>
        <time>2023-07-14T07:39:48.950Z</time>
      </trkpt>
      <trkpt lat="48.49159" lon="12.20286">
        <ele>525.329661</ele>
        <time>2023-07-14T07:39:50.957Z</time>
      </trkpt>
      <trkpt lat="48.49156" lon="12.20304">
        <ele>525.183085</ele>
        <time>2023-07-14T07:39:52.942Z</time>
      </trkpt>
      <trkpt lat="48.49153" lon="12.20322">
        <ele>525.038076</ele>
        <time>2023-07-14T07:39:54.948Z</time>
      </trkpt>
      <trkpt lat="48.49151" lon="12.20339">
        <ele>524.894915</ele>
        <time>2023-07-14T07:39:56.956Z</time>
      </trkpt>
      <trkpt lat="48.49148" lon="12.20356">
        <ele>524.749401</ele>
        <time>2023-07-14T07:39:58.970Z</time>
      </trkpt>
      <trkpt lat="48.49145" lon="12.20374">
        <ele>524.608084</ele>
        <time>2023-07-14T07:40:00.969Z</time>
      </trkpt>
      <trkpt lat="48.49143" lon="12.20391">
        <ele>524.464138</ele>
        <time>2023-07-14T07:40:02.952Z</time>
      </trkpt>
      <trkpt lat="48.49141" lon="12.20408">
        <ele>524.323828</ele>
        <time>2023-07-14T07:40:04.951Z</time>
      </trkpt>
      <trkpt lat="48.49138" lon="12.20425">
        <ele>524.18486</ele>
        <time>2023-07-14T07:40:06.957Z</time>
      </trkpt>
      <trkpt lat="48.49137" lon="12.20442">
        <ele>524.043804</ele>
        <time>2023-07-14T07:40:08.950Z</time>
      </trkpt>
      <trkpt lat="48.49135" lon="12.20459">
        <ele>523.90726</ele>
        <time>2023-07-14T07:40:10.958Z</time>
      </trkpt>
      <trkpt lat="48.49135" lon="12.20475">
        <ele>523.779848</ele>
        <time>2023-07-14T07:40:12.953Z</time>
      </trkpt>
      <trkpt lat="48.49135" lon="12.20491">
        <ele>523.648548</ele>
        <time>2023-07-14T07:40:14.963Z</time>
      </trkpt>
      <trkpt lat="48.49135" lon="12.20508">
        <ele>523.514009</ele>
        <time>2023-07-14T07:40:16.951Z</time>
      </trkpt>
      <trkpt lat="48.49134" lon="12.20524">
        <ele>523.386461</ele>
        <time>2023-07-14T07:40:18.951Z</time>
      </trkpt>
      <trkpt lat="48.49134" lon="12.20541">
        <ele>523.30011</ele>
        <time>2023-07-14T07:40:20.952Z</time>
      </trkpt>
      <trkpt lat="48.49135" lon="12.20557">
        <ele>523.218293</ele>
        <time>2023-07-14T07:40:22.948Z</time>
      </trkpt>
      <trkpt lat="48.49135" lon="12.20572">
        <ele>523.139134</ele>
        <time>2023-07-14T07:40:24.958Z</time>
      </trkpt>
      <trkpt lat="48.49135" lon="12.20588">
        <ele>523.059944</ele>
        <time>2023-07-14T07:40:26.955Z</time>
      </trkpt>
      <trkpt lat="48.49136" lon="12.20603">
        <ele>522.979734</ele>
        <time>2023-07-14T07:40:28.929Z</time>
      </trkpt>
      <trkpt lat="48.49137" lon="12.20619">
        <ele>522.899311</ele>
        <time>2023-07-14T07:40:30.949Z</time>
      </trkpt>
      <trkpt lat="48.49138" lon="12.20634">
        <ele>522.821652</ele>
        <time>2023-07-14T07:40:32.965Z</time>
      </trkpt>
      <trkpt lat="48.49139" lon="12.2065">
        <ele>522.739909</ele>
        <time>2023-07-14T07:40:34.957Z</time>
      </trkpt>
      <trkpt lat="48.4914" lon="12.20665">
        <ele>522.659119</ele>
        <time>2023-07-14T07:40:36.954Z</time>
      </trkpt>
      <trkpt lat="48.49141" lon="12.20681">
        <ele>522.579223</ele>
        <time>2023-07-14T07:40:38.958Z</time>
      </trkpt>
      <trkpt lat="48.49142" lon="12.20696">
        <ele>522.500544</ele>
        <time>2023-07-14T07:40:40.961Z</time>
      </trkpt>
      <trkpt lat="48.49143" lon="12.20712">
        <ele>522.4192</ele>
        <time>2023-07-14T07:40:42.955Z</time>
      </trkpt>
      <trkpt lat="48.49144" lon="12.20727">
        <ele>522.339586</ele>
        <time>2023-07-14T07:40:44.952Z</time>
      </trkpt>
      <trkpt lat="48.49145" lon="12.20742">
        <ele>522.264655</ele>
        <time>2023-07-14T07:40:46.972Z</time>
      </trkpt>
      <trkpt lat="48.49146" lon="12.20758">
        <ele>522.182912</ele>
        <time>2023-07-14T07:40:48.931Z</time>
      </trkpt>
      <trkpt lat="48.49147" lon="12.20773">
        <ele>522.10089</ele>
        <time>2023-07-14T07:40:50.956Z</time>
      </trkpt>
      <trkpt lat="48.49148" lon="12.20789">
        <ele>522.020679</ele>
        <time>2023-07-14T07:40:52.950Z</time>
      </trkpt>
      <trkpt lat="48.49149" lon="12.20804">
        <ele>521.954077</ele>
        <time>2023-07-14T07:40:54.946Z</time>
      </trkpt>
      <trkpt lat="48.4915" lon="12.20819">
        <ele>521.891284</ele>
        <time>2023-07-14T07:40:56.951Z</time>
      </trkpt>
      <trkpt lat="48.4915" lon="12.20834">
        <ele>521.830042</ele>
        <time>2023-07-14T07:40:58.948Z</time>
      </trkpt>
      <trkpt lat="48.49151" lon="12.20848">
        <ele>521.772023</ele>
        <time>2023-07-14T07:41:00.959Z</time>
      </trkpt>
      <trkpt lat="48.49152" lon="12.20862">
        <ele>521.712607</ele>
        <time>2023-07-14T07:41:02.939Z</time>
      </trkpt>
      <trkpt lat="48.49153" lon="12.20877">
        <ele>521.649334</ele>
        <time>2023-07-14T07:41:04.942Z</time>
      </trkpt>
      <trkpt lat="48.49154" lon="12.20892">
        <ele>521.584526</ele>
        <time>2023-07-14T07:41:06.966Z</time>
      </trkpt>
      <trkpt lat="48.49154" lon="12.20908">
        <ele>521.518251</ele>
        <time>2023-07-14T07:41:08.948Z</time>
      </trkpt>
      <trkpt lat="48.49154" lon="12.20924">
        <ele>521.45156</ele>
        <time>2023-07-14T07:41:10.954Z</time>
      </trkpt>
      <trkpt lat="48.49155" lon="12.2094">
        <ele>521.386118</ele>
        <time>2023-07-14T07:41:12.968Z</time>
      </trkpt>
      <trkpt lat="48.49156" lon="12.20956">
        <ele>521.31887</ele>
        <time>2023-07-14T07:41:14.945Z</time>
      </trkpt>
      <trkpt lat="48.49156" lon="12.20972">
        <ele>521.251798</ele>
        <time>2023-07-14T07:41:16.969Z</time>
      </trkpt>
      <trkpt lat="48.49155" lon="12.20989">
        <ele>521.180474</ele>
        <time>2023-07-14T07:41:18.954Z</time>
      </trkpt>
      <trkpt lat="48.49154" lon="12.21006">
        <ele>521.108294</ele>
        <time>2023-07-14T07:41:20.956Z</time>
      </trkpt>
      <trkpt lat="48.49151" lon="12.21024">
        <ele>521.035218</ele>
        <time>2023-07-14T07:41:22.969Z</time>
      </trkpt>
      <trkpt lat="48.49148" lon="12.21041">
        <ele>520.960331</ele>
        <time>2023-07-14T07:41:24.964Z</time>
      </trkpt>
      <trkpt lat="48.49145" lon="12.21059">
        <ele>520.884637</ele>
        <time>2023-07-14T07:41:26.947Z</time>
      </trkpt>
      <trkpt lat="48.49142" lon="12.21076">
        <ele>520.721595</ele>
        <time>2023-07-14T07:41:28.931Z</time>
      </trkpt>
      <trkpt lat="48.49137" lon="12.21095">
        <ele>520.527417</ele>
        <time>2023-07-14T07:41:30.964Z</time>
      </trkpt>
      <trkpt lat="48.49134" lon="12.21113">
        <ele>520.333257</ele>
        <time>2023-07-14T07:41:32.966Z</time>
      </trkpt>
      <trkpt lat="48.49129" lon="12.21132">
        <ele>520.133902</ele>
        <time>2023-07-14T07:41:34.956Z</time>
      </trkpt>
      <trkpt lat="48.49125" lon="12.2115">
        <ele>519.944501</ele>
        <time>2023-07-14T07:41:36.961Z</time>
      </trkpt>
      <trkpt lat="48.49121" lon="12.21167">
        <ele>519.769576</ele>
        <time>2023-07-14T07:41:38.952Z</time>
      </trkpt>
      <trkpt lat="48.49122" lon="12.21181">
        <ele>519.628329</ele>
        <time>2023-07-14T07:41:40.959Z</time>
      </trkpt>
      <trkpt lat="48.49124" lon="12.21199">
        <ele>519.450931</ele>
        <time>2023-07-14T07:41:43.955Z</time>
      </trkpt>
      <trkpt lat="48.49114" lon="12.21211">
        <ele>519.261889</ele>
        <time>2023-07-14T07:41:46.961Z</time>
      </trkpt>
      <trkpt lat="48.49108" lon="12.21221">
        <ele>519.122753</ele>
        <time>2023-07-14T07:41:48.967Z</time>
      </trkpt>
      <trkpt lat="48.49105" lon="12.21235">
        <ele>518.97329</ele>
        <time>2023-07-14T07:41:50.953Z</time>
      </trkpt>
      <trkpt lat="48.49102" lon="12.2125">
        <ele>518.819379</ele>
        <time>2023-07-14T07:41:52.958Z</time>
      </trkpt>
      <trkpt lat="48.491" lon="12.21265">
        <ele>518.669093</ele>
        <time>2023-07-14T07:41:54.952Z</time>
      </trkpt>
      <trkpt lat="48.49097" lon="12.2128">
        <ele>518.520733</ele>
        <time>2023-07-14T07:41:56.966Z</time>
      </trkpt>
      <trkpt lat="48.49095" lon="12.21295">
        <ele>518.36982</ele>
        <time>2023-07-14T07:41:58.949Z</time>
      </trkpt>
      <trkpt lat="48.49094" lon="12.2131">
        <ele>518.21508</ele>
        <time>2023-07-14T07:42:00.945Z</time>
      </trkpt>
      <trkpt lat="48.49092" lon="12.21325">
        <ele>518.135435</ele>
        <time>2023-07-14T07:42:02.959Z</time>
      </trkpt>
      <trkpt lat="48.4909" lon="12.2134">
        <ele>518.084142</ele>
        <time>2023-07-14T07:42:04.958Z</time>
      </trkpt>
      <trkpt lat="48.49089" lon="12.21355">
        <ele>518.032141</ele>
        <time>2023-07-14T07:42:06.949Z</time>
      </trkpt>
      <trkpt lat="48.49087" lon="12.2137">
        <ele>517.979153</ele>
        <time>2023-07-14T07:42:08.946Z</time>
      </trkpt>
      <trkpt lat="48.49085" lon="12.21385">
        <ele>517.926166</ele>
        <time>2023-07-14T07:42:10.949Z</time>
      </trkpt>
      <trkpt lat="48.49084" lon="12.214">
        <ele>517.874619</ele>
        <time>2023-07-14T07:42:12.951Z</time>
      </trkpt>
      <trkpt lat="48.49083" lon="12.21416">
        <ele>517.821318</ele>
        <time>2023-07-14T07:42:14.955Z</time>
      </trkpt>
      <trkpt lat="48.49081" lon="12.2143">
        <ele>517.77143</ele>
        <time>2023-07-14T07:42:16.959Z</time>
      </trkpt>
      <trkpt lat="48.4908" lon="12.21445">
        <ele>517.719429</ele>
        <time>2023-07-14T07:42:18.958Z</time>
      </trkpt>
      <trkpt lat="48.49079" lon="12.2146">
        <ele>517.66906</ele>
        <time>2023-07-14T07:42:20.952Z</time>
      </trkpt>
      <trkpt lat="48.49077" lon="12.21475">
        <ele>517.615628</ele>
        <time>2023-07-14T07:42:22.973Z</time>
      </trkpt>
      <trkpt lat="48.49076" lon="12.2149">
        <ele>517.563483</ele>
        <time>2023-07-14T07:42:24.951Z</time>
      </trkpt>
      <trkpt lat="48.49074" lon="12.21505">
        <ele>517.509637</ele>
        <time>2023-07-14T07:42:26.961Z</time>
      </trkpt>
      <trkpt lat="48.49072" lon="12.21521">
        <ele>517.456649</ele>
        <time>2023-07-14T07:42:28.955Z</time>
      </trkpt>
      <trkpt lat="48.4907" lon="12.21536">
        <ele>517.403043</ele>
        <time>2023-07-14T07:42:30.951Z</time>
      </trkpt>
      <trkpt lat="48.49068" lon="12.21551">
        <ele>517.350305</ele>
        <time>2023-07-14T07:42:32.965Z</time>
      </trkpt>
      <trkpt lat="48.49066" lon="12.21566">
        <ele>517.295743</ele>
        <time>2023-07-14T07:42:34.958Z</time>
      </trkpt>
      <trkpt lat="48.49063" lon="12.21582">
        <ele>517.242406</ele>
        <time>2023-07-14T07:42:36.956Z</time>
      </trkpt>
      <trkpt lat="48.4906" lon="12.21597">
        <ele>517.236233</ele>
        <time>2023-07-14T07:42:38.950Z</time>
      </trkpt>
      <trkpt lat="48.49057" lon="12.21612">
        <ele>517.229914</ele>
        <time>2023-07-14T07:42:40.955Z</time>
      </trkpt>
      <trkpt lat="48.49054" lon="12.21627">
        <ele>517.223648</ele>
        <time>2023-07-14T07:42:42.941Z</time>
      </trkpt>
      <trkpt lat="48.49051" lon="12.21642">
        <ele>517.217513</ele>
        <time>2023-07-14T07:42:44.956Z</time>
      </trkpt>
      <trkpt lat="48.49047" lon="12.21657">
        <ele>517.211526</ele>
        <time>2023-07-14T07:42:46.953Z</time>
      </trkpt>
      <trkpt lat="48.49044" lon="12.21671">
        <ele>517.205275</ele>
        <time>2023-07-14T07:42:48.948Z</time>
      </trkpt>
      <trkpt lat="48.4904" lon="12.21686">
        <ele>517.199249</ele>
        <time>2023-07-14T07:42:50.952Z</time>
      </trkpt>
      <trkpt lat="48.49035" lon="12.217">
        <ele>517.193136</ele>
        <time>2023-07-14T07:42:52.958Z</time>
      </trkpt>
      <trkpt lat="48.49031" lon="12.21714">
        <ele>517.18682</ele>
        <time>2023-07-14T07:42:54.947Z</time>
      </trkpt>
      <trkpt lat="48.49027" lon="12.21728">
        <ele>517.180883</ele>
        <time>2023-07-14T07:42:56.950Z</time>
      </trkpt>
      <trkpt lat="48.49022" lon="12.21742">
        <ele>517.174674</ele>
        <time>2023-07-14T07:42:58.955Z</time>
      </trkpt>
      <trkpt lat="48.49017" lon="12.21755">
        <ele>517.168744</ele>
        <time>2023-07-14T07:43:00.947Z</time>
      </trkpt>
      <trkpt lat="48.49013" lon="12.21769">
        <ele>517.162798</ele>
        <time>2023-07-14T07:43:02.953Z</time>
      </trkpt>
      <trkpt lat="48.49008" lon="12.21782">
        <ele>517.156893</ele>
        <time>2023-07-14T07:43:04.949Z</time>
      </trkpt>
      <trkpt lat="48.49002" lon="12.21795">
        <ele>517.150736</ele>
        <time>2023-07-14T07:43:06.960Z</time>
      </trkpt>
      <trkpt lat="48.48996" lon="12.21808">
        <ele>517.144611</ele>
        <time>2023-07-14T07:43:08.963Z</time>
      </trkpt>
      <trkpt lat="48.48991" lon="12.2182">
        <ele>517.138814</ele>
        <time>2023-07-14T07:43:10.954Z</time>
      </trkpt>
      <trkpt lat="48.48985" lon="12.21833">
        <ele>517.075364</ele>
        <time>2023-07-14T07:43:12.959Z</time>
      </trkpt>
      <trkpt lat="48.48979" lon="12.21845">
        <ele>516.968676</ele>
        <time>2023-07-14T07:43:14.949Z</time>
      </trkpt>
      <trkpt lat="48.48973" lon="12.21858">
        <ele>516.86065</ele>
        <time>2023-07-14T07:43:16.965Z</time>
      </trkpt>
      <trkpt lat="48.48966" lon="12.21869">
        <ele>516.75351</ele>
        <time>2023-07-14T07:43:18.974Z</time>
      </trkpt>
      <trkpt lat="48.4896" lon="12.21882">
        <ele>516.642179</ele>
        <time>2023-07-14T07:43:20.955Z</time>
      </trkpt>
      <trkpt lat="48.48952" lon="12.21894">
        <ele>516.527206</ele>
        <time>2023-07-14T07:43:22.962Z</time>
      </trkpt>
      <trkpt lat="48.48945" lon="12.21905">
        <ele>516.412831</ele>
        <time>2023-07-14T07:43:24.947Z</time>
      </trkpt>
      <trkpt lat="48.48937" lon="12.21917">
        <ele>516.296709</ele>
        <time>2023-07-14T07:43:26.969Z</time>
      </trkpt>
      <trkpt lat="48.48929" lon="12.21929">
        <ele>516.178791</ele>
        <time>2023-07-14T07:43:28.953Z</time>
      </trkpt>
      <trkpt lat="48.48921" lon="12.2194">
        <ele>516.059147</ele>
        <time>2023-07-14T07:43:30.969Z</time>
      </trkpt>
      <trkpt lat="48.48912" lon="12.21952">
        <ele>515.93602</ele>
        <time>2023-07-14T07:43:32.969Z</time>
      </trkpt>
      <trkpt lat="48.48903" lon="12.21964">
        <ele>515.809792</ele>
        <time>2023-07-14T07:43:34.966Z</time>
      </trkpt>
      <trkpt lat="48.48894" lon="12.21976">
        <ele>515.681773</ele>
        <time>2023-07-14T07:43:36.970Z</time>
      </trkpt>
      <trkpt lat="48.48885" lon="12.21988">
        <ele>515.55303</ele>
        <time>2023-07-14T07:43:38.957Z</time>
      </trkpt>
      <trkpt lat="48.48876" lon="12.22">
        <ele>515.426156</ele>
        <time>2023-07-14T07:43:40.954Z</time>
      </trkpt>
      <trkpt lat="48.48867" lon="12.22012">
        <ele>515.299611</ele>
        <time>2023-07-14T07:43:42.961Z</time>
      </trkpt>
      <trkpt lat="48.48859" lon="12.22024">
        <ele>515.2189</ele>
        <time>2023-07-14T07:43:44.970Z</time>
      </trkpt>
      <trkpt lat="48.4885" lon="12.22036">
        <ele>515.195181</ele>
        <time>2023-07-14T07:43:46.956Z</time>
      </trkpt>
      <trkpt lat="48.48841" lon="12.22047">
        <ele>515.172206</ele>
        <time>2023-07-14T07:43:48.952Z</time>
      </trkpt>
      <trkpt lat="48.48833" lon="12.22058">
        <ele>515.150129</ele>
        <time>2023-07-14T07:43:50.951Z</time>
      </trkpt>
      <trkpt lat="48.48825" lon="12.22069">
        <ele>515.128837</ele>
        <time>2023-07-14T07:43:52.946Z</time>
      </trkpt>
      <trkpt lat="48.48817" lon="12.2208">
        <ele>515.107065</ele>
        <time>2023-07-14T07:43:54.946Z</time>
      </trkpt>
      <trkpt lat="48.4881" lon="12.22091">
        <ele>515.085248</ele>
        <time>2023-07-14T07:43:56.946Z</time>
      </trkpt>
      <trkpt lat="48.48802" lon="12.22102">
        <ele>515.063908</ele>
        <time>2023-07-14T07:43:58.945Z</time>
      </trkpt>
      <trkpt lat="48.48795" lon="12.22114">
        <ele>515.043079</ele>
        <time>2023-07-14T07:44:00.967Z</time>
      </trkpt>
      <trkpt lat="48.48788" lon="12.22125">
        <ele>515.022403</ele>
        <time>2023-07-14T07:44:02.959Z</time>
      </trkpt>
      <trkpt lat="48.48781" lon="12.22136">
        <ele>515.001311</ele>
        <time>2023-07-14T07:44:04.947Z</time>
      </trkpt>
      <trkpt lat="48.48773" lon="12.22147">
        <ele>514.979868</ele>
        <time>2023-07-14T07:44:06.954Z</time>
      </trkpt>
      <trkpt lat="48.48766" lon="12.22157">
        <ele>514.959177</ele>
        <time>2023-07-14T07:44:08.955Z</time>
      </trkpt>
      <trkpt lat="48.48758" lon="12.22168">
        <ele>514.938817</ele>
        <time>2023-07-14T07:44:10.952Z</time>
      </trkpt>
      <trkpt lat="48.48751" lon="12.22178">
        <ele>514.918456</ele>
        <time>2023-07-14T07:44:12.947Z</time>
      </trkpt>
      <trkpt lat="48.48743" lon="12.22189">
        <ele>514.897354</ele>
        <time>2023-07-14T07:44:14.962Z</time>
      </trkpt>
      <trkpt lat="48.48736" lon="12.22201">
        <ele>514.875396</ele>
        <time>2023-07-14T07:44:16.946Z</time>
      </trkpt>
      <trkpt lat="48.48729" lon="12.22212">
        <ele>514.833613</ele>
        <time>2023-07-14T07:44:18.948Z</time>
      </trkpt>
      <trkpt lat="48.48721" lon="12.22224">
        <ele>514.769857</ele>
        <time>2023-07-14T07:44:20.978Z</time>
      </trkpt>
      <trkpt lat="48.48714" lon="12.22236">
        <ele>514.70662</ele>
        <time>2023-07-14T07:44:22.948Z</time>
      </trkpt>
      <trkpt lat="48.48706" lon="12.22248">
        <ele>514.641157</ele>
        <time>2023-07-14T07:44:24.956Z</time>
      </trkpt>
      <trkpt lat="48.48698" lon="12.2226">
        <ele>514.574286</ele>
        <time>2023-07-14T07:44:26.955Z</time>
      </trkpt>
      <trkpt lat="48.4869" lon="12.22272">
        <ele>514.50816</ele>
        <time>2023-07-14T07:44:28.963Z</time>
      </trkpt>
      <trkpt lat="48.48682" lon="12.22285">
        <ele>514.438728</ele>
        <time>2023-07-14T07:44:30.959Z</time>
      </trkpt>
      <trkpt lat="48.48673" lon="12.22298">
        <ele>514.367077</ele>
        <time>2023-07-14T07:44:32.955Z</time>
      </trkpt>
      <trkpt lat="48.48664" lon="12.22311">
        <ele>514.295015</ele>
        <time>2023-07-14T07:44:34.950Z</time>
      </trkpt>
      <trkpt lat="48.48656" lon="12.22324">
        <ele>514.223633</ele>
        <time>2023-07-14T07:44:36.957Z</time>
      </trkpt>
      <trkpt lat="48.48646" lon="12.22337">
        <ele>514.14941</ele>
        <time>2023-07-14T07:44:38.957Z</time>
      </trkpt>
      <trkpt lat="48.48637" lon="12.2235">
        <ele>514.076397</ele>
        <time>2023-07-14T07:44:40.960Z</time>
      </trkpt>
      <trkpt lat="48.48629" lon="12.22363">
        <ele>514.005282</ele>
        <time>2023-07-14T07:44:42.955Z</time>
      </trkpt>
      <trkpt lat="48.4862" lon="12.22375">
        <ele>513.936244</ele>
        <time>2023-07-14T07:44:44.953Z</time>
      </trkpt>
      <trkpt lat="48.48612" lon="12.22388">
        <ele>513.866356</ele>
        <time>2023-07-14T07:44:46.950Z</time>
      </trkpt>
      <trkpt lat="48.48604" lon="12.22401">
        <ele>513.809921</ele>
        <time>2023-07-14T07:44:48.952Z</time>
      </trkpt>
      <trkpt lat="48.48596" lon="12.22413">
        <ele>513.805539</ele>
        <time>2023-07-14T07:44:50.946Z</time>
      </trkpt>
      <trkpt lat="48.48588" lon="12.22425">
        <ele>513.801033</ele>
        <time>2023-07-14T07:44:52.958Z</time>
      </trkpt>
      <trkpt lat="48.4858" lon="12.22437">
        <ele>513.796377</ele>
        <time>2023-07-14T07:44:54.956Z</time>
      </trkpt>
      <trkpt lat="48.48572" lon="12.22449">
        <ele>513.791957</ele>
        <time>2023-07-14T07:44:56.929Z</time>
      </trkpt>
      <trkpt lat="48.48564" lon="12.22461">
        <ele>513.787564</ele>
        <time>2023-07-14T07:44:58.962Z</time>
      </trkpt>
      <trkpt lat="48.48557" lon="12.22473">
        <ele>513.783161</ele>
        <time>2023-07-14T07:45:00.946Z</time>
      </trkpt>
      <trkpt lat="48.4855" lon="12.22485">
        <ele>513.778905</ele>
        <time>2023-07-14T07:45:02.959Z</time>
      </trkpt>
      <trkpt lat="48.48543" lon="12.22496">
        <ele>513.77486</ele>
        <time>2023-07-14T07:45:04.955Z</time>
      </trkpt>
      <trkpt lat="48.48536" lon="12.22508">
        <ele>513.77072</ele>
        <time>2023-07-14T07:45:06.945Z</time>
      </trkpt>
      <trkpt lat="48.4853" lon="12.22519">
        <ele>513.766935</ele>
        <time>2023-07-14T07:45:08.969Z</time>
      </trkpt>
      <trkpt lat="48.48524" lon="12.2253">
        <ele>513.762982</ele>
        <time>2023-07-14T07:45:10.950Z</time>
      </trkpt>
      <trkpt lat="48.48518" lon="12.22542">
        <ele>513.759004</ele>
        <time>2023-07-14T07:45:12.948Z</time>
      </trkpt>
      <trkpt lat="48.48512" lon="12.22556">
        <ele>513.754726</ele>
        <time>2023-07-14T07:45:14.947Z</time>
      </trkpt>
      <trkpt lat="48.48507" lon="12.2257">
        <ele>513.750569</ele>
        <time>2023-07-14T07:45:16.955Z</time>
      </trkpt>
      <trkpt lat="48.48501" lon="12.22582">
        <ele>513.746352</ele>
        <time>2023-07-14T07:45:18.949Z</time>
      </trkpt>
      <trkpt lat="48.48493" lon="12.22595">
        <ele>513.741785</ele>
        <time>2023-07-14T07:45:20.949Z</time>
      </trkpt>
      <trkpt lat="48.48487" lon="12.22608">
        <ele>513.713725</ele>
        <time>2023-07-14T07:45:22.949Z</time>
      </trkpt>
      <trkpt lat="48.4848" lon="12.22621">
        <ele>513.634544</ele>
        <time>2023-07-14T07:45:24.955Z</time>
      </trkpt>
      <trkpt lat="48.48473" lon="12.22635">
        <ele>513.555248</ele>
        <time>2023-07-14T07:45:26.955Z</time>
      </trkpt>
      <trkpt lat="48.48467" lon="12.22649">
        <ele>513.473599</ele>
        <time>2023-07-14T07:45:28.970Z</time>
      </trkpt>
      <trkpt lat="48.48461" lon="12.22664">
        <ele>513.390692</ele>
        <time>2023-07-14T07:45:30.956Z</time>
      </trkpt>
      <trkpt lat="48.48455" lon="12.22679">
        <ele>513.30846</ele>
        <time>2023-07-14T07:45:32.959Z</time>
      </trkpt>
      <trkpt lat="48.48449" lon="12.22695">
        <ele>513.223156</ele>
        <time>2023-07-14T07:45:34.953Z</time>
      </trkpt>
      <trkpt lat="48.48443" lon="12.2271">
        <ele>513.138697</ele>
        <time>2023-07-14T07:45:36.952Z</time>
      </trkpt>
      <trkpt lat="48.48437" lon="12.22725">
        <ele>513.056519</ele>
        <time>2023-07-14T07:45:38.952Z</time>
      </trkpt>
      <trkpt lat="48.48431" lon="12.2274">
        <ele>512.972754</ele>
        <time>2023-07-14T07:45:40.952Z</time>
      </trkpt>
      <trkpt lat="48.48425" lon="12.22756">
        <ele>512.885696</ele>
        <time>2023-07-14T07:45:42.953Z</time>
      </trkpt>
      <trkpt lat="48.4842" lon="12.22772">
        <ele>512.802573</ele>
        <time>2023-07-14T07:45:44.948Z</time>
      </trkpt>
      <trkpt lat="48.48414" lon="12.22787">
        <ele>512.718956</ele>
        <time>2023-07-14T07:45:46.952Z</time>
      </trkpt>
      <trkpt lat="48.48409" lon="12.22803">
        <ele>512.635548</ele>
        <time>2023-07-14T07:45:48.958Z</time>
      </trkpt>
      <trkpt lat="48.48403" lon="12.22818">
        <ele>512.552683</ele>
        <time>2023-07-14T07:45:50.966Z</time>
      </trkpt>
      <trkpt lat="48.48398" lon="12.22833">
        <ele>512.473077</ele>
        <time>2023-07-14T07:45:52.959Z</time>
      </trkpt>
      <trkpt lat="48.48392" lon="12.22848">
        <ele>512.408957</ele>
        <time>2023-07-14T07:45:54.947Z</time>
      </trkpt>
      <trkpt lat="48.48387" lon="12.22863">
        <ele>512.349432</ele>
        <time>2023-07-14T07:45:56.973Z</time>
      </trkpt>
      <trkpt lat="48.48381" lon="12.22877">
        <ele>512.293362</ele>
        <time>2023-07-14T07:45:58.966Z</time>
      </trkpt>
      <trkpt lat="48.48375" lon="12.22892">
        <ele>512.235559</ele>
        <time>2023-07-14T07:46:00.951Z</time>
      </trkpt>
      <trkpt lat="48.48371" lon="12.22906">
        <ele>512.179421</ele>
        <time>2023-07-14T07:46:02.956Z</time>
      </trkpt>
      <trkpt lat="48.48365" lon="12.22921">
        <ele>512.122866</ele>
        <time>2023-07-14T07:46:04.952Z</time>
      </trkpt>
      <trkpt lat="48.48361" lon="12.22935">
        <ele>512.068254</ele>
        <time>2023-07-14T07:46:06.953Z</time>
      </trkpt>
      <trkpt lat="48.48357" lon="12.22949">
        <ele>512.015208</ele>
        <time>2023-07-14T07:46:08.963Z</time>
      </trkpt>
      <trkpt lat="48.48353" lon="12.22964">
        <ele>511.961771</ele>
        <time>2023-07-14T07:46:10.952Z</time>
      </trkpt>
      <trkpt lat="48.4835" lon="12.22978">
        <ele>511.908976</ele>
        <time>2023-07-14T07:46:12.938Z</time>
      </trkpt>
      <trkpt lat="48.48346" lon="12.22993">
        <ele>511.854594</ele>
        <time>2023-07-14T07:46:14.954Z</time>
      </trkpt>
      <trkpt lat="48.48343" lon="12.23008">
        <ele>511.800212</ele>
        <time>2023-07-14T07:46:16.953Z</time>
      </trkpt>
      <trkpt lat="48.48341" lon="12.23024">
        <ele>511.747176</ele>
        <time>2023-07-14T07:46:18.961Z</time>
      </trkpt>
      <trkpt lat="48.48338" lon="12.23039">
        <ele>511.69133</ele>
        <time>2023-07-14T07:46:20.970Z</time>
      </trkpt>
      <trkpt lat="48.48335" lon="12.23055">
        <ele>511.637348</ele>
        <time>2023-07-14T07:46:22.950Z</time>
      </trkpt>
      <trkpt lat="48.48332" lon="12.23069">
        <ele>511.583031</ele>
        <time>2023-07-14T07:46:24.961Z</time>
      </trkpt>
      <trkpt lat="48.48328" lon="12.23083">
        <ele>511.531328</ele>
        <time>2023-07-14T07:46:26.955Z</time>
      </trkpt>
      <trkpt lat="48.48325" lon="12.23098">
        <ele>511.497812</ele>
        <time>2023-07-14T07:46:28.970Z</time>
      </trkpt>
      <trkpt lat="48.48321" lon="12.23113">
        <ele>511.466715</ele>
        <time>2023-07-14T07:46:30.965Z</time>
      </trkpt>
      <trkpt lat="48.48317" lon="12.23128">
        <ele>511.435716</ele>
        <time>2023-07-14T07:46:32.974Z</time>
      </trkpt>
      <trkpt lat="48.48313" lon="12.23143">
        <ele>511.404873</ele>
        <time>2023-07-14T07:46:34.950Z</time>
      </trkpt>
      <trkpt lat="48.48308" lon="12.23157">
        <ele>511.373563</ele>
        <time>2023-07-14T07:46:36.966Z</time>
      </trkpt>
      <trkpt lat="48.48303" lon="12.23171">
        <ele>511.343107</ele>
        <time>2023-07-14T07:46:38.947Z</time>
      </trkpt>
      <trkpt lat="48.48297" lon="12.23184">
        <ele>511.312221</ele>
        <time>2023-07-14T07:46:40.973Z</time>
      </trkpt>
      <trkpt lat="48.48292" lon="12.23197">
        <ele>511.282196</ele>
        <time>2023-07-14T07:46:42.945Z</time>
      </trkpt>
      <trkpt lat="48.48286" lon="12.2321">
        <ele>511.251849</ele>
        <time>2023-07-14T07:46:44.958Z</time>
      </trkpt>
      <trkpt lat="48.4828" lon="12.23224">
        <ele>511.22118</ele>
        <time>2023-07-14T07:46:46.956Z</time>
      </trkpt>
      <trkpt lat="48.48274" lon="12.23237">
        <ele>511.18888</ele>
        <time>2023-07-14T07:46:48.968Z</time>
      </trkpt>
      <trkpt lat="48.48268" lon="12.23251">
        <ele>511.156915</ele>
        <time>2023-07-14T07:46:50.950Z</time>
      </trkpt>
      <trkpt lat="48.48261" lon="12.23264">
        <ele>511.125415</ele>
        <time>2023-07-14T07:46:52.958Z</time>
      </trkpt>
      <trkpt lat="48.48255" lon="12.23277">
        <ele>511.094211</ele>
        <time>2023-07-14T07:46:54.953Z</time>
      </trkpt>
      <trkpt lat="48.48249" lon="12.2329">
        <ele>511.064009</ele>
        <time>2023-07-14T07:46:56.946Z</time>
      </trkpt>
      <trkpt lat="48.48243" lon="12.23303">
        <ele>511.032528</ele>
        <time>2023-07-14T07:46:58.967Z</time>
      </trkpt>
      <trkpt lat="48.48236" lon="12.23316">
        <ele>511.001342</ele>
        <time>2023-07-14T07:47:00.942Z</time>
      </trkpt>
      <trkpt lat="48.4823" lon="12.2333">
        <ele>510.959543</ele>
        <time>2023-07-14T07:47:02.951Z</time>
      </trkpt>
      <trkpt lat="48.48224" lon="12.23344">
        <ele>510.915171</ele>
        <time>2023-07-14T07:47:04.946Z</time>
      </trkpt>
      <trkpt lat="48.48217" lon="12.23357">
        <ele>510.87182</ele>
        <time>2023-07-14T07:47:06.948Z</time>
      </trkpt>
      <trkpt lat="48.48211" lon="12.2337">
        <ele>510.828938</ele>
        <time>2023-07-14T07:47:08.945Z</time>
      </trkpt>
      <trkpt lat="48.48204" lon="12.23384">
        <ele>510.785172</ele>
        <time>2023-07-14T07:47:10.950Z</time>
      </trkpt>
      <trkpt lat="48.48197" lon="12.23397">
        <ele>510.741303</ele>
        <time>2023-07-14T07:47:12.946Z</time>
      </trkpt>
      <trkpt lat="48.4819" lon="12.2341">
        <ele>510.699045</ele>
        <time>2023-07-14T07:47:14.949Z</time>
      </trkpt>
      <trkpt lat="48.48184" lon="12.23423">
        <ele>510.656183</ele>
        <time>2023-07-14T07:47:16.963Z</time>
      </trkpt>
      <trkpt lat="48.48178" lon="12.23437">
        <ele>510.614434</ele>
        <time>2023-07-14T07:47:18.948Z</time>
      </trkpt>
      <trkpt lat="48.48172" lon="12.2345">
        <ele>510.57306</ele>
        <time>2023-07-14T07:47:20.958Z</time>
      </trkpt>
      <trkpt lat="48.48166" lon="12.23463">
        <ele>510.530828</ele>
        <time>2023-07-14T07:47:22.965Z</time>
      </trkpt>
      <trkpt lat="48.48159" lon="12.23476">
        <ele>510.487967</ele>
        <time>2023-07-14T07:47:24.948Z</time>
      </trkpt>
      <trkpt lat="48.48152" lon="12.23489">
        <ele>510.445194</ele>
        <time>2023-07-14T07:47:26.946Z</time>
      </trkpt>
      <trkpt lat="48.48146" lon="12.23503">
        <ele>510.40106</ele>
        <time>2023-07-14T07:47:28.937Z</time>
      </trkpt>
      <trkpt lat="48.4814" lon="12.23516">
        <ele>510.358619</ele>
        <time>2023-07-14T07:47:30.956Z</time>
      </trkpt>
      <trkpt lat="48.48133" lon="12.23529">
        <ele>510.317267</ele>
        <time>2023-07-14T07:47:32.940Z</time>
      </trkpt>
      <trkpt lat="48.48127" lon="12.23541">
        <ele>510.363771</ele>
        <time>2023-07-14T07:47:34.939Z</time>
      </trkpt>
      <trkpt lat="48.48121" lon="12.23553">
        <ele>510.524908</ele>
        <time>2023-07-14T07:47:36.945Z</time>
      </trkpt>
      <trkpt lat="48.48115" lon="12.23566">
        <ele>510.685985</ele>
        <time>2023-07-14T07:47:38.957Z</time>
      </trkpt>
      <trkpt lat="48.48109" lon="12.23577">
        <ele>510.843424</ele>
        <time>2023-07-14T07:47:40.962Z</time>
      </trkpt>
      <trkpt lat="48.48103" lon="12.23589">
        <ele>511.001345</ele>
        <time>2023-07-14T07:47:42.959Z</time>
      </trkpt>
      <trkpt lat="48.48097" lon="12.23601">
        <ele>511.164803</ele>
        <time>2023-07-14T07:47:44.953Z</time>
      </trkpt>
      <trkpt lat="48.48091" lon="12.23612">
        <ele>511.320506</ele>
        <time>2023-07-14T07:47:46.957Z</time>
      </trkpt>
      <trkpt lat="48.48086" lon="12.23625">
        <ele>511.476182</ele>
        <time>2023-07-14T07:47:48.959Z</time>
      </trkpt>
      <trkpt lat="48.48081" lon="12.23637">
        <ele>511.638141</ele>
        <time>2023-07-14T07:47:50.962Z</time>
      </trkpt>
      <trkpt lat="48.48076" lon="12.23649">
        <ele>511.789718</ele>
        <time>2023-07-14T07:47:52.953Z</time>
      </trkpt>
      <trkpt lat="48.48071" lon="12.23662">
        <ele>511.947257</ele>
        <time>2023-07-14T07:47:54.950Z</time>
      </trkpt>
      <trkpt lat="48.48064" lon="12.23678">
        <ele>512.151245</ele>
        <time>2023-07-14T07:47:57.951Z</time>
      </trkpt>
      <trkpt lat="48.48057" lon="12.23691">
        <ele>512.332152</ele>
        <time>2023-07-14T07:48:00.966Z</time>
      </trkpt>
      <trkpt lat="48.48051" lon="12.23705">
        <ele>512.511083</ele>
        <time>2023-07-14T07:48:03.949Z</time>
      </trkpt>
      <trkpt lat="48.48045" lon="12.23719">
        <ele>512.691867</ele>
        <time>2023-07-14T07:48:06.961Z</time>
      </trkpt>
      <trkpt lat="48.48039" lon="12.23732">
        <ele>512.857603</ele>
        <time>2023-07-14T07:48:09.952Z</time>
      </trkpt>
      <trkpt lat="48.48034" lon="12.23744">
        <ele>513.013265</ele>
        <time>2023-07-14T07:48:12.946Z</time>
      </trkpt>
      <trkpt lat="48.48029" lon="12.23755">
        <ele>513.159094</ele>
        <time>2023-07-14T07:48:15.951Z</time>
      </trkpt>
      <trkpt lat="48.48023" lon="12.23766">
        <ele>513.322265</ele>
        <time>2023-07-14T07:48:18.949Z</time>
      </trkpt>
      <trkpt lat="48.48018" lon="12.23782">
        <ele>513.54246</ele>
        <time>2023-07-14T07:48:22.964Z</time>
      </trkpt>
      <trkpt lat="48.48012" lon="12.23794">
        <ele>513.720948</ele>
        <time>2023-07-14T07:48:25.950Z</time>
      </trkpt>
      <trkpt lat="48.48006" lon="12.23807">
        <ele>513.911453</ele>
        <time>2023-07-14T07:48:28.951Z</time>
      </trkpt>
      <trkpt lat="48.48" lon="12.23822">
        <ele>514.123291</ele>
        <time>2023-07-14T07:48:31.963Z</time>
      </trkpt>
      <trkpt lat="48.47993" lon="12.23839">
        <ele>514.36979</ele>
        <time>2023-07-14T07:48:34.967Z</time>
      </trkpt>
      <trkpt lat="48.47988" lon="12.23852">
        <ele>514.55135</ele>
        <time>2023-07-14T07:48:36.958Z</time>
      </trkpt>
      <trkpt lat="48.47982" lon="12.23866">
        <ele>514.748269</ele>
        <time>2023-07-14T07:48:38.953Z</time>
      </trkpt>
      <trkpt lat="48.47976" lon="12.23881">
        <ele>514.959111</ele>
        <time>2023-07-14T07:48:40.966Z</time>
      </trkpt>
      <trkpt lat="48.4797" lon="12.23897">
        <ele>515.18745</ele>
        <time>2023-07-14T07:48:42.958Z</time>
      </trkpt>
      <trkpt lat="48.47964" lon="12.23914">
        <ele>515.417734</ele>
        <time>2023-07-14T07:48:44.960Z</time>
      </trkpt>
      <trkpt lat="48.47958" lon="12.23931">
        <ele>515.657379</ele>
        <time>2023-07-14T07:48:46.953Z</time>
      </trkpt>
      <trkpt lat="48.47952" lon="12.23947">
        <ele>515.88574</ele>
        <time>2023-07-14T07:48:48.951Z</time>
      </trkpt>
      <trkpt lat="48.47946" lon="12.23965">
        <ele>516.119001</ele>
        <time>2023-07-14T07:48:50.965Z</time>
      </trkpt>
      <trkpt lat="48.47941" lon="12.23981">
        <ele>516.336253</ele>
        <time>2023-07-14T07:48:52.964Z</time>
      </trkpt>
      <trkpt lat="48.47937" lon="12.23996">
        <ele>516.53375</ele>
        <time>2023-07-14T07:48:54.944Z</time>
      </trkpt>
      <trkpt lat="48.47933" lon="12.2401">
        <ele>516.680705</ele>
        <time>2023-07-14T07:48:56.968Z</time>
      </trkpt>
      <trkpt lat="48.4793" lon="12.24023">
        <ele>516.818058</ele>
        <time>2023-07-14T07:48:58.965Z</time>
      </trkpt>
      <trkpt lat="48.47926" lon="12.24039">
        <ele>516.984546</ele>
        <time>2023-07-14T07:49:01.950Z</time>
      </trkpt>
      <trkpt lat="48.47923" lon="12.24054">
        <ele>517.129706</ele>
        <time>2023-07-14T07:49:04.952Z</time>
      </trkpt>
      <trkpt lat="48.47922" lon="12.24068">
        <ele>517.266932</ele>
        <time>2023-07-14T07:49:07.945Z</time>
      </trkpt>
      <trkpt lat="48.47921" lon="12.24086">
        <ele>517.440739</ele>
        <time>2023-07-14T07:49:11.947Z</time>
      </trkpt>
      <trkpt lat="48.47928" lon="12.24098">
        <ele>517.602204</ele>
        <time>2023-07-14T07:49:15.961Z</time>
      </trkpt>
      <trkpt lat="48.47936" lon="12.24105">
        <ele>517.735775</ele>
        <time>2023-07-14T07:49:19.944Z</time>
      </trkpt>
      <trkpt lat="48.4794" lon="12.24119">
        <ele>517.887505</ele>
        <time>2023-07-14T07:49:24.947Z</time>
      </trkpt>
      <trkpt lat="48.47932" lon="12.24132">
        <ele>518.056361</ele>
        <time>2023-07-14T07:49:28.951Z</time>
      </trkpt>
      <trkpt lat="48.47925" lon="12.24142">
        <ele>518.199303</ele>
        <time>2023-07-14T07:49:31.950Z</time>
      </trkpt>
      <trkpt lat="48.47918" lon="12.24152">
        <ele>518.339794</ele>
        <time>2023-07-14T07:49:34.957Z</time>
      </trkpt>
      <trkpt lat="48.47912" lon="12.24163">
        <ele>518.480608</ele>
        <time>2023-07-14T07:49:37.953Z</time>
      </trkpt>
      <trkpt lat="48.47907" lon="12.24175">
        <ele>518.613805</ele>
        <time>2023-07-14T07:49:40.966Z</time>
      </trkpt>
      <trkpt lat="48.47903" lon="12.24191">
        <ele>518.779003</ele>
        <time>2023-07-14T07:49:44.970Z</time>
      </trkpt>
      <trkpt lat="48.47899" lon="12.24203">
        <ele>518.916639</ele>
        <time>2023-07-14T07:49:48.952Z</time>
      </trkpt>
      <trkpt lat="48.47896" lon="12.24216">
        <ele>519.055266</ele>
        <time>2023-07-14T07:49:52.969Z</time>
      </trkpt>
      <trkpt lat="48.47893" lon="12.24232">
        <ele>519.166491</ele>
        <time>2023-07-14T07:49:56.970Z</time>
      </trkpt>
      <trkpt lat="48.4789" lon="12.24249">
        <ele>519.218339</ele>
        <time>2023-07-14T07:50:00.935Z</time>
      </trkpt>
      <trkpt lat="48.47887" lon="12.24265">
        <ele>519.270636</ele>
        <time>2023-07-14T07:50:04.949Z</time>
      </trkpt>
      <trkpt lat="48.47884" lon="12.24281">
        <ele>519.319726</ele>
        <time>2023-07-14T07:50:08.933Z</time>
      </trkpt>
      <trkpt lat="48.47881" lon="12.24295">
        <ele>519.364186</ele>
        <time>2023-07-14T07:50:12.953Z</time>
      </trkpt>
      <trkpt lat="48.47879" lon="12.24313">
        <ele>519.416637</ele>
        <time>2023-07-14T07:50:16.953Z</time>
      </trkpt>
      <trkpt lat="48.47877" lon="12.24326">
        <ele>519.458841</ele>
        <time>2023-07-14T07:50:19.969Z</time>
      </trkpt>
      <trkpt lat="48.47876" lon="12.2434">
        <ele>519.499723</ele>
        <time>2023-07-14T07:50:22.949Z</time>
      </trkpt>
      <trkpt lat="48.47874" lon="12.24356">
        <ele>519.547974</ele>
        <time>2023-07-14T07:50:26.947Z</time>
      </trkpt>
      <trkpt lat="48.47873" lon="12.24371">
        <ele>519.594353</ele>
        <time>2023-07-14T07:50:30.949Z</time>
      </trkpt>
      <trkpt lat="48.47872" lon="12.24387">
        <ele>519.642874</ele>
        <time>2023-07-14T07:50:35.969Z</time>
      </trkpt>
      <trkpt lat="48.4787" lon="12.24403">
        <ele>519.690732</ele>
        <time>2023-07-14T07:50:39.954Z</time>
      </trkpt>
      <trkpt lat="48.47868" lon="12.24417">
        <ele>519.733861</ele>
        <time>2023-07-14T07:50:42.966Z</time>
      </trkpt>
      <trkpt lat="48.47866" lon="12.24433">
        <ele>519.781336</ele>
        <time>2023-07-14T07:50:45.950Z</time>
      </trkpt>
      <trkpt lat="48.47865" lon="12.2445">
        <ele>519.832825</ele>
        <time>2023-07-14T07:50:48.949Z</time>
      </trkpt>
      <trkpt lat="48.47863" lon="12.24469">
        <ele>519.891419</ele>
        <time>2023-07-14T07:50:51.930Z</time>
      </trkpt>
      <trkpt lat="48.47861" lon="12.24489">
        <ele>519.950795</ele>
        <time>2023-07-14T07:50:54.951Z</time>
      </trkpt>
      <trkpt lat="48.4786" lon="12.2451">
        <ele>519.50849</ele>
        <time>2023-07-14T07:50:57.955Z</time>
      </trkpt>
      <trkpt lat="48.47859" lon="12.24525">
        <ele>519.106722</ele>
        <time>2023-07-14T07:50:59.952Z</time>
      </trkpt>
      <trkpt lat="48.47857" lon="12.24543">
        <ele>518.665238</ele>
        <time>2023-07-14T07:51:01.961Z</time>
      </trkpt>
      <trkpt lat="48.47855" lon="12.24561">
        <ele>518.21265</ele>
        <time>2023-07-14T07:51:03.931Z</time>
      </trkpt>
      <trkpt lat="48.47854" lon="12.2458">
        <ele>517.711797</ele>
        <time>2023-07-14T07:51:05.968Z</time>
      </trkpt>
      <trkpt lat="48.47852" lon="12.246">
        <ele>517.204763</ele>
        <time>2023-07-14T07:51:07.952Z</time>
      </trkpt>
      <trkpt lat="48.47848" lon="12.24622">
        <ele>516.628532</ele>
        <time>2023-07-14T07:51:09.930Z</time>
      </trkpt>
      <trkpt lat="48.47843" lon="12.24645">
        <ele>516.034146</ele>
        <time>2023-07-14T07:51:11.939Z</time>
      </trkpt>
      <trkpt lat="48.47838" lon="12.24668">
        <ele>515.418651</ele>
        <time>2023-07-14T07:51:13.958Z</time>
      </trkpt>
      <trkpt lat="48.47832" lon="12.24692">
        <ele>514.789458</ele>
        <time>2023-07-14T07:51:15.962Z</time>
      </trkpt>
      <trkpt lat="48.47826" lon="12.24716">
        <ele>514.13038</ele>
        <time>2023-07-14T07:51:17.949Z</time>
      </trkpt>
      <trkpt lat="48.4782" lon="12.24741">
        <ele>513.462905</ele>
        <time>2023-07-14T07:51:19.965Z</time>
      </trkpt>
      <trkpt lat="48.47813" lon="12.24765">
        <ele>512.832121</ele>
        <time>2023-07-14T07:51:21.937Z</time>
      </trkpt>
      <trkpt lat="48.47807" lon="12.24789">
        <ele>512.222643</ele>
        <time>2023-07-14T07:51:23.953Z</time>
      </trkpt>
      <trkpt lat="48.47801" lon="12.24813">
        <ele>511.620224</ele>
        <time>2023-07-14T07:51:25.939Z</time>
      </trkpt>
      <trkpt lat="48.47795" lon="12.24836">
        <ele>511.028418</ele>
        <time>2023-07-14T07:51:27.968Z</time>
      </trkpt>
      <trkpt lat="48.47789" lon="12.24857">
        <ele>510.496529</ele>
        <time>2023-07-14T07:51:29.948Z</time>
      </trkpt>
      <trkpt lat="48.47784" lon="12.24875">
        <ele>510.025049</ele>
        <time>2023-07-14T07:51:31.952Z</time>
      </trkpt>
      <trkpt lat="48.4778" lon="12.24892">
        <ele>509.595814</ele>
        <time>2023-07-14T07:51:33.958Z</time>
      </trkpt>
      <trkpt lat="48.47776" lon="12.24906">
        <ele>509.224224</ele>
        <time>2023-07-14T07:51:37.974Z</time>
      </trkpt>
      <trkpt lat="48.47772" lon="12.24923">
        <ele>508.817949</ele>
        <time>2023-07-14T07:51:41.947Z</time>
      </trkpt>
      <trkpt lat="48.47768" lon="12.24938">
        <ele>508.42143</ele>
        <time>2023-07-14T07:51:44.958Z</time>
      </trkpt>
      <trkpt lat="48.47762" lon="12.24955">
        <ele>507.971676</ele>
        <time>2023-07-14T07:51:47.959Z</time>
      </trkpt>
      <trkpt lat="48.47756" lon="12.24972">
        <ele>507.50453</ele>
        <time>2023-07-14T07:51:50.950Z</time>
      </trkpt>
      <trkpt lat="48.4775" lon="12.24987">
        <ele>507.090716</ele>
        <time>2023-07-14T07:51:53.959Z</time>
      </trkpt>
      <trkpt lat="48.47745" lon="12.24999">
        <ele>506.752754</ele>
        <time>2023-07-14T07:51:56.947Z</time>
      </trkpt>
      <trkpt lat="48.47739" lon="12.2501">
        <ele>506.486477</ele>
        <time>2023-07-14T07:51:59.950Z</time>
      </trkpt>
      <trkpt lat="48.47732" lon="12.25023">
        <ele>506.219241</ele>
        <time>2023-07-14T07:52:02.969Z</time>
      </trkpt>
      <trkpt lat="48.47724" lon="12.25035">
        <ele>505.925423</ele>
        <time>2023-07-14T07:52:05.969Z</time>
      </trkpt>
      <trkpt lat="48.47716" lon="12.25048">
        <ele>505.624007</ele>
        <time>2023-07-14T07:52:08.949Z</time>
      </trkpt>
      <trkpt lat="48.47708" lon="12.2506">
        <ele>505.324761</ele>
        <time>2023-07-14T07:52:11.950Z</time>
      </trkpt>
      <trkpt lat="48.47701" lon="12.25071">
        <ele>505.054671</ele>
        <time>2023-07-14T07:52:14.952Z</time>
      </trkpt>
      <trkpt lat="48.47694" lon="12.25082">
        <ele>504.788835</ele>
        <time>2023-07-14T07:52:17.964Z</time>
      </trkpt>
      <trkpt lat="48.47687" lon="12.25094">
        <ele>504.531862</ele>
        <time>2023-07-14T07:52:20.953Z</time>
      </trkpt>
      <trkpt lat="48.47689" lon="12.25109">
        <ele>504.255746</ele>
        <time>2023-07-14T07:52:24.954Z</time>
      </trkpt>
      <trkpt lat="48.47698" lon="12.25111">
        <ele>504.004286</ele>
        <time>2023-07-14T07:52:27.944Z</time>
      </trkpt>
      <trkpt lat="48.47704" lon="12.25106">
        <ele>503.835869</ele>
        <time>2023-07-14T07:52:42.749Z</time>
      </trkpt>
      <trkpt lat="48.47696" lon="12.25115">
        <ele>503.580203</ele>
        <time>2023-07-14T08:06:35.956Z</time>
      </trkpt>
      <trkpt lat="48.47687" lon="12.25114">
        <ele>503.344004</ele>
        <time>2023-07-14T08:06:39.958Z</time>
      </trkpt>
      <trkpt lat="48.47678" lon="12.25109">
        <ele>503.088376</ele>
        <time>2023-07-14T08:06:44.957Z</time>
      </trkpt>
      <trkpt lat="48.47668" lon="12.25111">
        <ele>502.844469</ele>
        <time>2023-07-14T08:06:48.929Z</time>
      </trkpt>
      <trkpt lat="48.47659" lon="12.25122">
        <ele>502.539901</ele>
        <time>2023-07-14T08:06:52.944Z</time>
      </trkpt>
      <trkpt lat="48.47654" lon="12.25136">
        <ele>502.270691</ele>
        <time>2023-07-14T08:06:55.947Z</time>
      </trkpt>
      <trkpt lat="48.47648" lon="12.25153">
        <ele>502.074099</ele>
        <time>2023-07-14T08:06:58.947Z</time>
      </trkpt>
      <trkpt lat="48.47642" lon="12.25168">
        <ele>502.106925</ele>
        <time>2023-07-14T08:07:01.970Z</time>
      </trkpt>
      <trkpt lat="48.47636" lon="12.25186">
        <ele>502.142734</ele>
        <time>2023-07-14T08:07:04.946Z</time>
      </trkpt>
      <trkpt lat="48.47632" lon="12.25203">
        <ele>502.177324</ele>
        <time>2023-07-14T08:07:07.944Z</time>
      </trkpt>
      <trkpt lat="48.47627" lon="12.25223">
        <ele>502.214354</ele>
        <time>2023-07-14T08:07:10.961Z</time>
      </trkpt>
      <trkpt lat="48.47623" lon="12.25236">
        <ele>502.239923</ele>
        <time>2023-07-14T08:07:12.956Z</time>
      </trkpt>
      <trkpt lat="48.4762" lon="12.25249">
        <ele>502.265469</ele>
        <time>2023-07-14T08:07:14.955Z</time>
      </trkpt>
      <trkpt lat="48.47617" lon="12.25262">
        <ele>502.291089</ele>
        <time>2023-07-14T08:07:16.946Z</time>
      </trkpt>
      <trkpt lat="48.47614" lon="12.25276">
        <ele>502.317775</ele>
        <time>2023-07-14T08:07:18.967Z</time>
      </trkpt>
      <trkpt lat="48.47611" lon="12.25291">
        <ele>502.345574</ele>
        <time>2023-07-14T08:07:20.962Z</time>
      </trkpt>
      <trkpt lat="48.47607" lon="12.25306">
        <ele>502.37476</ele>
        <time>2023-07-14T08:07:22.969Z</time>
      </trkpt>
      <trkpt lat="48.47603" lon="12.2532">
        <ele>502.40426</ele>
        <time>2023-07-14T08:07:24.950Z</time>
      </trkpt>
      <trkpt lat="48.47599" lon="12.25334">
        <ele>502.431026</ele>
        <time>2023-07-14T08:07:26.958Z</time>
      </trkpt>
      <trkpt lat="48.47594" lon="12.25347">
        <ele>502.45778</ele>
        <time>2023-07-14T08:07:28.953Z</time>
      </trkpt>
      <trkpt lat="48.47589" lon="12.25359">
        <ele>502.483841</ele>
        <time>2023-07-14T08:07:30.948Z</time>
      </trkpt>
      <trkpt lat="48.47583" lon="12.2537">
        <ele>502.51007</ele>
        <time>2023-07-14T08:07:32.951Z</time>
      </trkpt>
      <trkpt lat="48.47575" lon="12.25387">
        <ele>502.547697</ele>
        <time>2023-07-14T08:07:35.965Z</time>
      </trkpt>
      <trkpt lat="48.4757" lon="12.25399">
        <ele>502.552017</ele>
        <time>2023-07-14T08:07:37.960Z</time>
      </trkpt>
      <trkpt lat="48.47562" lon="12.25415">
        <ele>502.54527</ele>
        <time>2023-07-14T08:07:40.950Z</time>
      </trkpt>
      <trkpt lat="48.47556" lon="12.25432">
        <ele>502.538489</ele>
        <time>2023-07-14T08:07:43.950Z</time>
      </trkpt>
      <trkpt lat="48.47551" lon="12.25445">
        <ele>502.533805</ele>
        <time>2023-07-14T08:07:45.960Z</time>
      </trkpt>
      <trkpt lat="48.47545" lon="12.25462">
        <ele>502.526985</ele>
        <time>2023-07-14T08:07:48.944Z</time>
      </trkpt>
      <trkpt lat="48.47541" lon="12.25475">
        <ele>502.522121</ele>
        <time>2023-07-14T08:07:50.952Z</time>
      </trkpt>
      <trkpt lat="48.47536" lon="12.25488">
        <ele>502.517198</ele>
        <time>2023-07-14T08:07:52.947Z</time>
      </trkpt>
      <trkpt lat="48.47532" lon="12.25501">
        <ele>502.512381</ele>
        <time>2023-07-14T08:07:54.955Z</time>
      </trkpt>
      <trkpt lat="48.47528" lon="12.25515">
        <ele>502.507337</ele>
        <time>2023-07-14T08:07:56.963Z</time>
      </trkpt>
      <trkpt lat="48.47523" lon="12.25528">
        <ele>502.502429</ele>
        <time>2023-07-14T08:07:58.945Z</time>
      </trkpt>
      <trkpt lat="48.47519" lon="12.2554">
        <ele>502.497829</ele>
        <time>2023-07-14T08:08:00.938Z</time>
      </trkpt>
      <trkpt lat="48.47514" lon="12.25552">
        <ele>502.493044</ele>
        <time>2023-07-14T08:08:02.946Z</time>
      </trkpt>
      <trkpt lat="48.4751" lon="12.25564">
        <ele>502.488437</ele>
        <time>2023-07-14T08:08:04.945Z</time>
      </trkpt>
      <trkpt lat="48.47503" lon="12.25581">
        <ele>502.481747</ele>
        <time>2023-07-14T08:08:07.966Z</time>
      </trkpt>
      <trkpt lat="48.47495" lon="12.25597">
        <ele>502.474943</ele>
        <time>2023-07-14T08:08:10.963Z</time>
      </trkpt>
      <trkpt lat="48.47488" lon="12.25614">
        <ele>502.468163</ele>
        <time>2023-07-14T08:08:13.949Z</time>
      </trkpt>
      <trkpt lat="48.47482" lon="12.25625">
        <ele>502.469932</ele>
        <time>2023-07-14T08:08:15.946Z</time>
      </trkpt>
      <trkpt lat="48.47476" lon="12.25636">
        <ele>502.561079</ele>
        <time>2023-07-14T08:08:17.940Z</time>
      </trkpt>
      <trkpt lat="48.47469" lon="12.25646">
        <ele>502.652251</ele>
        <time>2023-07-14T08:08:19.958Z</time>
      </trkpt>
      <trkpt lat="48.47463" lon="12.25656">
        <ele>502.741584</ele>
        <time>2023-07-14T08:08:21.957Z</time>
      </trkpt>
      <trkpt lat="48.47454" lon="12.2567">
        <ele>502.864892</ele>
        <time>2023-07-14T08:08:24.947Z</time>
      </trkpt>
      <trkpt lat="48.47445" lon="12.25683">
        <ele>502.980105</ele>
        <time>2023-07-14T08:08:27.964Z</time>
      </trkpt>
      <trkpt lat="48.47438" lon="12.25696">
        <ele>503.088712</ele>
        <time>2023-07-14T08:08:30.946Z</time>
      </trkpt>
      <trkpt lat="48.47429" lon="12.25708">
        <ele>503.205458</ele>
        <time>2023-07-14T08:08:33.950Z</time>
      </trkpt>
      <trkpt lat="48.4742" lon="12.25713">
        <ele>503.292869</ele>
        <time>2023-07-14T08:08:35.937Z</time>
      </trkpt>
      <trkpt lat="48.47412" lon="12.25719">
        <ele>503.380033</ele>
        <time>2023-07-14T08:08:37.952Z</time>
      </trkpt>
      <trkpt lat="48.47403" lon="12.25722">
        <ele>503.469674</ele>
        <time>2023-07-14T08:08:39.962Z</time>
      </trkpt>
      <trkpt lat="48.47393" lon="12.25727">
        <ele>503.564442</ele>
        <time>2023-07-14T08:08:41.962Z</time>
      </trkpt>
      <trkpt lat="48.47384" lon="12.25731">
        <ele>503.654817</ele>
        <time>2023-07-14T08:08:43.947Z</time>
      </trkpt>
      <trkpt lat="48.47375" lon="12.25737">
        <ele>503.754244</ele>
        <time>2023-07-14T08:08:45.957Z</time>
      </trkpt>
      <trkpt lat="48.47365" lon="12.25741">
        <ele>503.847176</ele>
        <time>2023-07-14T08:08:47.948Z</time>
      </trkpt>
      <trkpt lat="48.47356" lon="12.25745">
        <ele>503.938656</ele>
        <time>2023-07-14T08:08:49.966Z</time>
      </trkpt>
      <trkpt lat="48.47348" lon="12.25751">
        <ele>504.025609</ele>
        <time>2023-07-14T08:08:52.942Z</time>
      </trkpt>
      <trkpt lat="48.47353" lon="12.25767">
        <ele>504.137561</ele>
        <time>2023-07-14T08:08:56.944Z</time>
      </trkpt>
      <trkpt lat="48.47359" lon="12.25782">
        <ele>504.20496</ele>
        <time>2023-07-14T08:08:59.935Z</time>
      </trkpt>
      <trkpt lat="48.47363" lon="12.25794">
        <ele>504.233299</ele>
        <time>2023-07-14T08:09:02.935Z</time>
      </trkpt>
      <trkpt lat="48.47368" lon="12.25808">
        <ele>504.265133</ele>
        <time>2023-07-14T08:09:06.960Z</time>
      </trkpt>
      <trkpt lat="48.47372" lon="12.25822">
        <ele>504.295706</ele>
        <time>2023-07-14T08:09:10.941Z</time>
      </trkpt>
      <trkpt lat="48.47371" lon="12.25838">
        <ele>504.328135</ele>
        <time>2023-07-14T08:09:15.957Z</time>
      </trkpt>
      <trkpt lat="48.47365" lon="12.25851">
        <ele>504.358063</ele>
        <time>2023-07-14T08:09:18.957Z</time>
      </trkpt>
      <trkpt lat="48.47364" lon="12.25869">
        <ele>504.395771</ele>
        <time>2023-07-14T08:09:21.943Z</time>
      </trkpt>
      <trkpt lat="48.47366" lon="12.25888">
        <ele>504.433995</ele>
        <time>2023-07-14T08:09:24.941Z</time>
      </trkpt>
      <trkpt lat="48.47369" lon="12.25907">
        <ele>504.474604</ele>
        <time>2023-07-14T08:09:27.953Z</time>
      </trkpt>
      <trkpt lat="48.47371" lon="12.25922">
        <ele>504.504587</ele>
        <time>2023-07-14T08:09:29.948Z</time>
      </trkpt>
      <trkpt lat="48.47377" lon="12.2594">
        <ele>504.545917</ele>
        <time>2023-07-14T08:09:32.939Z</time>
      </trkpt>
      <trkpt lat="48.47379" lon="12.25954">
        <ele>504.575034</ele>
        <time>2023-07-14T08:09:34.944Z</time>
      </trkpt>
      <trkpt lat="48.47384" lon="12.25972">
        <ele>504.615998</ele>
        <time>2023-07-14T08:09:37.952Z</time>
      </trkpt>
      <trkpt lat="48.4739" lon="12.25991">
        <ele>504.657144</ele>
        <time>2023-07-14T08:09:40.962Z</time>
      </trkpt>
      <trkpt lat="48.47395" lon="12.26004">
        <ele>504.686894</ele>
        <time>2023-07-14T08:09:42.948Z</time>
      </trkpt>
      <trkpt lat="48.47399" lon="12.26016">
        <ele>504.715684</ele>
        <time>2023-07-14T08:09:44.968Z</time>
      </trkpt>
      <trkpt lat="48.47403" lon="12.2603">
        <ele>504.728938</ele>
        <time>2023-07-14T08:09:46.953Z</time>
      </trkpt>
      <trkpt lat="48.47408" lon="12.26042">
        <ele>504.706115</ele>
        <time>2023-07-14T08:09:48.951Z</time>
      </trkpt>
      <trkpt lat="48.47415" lon="12.26056">
        <ele>504.68083</ele>
        <time>2023-07-14T08:09:50.944Z</time>
      </trkpt>
      <trkpt lat="48.4742" lon="12.26071">
        <ele>504.654583</ele>
        <time>2023-07-14T08:09:52.952Z</time>
      </trkpt>
      <trkpt lat="48.47425" lon="12.26085">
        <ele>504.630315</ele>
        <time>2023-07-14T08:09:54.944Z</time>
      </trkpt>
      <trkpt lat="48.47431" lon="12.26098">
        <ele>504.605572</ele>
        <time>2023-07-14T08:09:56.948Z</time>
      </trkpt>
      <trkpt lat="48.47437" lon="12.26111">
        <ele>504.58122</ele>
        <time>2023-07-14T08:09:58.955Z</time>
      </trkpt>
      <trkpt lat="48.47444" lon="12.26124">
        <ele>504.555877</ele>
        <time>2023-07-14T08:10:00.941Z</time>
      </trkpt>
      <trkpt lat="48.47451" lon="12.26136">
        <ele>504.531259</ele>
        <time>2023-07-14T08:10:02.952Z</time>
      </trkpt>
      <trkpt lat="48.47457" lon="12.26148">
        <ele>504.50666</ele>
        <time>2023-07-14T08:10:04.948Z</time>
      </trkpt>
      <trkpt lat="48.47464" lon="12.2616">
        <ele>504.483003</ele>
        <time>2023-07-14T08:10:06.962Z</time>
      </trkpt>
      <trkpt lat="48.4747" lon="12.26171">
        <ele>504.46052</ele>
        <time>2023-07-14T08:10:08.935Z</time>
      </trkpt>
      <trkpt lat="48.47475" lon="12.26184">
        <ele>504.438088</ele>
        <time>2023-07-14T08:10:10.950Z</time>
      </trkpt>
      <trkpt lat="48.4748" lon="12.26197">
        <ele>504.414711</ele>
        <time>2023-07-14T08:10:12.962Z</time>
      </trkpt>
      <trkpt lat="48.47485" lon="12.2621">
        <ele>504.390798</ele>
        <time>2023-07-14T08:10:14.951Z</time>
      </trkpt>
      <trkpt lat="48.47489" lon="12.26225">
        <ele>504.366274</ele>
        <time>2023-07-14T08:10:16.950Z</time>
      </trkpt>
      <trkpt lat="48.47493" lon="12.2624">
        <ele>504.341386</ele>
        <time>2023-07-14T08:10:18.946Z</time>
      </trkpt>
      <trkpt lat="48.47496" lon="12.26257">
        <ele>504.307106</ele>
        <time>2023-07-14T08:10:20.941Z</time>
      </trkpt>
      <trkpt lat="48.47499" lon="12.26274">
        <ele>504.220775</ele>
        <time>2023-07-14T08:10:22.945Z</time>
      </trkpt>
      <trkpt lat="48.47503" lon="12.26291">
        <ele>504.136225</ele>
        <time>2023-07-14T08:10:24.949Z</time>
      </trkpt>
      <trkpt lat="48.47506" lon="12.26307">
        <ele>504.051889</ele>
        <time>2023-07-14T08:10:26.943Z</time>
      </trkpt>
      <trkpt lat="48.4751" lon="12.26325">
        <ele>503.962732</ele>
        <time>2023-07-14T08:10:28.952Z</time>
      </trkpt>
      <trkpt lat="48.47514" lon="12.26342">
        <ele>503.874669</ele>
        <time>2023-07-14T08:10:30.948Z</time>
      </trkpt>
      <trkpt lat="48.47518" lon="12.26357">
        <ele>503.793331</ele>
        <time>2023-07-14T08:10:32.947Z</time>
      </trkpt>
      <trkpt lat="48.47521" lon="12.26371">
        <ele>503.724195</ele>
        <time>2023-07-14T08:10:34.965Z</time>
      </trkpt>
      <trkpt lat="48.47525" lon="12.26385">
        <ele>503.651938</ele>
        <time>2023-07-14T08:10:36.962Z</time>
      </trkpt>
      <trkpt lat="48.47528" lon="12.26399">
        <ele>503.577426</ele>
        <time>2023-07-14T08:10:38.964Z</time>
      </trkpt>
      <trkpt lat="48.47532" lon="12.26414">
        <ele>503.499933</ele>
        <time>2023-07-14T08:10:40.953Z</time>
      </trkpt>
      <trkpt lat="48.47536" lon="12.26429">
        <ele>503.42341</ele>
        <time>2023-07-14T08:10:42.961Z</time>
      </trkpt>
      <trkpt lat="48.4754" lon="12.26444">
        <ele>503.344813</ele>
        <time>2023-07-14T08:10:44.963Z</time>
      </trkpt>
      <trkpt lat="48.47543" lon="12.26459">
        <ele>503.266921</ele>
        <time>2023-07-14T08:10:46.956Z</time>
      </trkpt>
      <trkpt lat="48.47547" lon="12.26474">
        <ele>503.186742</ele>
        <time>2023-07-14T08:10:48.937Z</time>
      </trkpt>
      <trkpt lat="48.4755" lon="12.2649">
        <ele>503.109966</ele>
        <time>2023-07-14T08:10:50.963Z</time>
      </trkpt>
      <trkpt lat="48.47553" lon="12.26505">
        <ele>503.029543</ele>
        <time>2023-07-14T08:10:52.954Z</time>
      </trkpt>
      <trkpt lat="48.47557" lon="12.26521">
        <ele>502.968831</ele>
        <time>2023-07-14T08:10:54.966Z</time>
      </trkpt>
      <trkpt lat="48.47561" lon="12.26537">
        <ele>502.917819</ele>
        <time>2023-07-14T08:10:56.954Z</time>
      </trkpt>
      <trkpt lat="48.47565" lon="12.26552">
        <ele>502.871059</ele>
        <time>2023-07-14T08:10:58.944Z</time>
      </trkpt>
      <trkpt lat="48.47569" lon="12.26567">
        <ele>502.822088</ele>
        <time>2023-07-14T08:11:00.968Z</time>
      </trkpt>
      <trkpt lat="48.47573" lon="12.26582">
        <ele>502.773489</ele>
        <time>2023-07-14T08:11:02.959Z</time>
      </trkpt>
      <trkpt lat="48.47577" lon="12.26597">
        <ele>502.726234</ele>
        <time>2023-07-14T08:11:04.966Z</time>
      </trkpt>
      <trkpt lat="48.47581" lon="12.26611">
        <ele>502.680081</ele>
        <time>2023-07-14T08:11:06.952Z</time>
      </trkpt>
      <trkpt lat="48.47584" lon="12.26626">
        <ele>502.633479</ele>
        <time>2023-07-14T08:11:08.944Z</time>
      </trkpt>
      <trkpt lat="48.47588" lon="12.2664">
        <ele>502.587692</ele>
        <time>2023-07-14T08:11:10.954Z</time>
      </trkpt>
      <trkpt lat="48.47593" lon="12.26654">
        <ele>502.540809</ele>
        <time>2023-07-14T08:11:12.957Z</time>
      </trkpt>
      <trkpt lat="48.47598" lon="12.26668">
        <ele>502.494407</ele>
        <time>2023-07-14T08:11:14.957Z</time>
      </trkpt>
      <trkpt lat="48.47602" lon="12.26683">
        <ele>502.447209</ele>
        <time>2023-07-14T08:11:16.950Z</time>
      </trkpt>
      <trkpt lat="48.47607" lon="12.26696">
        <ele>502.401178</ele>
        <time>2023-07-14T08:11:18.945Z</time>
      </trkpt>
      <trkpt lat="48.47612" lon="12.26711">
        <ele>502.353447</ele>
        <time>2023-07-14T08:11:20.943Z</time>
      </trkpt>
      <trkpt lat="48.47617" lon="12.26725">
        <ele>502.305725</ele>
        <time>2023-07-14T08:11:22.961Z</time>
      </trkpt>
      <trkpt lat="48.47622" lon="12.26739">
        <ele>502.258526</ele>
        <time>2023-07-14T08:11:24.941Z</time>
      </trkpt>
      <trkpt lat="48.47627" lon="12.26753">
        <ele>502.211542</ele>
        <time>2023-07-14T08:11:26.948Z</time>
      </trkpt>
      <trkpt lat="48.47632" lon="12.26767">
        <ele>502.137117</ele>
        <time>2023-07-14T08:11:28.945Z</time>
      </trkpt>
      <trkpt lat="48.47637" lon="12.26781">
        <ele>502.048688</ele>
        <time>2023-07-14T08:11:30.946Z</time>
      </trkpt>
      <trkpt lat="48.47642" lon="12.26795">
        <ele>501.961597</ele>
        <time>2023-07-14T08:11:32.946Z</time>
      </trkpt>
      <trkpt lat="48.47646" lon="12.26809">
        <ele>501.875791</ele>
        <time>2023-07-14T08:11:34.952Z</time>
      </trkpt>
      <trkpt lat="48.4765" lon="12.26824">
        <ele>501.786941</ele>
        <time>2023-07-14T08:11:36.955Z</time>
      </trkpt>
      <trkpt lat="48.47655" lon="12.26838">
        <ele>501.696739</ele>
        <time>2023-07-14T08:11:38.945Z</time>
      </trkpt>
      <trkpt lat="48.47659" lon="12.26853">
        <ele>501.609241</ele>
        <time>2023-07-14T08:11:40.956Z</time>
      </trkpt>
      <trkpt lat="48.47663" lon="12.26868">
        <ele>501.518483</ele>
        <time>2023-07-14T08:11:42.947Z</time>
      </trkpt>
      <trkpt lat="48.47667" lon="12.26884">
        <ele>501.428321</ele>
        <time>2023-07-14T08:11:44.963Z</time>
      </trkpt>
      <trkpt lat="48.47671" lon="12.26897">
        <ele>501.345861</ele>
        <time>2023-07-14T08:11:46.949Z</time>
      </trkpt>
      <trkpt lat="48.47674" lon="12.26911">
        <ele>501.26238</ele>
        <time>2023-07-14T08:11:48.958Z</time>
      </trkpt>
      <trkpt lat="48.47679" lon="12.26926">
        <ele>501.17691</ele>
        <time>2023-07-14T08:11:50.946Z</time>
      </trkpt>
      <trkpt lat="48.47683" lon="12.2694">
        <ele>501.091261</ele>
        <time>2023-07-14T08:11:52.961Z</time>
      </trkpt>
      <trkpt lat="48.47687" lon="12.26954">
        <ele>501.002194</ele>
        <time>2023-07-14T08:11:54.955Z</time>
      </trkpt>
      <trkpt lat="48.47691" lon="12.26969">
        <ele>500.913485</ele>
        <time>2023-07-14T08:11:56.947Z</time>
      </trkpt>
      <trkpt lat="48.47696" lon="12.26984">
        <ele>500.825277</ele>
        <time>2023-07-14T08:11:58.962Z</time>
      </trkpt>
      <trkpt lat="48.47701" lon="12.26998">
        <ele>500.735841</ele>
        <time>2023-07-14T08:12:00.964Z</time>
      </trkpt>
      <trkpt lat="48.47706" lon="12.27012">
        <ele>500.686826</ele>
        <time>2023-07-14T08:12:02.947Z</time>
      </trkpt>
      <trkpt lat="48.47711" lon="12.27026">
        <ele>500.666551</ele>
        <time>2023-07-14T08:12:04.967Z</time>
      </trkpt>
      <trkpt lat="48.47716" lon="12.2704">
        <ele>500.647031</ele>
        <time>2023-07-14T08:12:06.946Z</time>
      </trkpt>
      <trkpt lat="48.47721" lon="12.27055">
        <ele>500.626862</ele>
        <time>2023-07-14T08:12:08.944Z</time>
      </trkpt>
      <trkpt lat="48.47726" lon="12.2707">
        <ele>500.606499</ele>
        <time>2023-07-14T08:12:10.970Z</time>
      </trkpt>
      <trkpt lat="48.47731" lon="12.27086">
        <ele>500.585536</ele>
        <time>2023-07-14T08:12:12.959Z</time>
      </trkpt>
      <trkpt lat="48.47736" lon="12.271">
        <ele>500.565777</ele>
        <time>2023-07-14T08:12:14.931Z</time>
      </trkpt>
      <trkpt lat="48.47741" lon="12.27114">
        <ele>500.547076</ele>
        <time>2023-07-14T08:12:16.949Z</time>
      </trkpt>
      <trkpt lat="48.47745" lon="12.27128">
        <ele>500.527679</ele>
        <time>2023-07-14T08:12:18.940Z</time>
      </trkpt>
      <trkpt lat="48.47748" lon="12.27143">
        <ele>500.50832</ele>
        <time>2023-07-14T08:12:20.928Z</time>
      </trkpt>
      <trkpt lat="48.47752" lon="12.27158">
        <ele>500.489367</ele>
        <time>2023-07-14T08:12:22.947Z</time>
      </trkpt>
      <trkpt lat="48.47756" lon="12.27172">
        <ele>500.470515</ele>
        <time>2023-07-14T08:12:24.945Z</time>
      </trkpt>
      <trkpt lat="48.47758" lon="12.27187">
        <ele>500.451374</ele>
        <time>2023-07-14T08:12:27.034Z</time>
      </trkpt>
      <trkpt lat="48.47762" lon="12.27202">
        <ele>500.432369</ele>
        <time>2023-07-14T08:12:28.945Z</time>
      </trkpt>
      <trkpt lat="48.47766" lon="12.27216">
        <ele>500.413404</ele>
        <time>2023-07-14T08:12:30.948Z</time>
      </trkpt>
      <trkpt lat="48.47771" lon="12.2723">
        <ele>500.394125</ele>
        <time>2023-07-14T08:12:32.967Z</time>
      </trkpt>
      <trkpt lat="48.47775" lon="12.27245">
        <ele>500.374547</ele>
        <time>2023-07-14T08:12:34.928Z</time>
      </trkpt>
      <trkpt lat="48.47779" lon="12.27258">
        <ele>500.415097</ele>
        <time>2023-07-14T08:12:36.946Z</time>
      </trkpt>
      <trkpt lat="48.47784" lon="12.2727">
        <ele>500.504195</ele>
        <time>2023-07-14T08:12:38.950Z</time>
      </trkpt>
      <trkpt lat="48.47788" lon="12.27283">
        <ele>500.591612</ele>
        <time>2023-07-14T08:12:40.949Z</time>
      </trkpt>
      <trkpt lat="48.47792" lon="12.27295">
        <ele>500.677701</ele>
        <time>2023-07-14T08:12:42.965Z</time>
      </trkpt>
      <trkpt lat="48.47799" lon="12.27312">
        <ele>500.804729</ele>
        <time>2023-07-14T08:12:45.948Z</time>
      </trkpt>
      <trkpt lat="48.47804" lon="12.27324">
        <ele>500.891065</ele>
        <time>2023-07-14T08:12:47.950Z</time>
      </trkpt>
      <trkpt lat="48.47811" lon="12.2734">
        <ele>501.015599</ele>
        <time>2023-07-14T08:12:50.949Z</time>
      </trkpt>
      <trkpt lat="48.47816" lon="12.27352">
        <ele>501.100889</ele>
        <time>2023-07-14T08:12:52.941Z</time>
      </trkpt>
      <trkpt lat="48.47822" lon="12.27369">
        <ele>501.22409</ele>
        <time>2023-07-14T08:12:55.951Z</time>
      </trkpt>
      <trkpt lat="48.47829" lon="12.27385">
        <ele>501.34356</ele>
        <time>2023-07-14T08:12:58.931Z</time>
      </trkpt>
      <trkpt lat="48.47835" lon="12.27401">
        <ele>501.45475</ele>
        <time>2023-07-14T08:13:01.950Z</time>
      </trkpt>
      <trkpt lat="48.47841" lon="12.27417">
        <ele>501.573091</ele>
        <time>2023-07-14T08:13:04.949Z</time>
      </trkpt>
      <trkpt lat="48.47847" lon="12.27433">
        <ele>501.689781</ele>
        <time>2023-07-14T08:13:07.947Z</time>
      </trkpt>
      <trkpt lat="48.47853" lon="12.2745">
        <ele>501.811206</ele>
        <time>2023-07-14T08:13:10.966Z</time>
      </trkpt>
      <trkpt lat="48.47859" lon="12.27469">
        <ele>501.94165</ele>
        <time>2023-07-14T08:13:13.935Z</time>
      </trkpt>
      <trkpt lat="48.47864" lon="12.27482">
        <ele>502.036266</ele>
        <time>2023-07-14T08:13:15.955Z</time>
      </trkpt>
      <trkpt lat="48.47868" lon="12.27497">
        <ele>502.058949</ele>
        <time>2023-07-14T08:13:17.964Z</time>
      </trkpt>
      <trkpt lat="48.47872" lon="12.27511">
        <ele>502.042346</ele>
        <time>2023-07-14T08:13:19.952Z</time>
      </trkpt>
      <trkpt lat="48.47875" lon="12.27527">
        <ele>502.024961</ele>
        <time>2023-07-14T08:13:21.950Z</time>
      </trkpt>
      <trkpt lat="48.4788" lon="12.27542">
        <ele>502.007887</ele>
        <time>2023-07-14T08:13:23.949Z</time>
      </trkpt>
      <trkpt lat="48.47885" lon="12.27557">
        <ele>501.990678</ele>
        <time>2023-07-14T08:13:25.942Z</time>
      </trkpt>
      <trkpt lat="48.47889" lon="12.27572">
        <ele>501.973529</ele>
        <time>2023-07-14T08:13:27.950Z</time>
      </trkpt>
      <trkpt lat="48.47893" lon="12.27586">
        <ele>501.957095</ele>
        <time>2023-07-14T08:13:29.947Z</time>
      </trkpt>
      <trkpt lat="48.47896" lon="12.27601">
        <ele>501.940967</ele>
        <time>2023-07-14T08:13:31.948Z</time>
      </trkpt>
      <trkpt lat="48.479" lon="12.27615">
        <ele>501.925376</ele>
        <time>2023-07-14T08:13:33.929Z</time>
      </trkpt>
      <trkpt lat="48.47903" lon="12.27628">
        <ele>501.91037</ele>
        <time>2023-07-14T08:13:35.946Z</time>
      </trkpt>
      <trkpt lat="48.47906" lon="12.27641">
        <ele>501.895837</ele>
        <time>2023-07-14T08:13:37.952Z</time>
      </trkpt>
      <trkpt lat="48.47909" lon="12.27654">
        <ele>501.881338</ele>
        <time>2023-07-14T08:13:39.945Z</time>
      </trkpt>
      <trkpt lat="48.47913" lon="12.27667">
        <ele>501.866554</ele>
        <time>2023-07-14T08:13:41.966Z</time>
      </trkpt>
      <trkpt lat="48.47916" lon="12.2768">
        <ele>501.852166</ele>
        <time>2023-07-14T08:13:43.967Z</time>
      </trkpt>
      <trkpt lat="48.47919" lon="12.27693">
        <ele>501.837481</ele>
        <time>2023-07-14T08:13:45.945Z</time>
      </trkpt>
      <trkpt lat="48.47923" lon="12.27713">
        <ele>501.816223</ele>
        <time>2023-07-14T08:13:48.946Z</time>
      </trkpt>
      <trkpt lat="48.47925" lon="12.27726">
        <ele>501.801442</ele>
        <time>2023-07-14T08:13:50.945Z</time>
      </trkpt>
      <trkpt lat="48.47927" lon="12.2774">
        <ele>501.786527</ele>
        <time>2023-07-14T08:13:52.944Z</time>
      </trkpt>
      <trkpt lat="48.47928" lon="12.27755">
        <ele>501.676818</ele>
        <time>2023-07-14T08:13:54.950Z</time>
      </trkpt>
      <trkpt lat="48.47929" lon="12.27769">
        <ele>501.558793</ele>
        <time>2023-07-14T08:13:56.967Z</time>
      </trkpt>
      <trkpt lat="48.4793" lon="12.27785">
        <ele>501.436217</ele>
        <time>2023-07-14T08:13:58.967Z</time>
      </trkpt>
      <trkpt lat="48.4793" lon="12.278">
        <ele>501.314121</ele>
        <time>2023-07-14T08:14:00.948Z</time>
      </trkpt>
      <trkpt lat="48.47929" lon="12.27815">
        <ele>501.189245</ele>
        <time>2023-07-14T08:14:02.961Z</time>
      </trkpt>
      <trkpt lat="48.47928" lon="12.27831">
        <ele>501.063101</ele>
        <time>2023-07-14T08:14:04.943Z</time>
      </trkpt>
      <trkpt lat="48.47926" lon="12.27848">
        <ele>500.927201</ele>
        <time>2023-07-14T08:14:06.953Z</time>
      </trkpt>
      <trkpt lat="48.47924" lon="12.27864">
        <ele>500.795631</ele>
        <time>2023-07-14T08:14:08.947Z</time>
      </trkpt>
      <trkpt lat="48.47922" lon="12.2788">
        <ele>500.661515</ele>
        <time>2023-07-14T08:14:10.944Z</time>
      </trkpt>
      <trkpt lat="48.4792" lon="12.27896">
        <ele>500.526329</ele>
        <time>2023-07-14T08:14:12.951Z</time>
      </trkpt>
      <trkpt lat="48.47917" lon="12.27913">
        <ele>500.392717</ele>
        <time>2023-07-14T08:14:14.947Z</time>
      </trkpt>
      <trkpt lat="48.47916" lon="12.27929">
        <ele>500.258594</ele>
        <time>2023-07-14T08:14:16.951Z</time>
      </trkpt>
      <trkpt lat="48.47915" lon="12.27946">
        <ele>500.127214</ele>
        <time>2023-07-14T08:14:18.959Z</time>
      </trkpt>
      <trkpt lat="48.47914" lon="12.27962">
        <ele>499.992808</ele>
        <time>2023-07-14T08:14:20.961Z</time>
      </trkpt>
      <trkpt lat="48.47914" lon="12.2798">
        <ele>499.853829</ele>
        <time>2023-07-14T08:14:22.948Z</time>
      </trkpt>
      <trkpt lat="48.47915" lon="12.27997">
        <ele>499.716846</ele>
        <time>2023-07-14T08:14:24.955Z</time>
      </trkpt>
      <trkpt lat="48.47916" lon="12.28013">
        <ele>499.606045</ele>
        <time>2023-07-14T08:14:26.948Z</time>
      </trkpt>
      <trkpt lat="48.47917" lon="12.2803">
        <ele>499.60648</ele>
        <time>2023-07-14T08:14:28.943Z</time>
      </trkpt>
      <trkpt lat="48.47918" lon="12.28047">
        <ele>499.606917</ele>
        <time>2023-07-14T08:14:30.924Z</time>
      </trkpt>
      <trkpt lat="48.47919" lon="12.28063">
        <ele>499.607343</ele>
        <time>2023-07-14T08:14:32.946Z</time>
      </trkpt>
      <trkpt lat="48.47921" lon="12.2808">
        <ele>499.607779</ele>
        <time>2023-07-14T08:14:34.955Z</time>
      </trkpt>
      <trkpt lat="48.47921" lon="12.28096">
        <ele>499.60819</ele>
        <time>2023-07-14T08:14:36.954Z</time>
      </trkpt>
      <trkpt lat="48.47923" lon="12.28112">
        <ele>499.608619</ele>
        <time>2023-07-14T08:14:38.954Z</time>
      </trkpt>
      <trkpt lat="48.47925" lon="12.28127">
        <ele>499.609016</ele>
        <time>2023-07-14T08:14:40.954Z</time>
      </trkpt>
      <trkpt lat="48.47928" lon="12.28142">
        <ele>499.60943</ele>
        <time>2023-07-14T08:14:42.932Z</time>
      </trkpt>
      <trkpt lat="48.47931" lon="12.28158">
        <ele>499.609853</ele>
        <time>2023-07-14T08:14:44.953Z</time>
      </trkpt>
      <trkpt lat="48.47935" lon="12.28174">
        <ele>499.610293</ele>
        <time>2023-07-14T08:14:46.947Z</time>
      </trkpt>
      <trkpt lat="48.47939" lon="12.2819">
        <ele>499.610736</ele>
        <time>2023-07-14T08:14:48.955Z</time>
      </trkpt>
      <trkpt lat="48.47943" lon="12.28205">
        <ele>499.611167</ele>
        <time>2023-07-14T08:14:50.958Z</time>
      </trkpt>
      <trkpt lat="48.47947" lon="12.2822">
        <ele>499.611575</ele>
        <time>2023-07-14T08:14:52.959Z</time>
      </trkpt>
      <trkpt lat="48.47951" lon="12.28234">
        <ele>499.611986</ele>
        <time>2023-07-14T08:14:54.948Z</time>
      </trkpt>
      <trkpt lat="48.47954" lon="12.28249">
        <ele>499.612384</ele>
        <time>2023-07-14T08:14:56.944Z</time>
      </trkpt>
      <trkpt lat="48.47958" lon="12.28263">
        <ele>499.612786</ele>
        <time>2023-07-14T08:14:58.966Z</time>
      </trkpt>
      <trkpt lat="48.47963" lon="12.28276">
        <ele>499.604958</ele>
        <time>2023-07-14T08:15:00.952Z</time>
      </trkpt>
      <trkpt lat="48.47967" lon="12.28289">
        <ele>499.585591</ele>
        <time>2023-07-14T08:15:02.951Z</time>
      </trkpt>
      <trkpt lat="48.47972" lon="12.28302">
        <ele>499.566127</ele>
        <time>2023-07-14T08:15:04.945Z</time>
      </trkpt>
      <trkpt lat="48.47977" lon="12.28315">
        <ele>499.547784</ele>
        <time>2023-07-14T08:15:06.961Z</time>
      </trkpt>
      <trkpt lat="48.47981" lon="12.28326">
        <ele>499.529891</ele>
        <time>2023-07-14T08:15:08.964Z</time>
      </trkpt>
      <trkpt lat="48.47986" lon="12.28338">
        <ele>499.51212</ele>
        <time>2023-07-14T08:15:10.949Z</time>
      </trkpt>
      <trkpt lat="48.47994" lon="12.28354">
        <ele>499.485738</ele>
        <time>2023-07-14T08:15:13.935Z</time>
      </trkpt>
      <trkpt lat="48.48" lon="12.28372">
        <ele>499.459939</ele>
        <time>2023-07-14T08:15:16.952Z</time>
      </trkpt>
      <trkpt lat="48.48004" lon="12.28384">
        <ele>499.441987</ele>
        <time>2023-07-14T08:15:18.946Z</time>
      </trkpt>
      <trkpt lat="48.4801" lon="12.28402">
        <ele>499.415869</ele>
        <time>2023-07-14T08:15:21.945Z</time>
      </trkpt>
      <trkpt lat="48.48013" lon="12.28416">
        <ele>499.39617</ele>
        <time>2023-07-14T08:15:23.959Z</time>
      </trkpt>
      <trkpt lat="48.48016" lon="12.2843">
        <ele>499.376791</ele>
        <time>2023-07-14T08:15:25.927Z</time>
      </trkpt>
      <trkpt lat="48.4802" lon="12.28445">
        <ele>499.356276</ele>
        <time>2023-07-14T08:15:27.953Z</time>
      </trkpt>
      <trkpt lat="48.48024" lon="12.2846">
        <ele>499.334978</ele>
        <time>2023-07-14T08:15:29.967Z</time>
      </trkpt>
      <trkpt lat="48.48029" lon="12.28476">
        <ele>499.311928</ele>
        <time>2023-07-14T08:15:31.947Z</time>
      </trkpt>
      <trkpt lat="48.48035" lon="12.2849">
        <ele>499.290119</ele>
        <time>2023-07-14T08:15:33.944Z</time>
      </trkpt>
      <trkpt lat="48.4804" lon="12.28503">
        <ele>499.269406</ele>
        <time>2023-07-14T08:15:35.957Z</time>
      </trkpt>
      <trkpt lat="48.48047" lon="12.28517">
        <ele>499.270075</ele>
        <time>2023-07-14T08:15:37.945Z</time>
      </trkpt>
      <trkpt lat="48.48053" lon="12.28529">
        <ele>499.293222</ele>
        <time>2023-07-14T08:15:39.952Z</time>
      </trkpt>
      <trkpt lat="48.48059" lon="12.28541">
        <ele>499.316867</ele>
        <time>2023-07-14T08:15:41.956Z</time>
      </trkpt>
      <trkpt lat="48.48066" lon="12.28554">
        <ele>499.340559</ele>
        <time>2023-07-14T08:15:43.942Z</time>
      </trkpt>
      <trkpt lat="48.48072" lon="12.28566">
        <ele>499.364333</ele>
        <time>2023-07-14T08:15:45.946Z</time>
      </trkpt>
      <trkpt lat="48.48078" lon="12.2858">
        <ele>499.389527</ele>
        <time>2023-07-14T08:15:47.958Z</time>
      </trkpt>
      <trkpt lat="48.48084" lon="12.28593">
        <ele>499.41406</ele>
        <time>2023-07-14T08:15:49.945Z</time>
      </trkpt>
      <trkpt lat="48.4809" lon="12.28606">
        <ele>499.438582</ele>
        <time>2023-07-14T08:15:51.946Z</time>
      </trkpt>
      <trkpt lat="48.48097" lon="12.28619">
        <ele>499.462654</ele>
        <time>2023-07-14T08:15:53.947Z</time>
      </trkpt>
      <trkpt lat="48.48103" lon="12.28632">
        <ele>499.486967</ele>
        <time>2023-07-14T08:15:55.947Z</time>
      </trkpt>
      <trkpt lat="48.4811" lon="12.28644">
        <ele>499.512277</ele>
        <time>2023-07-14T08:15:57.946Z</time>
      </trkpt>
      <trkpt lat="48.48117" lon="12.28656">
        <ele>499.535806</ele>
        <time>2023-07-14T08:15:59.952Z</time>
      </trkpt>
      <trkpt lat="48.48124" lon="12.28668">
        <ele>499.559599</ele>
        <time>2023-07-14T08:16:01.969Z</time>
      </trkpt>
      <trkpt lat="48.48131" lon="12.28679">
        <ele>499.581968</ele>
        <time>2023-07-14T08:16:03.950Z</time>
      </trkpt>
      <trkpt lat="48.48138" lon="12.28688">
        <ele>499.603652</ele>
        <time>2023-07-14T08:16:05.948Z</time>
      </trkpt>
      <trkpt lat="48.48145" lon="12.28698">
        <ele>499.625907</ele>
        <time>2023-07-14T08:16:07.950Z</time>
      </trkpt>
      <trkpt lat="48.48151" lon="12.28708">
        <ele>499.646828</ele>
        <time>2023-07-14T08:16:09.949Z</time>
      </trkpt>
      <trkpt lat="48.48158" lon="12.28717">
        <ele>499.667825</ele>
        <time>2023-07-14T08:16:11.954Z</time>
      </trkpt>
      <trkpt lat="48.48165" lon="12.28727">
        <ele>499.658069</ele>
        <time>2023-07-14T08:16:13.943Z</time>
      </trkpt>
      <trkpt lat="48.48171" lon="12.28737">
        <ele>499.645804</ele>
        <time>2023-07-14T08:16:15.951Z</time>
      </trkpt>
      <trkpt lat="48.4818" lon="12.28752">
        <ele>499.627637</ele>
        <time>2023-07-14T08:16:18.962Z</time>
      </trkpt>
      <trkpt lat="48.48186" lon="12.28764">
        <ele>499.614925</ele>
        <time>2023-07-14T08:16:20.958Z</time>
      </trkpt>
      <trkpt lat="48.48191" lon="12.28776">
        <ele>499.602096</ele>
        <time>2023-07-14T08:16:22.950Z</time>
      </trkpt>
      <trkpt lat="48.48195" lon="12.28789">
        <ele>499.588875</ele>
        <time>2023-07-14T08:16:24.952Z</time>
      </trkpt>
      <trkpt lat="48.482" lon="12.28803">
        <ele>499.574697</ele>
        <time>2023-07-14T08:16:26.942Z</time>
      </trkpt>
      <trkpt lat="48.48205" lon="12.28816">
        <ele>499.561139</ele>
        <time>2023-07-14T08:16:28.948Z</time>
      </trkpt>
      <trkpt lat="48.48208" lon="12.28831">
        <ele>499.547168</ele>
        <time>2023-07-14T08:16:30.946Z</time>
      </trkpt>
      <trkpt lat="48.48211" lon="12.28846">
        <ele>499.532944</ele>
        <time>2023-07-14T08:16:32.937Z</time>
      </trkpt>
      <trkpt lat="48.48213" lon="12.28862">
        <ele>499.51882</ele>
        <time>2023-07-14T08:16:34.941Z</time>
      </trkpt>
      <trkpt lat="48.48215" lon="12.28877">
        <ele>499.505143</ele>
        <time>2023-07-14T08:16:36.955Z</time>
      </trkpt>
      <trkpt lat="48.48215" lon="12.28893">
        <ele>499.490898</ele>
        <time>2023-07-14T08:16:38.935Z</time>
      </trkpt>
      <trkpt lat="48.48216" lon="12.28908">
        <ele>499.477028</ele>
        <time>2023-07-14T08:16:40.948Z</time>
      </trkpt>
      <trkpt lat="48.48215" lon="12.28924">
        <ele>499.463154</ele>
        <time>2023-07-14T08:16:42.947Z</time>
      </trkpt>
      <trkpt lat="48.48215" lon="12.28939">
        <ele>499.449526</ele>
        <time>2023-07-14T08:16:45.027Z</time>
      </trkpt>
      <trkpt lat="48.48214" lon="12.28955">
        <ele>499.435085</ele>
        <time>2023-07-14T08:16:46.954Z</time>
      </trkpt>
      <trkpt lat="48.48213" lon="12.28971">
        <ele>499.379214</ele>
        <time>2023-07-14T08:16:48.960Z</time>
      </trkpt>
      <trkpt lat="48.48212" lon="12.28988">
        <ele>499.260251</ele>
        <time>2023-07-14T08:16:50.946Z</time>
      </trkpt>
      <trkpt lat="48.48211" lon="12.29006">
        <ele>499.139153</ele>
        <time>2023-07-14T08:16:52.950Z</time>
      </trkpt>
      <trkpt lat="48.4821" lon="12.29024">
        <ele>499.018056</ele>
        <time>2023-07-14T08:16:54.944Z</time>
      </trkpt>
      <trkpt lat="48.4821" lon="12.29042">
        <ele>498.88891</ele>
        <time>2023-07-14T08:16:56.953Z</time>
      </trkpt>
      <trkpt lat="48.48209" lon="12.29061">
        <ele>498.761294</ele>
        <time>2023-07-14T08:16:58.946Z</time>
      </trkpt>
      <trkpt lat="48.48208" lon="12.29079">
        <ele>498.635632</ele>
        <time>2023-07-14T08:17:00.972Z</time>
      </trkpt>
      <trkpt lat="48.48207" lon="12.29098">
        <ele>498.505731</ele>
        <time>2023-07-14T08:17:02.950Z</time>
      </trkpt>
      <trkpt lat="48.48207" lon="12.29116">
        <ele>498.380925</ele>
        <time>2023-07-14T08:17:04.941Z</time>
      </trkpt>
      <trkpt lat="48.48206" lon="12.29135">
        <ele>498.25581</ele>
        <time>2023-07-14T08:17:06.955Z</time>
      </trkpt>
      <trkpt lat="48.48207" lon="12.29152">
        <ele>498.133744</ele>
        <time>2023-07-14T08:17:08.953Z</time>
      </trkpt>
      <trkpt lat="48.48206" lon="12.29169">
        <ele>498.019254</ele>
        <time>2023-07-14T08:17:10.967Z</time>
      </trkpt>
      <trkpt lat="48.48205" lon="12.29186">
        <ele>497.902159</ele>
        <time>2023-07-14T08:17:12.956Z</time>
      </trkpt>
      <trkpt lat="48.48207" lon="12.29203">
        <ele>497.787307</ele>
        <time>2023-07-14T08:17:14.946Z</time>
      </trkpt>
      <trkpt lat="48.48209" lon="12.29219">
        <ele>497.676184</ele>
        <time>2023-07-14T08:17:16.955Z</time>
      </trkpt>
      <trkpt lat="48.48212" lon="12.29234">
        <ele>497.566825</ele>
        <time>2023-07-14T08:17:18.943Z</time>
      </trkpt>
      <trkpt lat="48.48215" lon="12.29249">
        <ele>497.607473</ele>
        <time>2023-07-14T08:17:20.952Z</time>
      </trkpt>
      <trkpt lat="48.48219" lon="12.29264">
        <ele>497.649598</ele>
        <time>2023-07-14T08:17:22.958Z</time>
      </trkpt>
      <trkpt lat="48.48224" lon="12.29279">
        <ele>497.69204</ele>
        <time>2023-07-14T08:17:24.947Z</time>
      </trkpt>
      <trkpt lat="48.48228" lon="12.29294">
        <ele>497.734011</ele>
        <time>2023-07-14T08:17:26.956Z</time>
      </trkpt>
      <trkpt lat="48.48232" lon="12.2931">
        <ele>497.776588</ele>
        <time>2023-07-14T08:17:28.946Z</time>
      </trkpt>
      <trkpt lat="48.48236" lon="12.29324">
        <ele>497.817776</ele>
        <time>2023-07-14T08:17:30.959Z</time>
      </trkpt>
      <trkpt lat="48.48241" lon="12.29339">
        <ele>497.859059</ele>
        <time>2023-07-14T08:17:32.933Z</time>
      </trkpt>
      <trkpt lat="48.48246" lon="12.29353">
        <ele>497.900223</ele>
        <time>2023-07-14T08:17:34.955Z</time>
      </trkpt>
      <trkpt lat="48.4825" lon="12.29367">
        <ele>497.938669</ele>
        <time>2023-07-14T08:17:36.943Z</time>
      </trkpt>
      <trkpt lat="48.48254" lon="12.29381">
        <ele>497.979156</ele>
        <time>2023-07-14T08:17:38.943Z</time>
      </trkpt>
      <trkpt lat="48.48258" lon="12.29395">
        <ele>498.017211</ele>
        <time>2023-07-14T08:17:40.946Z</time>
      </trkpt>
      <trkpt lat="48.48262" lon="12.29409">
        <ele>498.056208</ele>
        <time>2023-07-14T08:17:42.949Z</time>
      </trkpt>
      <trkpt lat="48.48266" lon="12.29422">
        <ele>498.094585</ele>
        <time>2023-07-14T08:17:44.965Z</time>
      </trkpt>
      <trkpt lat="48.4827" lon="12.29435">
        <ele>498.130838</ele>
        <time>2023-07-14T08:17:46.943Z</time>
      </trkpt>
      <trkpt lat="48.48273" lon="12.29448">
        <ele>498.165603</ele>
        <time>2023-07-14T08:17:48.943Z</time>
      </trkpt>
      <trkpt lat="48.48278" lon="12.29466">
        <ele>498.216185</ele>
        <time>2023-07-14T08:17:51.965Z</time>
      </trkpt>
      <trkpt lat="48.48282" lon="12.29485">
        <ele>498.255329</ele>
        <time>2023-07-14T08:17:54.945Z</time>
      </trkpt>
      <trkpt lat="48.48286" lon="12.29505">
        <ele>498.157673</ele>
        <time>2023-07-14T08:17:57.958Z</time>
      </trkpt>
      <trkpt lat="48.48289" lon="12.29518">
        <ele>498.092626</ele>
        <time>2023-07-14T08:17:59.958Z</time>
      </trkpt>
      <trkpt lat="48.48292" lon="12.29532">
        <ele>498.026533</ele>
        <time>2023-07-14T08:18:01.961Z</time>
      </trkpt>
      <trkpt lat="48.48295" lon="12.29546">
        <ele>497.957549</ele>
        <time>2023-07-14T08:18:03.958Z</time>
      </trkpt>
      <trkpt lat="48.48298" lon="12.29559">
        <ele>497.890779</ele>
        <time>2023-07-14T08:18:05.949Z</time>
      </trkpt>
      <trkpt lat="48.48301" lon="12.29573">
        <ele>497.822691</ele>
        <time>2023-07-14T08:18:07.951Z</time>
      </trkpt>
      <trkpt lat="48.48304" lon="12.29587">
        <ele>497.751692</ele>
        <time>2023-07-14T08:18:09.954Z</time>
      </trkpt>
      <trkpt lat="48.48307" lon="12.29603">
        <ele>497.67478</ele>
        <time>2023-07-14T08:18:11.971Z</time>
      </trkpt>
      <trkpt lat="48.48311" lon="12.29618">
        <ele>497.59856</ele>
        <time>2023-07-14T08:18:13.944Z</time>
      </trkpt>
      <trkpt lat="48.48314" lon="12.29633">
        <ele>497.523961</ele>
        <time>2023-07-14T08:18:15.947Z</time>
      </trkpt>
      <trkpt lat="48.48318" lon="12.29647">
        <ele>497.450252</ele>
        <time>2023-07-14T08:18:17.962Z</time>
      </trkpt>
      <trkpt lat="48.48321" lon="12.29662">
        <ele>497.377111</ele>
        <time>2023-07-14T08:18:19.944Z</time>
      </trkpt>
      <trkpt lat="48.48325" lon="12.29677">
        <ele>497.301401</ele>
        <time>2023-07-14T08:18:21.963Z</time>
      </trkpt>
      <trkpt lat="48.48326" lon="12.29691">
        <ele>497.233176</ele>
        <time>2023-07-14T08:18:23.939Z</time>
      </trkpt>
      <trkpt lat="48.48329" lon="12.29706">
        <ele>497.1616</ele>
        <time>2023-07-14T08:18:25.961Z</time>
      </trkpt>
      <trkpt lat="48.4833" lon="12.29721">
        <ele>497.088607</ele>
        <time>2023-07-14T08:18:27.963Z</time>
      </trkpt>
      <trkpt lat="48.48332" lon="12.29736">
        <ele>497.015742</ele>
        <time>2023-07-14T08:18:29.953Z</time>
      </trkpt>
      <trkpt lat="48.48334" lon="12.29753">
        <ele>496.916377</ele>
        <time>2023-07-14T08:18:31.944Z</time>
      </trkpt>
      <trkpt lat="48.48335" lon="12.29769">
        <ele>496.796643</ele>
        <time>2023-07-14T08:18:33.942Z</time>
      </trkpt>
      <trkpt lat="48.48336" lon="12.29785">
        <ele>496.68526</ele>
        <time>2023-07-14T08:18:35.946Z</time>
      </trkpt>
      <trkpt lat="48.48337" lon="12.29801">
        <ele>496.568605</ele>
        <time>2023-07-14T08:18:37.945Z</time>
      </trkpt>
      <trkpt lat="48.48339" lon="12.29817">
        <ele>496.455219</ele>
        <time>2023-07-14T08:18:39.950Z</time>
      </trkpt>
      <trkpt lat="48.4834" lon="12.29832">
        <ele>496.345499</ele>
        <time>2023-07-14T08:18:41.954Z</time>
      </trkpt>
      <trkpt lat="48.48341" lon="12.29848">
        <ele>496.233791</ele>
        <time>2023-07-14T08:18:43.944Z</time>
      </trkpt>
      <trkpt lat="48.48345" lon="12.29861">
        <ele>496.133148</ele>
        <time>2023-07-14T08:18:45.951Z</time>
      </trkpt>
      <trkpt lat="48.48349" lon="12.29874">
        <ele>496.030716</ele>
        <time>2023-07-14T08:18:47.942Z</time>
      </trkpt>
      <trkpt lat="48.48352" lon="12.29887">
        <ele>495.932811</ele>
        <time>2023-07-14T08:18:49.943Z</time>
      </trkpt>
      <trkpt lat="48.48357" lon="12.29906">
        <ele>495.787131</ele>
        <time>2023-07-14T08:18:52.951Z</time>
      </trkpt>
      <trkpt lat="48.4836" lon="12.2992">
        <ele>495.683743</ele>
        <time>2023-07-14T08:18:54.946Z</time>
      </trkpt>
      <trkpt lat="48.48364" lon="12.29933">
        <ele>495.582456</ele>
        <time>2023-07-14T08:18:56.956Z</time>
      </trkpt>
      <trkpt lat="48.48367" lon="12.29947">
        <ele>495.477434</ele>
        <time>2023-07-14T08:18:58.953Z</time>
      </trkpt>
      <trkpt lat="48.48371" lon="12.29962">
        <ele>495.362622</ele>
        <time>2023-07-14T08:19:00.945Z</time>
      </trkpt>
      <trkpt lat="48.48375" lon="12.29978">
        <ele>495.236616</ele>
        <time>2023-07-14T08:19:02.960Z</time>
      </trkpt>
      <trkpt lat="48.4838" lon="12.29994">
        <ele>495.109675</ele>
        <time>2023-07-14T08:19:04.945Z</time>
      </trkpt>
      <trkpt lat="48.48387" lon="12.30009">
        <ele>495.042154</ele>
        <time>2023-07-14T08:19:06.952Z</time>
      </trkpt>
      <trkpt lat="48.48394" lon="12.30022">
        <ele>495.022937</ele>
        <time>2023-07-14T08:19:08.945Z</time>
      </trkpt>
      <trkpt lat="48.48401" lon="12.30034">
        <ele>495.00478</ele>
        <time>2023-07-14T08:19:10.960Z</time>
      </trkpt>
      <trkpt lat="48.48409" lon="12.30046">
        <ele>494.986306</ele>
        <time>2023-07-14T08:19:12.963Z</time>
      </trkpt>
      <trkpt lat="48.48416" lon="12.30057">
        <ele>494.96859</ele>
        <time>2023-07-14T08:19:14.950Z</time>
      </trkpt>
      <trkpt lat="48.48423" lon="12.30068">
        <ele>494.951313</ele>
        <time>2023-07-14T08:19:16.944Z</time>
      </trkpt>
      <trkpt lat="48.48431" lon="12.30079">
        <ele>494.933637</ele>
        <time>2023-07-14T08:19:18.949Z</time>
      </trkpt>
      <trkpt lat="48.48438" lon="12.30091">
        <ele>494.915474</ele>
        <time>2023-07-14T08:19:20.950Z</time>
      </trkpt>
      <trkpt lat="48.48444" lon="12.30102">
        <ele>494.899248</ele>
        <time>2023-07-14T08:19:22.948Z</time>
      </trkpt>
      <trkpt lat="48.4845" lon="12.30114">
        <ele>494.882586</ele>
        <time>2023-07-14T08:19:24.945Z</time>
      </trkpt>
      <trkpt lat="48.48456" lon="12.30125">
        <ele>494.866252</ele>
        <time>2023-07-14T08:19:26.981Z</time>
      </trkpt>
      <trkpt lat="48.48461" lon="12.30138">
        <ele>494.849436</ele>
        <time>2023-07-14T08:19:28.957Z</time>
      </trkpt>
      <trkpt lat="48.48466" lon="12.30149">
        <ele>494.833767</ele>
        <time>2023-07-14T08:19:30.938Z</time>
      </trkpt>
      <trkpt lat="48.48475" lon="12.30162">
        <ele>494.812414</ele>
        <time>2023-07-14T08:19:33.935Z</time>
      </trkpt>
      <trkpt lat="48.48482" lon="12.30174">
        <ele>494.794694</ele>
        <time>2023-07-14T08:19:36.949Z</time>
      </trkpt>
      <trkpt lat="48.48489" lon="12.30189">
        <ele>494.775179</ele>
        <time>2023-07-14T08:19:39.938Z</time>
      </trkpt>
      <trkpt lat="48.48494" lon="12.30204">
        <ele>494.754674</ele>
        <time>2023-07-14T08:19:42.944Z</time>
      </trkpt>
      <trkpt lat="48.485" lon="12.3022">
        <ele>494.799312</ele>
        <time>2023-07-14T08:19:45.944Z</time>
      </trkpt>
      <trkpt lat="48.48506" lon="12.30237">
        <ele>494.884174</ele>
        <time>2023-07-14T08:19:48.949Z</time>
      </trkpt>
      <trkpt lat="48.4851" lon="12.3025">
        <ele>494.945782</ele>
        <time>2023-07-14T08:19:50.947Z</time>
      </trkpt>
      <trkpt lat="48.48517" lon="12.30267">
        <ele>495.033004</ele>
        <time>2023-07-14T08:19:53.924Z</time>
      </trkpt>
      <trkpt lat="48.4852" lon="12.30285">
        <ele>495.119432</ele>
        <time>2023-07-14T08:19:56.964Z</time>
      </trkpt>
      <trkpt lat="48.48525" lon="12.30302">
        <ele>495.20036</ele>
        <time>2023-07-14T08:19:59.957Z</time>
      </trkpt>
      <trkpt lat="48.48531" lon="12.3032">
        <ele>495.287011</ele>
        <time>2023-07-14T08:20:02.950Z</time>
      </trkpt>
      <trkpt lat="48.48537" lon="12.30335">
        <ele>495.366925</ele>
        <time>2023-07-14T08:20:05.951Z</time>
      </trkpt>
      <trkpt lat="48.48546" lon="12.3035">
        <ele>495.455288</ele>
        <time>2023-07-14T08:20:08.938Z</time>
      </trkpt>
      <trkpt lat="48.48555" lon="12.30364">
        <ele>495.544525</ele>
        <time>2023-07-14T08:20:11.942Z</time>
      </trkpt>
      <trkpt lat="48.48562" lon="12.30374">
        <ele>495.605299</ele>
        <time>2023-07-14T08:20:13.936Z</time>
      </trkpt>
      <trkpt lat="48.48568" lon="12.30385">
        <ele>495.669639</ele>
        <time>2023-07-14T08:20:15.931Z</time>
      </trkpt>
      <trkpt lat="48.48573" lon="12.30397">
        <ele>495.73106</ele>
        <time>2023-07-14T08:20:17.947Z</time>
      </trkpt>
      <trkpt lat="48.4858" lon="12.30413">
        <ele>495.818005</ele>
        <time>2023-07-14T08:20:20.947Z</time>
      </trkpt>
      <trkpt lat="48.48587" lon="12.30429">
        <ele>495.902815</ele>
        <time>2023-07-14T08:20:23.946Z</time>
      </trkpt>
      <trkpt lat="48.48593" lon="12.30446">
        <ele>495.902574</ele>
        <time>2023-07-14T08:20:26.951Z</time>
      </trkpt>
      <trkpt lat="48.48598" lon="12.30465">
        <ele>495.79328</ele>
        <time>2023-07-14T08:20:29.948Z</time>
      </trkpt>
      <trkpt lat="48.48602" lon="12.30482">
        <ele>495.692251</ele>
        <time>2023-07-14T08:20:32.946Z</time>
      </trkpt>
      <trkpt lat="48.48608" lon="12.30498">
        <ele>495.589033</ele>
        <time>2023-07-14T08:20:35.949Z</time>
      </trkpt>
      <trkpt lat="48.48614" lon="12.30513">
        <ele>495.491277</ele>
        <time>2023-07-14T08:20:38.949Z</time>
      </trkpt>
      <trkpt lat="48.4862" lon="12.30528">
        <ele>495.393053</ele>
        <time>2023-07-14T08:20:41.952Z</time>
      </trkpt>
      <trkpt lat="48.48626" lon="12.30542">
        <ele>495.304036</ele>
        <time>2023-07-14T08:20:44.946Z</time>
      </trkpt>
      <trkpt lat="48.48629" lon="12.30559">
        <ele>495.206175</ele>
        <time>2023-07-14T08:20:47.941Z</time>
      </trkpt>
      <trkpt lat="48.48631" lon="12.30576">
        <ele>495.110077</ele>
        <time>2023-07-14T08:20:50.926Z</time>
      </trkpt>
      <trkpt lat="48.48633" lon="12.30596">
        <ele>494.998669</ele>
        <time>2023-07-14T08:20:53.947Z</time>
      </trkpt>
      <trkpt lat="48.48634" lon="12.30616">
        <ele>494.881836</ele>
        <time>2023-07-14T08:20:56.952Z</time>
      </trkpt>
      <trkpt lat="48.48635" lon="12.30631">
        <ele>494.801921</ele>
        <time>2023-07-14T08:20:58.944Z</time>
      </trkpt>
      <trkpt lat="48.48636" lon="12.30647">
        <ele>494.713233</ele>
        <time>2023-07-14T08:21:00.959Z</time>
      </trkpt>
      <trkpt lat="48.48637" lon="12.30663">
        <ele>494.621439</ele>
        <time>2023-07-14T08:21:02.941Z</time>
      </trkpt>
      <trkpt lat="48.48639" lon="12.30679">
        <ele>494.532403</ele>
        <time>2023-07-14T08:21:04.956Z</time>
      </trkpt>
      <trkpt lat="48.4864" lon="12.30695">
        <ele>494.443888</ele>
        <time>2023-07-14T08:21:06.937Z</time>
      </trkpt>
      <trkpt lat="48.48642" lon="12.30711">
        <ele>494.504537</ele>
        <time>2023-07-14T08:21:08.958Z</time>
      </trkpt>
      <trkpt lat="48.48644" lon="12.30726">
        <ele>494.563456</ele>
        <time>2023-07-14T08:21:10.950Z</time>
      </trkpt>
      <trkpt lat="48.48647" lon="12.30741">
        <ele>494.620682</ele>
        <time>2023-07-14T08:21:12.966Z</time>
      </trkpt>
      <trkpt lat="48.4865" lon="12.30756">
        <ele>494.679832</ele>
        <time>2023-07-14T08:21:14.964Z</time>
      </trkpt>
      <trkpt lat="48.48653" lon="12.30771">
        <ele>494.738101</ele>
        <time>2023-07-14T08:21:16.949Z</time>
      </trkpt>
      <trkpt lat="48.48657" lon="12.30786">
        <ele>494.797787</ele>
        <time>2023-07-14T08:21:18.954Z</time>
      </trkpt>
      <trkpt lat="48.48661" lon="12.30801">
        <ele>494.856174</ele>
        <time>2023-07-14T08:21:20.947Z</time>
      </trkpt>
      <trkpt lat="48.48665" lon="12.30814">
        <ele>494.914396</ele>
        <time>2023-07-14T08:21:22.940Z</time>
      </trkpt>
      <trkpt lat="48.4867" lon="12.30828">
        <ele>494.970527</ele>
        <time>2023-07-14T08:21:24.951Z</time>
      </trkpt>
      <trkpt lat="48.48674" lon="12.30841">
        <ele>495.022177</ele>
        <time>2023-07-14T08:21:26.936Z</time>
      </trkpt>
      <trkpt lat="48.48679" lon="12.30857">
        <ele>495.090876</ele>
        <time>2023-07-14T08:21:29.946Z</time>
      </trkpt>
      <trkpt lat="48.48684" lon="12.30883">
        <ele>495.192445</ele>
        <time>2023-07-14T08:21:56.954Z</time>
      </trkpt>
      <trkpt lat="48.4869" lon="12.30899">
        <ele>495.260899</ele>
        <time>2023-07-14T08:22:00.946Z</time>
      </trkpt>
      <trkpt lat="48.48697" lon="12.30914">
        <ele>495.329347</ele>
        <time>2023-07-14T08:22:03.949Z</time>
      </trkpt>
      <trkpt lat="48.48703" lon="12.30931">
        <ele>495.402399</ele>
        <time>2023-07-14T08:22:06.939Z</time>
      </trkpt>
      <trkpt lat="48.4871" lon="12.30948">
        <ele>495.485267</ele>
        <time>2023-07-14T08:22:09.949Z</time>
      </trkpt>
      <trkpt lat="48.48716" lon="12.30965">
        <ele>495.594863</ele>
        <time>2023-07-14T08:22:12.985Z</time>
      </trkpt>
      <trkpt lat="48.48722" lon="12.30983">
        <ele>495.707837</ele>
        <time>2023-07-14T08:22:15.948Z</time>
      </trkpt>
      <trkpt lat="48.48725" lon="12.30996">
        <ele>495.787933</ele>
        <time>2023-07-14T08:22:17.955Z</time>
      </trkpt>
      <trkpt lat="48.4873" lon="12.31008">
        <ele>495.869899</ele>
        <time>2023-07-14T08:22:19.948Z</time>
      </trkpt>
      <trkpt lat="48.48735" lon="12.31021">
        <ele>495.952297</ele>
        <time>2023-07-14T08:22:21.949Z</time>
      </trkpt>
      <trkpt lat="48.48739" lon="12.31034">
        <ele>496.034814</ele>
        <time>2023-07-14T08:22:23.934Z</time>
      </trkpt>
      <trkpt lat="48.48743" lon="12.31048">
        <ele>496.1196</ele>
        <time>2023-07-14T08:22:25.958Z</time>
      </trkpt>
      <trkpt lat="48.48747" lon="12.31061">
        <ele>496.203189</ele>
        <time>2023-07-14T08:22:27.957Z</time>
      </trkpt>
      <trkpt lat="48.48751" lon="12.31074">
        <ele>496.285</ele>
        <time>2023-07-14T08:22:29.973Z</time>
      </trkpt>
      <trkpt lat="48.48756" lon="12.31087">
        <ele>496.370224</ele>
        <time>2023-07-14T08:22:31.962Z</time>
      </trkpt>
      <trkpt lat="48.48761" lon="12.31101">
        <ele>496.458134</ele>
        <time>2023-07-14T08:22:33.962Z</time>
      </trkpt>
      <trkpt lat="48.48766" lon="12.31113">
        <ele>496.542334</ele>
        <time>2023-07-14T08:22:35.953Z</time>
      </trkpt>
      <trkpt lat="48.48774" lon="12.31121">
        <ele>496.623015</ele>
        <time>2023-07-14T08:22:37.945Z</time>
      </trkpt>
      <trkpt lat="48.48785" lon="12.31116">
        <ele>496.717271</ele>
        <time>2023-07-14T08:22:40.934Z</time>
      </trkpt>
      <trkpt lat="48.48794" lon="12.31106">
        <ele>496.818756</ele>
        <time>2023-07-14T08:22:44.969Z</time>
      </trkpt>
      <trkpt lat="48.48804" lon="12.31095">
        <ele>496.918877</ele>
        <time>2023-07-14T08:22:48.944Z</time>
      </trkpt>
      <trkpt lat="48.48814" lon="12.31089">
        <ele>497.0009</ele>
        <time>2023-07-14T08:22:52.942Z</time>
      </trkpt>
      <trkpt lat="48.48824" lon="12.31098">
        <ele>497.024748</ele>
        <time>2023-07-14T08:22:56.924Z</time>
      </trkpt>
      <trkpt lat="48.48831" lon="12.31112">
        <ele>497.047958</ele>
        <time>2023-07-14T08:22:59.955Z</time>
      </trkpt>
      <trkpt lat="48.48838" lon="12.31127">
        <ele>497.072437</ele>
        <time>2023-07-14T08:23:02.949Z</time>
      </trkpt>
      <trkpt lat="48.48843" lon="12.31138">
        <ele>497.091286</ele>
        <time>2023-07-14T08:23:04.946Z</time>
      </trkpt>
      <trkpt lat="48.48849" lon="12.3115">
        <ele>497.111292</ele>
        <time>2023-07-14T08:23:06.941Z</time>
      </trkpt>
      <trkpt lat="48.48855" lon="12.31162">
        <ele>497.130825</ele>
        <time>2023-07-14T08:23:08.946Z</time>
      </trkpt>
      <trkpt lat="48.48863" lon="12.31178">
        <ele>497.157077</ele>
        <time>2023-07-14T08:23:11.941Z</time>
      </trkpt>
      <trkpt lat="48.4887" lon="12.31193">
        <ele>497.182546</ele>
        <time>2023-07-14T08:23:14.942Z</time>
      </trkpt>
      <trkpt lat="48.48877" lon="12.31209">
        <ele>497.207887</ele>
        <time>2023-07-14T08:23:17.947Z</time>
      </trkpt>
      <trkpt lat="48.48883" lon="12.31226">
        <ele>497.234128</ele>
        <time>2023-07-14T08:23:20.958Z</time>
      </trkpt>
      <trkpt lat="48.48888" lon="12.31244">
        <ele>497.26072</ele>
        <time>2023-07-14T08:23:23.942Z</time>
      </trkpt>
      <trkpt lat="48.48892" lon="12.31257">
        <ele>497.279586</ele>
        <time>2023-07-14T08:23:25.952Z</time>
      </trkpt>
      <trkpt lat="48.48897" lon="12.3127">
        <ele>497.299703</ele>
        <time>2023-07-14T08:23:27.945Z</time>
      </trkpt>
      <trkpt lat="48.48903" lon="12.31283">
        <ele>497.32102</ele>
        <time>2023-07-14T08:23:29.960Z</time>
      </trkpt>
      <trkpt lat="48.48909" lon="12.31296">
        <ele>497.342446</ele>
        <time>2023-07-14T08:23:31.947Z</time>
      </trkpt>
      <trkpt lat="48.48915" lon="12.3131">
        <ele>497.398829</ele>
        <time>2023-07-14T08:23:33.953Z</time>
      </trkpt>
      <trkpt lat="48.48922" lon="12.31323">
        <ele>497.647222</ele>
        <time>2023-07-14T08:23:35.945Z</time>
      </trkpt>
      <trkpt lat="48.48928" lon="12.31338">
        <ele>497.899068</ele>
        <time>2023-07-14T08:23:37.951Z</time>
      </trkpt>
      <trkpt lat="48.48934" lon="12.31352">
        <ele>498.151011</ele>
        <time>2023-07-14T08:23:39.970Z</time>
      </trkpt>
      <trkpt lat="48.48941" lon="12.31366">
        <ele>498.405455</ele>
        <time>2023-07-14T08:23:41.953Z</time>
      </trkpt>
      <trkpt lat="48.48947" lon="12.3138">
        <ele>498.653747</ele>
        <time>2023-07-14T08:23:43.959Z</time>
      </trkpt>
      <trkpt lat="48.48954" lon="12.31394">
        <ele>498.898594</ele>
        <time>2023-07-14T08:23:45.962Z</time>
      </trkpt>
      <trkpt lat="48.48959" lon="12.31407">
        <ele>499.130922</ele>
        <time>2023-07-14T08:23:47.966Z</time>
      </trkpt>
      <trkpt lat="48.48965" lon="12.31419">
        <ele>499.347313</ele>
        <time>2023-07-14T08:23:49.954Z</time>
      </trkpt>
      <trkpt lat="48.4897" lon="12.3143">
        <ele>499.550736</ele>
        <time>2023-07-14T08:23:51.959Z</time>
      </trkpt>
      <trkpt lat="48.48978" lon="12.31446">
        <ele>499.828328</ele>
        <time>2023-07-14T08:23:54.957Z</time>
      </trkpt>
      <trkpt lat="48.48985" lon="12.3146">
        <ele>500.092601</ele>
        <time>2023-07-14T08:23:57.955Z</time>
      </trkpt>
      <trkpt lat="48.48991" lon="12.31474">
        <ele>500.347043</ele>
        <time>2023-07-14T08:24:00.965Z</time>
      </trkpt>
      <trkpt lat="48.48998" lon="12.31488">
        <ele>500.587988</ele>
        <time>2023-07-14T08:24:03.947Z</time>
      </trkpt>
      <trkpt lat="48.49004" lon="12.315">
        <ele>500.813151</ele>
        <time>2023-07-14T08:24:06.935Z</time>
      </trkpt>
      <trkpt lat="48.4901" lon="12.31512">
        <ele>501.033457</ele>
        <time>2023-07-14T08:24:09.944Z</time>
      </trkpt>
      <trkpt lat="48.49016" lon="12.31524">
        <ele>501.253909</ele>
        <time>2023-07-14T08:24:12.937Z</time>
      </trkpt>
      <trkpt lat="48.49021" lon="12.31536">
        <ele>501.412983</ele>
        <time>2023-07-14T08:24:15.960Z</time>
      </trkpt>
      <trkpt lat="48.49028" lon="12.31548">
        <ele>501.535427</ele>
        <time>2023-07-14T08:24:18.945Z</time>
      </trkpt>
      <trkpt lat="48.49033" lon="12.3156">
        <ele>501.655538</ele>
        <time>2023-07-14T08:24:21.948Z</time>
      </trkpt>
      <trkpt lat="48.49039" lon="12.31571">
        <ele>501.771379</ele>
        <time>2023-07-14T08:24:24.966Z</time>
      </trkpt>
      <trkpt lat="48.49045" lon="12.31581">
        <ele>501.881743</ele>
        <time>2023-07-14T08:24:27.942Z</time>
      </trkpt>
      <trkpt lat="48.49052" lon="12.31595">
        <ele>502.02157</ele>
        <time>2023-07-14T08:24:31.945Z</time>
      </trkpt>
      <trkpt lat="48.49059" lon="12.31608">
        <ele>502.159328</ele>
        <time>2023-07-14T08:24:35.947Z</time>
      </trkpt>
      <trkpt lat="48.49066" lon="12.31622">
        <ele>502.3029</ele>
        <time>2023-07-14T08:24:39.968Z</time>
      </trkpt>
      <trkpt lat="48.49072" lon="12.31633">
        <ele>502.416868</ele>
        <time>2023-07-14T08:24:42.942Z</time>
      </trkpt>
      <trkpt lat="48.49079" lon="12.31644">
        <ele>502.534117</ele>
        <time>2023-07-14T08:24:45.953Z</time>
      </trkpt>
      <trkpt lat="48.49086" lon="12.31656">
        <ele>502.663495</ele>
        <time>2023-07-14T08:24:48.950Z</time>
      </trkpt>
      <trkpt lat="48.49093" lon="12.31669">
        <ele>502.806688</ele>
        <time>2023-07-14T08:24:51.944Z</time>
      </trkpt>
      <trkpt lat="48.49101" lon="12.31682">
        <ele>502.946649</ele>
        <time>2023-07-14T08:24:54.947Z</time>
      </trkpt>
      <trkpt lat="48.49109" lon="12.31696">
        <ele>503.09899</ele>
        <time>2023-07-14T08:24:57.951Z</time>
      </trkpt>
      <trkpt lat="48.49115" lon="12.31706">
        <ele>503.211308</ele>
        <time>2023-07-14T08:24:59.951Z</time>
      </trkpt>
      <trkpt lat="48.49121" lon="12.31717">
        <ele>503.325276</ele>
        <time>2023-07-14T08:25:01.951Z</time>
      </trkpt>
      <trkpt lat="48.49127" lon="12.31727">
        <ele>503.440233</ele>
        <time>2023-07-14T08:25:03.938Z</time>
      </trkpt>
      <trkpt lat="48.49134" lon="12.31738">
        <ele>503.531362</ele>
        <time>2023-07-14T08:25:05.958Z</time>
      </trkpt>
      <trkpt lat="48.49141" lon="12.31749">
        <ele>503.399309</ele>
        <time>2023-07-14T08:25:07.950Z</time>
      </trkpt>
      <trkpt lat="48.49147" lon="12.3176">
        <ele>503.265647</ele>
        <time>2023-07-14T08:25:09.963Z</time>
      </trkpt>
      <trkpt lat="48.49153" lon="12.3177">
        <ele>503.139602</ele>
        <time>2023-07-14T08:25:11.954Z</time>
      </trkpt>
      <trkpt lat="48.4916" lon="12.3178">
        <ele>503.011705</ele>
        <time>2023-07-14T08:25:13.945Z</time>
      </trkpt>
      <trkpt lat="48.49166" lon="12.3179">
        <ele>502.884477</ele>
        <time>2023-07-14T08:25:15.951Z</time>
      </trkpt>
      <trkpt lat="48.49172" lon="12.318">
        <ele>502.756967</ele>
        <time>2023-07-14T08:25:17.967Z</time>
      </trkpt>
      <trkpt lat="48.49179" lon="12.31811">
        <ele>502.620082</ele>
        <time>2023-07-14T08:25:19.950Z</time>
      </trkpt>
      <trkpt lat="48.49186" lon="12.31821">
        <ele>502.491303</ele>
        <time>2023-07-14T08:25:21.954Z</time>
      </trkpt>
      <trkpt lat="48.49193" lon="12.31831">
        <ele>502.359205</ele>
        <time>2023-07-14T08:25:23.951Z</time>
      </trkpt>
      <trkpt lat="48.492" lon="12.31841">
        <ele>502.229451</ele>
        <time>2023-07-14T08:25:25.956Z</time>
      </trkpt>
      <trkpt lat="48.49207" lon="12.31851">
        <ele>502.097762</ele>
        <time>2023-07-14T08:25:27.953Z</time>
      </trkpt>
      <trkpt lat="48.49214" lon="12.31862">
        <ele>501.956687</ele>
        <time>2023-07-14T08:25:29.949Z</time>
      </trkpt>
      <trkpt lat="48.49222" lon="12.31873">
        <ele>501.811317</ele>
        <time>2023-07-14T08:25:31.932Z</time>
      </trkpt>
      <trkpt lat="48.49229" lon="12.31883">
        <ele>501.674438</ele>
        <time>2023-07-14T08:25:33.936Z</time>
      </trkpt>
      <trkpt lat="48.49236" lon="12.31893">
        <ele>501.542092</ele>
        <time>2023-07-14T08:25:35.948Z</time>
      </trkpt>
      <trkpt lat="48.49242" lon="12.31904">
        <ele>501.408431</ele>
        <time>2023-07-14T08:25:37.946Z</time>
      </trkpt>
      <trkpt lat="48.49249" lon="12.31914">
        <ele>501.276705</ele>
        <time>2023-07-14T08:25:39.940Z</time>
      </trkpt>
      <trkpt lat="48.49255" lon="12.31924">
        <ele>501.151752</ele>
        <time>2023-07-14T08:25:41.952Z</time>
      </trkpt>
      <trkpt lat="48.49264" lon="12.31939">
        <ele>501.010412</ele>
        <time>2023-07-14T08:25:44.946Z</time>
      </trkpt>
      <trkpt lat="48.49273" lon="12.31953">
        <ele>500.903914</ele>
        <time>2023-07-14T08:25:47.943Z</time>
      </trkpt>
      <trkpt lat="48.49281" lon="12.31968">
        <ele>500.793922</ele>
        <time>2023-07-14T08:25:50.937Z</time>
      </trkpt>
      <trkpt lat="48.49289" lon="12.31984">
        <ele>500.682906</ele>
        <time>2023-07-14T08:25:53.951Z</time>
      </trkpt>
      <trkpt lat="48.49294" lon="12.31996">
        <ele>500.605958</ele>
        <time>2023-07-14T08:25:55.933Z</time>
      </trkpt>
      <trkpt lat="48.49298" lon="12.32008">
        <ele>500.528313</ele>
        <time>2023-07-14T08:25:57.947Z</time>
      </trkpt>
      <trkpt lat="48.49301" lon="12.32021">
        <ele>500.451763</ele>
        <time>2023-07-14T08:25:59.936Z</time>
      </trkpt>
      <trkpt lat="48.49305" lon="12.32034">
        <ele>500.374251</ele>
        <time>2023-07-14T08:26:01.949Z</time>
      </trkpt>
      <trkpt lat="48.49309" lon="12.32047">
        <ele>500.297097</ele>
        <time>2023-07-14T08:26:03.945Z</time>
      </trkpt>
      <trkpt lat="48.49311" lon="12.3206">
        <ele>500.219731</ele>
        <time>2023-07-14T08:26:05.939Z</time>
      </trkpt>
      <trkpt lat="48.49315" lon="12.32074">
        <ele>500.135237</ele>
        <time>2023-07-14T08:26:07.945Z</time>
      </trkpt>
      <trkpt lat="48.49319" lon="12.32088">
        <ele>500.050173</ele>
        <time>2023-07-14T08:26:09.942Z</time>
      </trkpt>
      <trkpt lat="48.49321" lon="12.32104">
        <ele>499.962793</ele>
        <time>2023-07-14T08:26:11.961Z</time>
      </trkpt>
      <trkpt lat="48.49323" lon="12.3212">
        <ele>499.870346</ele>
        <time>2023-07-14T08:26:13.949Z</time>
      </trkpt>
      <trkpt lat="48.49324" lon="12.32137">
        <ele>499.77459</ele>
        <time>2023-07-14T08:26:15.945Z</time>
      </trkpt>
      <trkpt lat="48.49325" lon="12.32155">
        <ele>499.677367</ele>
        <time>2023-07-14T08:26:17.947Z</time>
      </trkpt>
      <trkpt lat="48.49329" lon="12.32171">
        <ele>499.584239</ele>
        <time>2023-07-14T08:26:19.969Z</time>
      </trkpt>
      <trkpt lat="48.49332" lon="12.32184">
        <ele>499.429156</ele>
        <time>2023-07-14T08:26:21.950Z</time>
      </trkpt>
      <trkpt lat="48.49334" lon="12.32199">
        <ele>499.229998</ele>
        <time>2023-07-14T08:26:25.952Z</time>
      </trkpt>
      <trkpt lat="48.49332" lon="12.32186">
        <ele>499.050057</ele>
        <time>2023-07-14T08:29:45.935Z</time>
      </trkpt>
      <trkpt lat="48.49324" lon="12.32196">
        <ele>498.847653</ele>
        <time>2023-07-14T08:29:51.947Z</time>
      </trkpt>
      <trkpt lat="48.49323" lon="12.32212">
        <ele>498.650821</ele>
        <time>2023-07-14T08:29:54.948Z</time>
      </trkpt>
      <trkpt lat="48.49322" lon="12.32229">
        <ele>498.424749</ele>
        <time>2023-07-14T08:29:57.951Z</time>
      </trkpt>
      <trkpt lat="48.49321" lon="12.3225">
        <ele>498.168377</ele>
        <time>2023-07-14T08:30:00.952Z</time>
      </trkpt>
      <trkpt lat="48.4932" lon="12.32264">
        <ele>497.983903</ele>
        <time>2023-07-14T08:30:02.947Z</time>
      </trkpt>
      <trkpt lat="48.49318" lon="12.32279">
        <ele>497.788837</ele>
        <time>2023-07-14T08:30:04.959Z</time>
      </trkpt>
      <trkpt lat="48.49317" lon="12.32295">
        <ele>497.590292</ele>
        <time>2023-07-14T08:30:06.946Z</time>
      </trkpt>
      <trkpt lat="48.49316" lon="12.32311">
        <ele>497.381323</ele>
        <time>2023-07-14T08:30:08.946Z</time>
      </trkpt>
      <trkpt lat="48.49315" lon="12.32328">
        <ele>497.175734</ele>
        <time>2023-07-14T08:30:10.949Z</time>
      </trkpt>
      <trkpt lat="48.49313" lon="12.32345">
        <ele>496.957398</ele>
        <time>2023-07-14T08:30:12.956Z</time>
      </trkpt>
      <trkpt lat="48.49312" lon="12.32363">
        <ele>496.732998</ele>
        <time>2023-07-14T08:30:15.010Z</time>
      </trkpt>
      <trkpt lat="48.49311" lon="12.32381">
        <ele>496.499293</ele>
        <time>2023-07-14T08:30:16.951Z</time>
      </trkpt>
      <trkpt lat="48.49311" lon="12.324">
        <ele>496.263254</ele>
        <time>2023-07-14T08:30:18.949Z</time>
      </trkpt>
      <trkpt lat="48.49311" lon="12.32418">
        <ele>496.100122</ele>
        <time>2023-07-14T08:30:20.950Z</time>
      </trkpt>
      <trkpt lat="48.4931" lon="12.32436">
        <ele>496.008181</ele>
        <time>2023-07-14T08:30:22.952Z</time>
      </trkpt>
      <trkpt lat="48.49311" lon="12.32454">
        <ele>495.918162</ele>
        <time>2023-07-14T08:30:24.974Z</time>
      </trkpt>
      <trkpt lat="48.49312" lon="12.32472">
        <ele>495.828464</ele>
        <time>2023-07-14T08:30:26.947Z</time>
      </trkpt>
      <trkpt lat="48.49312" lon="12.32491">
        <ele>495.736386</ele>
        <time>2023-07-14T08:30:28.954Z</time>
      </trkpt>
      <trkpt lat="48.49314" lon="12.32509">
        <ele>495.646985</ele>
        <time>2023-07-14T08:30:30.950Z</time>
      </trkpt>
      <trkpt lat="48.49316" lon="12.32526">
        <ele>495.557395</ele>
        <time>2023-07-14T08:30:32.982Z</time>
      </trkpt>
      <trkpt lat="48.49318" lon="12.32543">
        <ele>495.471599</ele>
        <time>2023-07-14T08:30:34.948Z</time>
      </trkpt>
      <trkpt lat="48.4932" lon="12.32559">
        <ele>495.390203</ele>
        <time>2023-07-14T08:30:36.962Z</time>
      </trkpt>
      <trkpt lat="48.49321" lon="12.32575">
        <ele>495.311644</ele>
        <time>2023-07-14T08:30:38.950Z</time>
      </trkpt>
      <trkpt lat="48.49324" lon="12.32589">
        <ele>495.23804</ele>
        <time>2023-07-14T08:30:40.958Z</time>
      </trkpt>
      <trkpt lat="48.49326" lon="12.32603">
        <ele>495.168651</ele>
        <time>2023-07-14T08:30:42.956Z</time>
      </trkpt>
      <trkpt lat="48.49327" lon="12.32618">
        <ele>495.092173</ele>
        <time>2023-07-14T08:30:44.945Z</time>
      </trkpt>
      <trkpt lat="48.49329" lon="12.32633">
        <ele>495.016187</ele>
        <time>2023-07-14T08:30:46.951Z</time>
      </trkpt>
      <trkpt lat="48.49331" lon="12.32648">
        <ele>494.941905</ele>
        <time>2023-07-14T08:30:48.934Z</time>
      </trkpt>
      <trkpt lat="48.49331" lon="12.32663">
        <ele>494.869849</ele>
        <time>2023-07-14T08:30:50.949Z</time>
      </trkpt>
      <trkpt lat="48.4933" lon="12.32677">
        <ele>494.797204</ele>
        <time>2023-07-14T08:30:52.937Z</time>
      </trkpt>
      <trkpt lat="48.49329" lon="12.32692">
        <ele>494.711373</ele>
        <time>2023-07-14T08:30:55.026Z</time>
      </trkpt>
      <trkpt lat="48.49328" lon="12.32707">
        <ele>494.622799</ele>
        <time>2023-07-14T08:30:56.952Z</time>
      </trkpt>
      <trkpt lat="48.49327" lon="12.32722">
        <ele>494.534349</ele>
        <time>2023-07-14T08:30:58.950Z</time>
      </trkpt>
      <trkpt lat="48.49325" lon="12.32738">
        <ele>494.44256</ele>
        <time>2023-07-14T08:31:00.947Z</time>
      </trkpt>
      <trkpt lat="48.49324" lon="12.32753">
        <ele>494.351393</ele>
        <time>2023-07-14T08:31:02.944Z</time>
      </trkpt>
      <trkpt lat="48.49324" lon="12.32769">
        <ele>494.256932</ele>
        <time>2023-07-14T08:31:04.949Z</time>
      </trkpt>
      <trkpt lat="48.49324" lon="12.32786">
        <ele>494.160139</ele>
        <time>2023-07-14T08:31:06.970Z</time>
      </trkpt>
      <trkpt lat="48.49325" lon="12.32804">
        <ele>494.057859</ele>
        <time>2023-07-14T08:31:08.961Z</time>
      </trkpt>
      <trkpt lat="48.49327" lon="12.32822">
        <ele>493.950566</ele>
        <time>2023-07-14T08:31:10.925Z</time>
      </trkpt>
      <trkpt lat="48.49329" lon="12.32842">
        <ele>493.833575</ele>
        <time>2023-07-14T08:31:12.942Z</time>
      </trkpt>
      <trkpt lat="48.49331" lon="12.32862">
        <ele>493.714905</ele>
        <time>2023-07-14T08:31:14.941Z</time>
      </trkpt>
      <trkpt lat="48.49334" lon="12.32882">
        <ele>493.592105</ele>
        <time>2023-07-14T08:31:16.943Z</time>
      </trkpt>
      <trkpt lat="48.49338" lon="12.32902">
        <ele>493.469739</ele>
        <time>2023-07-14T08:31:18.927Z</time>
      </trkpt>
      <trkpt lat="48.49343" lon="12.32921">
        <ele>493.353191</ele>
        <time>2023-07-14T08:31:20.947Z</time>
      </trkpt>
      <trkpt lat="48.49347" lon="12.32938">
        <ele>493.246456</ele>
        <time>2023-07-14T08:31:22.966Z</time>
      </trkpt>
      <trkpt lat="48.49352" lon="12.32954">
        <ele>493.227529</ele>
        <time>2023-07-14T08:31:24.972Z</time>
      </trkpt>
      <trkpt lat="48.49358" lon="12.32969">
        <ele>493.255128</ele>
        <time>2023-07-14T08:31:26.960Z</time>
      </trkpt>
      <trkpt lat="48.49364" lon="12.32983">
        <ele>493.281722</ele>
        <time>2023-07-14T08:31:28.948Z</time>
      </trkpt>
      <trkpt lat="48.49369" lon="12.32996">
        <ele>493.308434</ele>
        <time>2023-07-14T08:31:30.953Z</time>
      </trkpt>
      <trkpt lat="48.49375" lon="12.33009">
        <ele>493.334191</ele>
        <time>2023-07-14T08:31:32.962Z</time>
      </trkpt>
      <trkpt lat="48.4938" lon="12.33022">
        <ele>493.357636</ele>
        <time>2023-07-14T08:31:34.936Z</time>
      </trkpt>
      <trkpt lat="48.49388" lon="12.33038">
        <ele>493.391031</ele>
        <time>2023-07-14T08:31:37.962Z</time>
      </trkpt>
      <trkpt lat="48.49393" lon="12.3305">
        <ele>493.413381</ele>
        <time>2023-07-14T08:31:39.961Z</time>
      </trkpt>
      <trkpt lat="48.49401" lon="12.33066">
        <ele>493.445591</ele>
        <time>2023-07-14T08:31:42.946Z</time>
      </trkpt>
      <trkpt lat="48.49409" lon="12.33079">
        <ele>493.475529</ele>
        <time>2023-07-14T08:31:45.935Z</time>
      </trkpt>
      <trkpt lat="48.49417" lon="12.33093">
        <ele>493.505504</ele>
        <time>2023-07-14T08:31:48.947Z</time>
      </trkpt>
      <trkpt lat="48.49425" lon="12.33106">
        <ele>493.534582</ele>
        <time>2023-07-14T08:31:51.951Z</time>
      </trkpt>
      <trkpt lat="48.49432" lon="12.3312">
        <ele>493.563792</ele>
        <time>2023-07-14T08:31:54.932Z</time>
      </trkpt>
      <trkpt lat="48.4944" lon="12.33134">
        <ele>493.593972</ele>
        <time>2023-07-14T08:31:57.949Z</time>
      </trkpt>
      <trkpt lat="48.49449" lon="12.33148">
        <ele>493.624852</ele>
        <time>2023-07-14T08:32:00.951Z</time>
      </trkpt>
      <trkpt lat="48.49457" lon="12.33164">
        <ele>493.65805</ele>
        <time>2023-07-14T08:32:03.950Z</time>
      </trkpt>
      <trkpt lat="48.49464" lon="12.33179">
        <ele>493.693399</ele>
        <time>2023-07-14T08:32:06.951Z</time>
      </trkpt>
      <trkpt lat="48.49472" lon="12.33195">
        <ele>493.728769</ele>
        <time>2023-07-14T08:32:09.955Z</time>
      </trkpt>
      <trkpt lat="48.49478" lon="12.33211">
        <ele>493.763659</ele>
        <time>2023-07-14T08:32:12.960Z</time>
      </trkpt>
      <trkpt lat="48.49485" lon="12.33228">
        <ele>493.799085</ele>
        <time>2023-07-14T08:32:15.957Z</time>
      </trkpt>
      <trkpt lat="48.4949" lon="12.33245">
        <ele>493.833969</ele>
        <time>2023-07-14T08:32:18.951Z</time>
      </trkpt>
      <trkpt lat="48.49496" lon="12.33263">
        <ele>493.869878</ele>
        <time>2023-07-14T08:32:21.948Z</time>
      </trkpt>
      <trkpt lat="48.49502" lon="12.3328">
        <ele>493.905258</ele>
        <time>2023-07-14T08:32:24.950Z</time>
      </trkpt>
      <trkpt lat="48.49507" lon="12.33297">
        <ele>493.940922</ele>
        <time>2023-07-14T08:32:27.955Z</time>
      </trkpt>
      <trkpt lat="48.49513" lon="12.33316">
        <ele>493.977819</ele>
        <time>2023-07-14T08:32:30.957Z</time>
      </trkpt>
      <trkpt lat="48.49519" lon="12.33333">
        <ele>494.014306</ele>
        <time>2023-07-14T08:32:34.011Z</time>
      </trkpt>
      <trkpt lat="48.49523" lon="12.33346">
        <ele>494.039879</ele>
        <time>2023-07-14T08:32:35.956Z</time>
      </trkpt>
      <trkpt lat="48.49527" lon="12.33358">
        <ele>494.064903</ele>
        <time>2023-07-14T08:32:37.950Z</time>
      </trkpt>
      <trkpt lat="48.49532" lon="12.33376">
        <ele>494.101446</ele>
        <time>2023-07-14T08:32:40.950Z</time>
      </trkpt>
      <trkpt lat="48.49536" lon="12.33389">
        <ele>494.126636</ele>
        <time>2023-07-14T08:32:42.951Z</time>
      </trkpt>
      <trkpt lat="48.4954" lon="12.33401">
        <ele>494.146176</ele>
        <time>2023-07-14T08:32:44.947Z</time>
      </trkpt>
      <trkpt lat="48.49544" lon="12.33413">
        <ele>494.066348</ele>
        <time>2023-07-14T08:32:46.980Z</time>
      </trkpt>
      <trkpt lat="48.4955" lon="12.33431">
        <ele>493.94983</ele>
        <time>2023-07-14T08:32:49.959Z</time>
      </trkpt>
      <trkpt lat="48.49555" lon="12.33449">
        <ele>493.83602</ele>
        <time>2023-07-14T08:32:52.943Z</time>
      </trkpt>
      <trkpt lat="48.49559" lon="12.33468">
        <ele>493.719845</ele>
        <time>2023-07-14T08:32:55.949Z</time>
      </trkpt>
      <trkpt lat="48.49562" lon="12.33482">
        <ele>493.636204</ele>
        <time>2023-07-14T08:32:57.962Z</time>
      </trkpt>
      <trkpt lat="48.49565" lon="12.33496">
        <ele>493.549622</ele>
        <time>2023-07-14T08:32:59.970Z</time>
      </trkpt>
      <trkpt lat="48.49567" lon="12.33511">
        <ele>493.459294</ele>
        <time>2023-07-14T08:33:01.959Z</time>
      </trkpt>
      <trkpt lat="48.49568" lon="12.33526">
        <ele>493.368613</ele>
        <time>2023-07-14T08:33:03.948Z</time>
      </trkpt>
      <trkpt lat="48.4957" lon="12.33542">
        <ele>493.273144</ele>
        <time>2023-07-14T08:33:05.957Z</time>
      </trkpt>
      <trkpt lat="48.49572" lon="12.33558">
        <ele>493.17901</ele>
        <time>2023-07-14T08:33:07.954Z</time>
      </trkpt>
      <trkpt lat="48.49574" lon="12.33574">
        <ele>493.083112</ele>
        <time>2023-07-14T08:33:09.951Z</time>
      </trkpt>
      <trkpt lat="48.49576" lon="12.3359">
        <ele>492.986947</ele>
        <time>2023-07-14T08:33:11.965Z</time>
      </trkpt>
      <trkpt lat="48.49579" lon="12.33606">
        <ele>492.892048</ele>
        <time>2023-07-14T08:33:13.941Z</time>
      </trkpt>
      <trkpt lat="48.49581" lon="12.33622">
        <ele>492.795235</ele>
        <time>2023-07-14T08:33:15.951Z</time>
      </trkpt>
      <trkpt lat="48.49583" lon="12.33638">
        <ele>492.70053</ele>
        <time>2023-07-14T08:33:17.948Z</time>
      </trkpt>
      <trkpt lat="48.49586" lon="12.33654">
        <ele>492.60478</ele>
        <time>2023-07-14T08:33:19.948Z</time>
      </trkpt>
      <trkpt lat="48.49589" lon="12.33669">
        <ele>492.517534</ele>
        <time>2023-07-14T08:33:21.948Z</time>
      </trkpt>
      <trkpt lat="48.49592" lon="12.33685">
        <ele>492.43416</ele>
        <time>2023-07-14T08:33:23.950Z</time>
      </trkpt>
      <trkpt lat="48.49595" lon="12.33702">
        <ele>492.349012</ele>
        <time>2023-07-14T08:33:25.955Z</time>
      </trkpt>
      <trkpt lat="48.49597" lon="12.33718">
        <ele>492.262514</ele>
        <time>2023-07-14T08:33:27.961Z</time>
      </trkpt>
      <trkpt lat="48.49601" lon="12.33735">
        <ele>492.175214</ele>
        <time>2023-07-14T08:33:29.955Z</time>
      </trkpt>
      <trkpt lat="48.49604" lon="12.33751">
        <ele>492.090596</ele>
        <time>2023-07-14T08:33:31.953Z</time>
      </trkpt>
      <trkpt lat="48.49607" lon="12.33767">
        <ele>492.006054</ele>
        <time>2023-07-14T08:33:33.963Z</time>
      </trkpt>
      <trkpt lat="48.4961" lon="12.33784">
        <ele>491.917019</ele>
        <time>2023-07-14T08:33:35.955Z</time>
      </trkpt>
      <trkpt lat="48.49613" lon="12.33801">
        <ele>491.828572</ele>
        <time>2023-07-14T08:33:37.950Z</time>
      </trkpt>
      <trkpt lat="48.49617" lon="12.33817">
        <ele>491.741567</ele>
        <time>2023-07-14T08:33:39.949Z</time>
      </trkpt>
      <trkpt lat="48.49621" lon="12.33833">
        <ele>491.655264</ele>
        <time>2023-07-14T08:33:41.946Z</time>
      </trkpt>
      <trkpt lat="48.49625" lon="12.33849">
        <ele>491.570235</ele>
        <time>2023-07-14T08:33:43.956Z</time>
      </trkpt>
      <trkpt lat="48.49629" lon="12.33865">
        <ele>491.485388</ele>
        <time>2023-07-14T08:33:45.945Z</time>
      </trkpt>
      <trkpt lat="48.49632" lon="12.33881">
        <ele>491.39861</ele>
        <time>2023-07-14T08:33:47.959Z</time>
      </trkpt>
      <trkpt lat="48.49636" lon="12.33897">
        <ele>491.312729</ele>
        <time>2023-07-14T08:33:49.968Z</time>
      </trkpt>
      <trkpt lat="48.4964" lon="12.33913">
        <ele>491.226848</ele>
        <time>2023-07-14T08:33:51.950Z</time>
      </trkpt>
      <trkpt lat="48.49644" lon="12.33928">
        <ele>491.212151</ele>
        <time>2023-07-14T08:33:53.953Z</time>
      </trkpt>
      <trkpt lat="48.49648" lon="12.33943">
        <ele>491.246006</ele>
        <time>2023-07-14T08:33:55.959Z</time>
      </trkpt>
      <trkpt lat="48.49652" lon="12.33957">
        <ele>491.278705</ele>
        <time>2023-07-14T08:33:57.962Z</time>
      </trkpt>
      <trkpt lat="48.49655" lon="12.33971">
        <ele>491.310776</ele>
        <time>2023-07-14T08:33:59.954Z</time>
      </trkpt>
      <trkpt lat="48.49658" lon="12.33985">
        <ele>491.343148</ele>
        <time>2023-07-14T08:34:01.951Z</time>
      </trkpt>
      <trkpt lat="48.49662" lon="12.33999">
        <ele>491.375278</ele>
        <time>2023-07-14T08:34:03.967Z</time>
      </trkpt>
      <trkpt lat="48.49665" lon="12.34012">
        <ele>491.404893</ele>
        <time>2023-07-14T08:34:05.950Z</time>
      </trkpt>
      <trkpt lat="48.4967" lon="12.3403">
        <ele>491.447343</ele>
        <time>2023-07-14T08:34:08.942Z</time>
      </trkpt>
      <trkpt lat="48.49675" lon="12.34046">
        <ele>491.485523</ele>
        <time>2023-07-14T08:34:11.948Z</time>
      </trkpt>
      <trkpt lat="48.49682" lon="12.34061">
        <ele>491.523691</ele>
        <time>2023-07-14T08:34:14.940Z</time>
      </trkpt>
      <trkpt lat="48.49688" lon="12.34077">
        <ele>491.564532</ele>
        <time>2023-07-14T08:34:17.954Z</time>
      </trkpt>
      <trkpt lat="48.49695" lon="12.34093">
        <ele>491.606286</ele>
        <time>2023-07-14T08:34:20.948Z</time>
      </trkpt>
      <trkpt lat="48.49702" lon="12.34109">
        <ele>491.646948</ele>
        <time>2023-07-14T08:34:23.937Z</time>
      </trkpt>
      <trkpt lat="48.49708" lon="12.34123">
        <ele>491.684374</ele>
        <time>2023-07-14T08:34:26.950Z</time>
      </trkpt>
      <trkpt lat="48.49715" lon="12.34138">
        <ele>491.721438</ele>
        <time>2023-07-14T08:34:29.971Z</time>
      </trkpt>
      <trkpt lat="48.4972" lon="12.34153">
        <ele>491.758438</ele>
        <time>2023-07-14T08:34:32.946Z</time>
      </trkpt>
      <trkpt lat="48.49727" lon="12.34165">
        <ele>491.845612</ele>
        <time>2023-07-14T08:34:35.951Z</time>
      </trkpt>
      <trkpt lat="48.49733" lon="12.34178">
        <ele>491.990143</ele>
        <time>2023-07-14T08:34:38.965Z</time>
      </trkpt>
      <trkpt lat="48.49739" lon="12.3419">
        <ele>492.130893</ele>
        <time>2023-07-14T08:34:41.973Z</time>
      </trkpt>
      <trkpt lat="48.49745" lon="12.34202">
        <ele>492.269902</ele>
        <time>2023-07-14T08:34:44.936Z</time>
      </trkpt>
      <trkpt lat="48.49752" lon="12.34214">
        <ele>492.409456</ele>
        <time>2023-07-14T08:34:47.954Z</time>
      </trkpt>
      <trkpt lat="48.49758" lon="12.34226">
        <ele>492.548634</ele>
        <time>2023-07-14T08:34:50.961Z</time>
      </trkpt>
      <trkpt lat="48.49763" lon="12.34238">
        <ele>492.686051</ele>
        <time>2023-07-14T08:34:53.949Z</time>
      </trkpt>
      <trkpt lat="48.49769" lon="12.34251">
        <ele>492.823492</ele>
        <time>2023-07-14T08:34:56.950Z</time>
      </trkpt>
      <trkpt lat="48.49774" lon="12.34264">
        <ele>492.9665</ele>
        <time>2023-07-14T08:34:59.968Z</time>
      </trkpt>
      <trkpt lat="48.49779" lon="12.34278">
        <ele>493.112595</ele>
        <time>2023-07-14T08:35:02.945Z</time>
      </trkpt>
      <trkpt lat="48.49784" lon="12.34292">
        <ele>493.260531</ele>
        <time>2023-07-14T08:35:05.955Z</time>
      </trkpt>
      <trkpt lat="48.49789" lon="12.34306">
        <ele>493.406729</ele>
        <time>2023-07-14T08:35:08.957Z</time>
      </trkpt>
      <trkpt lat="48.49794" lon="12.34319">
        <ele>493.549292</ele>
        <time>2023-07-14T08:35:11.945Z</time>
      </trkpt>
      <trkpt lat="48.49799" lon="12.34333">
        <ele>493.696419</ele>
        <time>2023-07-14T08:35:14.953Z</time>
      </trkpt>
      <trkpt lat="48.49805" lon="12.34349">
        <ele>493.856229</ele>
        <time>2023-07-14T08:35:17.946Z</time>
      </trkpt>
      <trkpt lat="48.4981" lon="12.34365">
        <ele>494.026133</ele>
        <time>2023-07-14T08:35:20.955Z</time>
      </trkpt>
      <trkpt lat="48.49815" lon="12.34383">
        <ele>494.200792</ele>
        <time>2023-07-14T08:35:23.967Z</time>
      </trkpt>
      <trkpt lat="48.49821" lon="12.34398">
        <ele>494.200364</ele>
        <time>2023-07-14T08:35:26.962Z</time>
      </trkpt>
      <trkpt lat="48.49827" lon="12.34416">
        <ele>494.045606</ele>
        <time>2023-07-14T08:35:29.935Z</time>
      </trkpt>
      <trkpt lat="48.49833" lon="12.34432">
        <ele>493.899841</ele>
        <time>2023-07-14T08:35:32.947Z</time>
      </trkpt>
      <trkpt lat="48.49838" lon="12.34444">
        <ele>493.787976</ele>
        <time>2023-07-14T08:35:34.939Z</time>
      </trkpt>
      <trkpt lat="48.49842" lon="12.34458">
        <ele>493.670516</ele>
        <time>2023-07-14T08:35:36.923Z</time>
      </trkpt>
      <trkpt lat="48.49846" lon="12.34473">
        <ele>493.544524</ele>
        <time>2023-07-14T08:35:38.942Z</time>
      </trkpt>
      <trkpt lat="48.4985" lon="12.34487">
        <ele>493.417806</ele>
        <time>2023-07-14T08:35:40.943Z</time>
      </trkpt>
      <trkpt lat="48.49854" lon="12.34502">
        <ele>493.294034</ele>
        <time>2023-07-14T08:35:42.960Z</time>
      </trkpt>
      <trkpt lat="48.49856" lon="12.34518">
        <ele>493.170778</ele>
        <time>2023-07-14T08:35:44.943Z</time>
      </trkpt>
      <trkpt lat="48.49857" lon="12.34533">
        <ele>493.051961</ele>
        <time>2023-07-14T08:35:46.948Z</time>
      </trkpt>
      <trkpt lat="48.49858" lon="12.34548">
        <ele>492.933767</ele>
        <time>2023-07-14T08:35:48.939Z</time>
      </trkpt>
      <trkpt lat="48.49859" lon="12.34563">
        <ele>492.811198</ele>
        <time>2023-07-14T08:35:50.960Z</time>
      </trkpt>
      <trkpt lat="48.4986" lon="12.34578">
        <ele>492.691338</ele>
        <time>2023-07-14T08:35:52.941Z</time>
      </trkpt>
      <trkpt lat="48.49861" lon="12.34594">
        <ele>492.56688</ele>
        <time>2023-07-14T08:35:54.962Z</time>
      </trkpt>
      <trkpt lat="48.49862" lon="12.34609">
        <ele>492.446348</ele>
        <time>2023-07-14T08:35:56.937Z</time>
      </trkpt>
      <trkpt lat="48.49864" lon="12.34625">
        <ele>492.325275</ele>
        <time>2023-07-14T08:35:58.936Z</time>
      </trkpt>
      <trkpt lat="48.49866" lon="12.3464">
        <ele>492.201017</ele>
        <time>2023-07-14T08:36:00.939Z</time>
      </trkpt>
      <trkpt lat="48.49869" lon="12.34656">
        <ele>492.059022</ele>
        <time>2023-07-14T08:36:02.945Z</time>
      </trkpt>
      <trkpt lat="48.49871" lon="12.34672">
        <ele>491.904846</ele>
        <time>2023-07-14T08:36:04.939Z</time>
      </trkpt>
      <trkpt lat="48.49873" lon="12.34688">
        <ele>491.758452</ele>
        <time>2023-07-14T08:36:06.945Z</time>
      </trkpt>
      <trkpt lat="48.49876" lon="12.34704">
        <ele>491.604277</ele>
        <time>2023-07-14T08:36:08.947Z</time>
      </trkpt>
      <trkpt lat="48.49878" lon="12.34721">
        <ele>491.442573</ele>
        <time>2023-07-14T08:36:10.970Z</time>
      </trkpt>
      <trkpt lat="48.49881" lon="12.34738">
        <ele>491.279368</ele>
        <time>2023-07-14T08:36:12.957Z</time>
      </trkpt>
      <trkpt lat="48.49883" lon="12.34756">
        <ele>491.112195</ele>
        <time>2023-07-14T08:36:14.959Z</time>
      </trkpt>
      <trkpt lat="48.49886" lon="12.34774">
        <ele>490.942354</ele>
        <time>2023-07-14T08:36:16.950Z</time>
      </trkpt>
      <trkpt lat="48.49888" lon="12.34788">
        <ele>490.802373</ele>
        <time>2023-07-14T08:36:18.951Z</time>
      </trkpt>
      <trkpt lat="48.49893" lon="12.348">
        <ele>490.67477</ele>
        <time>2023-07-14T08:36:20.944Z</time>
      </trkpt>
      <trkpt lat="48.499" lon="12.3481">
        <ele>490.541604</ele>
        <time>2023-07-14T08:36:22.937Z</time>
      </trkpt>
      <trkpt lat="48.49909" lon="12.34824">
        <ele>490.361243</ele>
        <time>2023-07-14T08:36:25.958Z</time>
      </trkpt>
      <trkpt lat="48.49913" lon="12.34837">
        <ele>490.232507</ele>
        <time>2023-07-14T08:36:27.957Z</time>
      </trkpt>
      <trkpt lat="48.49915" lon="12.3485">
        <ele>490.100956</ele>
        <time>2023-07-14T08:36:29.945Z</time>
      </trkpt>
      <trkpt lat="48.49916" lon="12.34866">
        <ele>489.95898</ele>
        <time>2023-07-14T08:36:31.943Z</time>
      </trkpt>
      <trkpt lat="48.49918" lon="12.34881">
        <ele>489.812885</ele>
        <time>2023-07-14T08:36:33.946Z</time>
      </trkpt>
      <trkpt lat="48.49918" lon="12.34898">
        <ele>489.659729</ele>
        <time>2023-07-14T08:36:35.937Z</time>
      </trkpt>
      <trkpt lat="48.4992" lon="12.34913">
        <ele>489.581581</ele>
        <time>2023-07-14T08:36:37.937Z</time>
      </trkpt>
      <trkpt lat="48.4992" lon="12.34928">
        <ele>489.524898</ele>
        <time>2023-07-14T08:36:39.954Z</time>
      </trkpt>
      <trkpt lat="48.49916" lon="12.34941">
        <ele>489.466153</ele>
        <time>2023-07-14T08:36:41.944Z</time>
      </trkpt>
      <trkpt lat="48.49915" lon="12.34961">
        <ele>489.387868</ele>
        <time>2023-07-14T08:36:44.944Z</time>
      </trkpt>
      <trkpt lat="48.49918" lon="12.34977">
        <ele>489.32641</ele>
        <time>2023-07-14T08:36:46.931Z</time>
      </trkpt>
      <trkpt lat="48.4992" lon="12.34991">
        <ele>489.268292</ele>
        <time>2023-07-14T08:36:48.932Z</time>
      </trkpt>
      <trkpt lat="48.49922" lon="12.35006">
        <ele>489.21103</ele>
        <time>2023-07-14T08:36:50.963Z</time>
      </trkpt>
      <trkpt lat="48.49923" lon="12.3502">
        <ele>489.155537</ele>
        <time>2023-07-14T08:36:52.947Z</time>
      </trkpt>
      <trkpt lat="48.49925" lon="12.35033">
        <ele>489.101197</ele>
        <time>2023-07-14T08:36:54.941Z</time>
      </trkpt>
      <trkpt lat="48.49926" lon="12.35048">
        <ele>489.042863</ele>
        <time>2023-07-14T08:36:56.926Z</time>
      </trkpt>
      <trkpt lat="48.49928" lon="12.35063">
        <ele>488.987221</ele>
        <time>2023-07-14T08:36:58.953Z</time>
      </trkpt>
      <trkpt lat="48.49929" lon="12.35077">
        <ele>488.930722</ele>
        <time>2023-07-14T08:37:00.947Z</time>
      </trkpt>
      <trkpt lat="48.49931" lon="12.35091">
        <ele>488.874752</ele>
        <time>2023-07-14T08:37:02.956Z</time>
      </trkpt>
      <trkpt lat="48.49933" lon="12.35105">
        <ele>488.820269</ele>
        <time>2023-07-14T08:37:04.952Z</time>
      </trkpt>
      <trkpt lat="48.49935" lon="12.3512">
        <ele>488.761754</ele>
        <time>2023-07-14T08:37:06.941Z</time>
      </trkpt>
      <trkpt lat="48.49938" lon="12.35134">
        <ele>488.702011</ele>
        <time>2023-07-14T08:37:08.936Z</time>
      </trkpt>
      <trkpt lat="48.49942" lon="12.35149">
        <ele>488.641046</ele>
        <time>2023-07-14T08:37:10.943Z</time>
      </trkpt>
      <trkpt lat="48.49945" lon="12.35163">
        <ele>488.583262</ele>
        <time>2023-07-14T08:37:12.950Z</time>
      </trkpt>
      <trkpt lat="48.49949" lon="12.35176">
        <ele>488.536929</ele>
        <time>2023-07-14T08:37:14.946Z</time>
      </trkpt>
      <trkpt lat="48.49953" lon="12.35188">
        <ele>488.491766</ele>
        <time>2023-07-14T08:37:16.946Z</time>
      </trkpt>
      <trkpt lat="48.49956" lon="12.35202">
        <ele>488.444451</ele>
        <time>2023-07-14T08:37:18.946Z</time>
      </trkpt>
      <trkpt lat="48.4996" lon="12.35215">
        <ele>488.400065</ele>
        <time>2023-07-14T08:37:20.953Z</time>
      </trkpt>
      <trkpt lat="48.49963" lon="12.35229">
        <ele>488.35311</ele>
        <time>2023-07-14T08:37:22.963Z</time>
      </trkpt>
      <trkpt lat="48.49965" lon="12.35242">
        <ele>488.306742</ele>
        <time>2023-07-14T08:37:24.957Z</time>
      </trkpt>
      <trkpt lat="48.49969" lon="12.35256">
        <ele>488.259324</ele>
        <time>2023-07-14T08:37:26.958Z</time>
      </trkpt>
      <trkpt lat="48.4997" lon="12.35271">
        <ele>488.211153</ele>
        <time>2023-07-14T08:37:28.963Z</time>
      </trkpt>
      <trkpt lat="48.49972" lon="12.35285">
        <ele>488.165947</ele>
        <time>2023-07-14T08:37:30.941Z</time>
      </trkpt>
      <trkpt lat="48.49973" lon="12.35298">
        <ele>488.121797</ele>
        <time>2023-07-14T08:37:32.936Z</time>
      </trkpt>
      <trkpt lat="48.49975" lon="12.35319">
        <ele>488.056123</ele>
        <time>2023-07-14T08:37:35.935Z</time>
      </trkpt>
      <trkpt lat="48.49976" lon="12.35333">
        <ele>488.010476</ele>
        <time>2023-07-14T08:37:37.940Z</time>
      </trkpt>
      <trkpt lat="48.49976" lon="12.35347">
        <ele>487.963752</ele>
        <time>2023-07-14T08:37:39.942Z</time>
      </trkpt>
      <trkpt lat="48.49976" lon="12.35361">
        <ele>487.919187</ele>
        <time>2023-07-14T08:37:41.946Z</time>
      </trkpt>
      <trkpt lat="48.49977" lon="12.35381">
        <ele>487.854196</ele>
        <time>2023-07-14T08:37:44.943Z</time>
      </trkpt>
      <trkpt lat="48.49978" lon="12.35402">
        <ele>487.787315</ele>
        <time>2023-07-14T08:37:47.947Z</time>
      </trkpt>
      <trkpt lat="48.49979" lon="12.35416">
        <ele>487.740849</ele>
        <time>2023-07-14T08:37:49.958Z</time>
      </trkpt>
      <trkpt lat="48.49979" lon="12.35431">
        <ele>487.691668</ele>
        <time>2023-07-14T08:37:51.957Z</time>
      </trkpt>
      <trkpt lat="48.49981" lon="12.35446">
        <ele>487.636193</ele>
        <time>2023-07-14T08:37:53.944Z</time>
      </trkpt>
      <trkpt lat="48.49982" lon="12.3546">
        <ele>487.579268</ele>
        <time>2023-07-14T08:37:55.957Z</time>
      </trkpt>
      <trkpt lat="48.49982" lon="12.35476">
        <ele>487.520283</ele>
        <time>2023-07-14T08:37:57.949Z</time>
      </trkpt>
      <trkpt lat="48.49983" lon="12.35492">
        <ele>487.460212</ele>
        <time>2023-07-14T08:37:59.951Z</time>
      </trkpt>
      <trkpt lat="48.49984" lon="12.35507">
        <ele>487.400847</ele>
        <time>2023-07-14T08:38:01.947Z</time>
      </trkpt>
      <trkpt lat="48.49984" lon="12.35523">
        <ele>487.340692</ele>
        <time>2023-07-14T08:38:03.950Z</time>
      </trkpt>
      <trkpt lat="48.49985" lon="12.35538">
        <ele>487.282255</ele>
        <time>2023-07-14T08:38:05.952Z</time>
      </trkpt>
      <trkpt lat="48.49987" lon="12.35553">
        <ele>487.225203</ele>
        <time>2023-07-14T08:38:07.965Z</time>
      </trkpt>
      <trkpt lat="48.49987" lon="12.35568">
        <ele>487.1708</ele>
        <time>2023-07-14T08:38:09.948Z</time>
      </trkpt>
      <trkpt lat="48.49989" lon="12.35587">
        <ele>487.094379</ele>
        <time>2023-07-14T08:38:12.945Z</time>
      </trkpt>
      <trkpt lat="48.4999" lon="12.35608">
        <ele>487.016288</ele>
        <time>2023-07-14T08:38:15.949Z</time>
      </trkpt>
      <trkpt lat="48.4999" lon="12.35622">
        <ele>486.961922</ele>
        <time>2023-07-14T08:38:17.947Z</time>
      </trkpt>
      <trkpt lat="48.49991" lon="12.35637">
        <ele>486.907058</ele>
        <time>2023-07-14T08:38:19.936Z</time>
      </trkpt>
      <trkpt lat="48.49992" lon="12.3565">
        <ele>486.853914</ele>
        <time>2023-07-14T08:38:21.948Z</time>
      </trkpt>
      <trkpt lat="48.49994" lon="12.35664">
        <ele>486.801786</ele>
        <time>2023-07-14T08:38:23.938Z</time>
      </trkpt>
      <trkpt lat="48.49996" lon="12.35678">
        <ele>486.746961</ele>
        <time>2023-07-14T08:38:25.924Z</time>
      </trkpt>
      <trkpt lat="48.49998" lon="12.35692">
        <ele>486.692487</ele>
        <time>2023-07-14T08:38:27.923Z</time>
      </trkpt>
      <trkpt lat="48.5" lon="12.35706">
        <ele>486.648099</ele>
        <time>2023-07-14T08:38:29.936Z</time>
      </trkpt>
      <trkpt lat="48.50002" lon="12.35721">
        <ele>486.611119</ele>
        <time>2023-07-14T08:38:31.948Z</time>
      </trkpt>
      <trkpt lat="48.50004" lon="12.35736">
        <ele>486.574463</ele>
        <time>2023-07-14T08:38:33.940Z</time>
      </trkpt>
      <trkpt lat="48.50006" lon="12.3575">
        <ele>486.537383</ele>
        <time>2023-07-14T08:38:35.945Z</time>
      </trkpt>
      <trkpt lat="48.50008" lon="12.35765">
        <ele>486.500061</ele>
        <time>2023-07-14T08:38:37.938Z</time>
      </trkpt>
      <trkpt lat="48.50009" lon="12.3578">
        <ele>486.462244</ele>
        <time>2023-07-14T08:38:39.936Z</time>
      </trkpt>
      <trkpt lat="48.5001" lon="12.35796">
        <ele>486.423789</ele>
        <time>2023-07-14T08:38:41.935Z</time>
      </trkpt>
      <trkpt lat="48.50012" lon="12.35811">
        <ele>486.387193</ele>
        <time>2023-07-14T08:38:43.926Z</time>
      </trkpt>
      <trkpt lat="48.50013" lon="12.35826">
        <ele>486.349864</ele>
        <time>2023-07-14T08:38:45.957Z</time>
      </trkpt>
      <trkpt lat="48.50014" lon="12.35841">
        <ele>486.312782</ele>
        <time>2023-07-14T08:38:47.950Z</time>
      </trkpt>
      <trkpt lat="48.50016" lon="12.35856">
        <ele>486.274796</ele>
        <time>2023-07-14T08:38:49.958Z</time>
      </trkpt>
      <trkpt lat="48.50017" lon="12.35871">
        <ele>486.236383</ele>
        <time>2023-07-14T08:38:51.948Z</time>
      </trkpt>
      <trkpt lat="48.50019" lon="12.35887">
        <ele>486.19827</ele>
        <time>2023-07-14T08:38:53.957Z</time>
      </trkpt>
      <trkpt lat="48.5002" lon="12.35903">
        <ele>486.158346</ele>
        <time>2023-07-14T08:38:55.953Z</time>
      </trkpt>
      <trkpt lat="48.50021" lon="12.35918">
        <ele>486.119156</ele>
        <time>2023-07-14T08:38:57.961Z</time>
      </trkpt>
      <trkpt lat="48.50022" lon="12.35935">
        <ele>486.079027</ele>
        <time>2023-07-14T08:38:59.951Z</time>
      </trkpt>
      <trkpt lat="48.50024" lon="12.35951">
        <ele>486.039206</ele>
        <time>2023-07-14T08:39:01.946Z</time>
      </trkpt>
      <trkpt lat="48.50025" lon="12.35966">
        <ele>486.001076</ele>
        <time>2023-07-14T08:39:03.944Z</time>
      </trkpt>
      <trkpt lat="48.50026" lon="12.35982">
        <ele>486.052995</ele>
        <time>2023-07-14T08:39:06.035Z</time>
      </trkpt>
      <trkpt lat="48.50028" lon="12.35996">
        <ele>486.105585</ele>
        <time>2023-07-14T08:39:07.945Z</time>
      </trkpt>
      <trkpt lat="48.50027" lon="12.36011">
        <ele>486.155877</ele>
        <time>2023-07-14T08:39:09.971Z</time>
      </trkpt>
      <trkpt lat="48.50027" lon="12.36025">
        <ele>486.203686</ele>
        <time>2023-07-14T08:39:11.958Z</time>
      </trkpt>
      <trkpt lat="48.50028" lon="12.36038">
        <ele>486.251518</ele>
        <time>2023-07-14T08:39:13.947Z</time>
      </trkpt>
      <trkpt lat="48.50029" lon="12.36057">
        <ele>486.316901</ele>
        <time>2023-07-14T08:39:16.946Z</time>
      </trkpt>
      <trkpt lat="48.50038" lon="12.36068">
        <ele>486.378555</ele>
        <time>2023-07-14T08:39:19.945Z</time>
      </trkpt>
      <trkpt lat="48.50049" lon="12.36071">
        <ele>486.438804</ele>
        <time>2023-07-14T08:39:22.933Z</time>
      </trkpt>
      <trkpt lat="48.50059" lon="12.36074">
        <ele>486.488446</ele>
        <time>2023-07-14T08:39:25.946Z</time>
      </trkpt>
      <trkpt lat="48.5007" lon="12.36078">
        <ele>486.550755</ele>
        <time>2023-07-14T08:39:29.946Z</time>
      </trkpt>
      <trkpt lat="48.50078" lon="12.3609">
        <ele>486.610155</ele>
        <time>2023-07-14T08:39:33.944Z</time>
      </trkpt>
      <trkpt lat="48.5008" lon="12.36104">
        <ele>486.658085</ele>
        <time>2023-07-14T08:39:36.951Z</time>
      </trkpt>
      <trkpt lat="48.5008" lon="12.36121">
        <ele>486.719868</ele>
        <time>2023-07-14T08:39:40.956Z</time>
      </trkpt>
      <trkpt lat="48.5008" lon="12.36136">
        <ele>486.769867</ele>
        <time>2023-07-14T08:39:43.961Z</time>
      </trkpt>
      <trkpt lat="48.50074" lon="12.36151">
        <ele>486.831638</ele>
        <time>2023-07-14T08:39:46.944Z</time>
      </trkpt>
      <trkpt lat="48.50073" lon="12.36171">
        <ele>486.901206</ele>
        <time>2023-07-14T08:39:49.944Z</time>
      </trkpt>
      <trkpt lat="48.50074" lon="12.36185">
        <ele>486.940145</ele>
        <time>2023-07-14T08:39:52.956Z</time>
      </trkpt>
      <trkpt lat="48.50075" lon="12.36199">
        <ele>486.866633</ele>
        <time>2023-07-14T08:39:56.959Z</time>
      </trkpt>
      <trkpt lat="48.50066" lon="12.36209">
        <ele>486.776652</ele>
        <time>2023-07-14T08:40:01.964Z</time>
      </trkpt>
      <trkpt lat="48.50055" lon="12.36214">
        <ele>486.687381</ele>
        <time>2023-07-14T08:40:04.957Z</time>
      </trkpt>
      <trkpt lat="48.50046" lon="12.3622">
        <ele>486.614181</ele>
        <time>2023-07-14T08:40:08.947Z</time>
      </trkpt>
      <trkpt lat="48.50037" lon="12.36227">
        <ele>486.536775</ele>
        <time>2023-07-14T08:40:15.951Z</time>
      </trkpt>
      <trkpt lat="48.50028" lon="12.36237">
        <ele>486.448882</ele>
        <time>2023-07-14T08:40:18.947Z</time>
      </trkpt>
      <trkpt lat="48.50026" lon="12.36256">
        <ele>486.34698</ele>
        <time>2023-07-14T08:40:21.932Z</time>
      </trkpt>
      <trkpt lat="48.50024" lon="12.3627">
        <ele>486.277151</ele>
        <time>2023-07-14T08:40:23.940Z</time>
      </trkpt>
      <trkpt lat="48.50022" lon="12.36283">
        <ele>486.205429</ele>
        <time>2023-07-14T08:40:25.937Z</time>
      </trkpt>
      <trkpt lat="48.50018" lon="12.36302">
        <ele>486.101616</ele>
        <time>2023-07-14T08:40:28.942Z</time>
      </trkpt>
      <trkpt lat="48.50015" lon="12.36315">
        <ele>486.03089</ele>
        <time>2023-07-14T08:40:30.917Z</time>
      </trkpt>
      <trkpt lat="48.50011" lon="12.36335">
        <ele>485.925638</ele>
        <time>2023-07-14T08:40:33.940Z</time>
      </trkpt>
      <trkpt lat="48.50008" lon="12.36348">
        <ele>485.854633</ele>
        <time>2023-07-14T08:40:35.940Z</time>
      </trkpt>
      <trkpt lat="48.50006" lon="12.36362">
        <ele>485.780936</ele>
        <time>2023-07-14T08:40:37.942Z</time>
      </trkpt>
      <trkpt lat="48.50003" lon="12.36375">
        <ele>485.707506</ele>
        <time>2023-07-14T08:40:39.956Z</time>
      </trkpt>
      <trkpt lat="48.5" lon="12.36389">
        <ele>485.635513</ele>
        <time>2023-07-14T08:40:41.952Z</time>
      </trkpt>
      <trkpt lat="48.49997" lon="12.36403">
        <ele>485.558628</ele>
        <time>2023-07-14T08:40:43.939Z</time>
      </trkpt>
      <trkpt lat="48.49995" lon="12.36417">
        <ele>485.5103</ele>
        <time>2023-07-14T08:40:45.964Z</time>
      </trkpt>
      <trkpt lat="48.49992" lon="12.36431">
        <ele>485.467844</ele>
        <time>2023-07-14T08:40:47.955Z</time>
      </trkpt>
      <trkpt lat="48.49989" lon="12.36444">
        <ele>485.427195</ele>
        <time>2023-07-14T08:40:49.952Z</time>
      </trkpt>
      <trkpt lat="48.49986" lon="12.36458">
        <ele>485.386111</ele>
        <time>2023-07-14T08:40:51.936Z</time>
      </trkpt>
      <trkpt lat="48.49982" lon="12.36476">
        <ele>485.327594</ele>
        <time>2023-07-14T08:40:54.949Z</time>
      </trkpt>
      <trkpt lat="48.49979" lon="12.3649">
        <ele>485.286236</ele>
        <time>2023-07-14T08:40:56.945Z</time>
      </trkpt>
      <trkpt lat="48.49976" lon="12.36503">
        <ele>485.244477</ele>
        <time>2023-07-14T08:40:58.935Z</time>
      </trkpt>
      <trkpt lat="48.49973" lon="12.36517">
        <ele>485.202096</ele>
        <time>2023-07-14T08:41:00.962Z</time>
      </trkpt>
      <trkpt lat="48.49969" lon="12.36529">
        <ele>485.161361</ele>
        <time>2023-07-14T08:41:02.936Z</time>
      </trkpt>
      <trkpt lat="48.49965" lon="12.36542">
        <ele>485.12027</ele>
        <time>2023-07-14T08:41:04.942Z</time>
      </trkpt>
      <trkpt lat="48.49961" lon="12.36555">
        <ele>485.079717</ele>
        <time>2023-07-14T08:41:06.951Z</time>
      </trkpt>
      <trkpt lat="48.49957" lon="12.36567">
        <ele>485.038677</ele>
        <time>2023-07-14T08:41:08.940Z</time>
      </trkpt>
      <trkpt lat="48.49953" lon="12.3658">
        <ele>484.995924</ele>
        <time>2023-07-14T08:41:10.947Z</time>
      </trkpt>
      <trkpt lat="48.49949" lon="12.36593">
        <ele>484.953128</ele>
        <time>2023-07-14T08:41:12.942Z</time>
      </trkpt>
      <trkpt lat="48.49945" lon="12.36607">
        <ele>484.908331</ele>
        <time>2023-07-14T08:41:14.932Z</time>
      </trkpt>
      <trkpt lat="48.49941" lon="12.3662">
        <ele>484.865168</ele>
        <time>2023-07-14T08:41:16.942Z</time>
      </trkpt>
      <trkpt lat="48.49937" lon="12.36634">
        <ele>484.82255</ele>
        <time>2023-07-14T08:41:18.942Z</time>
      </trkpt>
      <trkpt lat="48.49933" lon="12.36647">
        <ele>484.77962</ele>
        <time>2023-07-14T08:41:20.936Z</time>
      </trkpt>
      <trkpt lat="48.49929" lon="12.36661">
        <ele>484.735265</ele>
        <time>2023-07-14T08:41:22.948Z</time>
      </trkpt>
      <trkpt lat="48.49926" lon="12.36675">
        <ele>484.684632</ele>
        <time>2023-07-14T08:41:24.949Z</time>
      </trkpt>
      <trkpt lat="48.49922" lon="12.36689">
        <ele>484.636908</ele>
        <time>2023-07-14T08:41:26.936Z</time>
      </trkpt>
      <trkpt lat="48.49919" lon="12.36703">
        <ele>484.587314</ele>
        <time>2023-07-14T08:41:28.937Z</time>
      </trkpt>
      <trkpt lat="48.49915" lon="12.36718">
        <ele>484.535292</ele>
        <time>2023-07-14T08:41:30.947Z</time>
      </trkpt>
      <trkpt lat="48.49911" lon="12.36732">
        <ele>484.485214</ele>
        <time>2023-07-14T08:41:32.946Z</time>
      </trkpt>
      <trkpt lat="48.49907" lon="12.36747">
        <ele>484.432841</ele>
        <time>2023-07-14T08:41:34.952Z</time>
      </trkpt>
      <trkpt lat="48.49904" lon="12.36763">
        <ele>484.379617</ele>
        <time>2023-07-14T08:41:36.953Z</time>
      </trkpt>
      <trkpt lat="48.499" lon="12.36778">
        <ele>484.326157</ele>
        <time>2023-07-14T08:41:38.932Z</time>
      </trkpt>
      <trkpt lat="48.49896" lon="12.36794">
        <ele>484.273049</ele>
        <time>2023-07-14T08:41:40.958Z</time>
      </trkpt>
      <trkpt lat="48.49892" lon="12.36809">
        <ele>484.2195</ele>
        <time>2023-07-14T08:41:42.945Z</time>
      </trkpt>
      <trkpt lat="48.49889" lon="12.36825">
        <ele>484.164887</ele>
        <time>2023-07-14T08:41:44.950Z</time>
      </trkpt>
      <trkpt lat="48.49885" lon="12.3684">
        <ele>484.112514</ele>
        <time>2023-07-14T08:41:46.945Z</time>
      </trkpt>
      <trkpt lat="48.49881" lon="12.36855">
        <ele>484.058928</ele>
        <time>2023-07-14T08:41:48.958Z</time>
      </trkpt>
      <trkpt lat="48.49877" lon="12.36871">
        <ele>484.004257</ele>
        <time>2023-07-14T08:41:50.945Z</time>
      </trkpt>
      <trkpt lat="48.49873" lon="12.36886">
        <ele>483.951757</ele>
        <time>2023-07-14T08:41:52.955Z</time>
      </trkpt>
      <trkpt lat="48.49869" lon="12.36901">
        <ele>483.899826</ele>
        <time>2023-07-14T08:41:54.946Z</time>
      </trkpt>
      <trkpt lat="48.49865" lon="12.36915">
        <ele>483.86268</ele>
        <time>2023-07-14T08:41:56.944Z</time>
      </trkpt>
      <trkpt lat="48.49861" lon="12.3693">
        <ele>483.851308</ele>
        <time>2023-07-14T08:41:58.945Z</time>
      </trkpt>
      <trkpt lat="48.49858" lon="12.36945">
        <ele>483.839978</ele>
        <time>2023-07-14T08:42:00.944Z</time>
      </trkpt>
      <trkpt lat="48.49855" lon="12.3696">
        <ele>483.82847</ele>
        <time>2023-07-14T08:42:02.950Z</time>
      </trkpt>
      <trkpt lat="48.49853" lon="12.36975">
        <ele>483.816983</ele>
        <time>2023-07-14T08:42:04.956Z</time>
      </trkpt>
      <trkpt lat="48.4985" lon="12.3699">
        <ele>483.805577</ele>
        <time>2023-07-14T08:42:06.948Z</time>
      </trkpt>
      <trkpt lat="48.49848" lon="12.37005">
        <ele>483.794408</ele>
        <time>2023-07-14T08:42:08.964Z</time>
      </trkpt>
      <trkpt lat="48.49847" lon="12.37021">
        <ele>483.783029</ele>
        <time>2023-07-14T08:42:10.949Z</time>
      </trkpt>
      <trkpt lat="48.49845" lon="12.37037">
        <ele>483.771044</ele>
        <time>2023-07-14T08:42:12.953Z</time>
      </trkpt>
      <trkpt lat="48.49844" lon="12.37053">
        <ele>483.759386</ele>
        <time>2023-07-14T08:42:14.953Z</time>
      </trkpt>
      <trkpt lat="48.49843" lon="12.37069">
        <ele>483.747822</ele>
        <time>2023-07-14T08:42:16.949Z</time>
      </trkpt>
      <trkpt lat="48.49842" lon="12.37084">
        <ele>483.736152</ele>
        <time>2023-07-14T08:42:18.954Z</time>
      </trkpt>
      <trkpt lat="48.49841" lon="12.371">
        <ele>483.724833</ele>
        <time>2023-07-14T08:42:20.944Z</time>
      </trkpt>
      <trkpt lat="48.4984" lon="12.37116">
        <ele>483.712873</ele>
        <time>2023-07-14T08:42:22.947Z</time>
      </trkpt>
      <trkpt lat="48.49838" lon="12.37132">
        <ele>483.701046</ele>
        <time>2023-07-14T08:42:24.942Z</time>
      </trkpt>
      <trkpt lat="48.49837" lon="12.37148">
        <ele>483.689352</ele>
        <time>2023-07-14T08:42:26.950Z</time>
      </trkpt>
      <trkpt lat="48.49836" lon="12.37164">
        <ele>483.677994</ele>
        <time>2023-07-14T08:42:28.944Z</time>
      </trkpt>
      <trkpt lat="48.49835" lon="12.37179">
        <ele>483.656333</ele>
        <time>2023-07-14T08:42:30.965Z</time>
      </trkpt>
      <trkpt lat="48.49833" lon="12.37195">
        <ele>483.588591</ele>
        <time>2023-07-14T08:42:32.971Z</time>
      </trkpt>
      <trkpt lat="48.49831" lon="12.37211">
        <ele>483.522166</ele>
        <time>2023-07-14T08:42:34.963Z</time>
      </trkpt>
      <trkpt lat="48.4983" lon="12.37228">
        <ele>483.452542</ele>
        <time>2023-07-14T08:42:36.949Z</time>
      </trkpt>
      <trkpt lat="48.49828" lon="12.37243">
        <ele>483.385109</ele>
        <time>2023-07-14T08:42:38.954Z</time>
      </trkpt>
      <trkpt lat="48.49826" lon="12.37259">
        <ele>483.318383</ele>
        <time>2023-07-14T08:42:40.955Z</time>
      </trkpt>
      <trkpt lat="48.49825" lon="12.37275">
        <ele>483.251151</ele>
        <time>2023-07-14T08:42:42.955Z</time>
      </trkpt>
      <trkpt lat="48.49823" lon="12.37291">
        <ele>483.182355</ele>
        <time>2023-07-14T08:42:44.930Z</time>
      </trkpt>
      <trkpt lat="48.49822" lon="12.37308">
        <ele>483.114472</ele>
        <time>2023-07-14T08:42:46.950Z</time>
      </trkpt>
      <trkpt lat="48.49821" lon="12.37324">
        <ele>483.044593</ele>
        <time>2023-07-14T08:42:48.950Z</time>
      </trkpt>
      <trkpt lat="48.49819" lon="12.37341">
        <ele>482.974273</ele>
        <time>2023-07-14T08:42:50.947Z</time>
      </trkpt>
      <trkpt lat="48.49817" lon="12.37357">
        <ele>482.905224</ele>
        <time>2023-07-14T08:42:52.955Z</time>
      </trkpt>
      <trkpt lat="48.49815" lon="12.37374">
        <ele>482.834044</ele>
        <time>2023-07-14T08:42:54.946Z</time>
      </trkpt>
      <trkpt lat="48.49813" lon="12.3739">
        <ele>482.763965</ele>
        <time>2023-07-14T08:42:56.969Z</time>
      </trkpt>
      <trkpt lat="48.49811" lon="12.37407">
        <ele>482.693926</ele>
        <time>2023-07-14T08:42:58.946Z</time>
      </trkpt>
      <trkpt lat="48.4981" lon="12.37424">
        <ele>482.621956</ele>
        <time>2023-07-14T08:43:00.950Z</time>
      </trkpt>
      <trkpt lat="48.49808" lon="12.3744">
        <ele>482.553574</ele>
        <time>2023-07-14T08:43:02.936Z</time>
      </trkpt>
      <trkpt lat="48.49806" lon="12.37456">
        <ele>482.497</ele>
        <time>2023-07-14T08:43:04.952Z</time>
      </trkpt>
      <trkpt lat="48.49805" lon="12.37472">
        <ele>482.447214</ele>
        <time>2023-07-14T08:43:06.979Z</time>
      </trkpt>
      <trkpt lat="48.49803" lon="12.37487">
        <ele>482.399732</ele>
        <time>2023-07-14T08:43:08.948Z</time>
      </trkpt>
      <trkpt lat="48.49802" lon="12.37502">
        <ele>482.353496</ele>
        <time>2023-07-14T08:43:10.953Z</time>
      </trkpt>
      <trkpt lat="48.49801" lon="12.37516">
        <ele>482.306325</ele>
        <time>2023-07-14T08:43:12.958Z</time>
      </trkpt>
      <trkpt lat="48.49801" lon="12.37531">
        <ele>482.25987</ele>
        <time>2023-07-14T08:43:14.949Z</time>
      </trkpt>
      <trkpt lat="48.49801" lon="12.37546">
        <ele>482.212752</ele>
        <time>2023-07-14T08:43:16.962Z</time>
      </trkpt>
      <trkpt lat="48.49802" lon="12.37561">
        <ele>482.165207</ele>
        <time>2023-07-14T08:43:18.963Z</time>
      </trkpt>
      <trkpt lat="48.49803" lon="12.37577">
        <ele>482.116538</ele>
        <time>2023-07-14T08:43:20.957Z</time>
      </trkpt>
      <trkpt lat="48.49805" lon="12.37591">
        <ele>482.07071</ele>
        <time>2023-07-14T08:43:22.967Z</time>
      </trkpt>
      <trkpt lat="48.49806" lon="12.37606">
        <ele>482.024162</ele>
        <time>2023-07-14T08:43:24.949Z</time>
      </trkpt>
      <trkpt lat="48.49808" lon="12.3762">
        <ele>481.979881</ele>
        <time>2023-07-14T08:43:26.945Z</time>
      </trkpt>
      <trkpt lat="48.49809" lon="12.37634">
        <ele>481.935373</ele>
        <time>2023-07-14T08:43:28.956Z</time>
      </trkpt>
      <trkpt lat="48.4981" lon="12.37648">
        <ele>481.892112</ele>
        <time>2023-07-14T08:43:30.936Z</time>
      </trkpt>
      <trkpt lat="48.49811" lon="12.37663">
        <ele>481.843858</ele>
        <time>2023-07-14T08:43:33.094Z</time>
      </trkpt>
      <trkpt lat="48.49812" lon="12.37677">
        <ele>481.797913</ele>
        <time>2023-07-14T08:43:35.009Z</time>
      </trkpt>
      <trkpt lat="48.49812" lon="12.37693">
        <ele>481.749494</ele>
        <time>2023-07-14T08:43:36.935Z</time>
      </trkpt>
      <trkpt lat="48.49812" lon="12.37708">
        <ele>481.701451</ele>
        <time>2023-07-14T08:43:38.928Z</time>
      </trkpt>
      <trkpt lat="48.49812" lon="12.37724">
        <ele>481.65853</ele>
        <time>2023-07-14T08:43:40.922Z</time>
      </trkpt>
      <trkpt lat="48.49811" lon="12.3774">
        <ele>481.618332</ele>
        <time>2023-07-14T08:43:42.925Z</time>
      </trkpt>
      <trkpt lat="48.49809" lon="12.37755">
        <ele>481.580033</ele>
        <time>2023-07-14T08:43:44.928Z</time>
      </trkpt>
      <trkpt lat="48.49808" lon="12.37769">
        <ele>481.542479</ele>
        <time>2023-07-14T08:43:46.941Z</time>
      </trkpt>
      <trkpt lat="48.49806" lon="12.37785">
        <ele>481.502519</ele>
        <time>2023-07-14T08:43:48.941Z</time>
      </trkpt>
      <trkpt lat="48.49805" lon="12.378">
        <ele>481.463772</ele>
        <time>2023-07-14T08:43:50.939Z</time>
      </trkpt>
      <trkpt lat="48.49804" lon="12.37815">
        <ele>481.42794</ele>
        <time>2023-07-14T08:43:52.945Z</time>
      </trkpt>
      <trkpt lat="48.49803" lon="12.37829">
        <ele>481.392142</ele>
        <time>2023-07-14T08:43:54.943Z</time>
      </trkpt>
      <trkpt lat="48.49803" lon="12.37843">
        <ele>481.357403</ele>
        <time>2023-07-14T08:43:56.936Z</time>
      </trkpt>
      <trkpt lat="48.49802" lon="12.37863">
        <ele>481.305874</ele>
        <time>2023-07-14T08:43:59.954Z</time>
      </trkpt>
      <trkpt lat="48.49802" lon="12.37877">
        <ele>481.271158</ele>
        <time>2023-07-14T08:44:01.945Z</time>
      </trkpt>
      <trkpt lat="48.49801" lon="12.37891">
        <ele>481.236361</ele>
        <time>2023-07-14T08:44:03.942Z</time>
      </trkpt>
      <trkpt lat="48.498" lon="12.37905">
        <ele>481.200422</ele>
        <time>2023-07-14T08:44:05.946Z</time>
      </trkpt>
      <trkpt lat="48.498" lon="12.37919">
        <ele>481.164735</ele>
        <time>2023-07-14T08:44:07.946Z</time>
      </trkpt>
      <trkpt lat="48.498" lon="12.37933">
        <ele>481.12955</ele>
        <time>2023-07-14T08:44:09.948Z</time>
      </trkpt>
      <trkpt lat="48.49799" lon="12.37954">
        <ele>481.078522</ele>
        <time>2023-07-14T08:44:12.943Z</time>
      </trkpt>
      <trkpt lat="48.49799" lon="12.37973">
        <ele>481.029468</ele>
        <time>2023-07-14T08:44:15.945Z</time>
      </trkpt>
      <trkpt lat="48.49798" lon="12.37992">
        <ele>481.022141</ele>
        <time>2023-07-14T08:44:18.944Z</time>
      </trkpt>
      <trkpt lat="48.49799" lon="12.38012">
        <ele>481.078667</ele>
        <time>2023-07-14T08:44:21.959Z</time>
      </trkpt>
      <trkpt lat="48.49799" lon="12.38025">
        <ele>481.119034</ele>
        <time>2023-07-14T08:44:23.961Z</time>
      </trkpt>
      <trkpt lat="48.498" lon="12.38039">
        <ele>481.159186</ele>
        <time>2023-07-14T08:44:25.944Z</time>
      </trkpt>
      <trkpt lat="48.49801" lon="12.38053">
        <ele>481.200124</ele>
        <time>2023-07-14T08:44:27.954Z</time>
      </trkpt>
      <trkpt lat="48.49803" lon="12.38067">
        <ele>481.240395</ele>
        <time>2023-07-14T08:44:29.951Z</time>
      </trkpt>
      <trkpt lat="48.49805" lon="12.38081">
        <ele>481.282101</ele>
        <time>2023-07-14T08:44:31.962Z</time>
      </trkpt>
      <trkpt lat="48.49807" lon="12.38095">
        <ele>481.325134</ele>
        <time>2023-07-14T08:44:33.955Z</time>
      </trkpt>
      <trkpt lat="48.4981" lon="12.3811">
        <ele>481.370194</ele>
        <time>2023-07-14T08:44:35.941Z</time>
      </trkpt>
      <trkpt lat="48.49811" lon="12.38125">
        <ele>481.415142</ele>
        <time>2023-07-14T08:44:37.949Z</time>
      </trkpt>
      <trkpt lat="48.49813" lon="12.3814">
        <ele>481.461321</ele>
        <time>2023-07-14T08:44:39.961Z</time>
      </trkpt>
      <trkpt lat="48.49814" lon="12.38156">
        <ele>481.50763</ele>
        <time>2023-07-14T08:44:41.948Z</time>
      </trkpt>
      <trkpt lat="48.49815" lon="12.38172">
        <ele>481.55409</ele>
        <time>2023-07-14T08:44:43.958Z</time>
      </trkpt>
      <trkpt lat="48.49816" lon="12.38188">
        <ele>481.601499</ele>
        <time>2023-07-14T08:44:45.970Z</time>
      </trkpt>
      <trkpt lat="48.49816" lon="12.38204">
        <ele>481.648006</ele>
        <time>2023-07-14T08:44:47.954Z</time>
      </trkpt>
      <trkpt lat="48.49816" lon="12.3822">
        <ele>481.693646</ele>
        <time>2023-07-14T08:44:49.970Z</time>
      </trkpt>
      <trkpt lat="48.49816" lon="12.38236">
        <ele>481.74104</ele>
        <time>2023-07-14T08:44:51.953Z</time>
      </trkpt>
      <trkpt lat="48.49815" lon="12.38252">
        <ele>481.787882</ele>
        <time>2023-07-14T08:44:53.948Z</time>
      </trkpt>
      <trkpt lat="48.49815" lon="12.38267">
        <ele>481.832766</ele>
        <time>2023-07-14T08:44:55.950Z</time>
      </trkpt>
      <trkpt lat="48.49814" lon="12.3828">
        <ele>481.874317</ele>
        <time>2023-07-14T08:44:57.959Z</time>
      </trkpt>
      <trkpt lat="48.49811" lon="12.38299">
        <ele>481.931231</ele>
        <time>2023-07-14T08:45:00.950Z</time>
      </trkpt>
      <trkpt lat="48.49808" lon="12.38317">
        <ele>481.98618</ele>
        <time>2023-07-14T08:45:03.942Z</time>
      </trkpt>
      <trkpt lat="48.49805" lon="12.38335">
        <ele>482.043388</ele>
        <time>2023-07-14T08:45:06.962Z</time>
      </trkpt>
      <trkpt lat="48.49802" lon="12.38352">
        <ele>482.094969</ele>
        <time>2023-07-14T08:45:09.943Z</time>
      </trkpt>
      <trkpt lat="48.498" lon="12.3837">
        <ele>482.150415</ele>
        <time>2023-07-14T08:45:12.966Z</time>
      </trkpt>
      <trkpt lat="48.49797" lon="12.38389">
        <ele>482.210675</ele>
        <time>2023-07-14T08:45:15.941Z</time>
      </trkpt>
      <trkpt lat="48.49795" lon="12.38409">
        <ele>482.271573</ele>
        <time>2023-07-14T08:45:18.947Z</time>
      </trkpt>
      <trkpt lat="48.49794" lon="12.38429">
        <ele>482.332497</ele>
        <time>2023-07-14T08:45:21.954Z</time>
      </trkpt>
      <trkpt lat="48.49795" lon="12.38449">
        <ele>482.392962</ele>
        <time>2023-07-14T08:45:24.939Z</time>
      </trkpt>
      <trkpt lat="48.49795" lon="12.38469">
        <ele>482.453861</ele>
        <time>2023-07-14T08:45:27.951Z</time>
      </trkpt>
      <trkpt lat="48.49797" lon="12.38489">
        <ele>482.51405</ele>
        <time>2023-07-14T08:45:30.950Z</time>
      </trkpt>
      <trkpt lat="48.49799" lon="12.38503">
        <ele>482.556209</ele>
        <time>2023-07-14T08:45:32.950Z</time>
      </trkpt>
      <trkpt lat="48.498" lon="12.38517">
        <ele>482.59811</ele>
        <time>2023-07-14T08:45:34.956Z</time>
      </trkpt>
      <trkpt lat="48.49803" lon="12.3853">
        <ele>482.577788</ele>
        <time>2023-07-14T08:45:36.964Z</time>
      </trkpt>
      <trkpt lat="48.49806" lon="12.38544">
        <ele>482.527079</ele>
        <time>2023-07-14T08:45:38.950Z</time>
      </trkpt>
      <trkpt lat="48.4981" lon="12.38556">
        <ele>482.476337</ele>
        <time>2023-07-14T08:45:40.936Z</time>
      </trkpt>
      <trkpt lat="48.49814" lon="12.38569">
        <ele>482.426358</ele>
        <time>2023-07-14T08:45:42.957Z</time>
      </trkpt>
      <trkpt lat="48.49818" lon="12.38582">
        <ele>482.375663</ele>
        <time>2023-07-14T08:45:44.950Z</time>
      </trkpt>
      <trkpt lat="48.49822" lon="12.38595">
        <ele>482.325121</ele>
        <time>2023-07-14T08:45:46.951Z</time>
      </trkpt>
      <trkpt lat="48.49827" lon="12.38612">
        <ele>482.254298</ele>
        <time>2023-07-14T08:45:49.950Z</time>
      </trkpt>
      <trkpt lat="48.49832" lon="12.38624">
        <ele>482.205202</ele>
        <time>2023-07-14T08:45:51.949Z</time>
      </trkpt>
      <trkpt lat="48.49836" lon="12.38637">
        <ele>482.155148</ele>
        <time>2023-07-14T08:45:53.943Z</time>
      </trkpt>
      <trkpt lat="48.49841" lon="12.38655">
        <ele>482.084784</ele>
        <time>2023-07-14T08:45:56.958Z</time>
      </trkpt>
      <trkpt lat="48.49845" lon="12.38667">
        <ele>482.035678</ele>
        <time>2023-07-14T08:45:58.967Z</time>
      </trkpt>
      <trkpt lat="48.49849" lon="12.38687">
        <ele>481.961128</ele>
        <time>2023-07-14T08:46:01.949Z</time>
      </trkpt>
      <trkpt lat="48.49852" lon="12.38701">
        <ele>481.909755</ele>
        <time>2023-07-14T08:46:03.944Z</time>
      </trkpt>
      <trkpt lat="48.49855" lon="12.38715">
        <ele>481.857377</ele>
        <time>2023-07-14T08:46:05.969Z</time>
      </trkpt>
      <trkpt lat="48.49857" lon="12.38729">
        <ele>481.802612</ele>
        <time>2023-07-14T08:46:07.948Z</time>
      </trkpt>
      <trkpt lat="48.49858" lon="12.38744">
        <ele>481.749509</ele>
        <time>2023-07-14T08:46:09.940Z</time>
      </trkpt>
      <trkpt lat="48.4986" lon="12.38758">
        <ele>481.696841</ele>
        <time>2023-07-14T08:46:11.946Z</time>
      </trkpt>
      <trkpt lat="48.49861" lon="12.38773">
        <ele>481.643013</ele>
        <time>2023-07-14T08:46:13.942Z</time>
      </trkpt>
      <trkpt lat="48.49862" lon="12.38789">
        <ele>481.530787</ele>
        <time>2023-07-14T08:46:15.946Z</time>
      </trkpt>
      <trkpt lat="48.49863" lon="12.38805">
        <ele>481.407291</ele>
        <time>2023-07-14T08:46:17.918Z</time>
      </trkpt>
      <trkpt lat="48.49864" lon="12.38821">
        <ele>481.28875</ele>
        <time>2023-07-14T08:46:19.945Z</time>
      </trkpt>
      <trkpt lat="48.49864" lon="12.38836">
        <ele>481.170971</ele>
        <time>2023-07-14T08:46:21.942Z</time>
      </trkpt>
      <trkpt lat="48.49865" lon="12.38851">
        <ele>481.052145</ele>
        <time>2023-07-14T08:46:23.935Z</time>
      </trkpt>
      <trkpt lat="48.49866" lon="12.38867">
        <ele>480.93256</ele>
        <time>2023-07-14T08:46:25.947Z</time>
      </trkpt>
      <trkpt lat="48.49867" lon="12.38882">
        <ele>480.817739</ele>
        <time>2023-07-14T08:46:27.948Z</time>
      </trkpt>
      <trkpt lat="48.49868" lon="12.38897">
        <ele>480.703765</ele>
        <time>2023-07-14T08:46:29.964Z</time>
      </trkpt>
      <trkpt lat="48.49869" lon="12.38912">
        <ele>480.58903</ele>
        <time>2023-07-14T08:46:31.959Z</time>
      </trkpt>
      <trkpt lat="48.49869" lon="12.38927">
        <ele>480.470406</ele>
        <time>2023-07-14T08:46:33.939Z</time>
      </trkpt>
      <trkpt lat="48.4987" lon="12.38942">
        <ele>480.355585</ele>
        <time>2023-07-14T08:46:35.951Z</time>
      </trkpt>
      <trkpt lat="48.49871" lon="12.38957">
        <ele>480.242185</ele>
        <time>2023-07-14T08:46:38.043Z</time>
      </trkpt>
      <trkpt lat="48.49872" lon="12.38973">
        <ele>480.1228</ele>
        <time>2023-07-14T08:46:39.974Z</time>
      </trkpt>
      <trkpt lat="48.49873" lon="12.38987">
        <ele>480.01092</ele>
        <time>2023-07-14T08:46:41.949Z</time>
      </trkpt>
      <trkpt lat="48.49874" lon="12.39002">
        <ele>479.898667</ele>
        <time>2023-07-14T08:46:43.969Z</time>
      </trkpt>
      <trkpt lat="48.49874" lon="12.39017">
        <ele>479.785689</ele>
        <time>2023-07-14T08:46:45.951Z</time>
      </trkpt>
      <trkpt lat="48.49875" lon="12.39032">
        <ele>479.672389</ele>
        <time>2023-07-14T08:46:47.950Z</time>
      </trkpt>
      <trkpt lat="48.49876" lon="12.39046">
        <ele>479.566356</ele>
        <time>2023-07-14T08:46:49.946Z</time>
      </trkpt>
      <trkpt lat="48.49876" lon="12.3906">
        <ele>479.58292</ele>
        <time>2023-07-14T08:46:51.949Z</time>
      </trkpt>
      <trkpt lat="48.49877" lon="12.39074">
        <ele>479.599876</ele>
        <time>2023-07-14T08:46:53.958Z</time>
      </trkpt>
      <trkpt lat="48.49878" lon="12.39088">
        <ele>479.616583</ele>
        <time>2023-07-14T08:46:55.948Z</time>
      </trkpt>
      <trkpt lat="48.49878" lon="12.39103">
        <ele>479.633908</ele>
        <time>2023-07-14T08:46:57.948Z</time>
      </trkpt>
      <trkpt lat="48.4988" lon="12.39123">
        <ele>479.65823</ele>
        <time>2023-07-14T08:47:00.952Z</time>
      </trkpt>
      <trkpt lat="48.49881" lon="12.39137">
        <ele>479.67501</ele>
        <time>2023-07-14T08:47:02.946Z</time>
      </trkpt>
      <trkpt lat="48.49882" lon="12.39152">
        <ele>479.692165</ele>
        <time>2023-07-14T08:47:04.950Z</time>
      </trkpt>
      <trkpt lat="48.49883" lon="12.39165">
        <ele>479.708791</ele>
        <time>2023-07-14T08:47:06.961Z</time>
      </trkpt>
      <trkpt lat="48.49883" lon="12.3918">
        <ele>479.725747</ele>
        <time>2023-07-14T08:47:08.942Z</time>
      </trkpt>
      <trkpt lat="48.49884" lon="12.39195">
        <ele>479.743613</ele>
        <time>2023-07-14T08:47:10.940Z</time>
      </trkpt>
      <trkpt lat="48.49885" lon="12.39209">
        <ele>479.761104</ele>
        <time>2023-07-14T08:47:12.939Z</time>
      </trkpt>
      <trkpt lat="48.49886" lon="12.39224">
        <ele>479.778696</ele>
        <time>2023-07-14T08:47:14.966Z</time>
      </trkpt>
      <trkpt lat="48.49887" lon="12.39238">
        <ele>479.795533</ele>
        <time>2023-07-14T08:47:16.942Z</time>
      </trkpt>
      <trkpt lat="48.49887" lon="12.39252">
        <ele>479.811748</ele>
        <time>2023-07-14T08:47:18.934Z</time>
      </trkpt>
      <trkpt lat="48.49888" lon="12.39266">
        <ele>479.82934</ele>
        <time>2023-07-14T08:47:20.948Z</time>
      </trkpt>
      <trkpt lat="48.49889" lon="12.3928">
        <ele>479.846323</ele>
        <time>2023-07-14T08:47:22.931Z</time>
      </trkpt>
      <trkpt lat="48.49889" lon="12.39295">
        <ele>479.86316</ele>
        <time>2023-07-14T08:47:24.958Z</time>
      </trkpt>
      <trkpt lat="48.4989" lon="12.39309">
        <ele>479.880454</ele>
        <time>2023-07-14T08:47:26.948Z</time>
      </trkpt>
      <trkpt lat="48.4989" lon="12.39323">
        <ele>479.850673</ele>
        <time>2023-07-14T08:47:28.944Z</time>
      </trkpt>
      <trkpt lat="48.49891" lon="12.39338">
        <ele>479.776629</ele>
        <time>2023-07-14T08:47:30.968Z</time>
      </trkpt>
      <trkpt lat="48.49892" lon="12.39352">
        <ele>479.705083</ele>
        <time>2023-07-14T08:47:32.950Z</time>
      </trkpt>
      <trkpt lat="48.49893" lon="12.39365">
        <ele>479.633673</ele>
        <time>2023-07-14T08:47:34.966Z</time>
      </trkpt>
      <trkpt lat="48.49894" lon="12.39386">
        <ele>479.52896</ele>
        <time>2023-07-14T08:47:37.966Z</time>
      </trkpt>
      <trkpt lat="48.49894" lon="12.394">
        <ele>479.456144</ele>
        <time>2023-07-14T08:47:39.969Z</time>
      </trkpt>
      <trkpt lat="48.49895" lon="12.39414">
        <ele>479.38144</ele>
        <time>2023-07-14T08:47:41.968Z</time>
      </trkpt>
      <trkpt lat="48.49896" lon="12.39428">
        <ele>479.307105</ele>
        <time>2023-07-14T08:47:43.940Z</time>
      </trkpt>
      <trkpt lat="48.49897" lon="12.39443">
        <ele>479.230937</ele>
        <time>2023-07-14T08:47:45.942Z</time>
      </trkpt>
      <trkpt lat="48.49897" lon="12.39459">
        <ele>479.150388</ele>
        <time>2023-07-14T08:47:47.962Z</time>
      </trkpt>
      <trkpt lat="48.49898" lon="12.39474">
        <ele>479.070623</ele>
        <time>2023-07-14T08:47:49.963Z</time>
      </trkpt>
      <trkpt lat="48.49898" lon="12.3949">
        <ele>478.99004</ele>
        <time>2023-07-14T08:47:51.957Z</time>
      </trkpt>
      <trkpt lat="48.49899" lon="12.39507">
        <ele>478.902314</ele>
        <time>2023-07-14T08:47:53.948Z</time>
      </trkpt>
      <trkpt lat="48.49899" lon="12.39523">
        <ele>478.817178</ele>
        <time>2023-07-14T08:47:55.943Z</time>
      </trkpt>
      <trkpt lat="48.49898" lon="12.39539">
        <ele>478.735356</ele>
        <time>2023-07-14T08:47:57.934Z</time>
      </trkpt>
      <trkpt lat="48.49896" lon="12.39555">
        <ele>478.652599</ele>
        <time>2023-07-14T08:47:59.938Z</time>
      </trkpt>
      <trkpt lat="48.49894" lon="12.3957">
        <ele>478.573332</ele>
        <time>2023-07-14T08:48:01.950Z</time>
      </trkpt>
      <trkpt lat="48.49892" lon="12.39585">
        <ele>478.49221</ele>
        <time>2023-07-14T08:48:03.938Z</time>
      </trkpt>
      <trkpt lat="48.4989" lon="12.396">
        <ele>478.430196</ele>
        <time>2023-07-14T08:48:05.967Z</time>
      </trkpt>
      <trkpt lat="48.49887" lon="12.39615">
        <ele>478.369164</ele>
        <time>2023-07-14T08:48:07.959Z</time>
      </trkpt>
      <trkpt lat="48.49885" lon="12.3963">
        <ele>478.31011</ele>
        <time>2023-07-14T08:48:09.950Z</time>
      </trkpt>
      <trkpt lat="48.49882" lon="12.39644">
        <ele>478.251806</ele>
        <time>2023-07-14T08:48:11.953Z</time>
      </trkpt>
      <trkpt lat="48.49879" lon="12.39658">
        <ele>478.193524</ele>
        <time>2023-07-14T08:48:13.932Z</time>
      </trkpt>
      <trkpt lat="48.49877" lon="12.39672">
        <ele>478.135801</ele>
        <time>2023-07-14T08:48:15.956Z</time>
      </trkpt>
      <trkpt lat="48.49873" lon="12.39685">
        <ele>478.080658</ele>
        <time>2023-07-14T08:48:17.957Z</time>
      </trkpt>
      <trkpt lat="48.49869" lon="12.39698">
        <ele>478.023962</ele>
        <time>2023-07-14T08:48:19.951Z</time>
      </trkpt>
      <trkpt lat="48.49865" lon="12.39711">
        <ele>477.966575</ele>
        <time>2023-07-14T08:48:21.956Z</time>
      </trkpt>
      <trkpt lat="48.4986" lon="12.39723">
        <ele>477.909387</ele>
        <time>2023-07-14T08:48:23.947Z</time>
      </trkpt>
      <trkpt lat="48.49855" lon="12.39734">
        <ele>477.854904</ele>
        <time>2023-07-14T08:48:25.953Z</time>
      </trkpt>
      <trkpt lat="48.49849" lon="12.39746">
        <ele>477.7991</ele>
        <time>2023-07-14T08:48:27.940Z</time>
      </trkpt>
      <trkpt lat="48.49843" lon="12.39763">
        <ele>477.719728</ele>
        <time>2023-07-14T08:48:30.962Z</time>
      </trkpt>
      <trkpt lat="48.49838" lon="12.39776">
        <ele>477.664472</ele>
        <time>2023-07-14T08:48:32.947Z</time>
      </trkpt>
      <trkpt lat="48.49833" lon="12.39788">
        <ele>477.606297</ele>
        <time>2023-07-14T08:48:34.948Z</time>
      </trkpt>
      <trkpt lat="48.49829" lon="12.398">
        <ele>477.551278</ele>
        <time>2023-07-14T08:48:36.937Z</time>
      </trkpt>
      <trkpt lat="48.49824" lon="12.39813">
        <ele>477.494786</ele>
        <time>2023-07-14T08:48:38.946Z</time>
      </trkpt>
      <trkpt lat="48.49821" lon="12.39827">
        <ele>477.436451</ele>
        <time>2023-07-14T08:48:40.945Z</time>
      </trkpt>
      <trkpt lat="48.49817" lon="12.3984">
        <ele>477.386019</ele>
        <time>2023-07-14T08:48:42.948Z</time>
      </trkpt>
      <trkpt lat="48.49813" lon="12.39853">
        <ele>477.341985</ele>
        <time>2023-07-14T08:48:44.943Z</time>
      </trkpt>
      <trkpt lat="48.4981" lon="12.39867">
        <ele>477.294657</ele>
        <time>2023-07-14T08:48:46.968Z</time>
      </trkpt>
      <trkpt lat="48.49806" lon="12.39882">
        <ele>477.247575</ele>
        <time>2023-07-14T08:48:48.971Z</time>
      </trkpt>
      <trkpt lat="48.49803" lon="12.39895">
        <ele>477.203831</ele>
        <time>2023-07-14T08:48:50.946Z</time>
      </trkpt>
      <trkpt lat="48.498" lon="12.39909">
        <ele>477.1566</ele>
        <time>2023-07-14T08:48:52.946Z</time>
      </trkpt>
      <trkpt lat="48.49797" lon="12.39923">
        <ele>477.110794</ele>
        <time>2023-07-14T08:48:54.947Z</time>
      </trkpt>
      <trkpt lat="48.49794" lon="12.39937">
        <ele>477.06547</ele>
        <time>2023-07-14T08:48:56.947Z</time>
      </trkpt>
      <trkpt lat="48.49792" lon="12.39951">
        <ele>477.020924</ele>
        <time>2023-07-14T08:48:58.967Z</time>
      </trkpt>
      <trkpt lat="48.4979" lon="12.39965">
        <ele>476.977099</ele>
        <time>2023-07-14T08:49:00.945Z</time>
      </trkpt>
      <trkpt lat="48.49789" lon="12.39978">
        <ele>476.934719</ele>
        <time>2023-07-14T08:49:02.938Z</time>
      </trkpt>
      <trkpt lat="48.49788" lon="12.39993">
        <ele>476.890319</ele>
        <time>2023-07-14T08:49:04.968Z</time>
      </trkpt>
      <trkpt lat="48.49787" lon="12.40007">
        <ele>476.845249</ele>
        <time>2023-07-14T08:49:06.971Z</time>
      </trkpt>
      <trkpt lat="48.49787" lon="12.40022">
        <ele>476.800154</ele>
        <time>2023-07-14T08:49:08.947Z</time>
      </trkpt>
      <trkpt lat="48.49787" lon="12.40036">
        <ele>476.755993</ele>
        <time>2023-07-14T08:49:10.944Z</time>
      </trkpt>
      <trkpt lat="48.49787" lon="12.4005">
        <ele>476.711217</ele>
        <time>2023-07-14T08:49:12.935Z</time>
      </trkpt>
      <trkpt lat="48.49787" lon="12.40065">
        <ele>476.666044</ele>
        <time>2023-07-14T08:49:14.951Z</time>
      </trkpt>
      <trkpt lat="48.49788" lon="12.4008">
        <ele>476.619656</ele>
        <time>2023-07-14T08:49:16.958Z</time>
      </trkpt>
      <trkpt lat="48.49789" lon="12.40094">
        <ele>476.574328</ele>
        <time>2023-07-14T08:49:18.962Z</time>
      </trkpt>
      <trkpt lat="48.4979" lon="12.40108">
        <ele>476.588971</ele>
        <time>2023-07-14T08:49:20.947Z</time>
      </trkpt>
      <trkpt lat="48.49792" lon="12.40123">
        <ele>476.611869</ele>
        <time>2023-07-14T08:49:22.952Z</time>
      </trkpt>
      <trkpt lat="48.49794" lon="12.40138">
        <ele>476.63533</ele>
        <time>2023-07-14T08:49:24.959Z</time>
      </trkpt>
      <trkpt lat="48.49796" lon="12.40152">
        <ele>476.657378</ele>
        <time>2023-07-14T08:49:26.952Z</time>
      </trkpt>
      <trkpt lat="48.49798" lon="12.40166">
        <ele>476.679038</ele>
        <time>2023-07-14T08:49:28.939Z</time>
      </trkpt>
      <trkpt lat="48.498" lon="12.4018">
        <ele>476.701054</ele>
        <time>2023-07-14T08:49:30.955Z</time>
      </trkpt>
      <trkpt lat="48.49802" lon="12.40194">
        <ele>476.723606</ele>
        <time>2023-07-14T08:49:32.962Z</time>
      </trkpt>
      <trkpt lat="48.49804" lon="12.40207">
        <ele>476.744745</ele>
        <time>2023-07-14T08:49:34.953Z</time>
      </trkpt>
      <trkpt lat="48.49806" lon="12.40227">
        <ele>476.775572</ele>
        <time>2023-07-14T08:49:37.976Z</time>
      </trkpt>
      <trkpt lat="48.49808" lon="12.40241">
        <ele>476.796962</ele>
        <time>2023-07-14T08:49:39.933Z</time>
      </trkpt>
      <trkpt lat="48.4981" lon="12.40254">
        <ele>476.818457</ele>
        <time>2023-07-14T08:49:41.964Z</time>
      </trkpt>
      <trkpt lat="48.49812" lon="12.40268">
        <ele>476.840361</ele>
        <time>2023-07-14T08:49:43.961Z</time>
      </trkpt>
      <trkpt lat="48.49814" lon="12.40288">
        <ele>476.871079</ele>
        <time>2023-07-14T08:49:46.945Z</time>
      </trkpt>
      <trkpt lat="48.49816" lon="12.40307">
        <ele>476.901027</ele>
        <time>2023-07-14T08:49:49.949Z</time>
      </trkpt>
      <trkpt lat="48.49817" lon="12.40327">
        <ele>476.931264</ele>
        <time>2023-07-14T08:49:52.947Z</time>
      </trkpt>
      <trkpt lat="48.49818" lon="12.40347">
        <ele>476.962527</ele>
        <time>2023-07-14T08:49:55.944Z</time>
      </trkpt>
      <trkpt lat="48.49818" lon="12.40368">
        <ele>476.982038</ele>
        <time>2023-07-14T08:49:58.948Z</time>
      </trkpt>
      <trkpt lat="48.49817" lon="12.40382">
        <ele>476.968167</ele>
        <time>2023-07-14T08:50:00.950Z</time>
      </trkpt>
      <trkpt lat="48.49817" lon="12.40395">
        <ele>476.954276</ele>
        <time>2023-07-14T08:50:02.955Z</time>
      </trkpt>
      <trkpt lat="48.49816" lon="12.40415">
        <ele>476.934355</ele>
        <time>2023-07-14T08:50:05.950Z</time>
      </trkpt>
      <trkpt lat="48.49816" lon="12.40429">
        <ele>476.920505</ele>
        <time>2023-07-14T08:50:07.952Z</time>
      </trkpt>
      <trkpt lat="48.49817" lon="12.40449">
        <ele>476.899973</ele>
        <time>2023-07-14T08:50:10.950Z</time>
      </trkpt>
      <trkpt lat="48.49817" lon="12.40469">
        <ele>476.879951</ele>
        <time>2023-07-14T08:50:13.955Z</time>
      </trkpt>
      <trkpt lat="48.49818" lon="12.40489">
        <ele>476.859763</ele>
        <time>2023-07-14T08:50:16.956Z</time>
      </trkpt>
      <trkpt lat="48.4982" lon="12.40509">
        <ele>476.839358</ele>
        <time>2023-07-14T08:50:19.962Z</time>
      </trkpt>
      <trkpt lat="48.49822" lon="12.40528">
        <ele>476.81936</ele>
        <time>2023-07-14T08:50:22.954Z</time>
      </trkpt>
      <trkpt lat="48.49825" lon="12.40548">
        <ele>476.79932</ele>
        <time>2023-07-14T08:50:25.948Z</time>
      </trkpt>
      <trkpt lat="48.49828" lon="12.40567">
        <ele>476.779169</ele>
        <time>2023-07-14T08:50:28.944Z</time>
      </trkpt>
      <trkpt lat="48.49831" lon="12.40587">
        <ele>476.758503</ele>
        <time>2023-07-14T08:50:31.963Z</time>
      </trkpt>
      <trkpt lat="48.49835" lon="12.40606">
        <ele>476.738058</ele>
        <time>2023-07-14T08:50:34.943Z</time>
      </trkpt>
      <trkpt lat="48.49837" lon="12.4062">
        <ele>476.724123</ele>
        <time>2023-07-14T08:50:36.948Z</time>
      </trkpt>
      <trkpt lat="48.4984" lon="12.40639">
        <ele>476.710415</ele>
        <time>2023-07-14T08:50:39.969Z</time>
      </trkpt>
      <trkpt lat="48.49843" lon="12.40657">
        <ele>476.705602</ele>
        <time>2023-07-14T08:50:42.934Z</time>
      </trkpt>
      <trkpt lat="48.49846" lon="12.40676">
        <ele>476.700713</ele>
        <time>2023-07-14T08:50:45.956Z</time>
      </trkpt>
      <trkpt lat="48.49849" lon="12.40696">
        <ele>476.695618</ele>
        <time>2023-07-14T08:50:48.934Z</time>
      </trkpt>
      <trkpt lat="48.49852" lon="12.40714">
        <ele>476.690704</ele>
        <time>2023-07-14T08:50:51.966Z</time>
      </trkpt>
      <trkpt lat="48.49855" lon="12.40734">
        <ele>476.685718</ele>
        <time>2023-07-14T08:50:54.946Z</time>
      </trkpt>
      <trkpt lat="48.49858" lon="12.40753">
        <ele>476.680697</ele>
        <time>2023-07-14T08:50:57.965Z</time>
      </trkpt>
      <trkpt lat="48.49861" lon="12.40772">
        <ele>476.675768</ele>
        <time>2023-07-14T08:51:00.948Z</time>
      </trkpt>
      <trkpt lat="48.49864" lon="12.40791">
        <ele>476.670752</ele>
        <time>2023-07-14T08:51:03.961Z</time>
      </trkpt>
      <trkpt lat="48.49867" lon="12.4081">
        <ele>476.665844</ele>
        <time>2023-07-14T08:51:06.942Z</time>
      </trkpt>
      <trkpt lat="48.4987" lon="12.40828">
        <ele>476.661006</ele>
        <time>2023-07-14T08:51:09.950Z</time>
      </trkpt>
      <trkpt lat="48.49874" lon="12.40847">
        <ele>476.656053</ele>
        <time>2023-07-14T08:51:12.949Z</time>
      </trkpt>
      <trkpt lat="48.49876" lon="12.40866">
        <ele>476.651091</ele>
        <time>2023-07-14T08:51:15.958Z</time>
      </trkpt>
      <trkpt lat="48.49879" lon="12.40885">
        <ele>476.646241</ele>
        <time>2023-07-14T08:51:18.950Z</time>
      </trkpt>
      <trkpt lat="48.49882" lon="12.40903">
        <ele>476.703573</ele>
        <time>2023-07-14T08:51:21.970Z</time>
      </trkpt>
      <trkpt lat="48.49884" lon="12.4092">
        <ele>476.829324</ele>
        <time>2023-07-14T08:51:24.947Z</time>
      </trkpt>
      <trkpt lat="48.49886" lon="12.40937">
        <ele>476.953875</ele>
        <time>2023-07-14T08:51:27.966Z</time>
      </trkpt>
      <trkpt lat="48.49888" lon="12.40955">
        <ele>477.081908</ele>
        <time>2023-07-14T08:51:30.945Z</time>
      </trkpt>
      <trkpt lat="48.49888" lon="12.40974">
        <ele>477.212773</ele>
        <time>2023-07-14T08:51:33.946Z</time>
      </trkpt>
      <trkpt lat="48.49889" lon="12.40992">
        <ele>477.342336</ele>
        <time>2023-07-14T08:51:37.018Z</time>
      </trkpt>
      <trkpt lat="48.49888" lon="12.4101">
        <ele>477.468299</ele>
        <time>2023-07-14T08:51:39.950Z</time>
      </trkpt>
      <trkpt lat="48.49885" lon="12.41028">
        <ele>477.603431</ele>
        <time>2023-07-14T08:51:42.962Z</time>
      </trkpt>
      <trkpt lat="48.49882" lon="12.41048">
        <ele>477.746221</ele>
        <time>2023-07-14T08:51:45.960Z</time>
      </trkpt>
      <trkpt lat="48.49887" lon="12.41066">
        <ele>477.888446</ele>
        <time>2023-07-14T08:51:48.949Z</time>
      </trkpt>
      <trkpt lat="48.49894" lon="12.41076">
        <ele>477.989059</ele>
        <time>2023-07-14T08:51:50.966Z</time>
      </trkpt>
      <trkpt lat="48.49903" lon="12.41089">
        <ele>478.124964</ele>
        <time>2023-07-14T08:51:53.946Z</time>
      </trkpt>
      <trkpt lat="48.4991" lon="12.41101">
        <ele>478.239347</ele>
        <time>2023-07-14T08:51:56.949Z</time>
      </trkpt>
      <trkpt lat="48.49915" lon="12.41112">
        <ele>478.337325</ele>
        <time>2023-07-14T08:51:59.963Z</time>
      </trkpt>
      <trkpt lat="48.49923" lon="12.41125">
        <ele>478.457421</ele>
        <time>2023-07-14T08:53:53.962Z</time>
      </trkpt>
      <trkpt lat="48.49929" lon="12.41136">
        <ele>478.563174</ele>
        <time>2023-07-14T08:53:57.950Z</time>
      </trkpt>
      <trkpt lat="48.49935" lon="12.41148">
        <ele>478.604458</ele>
        <time>2023-07-14T08:54:00.938Z</time>
      </trkpt>
      <trkpt lat="48.4994" lon="12.41161">
        <ele>478.640763</ele>
        <time>2023-07-14T08:54:03.949Z</time>
      </trkpt>
      <trkpt lat="48.49945" lon="12.41176">
        <ele>478.681527</ele>
        <time>2023-07-14T08:54:06.933Z</time>
      </trkpt>
      <trkpt lat="48.49951" lon="12.41191">
        <ele>478.721812</ele>
        <time>2023-07-14T08:54:09.946Z</time>
      </trkpt>
      <trkpt lat="48.49956" lon="12.41206">
        <ele>478.763593</ele>
        <time>2023-07-14T08:54:12.931Z</time>
      </trkpt>
      <trkpt lat="48.49961" lon="12.41222">
        <ele>478.805125</ele>
        <time>2023-07-14T08:54:15.946Z</time>
      </trkpt>
      <trkpt lat="48.49965" lon="12.4124">
        <ele>478.850725</ele>
        <time>2023-07-14T08:54:18.935Z</time>
      </trkpt>
      <trkpt lat="48.49969" lon="12.41258">
        <ele>478.895411</ele>
        <time>2023-07-14T08:54:21.946Z</time>
      </trkpt>
      <trkpt lat="48.49972" lon="12.41277">
        <ele>478.94092</ele>
        <time>2023-07-14T08:54:24.937Z</time>
      </trkpt>
      <trkpt lat="48.49974" lon="12.41294">
        <ele>478.984091</ele>
        <time>2023-07-14T08:54:27.965Z</time>
      </trkpt>
      <trkpt lat="48.49976" lon="12.41313">
        <ele>479.029903</ele>
        <time>2023-07-14T08:54:30.937Z</time>
      </trkpt>
      <trkpt lat="48.49978" lon="12.41333">
        <ele>479.0777</ele>
        <time>2023-07-14T08:54:33.938Z</time>
      </trkpt>
      <trkpt lat="48.49978" lon="12.41347">
        <ele>479.111202</ele>
        <time>2023-07-14T08:54:35.947Z</time>
      </trkpt>
      <trkpt lat="48.49979" lon="12.41361">
        <ele>479.144511</ele>
        <time>2023-07-14T08:54:37.937Z</time>
      </trkpt>
      <trkpt lat="48.49979" lon="12.41376">
        <ele>479.180361</ele>
        <time>2023-07-14T08:54:39.970Z</time>
      </trkpt>
      <trkpt lat="48.49979" lon="12.4139">
        <ele>479.215249</ele>
        <time>2023-07-14T08:54:41.952Z</time>
      </trkpt>
      <trkpt lat="48.49979" lon="12.41405">
        <ele>479.21764</ele>
        <time>2023-07-14T08:54:43.935Z</time>
      </trkpt>
      <trkpt lat="48.49979" lon="12.4142">
        <ele>479.211743</ele>
        <time>2023-07-14T08:54:45.951Z</time>
      </trkpt>
      <trkpt lat="48.49978" lon="12.41435">
        <ele>479.205924</ele>
        <time>2023-07-14T08:54:47.956Z</time>
      </trkpt>
      <trkpt lat="48.49976" lon="12.4145">
        <ele>479.200047</ele>
        <time>2023-07-14T08:54:49.964Z</time>
      </trkpt>
      <trkpt lat="48.49974" lon="12.41464">
        <ele>479.194256</ele>
        <time>2023-07-14T08:54:51.953Z</time>
      </trkpt>
      <trkpt lat="48.49972" lon="12.41479">
        <ele>479.188578</ele>
        <time>2023-07-14T08:54:53.967Z</time>
      </trkpt>
      <trkpt lat="48.49972" lon="12.41494">
        <ele>479.182725</ele>
        <time>2023-07-14T08:54:55.946Z</time>
      </trkpt>
      <trkpt lat="48.49971" lon="12.41508">
        <ele>479.176952</ele>
        <time>2023-07-14T08:54:57.964Z</time>
      </trkpt>
      <trkpt lat="48.49972" lon="12.41524">
        <ele>479.170922</ele>
        <time>2023-07-14T08:54:59.978Z</time>
      </trkpt>
      <trkpt lat="48.49972" lon="12.41538">
        <ele>479.165262</ele>
        <time>2023-07-14T08:55:01.972Z</time>
      </trkpt>
      <trkpt lat="48.49972" lon="12.41553">
        <ele>479.159645</ele>
        <time>2023-07-14T08:55:03.949Z</time>
      </trkpt>
      <trkpt lat="48.49972" lon="12.41567">
        <ele>479.153911</ele>
        <time>2023-07-14T08:55:05.950Z</time>
      </trkpt>
      <trkpt lat="48.49973" lon="12.41581">
        <ele>479.148517</ele>
        <time>2023-07-14T08:55:07.966Z</time>
      </trkpt>
      <trkpt lat="48.49974" lon="12.41601">
        <ele>479.140845</ele>
        <time>2023-07-14T08:55:10.949Z</time>
      </trkpt>
      <trkpt lat="48.49975" lon="12.41621">
        <ele>479.133031</ele>
        <time>2023-07-14T08:55:13.965Z</time>
      </trkpt>
      <trkpt lat="48.49976" lon="12.41641">
        <ele>479.125197</ele>
        <time>2023-07-14T08:55:16.960Z</time>
      </trkpt>
      <trkpt lat="48.49978" lon="12.41654">
        <ele>479.119906</ele>
        <time>2023-07-14T08:55:18.951Z</time>
      </trkpt>
      <trkpt lat="48.49979" lon="12.41668">
        <ele>479.119881</ele>
        <time>2023-07-14T08:55:20.965Z</time>
      </trkpt>
      <trkpt lat="48.49981" lon="12.41681">
        <ele>479.129826</ele>
        <time>2023-07-14T08:55:22.948Z</time>
      </trkpt>
      <trkpt lat="48.49983" lon="12.41695">
        <ele>479.139934</ele>
        <time>2023-07-14T08:55:24.936Z</time>
      </trkpt>
      <trkpt lat="48.49985" lon="12.41709">
        <ele>479.150464</ele>
        <time>2023-07-14T08:55:26.968Z</time>
      </trkpt>
      <trkpt lat="48.49987" lon="12.41723">
        <ele>479.160649</ele>
        <time>2023-07-14T08:55:28.955Z</time>
      </trkpt>
      <trkpt lat="48.49989" lon="12.41736">
        <ele>479.170555</ele>
        <time>2023-07-14T08:55:30.957Z</time>
      </trkpt>
      <trkpt lat="48.49992" lon="12.41749">
        <ele>479.180601</ele>
        <time>2023-07-14T08:55:32.945Z</time>
      </trkpt>
      <trkpt lat="48.49994" lon="12.41763">
        <ele>479.190467</ele>
        <time>2023-07-14T08:55:34.945Z</time>
      </trkpt>
      <trkpt lat="48.49998" lon="12.41776">
        <ele>479.200987</ele>
        <time>2023-07-14T08:55:36.950Z</time>
      </trkpt>
      <trkpt lat="48.50001" lon="12.4179">
        <ele>479.211224</ele>
        <time>2023-07-14T08:55:38.955Z</time>
      </trkpt>
      <trkpt lat="48.50004" lon="12.41808">
        <ele>479.22494</ele>
        <time>2023-07-14T08:55:41.951Z</time>
      </trkpt>
      <trkpt lat="48.50009" lon="12.41826">
        <ele>479.238902</ele>
        <time>2023-07-14T08:55:44.962Z</time>
      </trkpt>
      <trkpt lat="48.50013" lon="12.4184">
        <ele>479.249958</ele>
        <time>2023-07-14T08:55:46.950Z</time>
      </trkpt>
      <trkpt lat="48.50017" lon="12.41855">
        <ele>479.26192</ele>
        <time>2023-07-14T08:55:48.935Z</time>
      </trkpt>
      <trkpt lat="48.50023" lon="12.4187">
        <ele>479.274812</ele>
        <time>2023-07-14T08:55:50.945Z</time>
      </trkpt>
      <trkpt lat="48.50029" lon="12.41886">
        <ele>479.288011</ele>
        <time>2023-07-14T08:55:52.951Z</time>
      </trkpt>
      <trkpt lat="48.50034" lon="12.41903">
        <ele>479.301637</ele>
        <time>2023-07-14T08:55:54.947Z</time>
      </trkpt>
      <trkpt lat="48.5004" lon="12.4192">
        <ele>479.297392</ele>
        <time>2023-07-14T08:55:56.941Z</time>
      </trkpt>
      <trkpt lat="48.50045" lon="12.41937">
        <ele>479.206592</ele>
        <time>2023-07-14T08:55:58.952Z</time>
      </trkpt>
      <trkpt lat="48.50049" lon="12.41951">
        <ele>479.126584</ele>
        <time>2023-07-14T08:56:00.946Z</time>
      </trkpt>
      <trkpt lat="48.50055" lon="12.41965">
        <ele>479.047253</ele>
        <time>2023-07-14T08:56:02.936Z</time>
      </trkpt>
      <trkpt lat="48.50061" lon="12.41978">
        <ele>478.966727</ele>
        <time>2023-07-14T08:56:04.950Z</time>
      </trkpt>
      <trkpt lat="48.50066" lon="12.41992">
        <ele>478.88745</ele>
        <time>2023-07-14T08:56:06.945Z</time>
      </trkpt>
      <trkpt lat="48.50072" lon="12.42005">
        <ele>478.807693</ele>
        <time>2023-07-14T08:56:08.952Z</time>
      </trkpt>
      <trkpt lat="48.50078" lon="12.42019">
        <ele>478.726755</ele>
        <time>2023-07-14T08:56:10.968Z</time>
      </trkpt>
      <trkpt lat="48.50084" lon="12.42032">
        <ele>478.6437</ele>
        <time>2023-07-14T08:56:12.946Z</time>
      </trkpt>
      <trkpt lat="48.50092" lon="12.42045">
        <ele>478.559119</ele>
        <time>2023-07-14T08:56:14.948Z</time>
      </trkpt>
      <trkpt lat="48.50098" lon="12.42058">
        <ele>478.47768</ele>
        <time>2023-07-14T08:56:16.941Z</time>
      </trkpt>
      <trkpt lat="48.50105" lon="12.42072">
        <ele>478.39092</ele>
        <time>2023-07-14T08:56:18.952Z</time>
      </trkpt>
      <trkpt lat="48.50113" lon="12.42085">
        <ele>478.304973</ele>
        <time>2023-07-14T08:56:20.953Z</time>
      </trkpt>
      <trkpt lat="48.50121" lon="12.42096">
        <ele>478.221158</ele>
        <time>2023-07-14T08:56:22.951Z</time>
      </trkpt>
      <trkpt lat="48.5013" lon="12.42107">
        <ele>478.137494</ele>
        <time>2023-07-14T08:56:24.946Z</time>
      </trkpt>
      <trkpt lat="48.50138" lon="12.42117">
        <ele>478.055618</ele>
        <time>2023-07-14T08:56:26.966Z</time>
      </trkpt>
      <trkpt lat="48.50147" lon="12.42126">
        <ele>477.97399</ele>
        <time>2023-07-14T08:56:28.962Z</time>
      </trkpt>
      <trkpt lat="48.50157" lon="12.42135">
        <ele>477.917973</ele>
        <time>2023-07-14T08:56:30.967Z</time>
      </trkpt>
      <trkpt lat="48.50166" lon="12.42143">
        <ele>477.869119</ele>
        <time>2023-07-14T08:56:32.950Z</time>
      </trkpt>
      <trkpt lat="48.50176" lon="12.4215">
        <ele>477.820834</ele>
        <time>2023-07-14T08:56:34.942Z</time>
      </trkpt>
      <trkpt lat="48.50185" lon="12.42158">
        <ele>477.774411</ele>
        <time>2023-07-14T08:56:36.963Z</time>
      </trkpt>
      <trkpt lat="48.50194" lon="12.42164">
        <ele>477.729512</ele>
        <time>2023-07-14T08:56:38.950Z</time>
      </trkpt>
      <trkpt lat="48.50203" lon="12.4217">
        <ele>477.683986</ele>
        <time>2023-07-14T08:56:40.944Z</time>
      </trkpt>
      <trkpt lat="48.50212" lon="12.42176">
        <ele>477.637976</ele>
        <time>2023-07-14T08:56:42.946Z</time>
      </trkpt>
      <trkpt lat="48.50221" lon="12.42183">
        <ele>477.590502</ele>
        <time>2023-07-14T08:56:44.950Z</time>
      </trkpt>
      <trkpt lat="48.50231" lon="12.4219">
        <ele>477.542881</ele>
        <time>2023-07-14T08:56:46.942Z</time>
      </trkpt>
      <trkpt lat="48.5024" lon="12.42199">
        <ele>477.493821</ele>
        <time>2023-07-14T08:56:48.948Z</time>
      </trkpt>
      <trkpt lat="48.50249" lon="12.42208">
        <ele>477.44524</ele>
        <time>2023-07-14T08:56:50.943Z</time>
      </trkpt>
      <trkpt lat="48.50257" lon="12.42218">
        <ele>477.395595</ele>
        <time>2023-07-14T08:56:52.930Z</time>
      </trkpt>
      <trkpt lat="48.50265" lon="12.42229">
        <ele>477.34507</ele>
        <time>2023-07-14T08:56:54.957Z</time>
      </trkpt>
      <trkpt lat="48.50273" lon="12.42241">
        <ele>477.294216</ele>
        <time>2023-07-14T08:56:56.952Z</time>
      </trkpt>
      <trkpt lat="48.50282" lon="12.42253">
        <ele>477.242158</ele>
        <time>2023-07-14T08:56:58.951Z</time>
      </trkpt>
      <trkpt lat="48.50289" lon="12.42265">
        <ele>477.1918</ele>
        <time>2023-07-14T08:57:00.941Z</time>
      </trkpt>
      <trkpt lat="48.50296" lon="12.42279">
        <ele>477.140064</ele>
        <time>2023-07-14T08:57:02.950Z</time>
      </trkpt>
      <trkpt lat="48.50303" lon="12.42292">
        <ele>477.086267</ele>
        <time>2023-07-14T08:57:04.951Z</time>
      </trkpt>
      <trkpt lat="48.50311" lon="12.42304">
        <ele>477.0306</ele>
        <time>2023-07-14T08:57:06.947Z</time>
      </trkpt>
      <trkpt lat="48.50318" lon="12.42316">
        <ele>476.978472</ele>
        <time>2023-07-14T08:57:08.938Z</time>
      </trkpt>
      <trkpt lat="48.50327" lon="12.42325">
        <ele>476.92496</ele>
        <time>2023-07-14T08:57:10.946Z</time>
      </trkpt>
      <trkpt lat="48.50336" lon="12.42335">
        <ele>476.871609</ele>
        <time>2023-07-14T08:57:12.957Z</time>
      </trkpt>
      <trkpt lat="48.50345" lon="12.42343">
        <ele>476.818515</ele>
        <time>2023-07-14T08:57:14.950Z</time>
      </trkpt>
      <trkpt lat="48.50355" lon="12.42352">
        <ele>476.76535</ele>
        <time>2023-07-14T08:57:16.954Z</time>
      </trkpt>
      <trkpt lat="48.50364" lon="12.4236">
        <ele>476.71333</ele>
        <time>2023-07-14T08:57:18.957Z</time>
      </trkpt>
      <trkpt lat="48.50373" lon="12.42369">
        <ele>476.659067</ele>
        <time>2023-07-14T08:57:20.948Z</time>
      </trkpt>
      <trkpt lat="48.50382" lon="12.42377">
        <ele>476.610068</ele>
        <time>2023-07-14T08:57:22.927Z</time>
      </trkpt>
      <trkpt lat="48.5039" lon="12.42386">
        <ele>476.560263</ele>
        <time>2023-07-14T08:57:24.966Z</time>
      </trkpt>
      <trkpt lat="48.50399" lon="12.42395">
        <ele>476.507538</ele>
        <time>2023-07-14T08:57:26.952Z</time>
      </trkpt>
      <trkpt lat="48.50409" lon="12.424">
        <ele>476.458166</ele>
        <time>2023-07-14T08:57:28.948Z</time>
      </trkpt>
      <trkpt lat="48.50418" lon="12.42401">
        <ele>476.41128</ele>
        <time>2023-07-14T08:57:30.937Z</time>
      </trkpt>
      <trkpt lat="48.50428" lon="12.42404">
        <ele>476.362191</ele>
        <time>2023-07-14T08:57:32.943Z</time>
      </trkpt>
      <trkpt lat="48.50437" lon="12.4241">
        <ele>476.315553</ele>
        <time>2023-07-14T08:57:34.934Z</time>
      </trkpt>
      <trkpt lat="48.50445" lon="12.42416">
        <ele>476.27099</ele>
        <time>2023-07-14T08:57:36.945Z</time>
      </trkpt>
      <trkpt lat="48.50454" lon="12.42423">
        <ele>476.231981</ele>
        <time>2023-07-14T08:57:38.941Z</time>
      </trkpt>
      <trkpt lat="48.50461" lon="12.42431">
        <ele>476.194505</ele>
        <time>2023-07-14T08:57:40.969Z</time>
      </trkpt>
      <trkpt lat="48.50468" lon="12.4244">
        <ele>476.156673</ele>
        <time>2023-07-14T08:57:42.951Z</time>
      </trkpt>
      <trkpt lat="48.50476" lon="12.42449">
        <ele>476.117433</ele>
        <time>2023-07-14T08:57:44.969Z</time>
      </trkpt>
      <trkpt lat="48.50484" lon="12.4246">
        <ele>476.075968</ele>
        <time>2023-07-14T08:57:46.934Z</time>
      </trkpt>
      <trkpt lat="48.50492" lon="12.4247">
        <ele>476.035584</ele>
        <time>2023-07-14T08:57:48.931Z</time>
      </trkpt>
      <trkpt lat="48.50499" lon="12.4248">
        <ele>475.995297</ele>
        <time>2023-07-14T08:57:50.958Z</time>
      </trkpt>
      <trkpt lat="48.50507" lon="12.42489">
        <ele>475.955742</ele>
        <time>2023-07-14T08:57:52.956Z</time>
      </trkpt>
      <trkpt lat="48.50514" lon="12.42499">
        <ele>475.916645</ele>
        <time>2023-07-14T08:57:54.966Z</time>
      </trkpt>
      <trkpt lat="48.50522" lon="12.42507">
        <ele>475.878733</ele>
        <time>2023-07-14T08:57:56.951Z</time>
      </trkpt>
      <trkpt lat="48.5053" lon="12.42515">
        <ele>475.838854</ele>
        <time>2023-07-14T08:57:58.952Z</time>
      </trkpt>
      <trkpt lat="48.50538" lon="12.42525">
        <ele>475.798868</ele>
        <time>2023-07-14T08:58:00.954Z</time>
      </trkpt>
      <trkpt lat="48.50545" lon="12.42537">
        <ele>475.757554</ele>
        <time>2023-07-14T08:58:02.934Z</time>
      </trkpt>
      <trkpt lat="48.50553" lon="12.42547">
        <ele>475.716025</ele>
        <time>2023-07-14T08:58:04.920Z</time>
      </trkpt>
      <trkpt lat="48.50561" lon="12.42558">
        <ele>475.671844</ele>
        <time>2023-07-14T08:58:06.944Z</time>
      </trkpt>
      <trkpt lat="48.5057" lon="12.42566">
        <ele>475.630987</ele>
        <time>2023-07-14T08:58:08.976Z</time>
      </trkpt>
      <trkpt lat="48.50577" lon="12.42576">
        <ele>475.592202</ele>
        <time>2023-07-14T08:58:10.951Z</time>
      </trkpt>
      <trkpt lat="48.50584" lon="12.42584">
        <ele>475.5552</ele>
        <time>2023-07-14T08:58:12.935Z</time>
      </trkpt>
      <trkpt lat="48.50593" lon="12.42593">
        <ele>475.376254</ele>
        <time>2023-07-14T08:58:14.951Z</time>
      </trkpt>
      <trkpt lat="48.50601" lon="12.42603">
        <ele>475.147305</ele>
        <time>2023-07-14T08:58:16.955Z</time>
      </trkpt>
      <trkpt lat="48.5061" lon="12.42611">
        <ele>474.929062</ele>
        <time>2023-07-14T08:58:18.956Z</time>
      </trkpt>
      <trkpt lat="48.50618" lon="12.42621">
        <ele>474.706938</ele>
        <time>2023-07-14T08:58:20.950Z</time>
      </trkpt>
      <trkpt lat="48.50625" lon="12.42633">
        <ele>474.47807</ele>
        <time>2023-07-14T08:58:22.939Z</time>
      </trkpt>
      <trkpt lat="48.50628" lon="12.42648">
        <ele>474.249871</ele>
        <time>2023-07-14T08:58:24.955Z</time>
      </trkpt>
      <trkpt lat="48.50631" lon="12.42665">
        <ele>474.006033</ele>
        <time>2023-07-14T08:58:26.939Z</time>
      </trkpt>
      <trkpt lat="48.50633" lon="12.42681">
        <ele>473.769243</ele>
        <time>2023-07-14T08:58:28.956Z</time>
      </trkpt>
      <trkpt lat="48.50635" lon="12.42697">
        <ele>473.542133</ele>
        <time>2023-07-14T08:58:30.950Z</time>
      </trkpt>
      <trkpt lat="48.50637" lon="12.42713">
        <ele>473.314999</ele>
        <time>2023-07-14T08:58:32.958Z</time>
      </trkpt>
      <trkpt lat="48.50641" lon="12.42728">
        <ele>473.084039</ele>
        <time>2023-07-14T08:58:34.953Z</time>
      </trkpt>
      <trkpt lat="48.50644" lon="12.42743">
        <ele>472.85573</ele>
        <time>2023-07-14T08:58:36.959Z</time>
      </trkpt>
      <trkpt lat="48.50648" lon="12.42759">
        <ele>472.627553</ele>
        <time>2023-07-14T08:58:38.937Z</time>
      </trkpt>
      <trkpt lat="48.50652" lon="12.42774">
        <ele>472.394303</ele>
        <time>2023-07-14T08:58:40.931Z</time>
      </trkpt>
      <trkpt lat="48.50655" lon="12.4279">
        <ele>472.157854</ele>
        <time>2023-07-14T08:58:42.946Z</time>
      </trkpt>
      <trkpt lat="48.50656" lon="12.42805">
        <ele>471.935203</ele>
        <time>2023-07-14T08:58:44.936Z</time>
      </trkpt>
      <trkpt lat="48.50651" lon="12.42821">
        <ele>471.689845</ele>
        <time>2023-07-14T08:58:46.931Z</time>
      </trkpt>
      <trkpt lat="48.50645" lon="12.42834">
        <ele>471.532772</ele>
        <time>2023-07-14T08:58:48.929Z</time>
      </trkpt>
      <trkpt lat="48.50636" lon="12.42846">
        <ele>471.35781</ele>
        <time>2023-07-14T08:58:50.943Z</time>
      </trkpt>
      <trkpt lat="48.50628" lon="12.42858">
        <ele>471.186704</ele>
        <time>2023-07-14T08:58:52.940Z</time>
      </trkpt>
      <trkpt lat="48.5062" lon="12.4287">
        <ele>471.012994</ele>
        <time>2023-07-14T08:58:54.943Z</time>
      </trkpt>
      <trkpt lat="48.50612" lon="12.42881">
        <ele>470.853224</ele>
        <time>2023-07-14T08:58:56.955Z</time>
      </trkpt>
      <trkpt lat="48.50604" lon="12.42892">
        <ele>470.696213</ele>
        <time>2023-07-14T08:58:58.963Z</time>
      </trkpt>
      <trkpt lat="48.50597" lon="12.42902">
        <ele>470.551634</ele>
        <time>2023-07-14T08:59:00.960Z</time>
      </trkpt>
      <trkpt lat="48.50591" lon="12.42912">
        <ele>470.406359</ele>
        <time>2023-07-14T08:59:02.946Z</time>
      </trkpt>
      <trkpt lat="48.50583" lon="12.42929">
        <ele>470.203547</ele>
        <time>2023-07-14T08:59:05.946Z</time>
      </trkpt>
      <trkpt lat="48.50582" lon="12.42948">
        <ele>470.008378</ele>
        <time>2023-07-14T08:59:08.947Z</time>
      </trkpt>
      <trkpt lat="48.50588" lon="12.42965">
        <ele>469.818904</ele>
        <time>2023-07-14T08:59:11.943Z</time>
      </trkpt>
      <trkpt lat="48.50596" lon="12.42972">
        <ele>469.681221</ele>
        <time>2023-07-14T08:59:13.929Z</time>
      </trkpt>
      <trkpt lat="48.50607" lon="12.42983">
        <ele>469.484547</ele>
        <time>2023-07-14T08:59:16.922Z</time>
      </trkpt>
      <trkpt lat="48.50618" lon="12.42993">
        <ele>469.2895</ele>
        <time>2023-07-14T08:59:19.961Z</time>
      </trkpt>
      <trkpt lat="48.50626" lon="12.42999">
        <ele>469.149717</ele>
        <time>2023-07-14T08:59:21.954Z</time>
      </trkpt>
      <trkpt lat="48.50636" lon="12.43007">
        <ele>468.998726</ele>
        <time>2023-07-14T08:59:23.934Z</time>
      </trkpt>
      <trkpt lat="48.50646" lon="12.43014">
        <ele>469.115724</ele>
        <time>2023-07-14T08:59:25.946Z</time>
      </trkpt>
      <trkpt lat="48.50657" lon="12.43023">
        <ele>469.254091</ele>
        <time>2023-07-14T08:59:27.943Z</time>
      </trkpt>
      <trkpt lat="48.50667" lon="12.43032">
        <ele>469.386753</ele>
        <time>2023-07-14T08:59:29.946Z</time>
      </trkpt>
      <trkpt lat="48.50679" lon="12.43041">
        <ele>469.528892</ele>
        <time>2023-07-14T08:59:31.945Z</time>
      </trkpt>
      <trkpt lat="48.50688" lon="12.4305">
        <ele>469.654584</ele>
        <time>2023-07-14T08:59:33.937Z</time>
      </trkpt>
      <trkpt lat="48.50698" lon="12.43055">
        <ele>469.771516</ele>
        <time>2023-07-14T08:59:35.955Z</time>
      </trkpt>
      <trkpt lat="48.50708" lon="12.43059">
        <ele>469.886749</ele>
        <time>2023-07-14T08:59:37.945Z</time>
      </trkpt>
      <trkpt lat="48.50717" lon="12.43064">
        <ele>469.989655</ele>
        <time>2023-07-14T08:59:39.960Z</time>
      </trkpt>
      <trkpt lat="48.5073" lon="12.43071">
        <ele>470.1355</ele>
        <time>2023-07-14T08:59:42.949Z</time>
      </trkpt>
      <trkpt lat="48.50738" lon="12.43076">
        <ele>470.235535</ele>
        <time>2023-07-14T08:59:44.946Z</time>
      </trkpt>
      <trkpt lat="48.50746" lon="12.43082">
        <ele>470.334481</ele>
        <time>2023-07-14T08:59:46.945Z</time>
      </trkpt>
      <trkpt lat="48.50754" lon="12.43089">
        <ele>470.435717</ele>
        <time>2023-07-14T08:59:48.945Z</time>
      </trkpt>
      <trkpt lat="48.50763" lon="12.43097">
        <ele>470.553816</ele>
        <time>2023-07-14T08:59:50.940Z</time>
      </trkpt>
      <trkpt lat="48.50771" lon="12.43106">
        <ele>470.661283</ele>
        <time>2023-07-14T08:59:52.929Z</time>
      </trkpt>
      <trkpt lat="48.50779" lon="12.43115">
        <ele>470.772714</ele>
        <time>2023-07-14T08:59:54.944Z</time>
      </trkpt>
      <trkpt lat="48.50787" lon="12.43125">
        <ele>470.88255</ele>
        <time>2023-07-14T08:59:56.947Z</time>
      </trkpt>
      <trkpt lat="48.50795" lon="12.43135">
        <ele>470.972294</ele>
        <time>2023-07-14T08:59:58.949Z</time>
      </trkpt>
      <trkpt lat="48.50802" lon="12.43146">
        <ele>470.951618</ele>
        <time>2023-07-14T09:00:00.957Z</time>
      </trkpt>
      <trkpt lat="48.50809" lon="12.43155">
        <ele>470.932593</ele>
        <time>2023-07-14T09:00:02.951Z</time>
      </trkpt>
      <trkpt lat="48.50816" lon="12.43165">
        <ele>470.912782</ele>
        <time>2023-07-14T09:00:04.963Z</time>
      </trkpt>
      <trkpt lat="48.50823" lon="12.43176">
        <ele>470.893343</ele>
        <time>2023-07-14T09:00:06.949Z</time>
      </trkpt>
      <trkpt lat="48.5083" lon="12.43186">
        <ele>470.874102</ele>
        <time>2023-07-14T09:00:08.945Z</time>
      </trkpt>
      <trkpt lat="48.50837" lon="12.43202">
        <ele>470.847528</ele>
        <time>2023-07-14T09:00:11.959Z</time>
      </trkpt>
      <trkpt lat="48.50842" lon="12.43215">
        <ele>470.82758</ele>
        <time>2023-07-14T09:00:13.936Z</time>
      </trkpt>
      <trkpt lat="48.50848" lon="12.43225">
        <ele>470.80928</ele>
        <time>2023-07-14T09:00:15.967Z</time>
      </trkpt>
      <trkpt lat="48.50857" lon="12.4324">
        <ele>470.782826</ele>
        <time>2023-07-14T09:00:18.963Z</time>
      </trkpt>
      <trkpt lat="48.50866" lon="12.43254">
        <ele>470.756279</ele>
        <time>2023-07-14T09:00:21.967Z</time>
      </trkpt>
      <trkpt lat="48.50876" lon="12.43268">
        <ele>470.729437</ele>
        <time>2023-07-14T09:00:24.950Z</time>
      </trkpt>
      <trkpt lat="48.50884" lon="12.43283">
        <ele>470.702909</ele>
        <time>2023-07-14T09:00:27.982Z</time>
      </trkpt>
      <trkpt lat="48.50893" lon="12.43298">
        <ele>470.676245</ele>
        <time>2023-07-14T09:00:30.958Z</time>
      </trkpt>
      <trkpt lat="48.50901" lon="12.43311">
        <ele>470.651834</ele>
        <time>2023-07-14T09:00:33.968Z</time>
      </trkpt>
      <trkpt lat="48.5091" lon="12.4332">
        <ele>470.631103</ele>
        <time>2023-07-14T09:00:36.960Z</time>
      </trkpt>
      <trkpt lat="48.50919" lon="12.43332">
        <ele>470.603868</ele>
        <time>2023-07-14T09:00:39.952Z</time>
      </trkpt>
      <trkpt lat="48.50927" lon="12.43345">
        <ele>470.56663</ele>
        <time>2023-07-14T09:00:42.934Z</time>
      </trkpt>
      <trkpt lat="48.50936" lon="12.43357">
        <ele>470.529712</ele>
        <time>2023-07-14T09:00:45.959Z</time>
      </trkpt>
      <trkpt lat="48.50945" lon="12.4337">
        <ele>470.489775</ele>
        <time>2023-07-14T09:00:48.944Z</time>
      </trkpt>
      <trkpt lat="48.50952" lon="12.43379">
        <ele>470.461493</ele>
        <time>2023-07-14T09:00:50.947Z</time>
      </trkpt>
      <trkpt lat="48.50963" lon="12.43393">
        <ele>470.418505</ele>
        <time>2023-07-14T09:00:54.124Z</time>
      </trkpt>
      <trkpt lat="48.50971" lon="12.43402">
        <ele>470.388175</ele>
        <time>2023-07-14T09:00:55.930Z</time>
      </trkpt>
      <trkpt lat="48.50979" lon="12.4341">
        <ele>470.357324</ele>
        <time>2023-07-14T09:00:57.955Z</time>
      </trkpt>
      <trkpt lat="48.50987" lon="12.43418">
        <ele>470.327563</ele>
        <time>2023-07-14T09:00:59.942Z</time>
      </trkpt>
      <trkpt lat="48.50995" lon="12.43426">
        <ele>470.297282</ele>
        <time>2023-07-14T09:01:01.953Z</time>
      </trkpt>
      <trkpt lat="48.51004" lon="12.43432">
        <ele>470.266251</ele>
        <time>2023-07-14T09:01:03.948Z</time>
      </trkpt>
      <trkpt lat="48.51013" lon="12.4344">
        <ele>470.235752</ele>
        <time>2023-07-14T09:01:05.947Z</time>
      </trkpt>
      <trkpt lat="48.51021" lon="12.43447">
        <ele>470.20498</ele>
        <time>2023-07-14T09:01:07.943Z</time>
      </trkpt>
      <trkpt lat="48.5103" lon="12.43454">
        <ele>470.173537</ele>
        <time>2023-07-14T09:01:09.956Z</time>
      </trkpt>
      <trkpt lat="48.51039" lon="12.43461">
        <ele>470.142033</ele>
        <time>2023-07-14T09:01:11.948Z</time>
      </trkpt>
      <trkpt lat="48.51049" lon="12.43466">
        <ele>470.111056</ele>
        <time>2023-07-14T09:01:13.970Z</time>
      </trkpt>
      <trkpt lat="48.51058" lon="12.43472">
        <ele>470.080078</ele>
        <time>2023-07-14T09:01:15.960Z</time>
      </trkpt>
      <trkpt lat="48.51068" lon="12.43478">
        <ele>470.047766</ele>
        <time>2023-07-14T09:01:17.959Z</time>
      </trkpt>
      <trkpt lat="48.51077" lon="12.43483">
        <ele>470.020318</ele>
        <time>2023-07-14T09:01:19.951Z</time>
      </trkpt>
      <trkpt lat="48.51086" lon="12.43487">
        <ele>469.991897</ele>
        <time>2023-07-14T09:01:21.950Z</time>
      </trkpt>
      <trkpt lat="48.51096" lon="12.43492">
        <ele>469.960437</ele>
        <time>2023-07-14T09:01:23.943Z</time>
      </trkpt>
      <trkpt lat="48.51107" lon="12.43495">
        <ele>469.928476</ele>
        <time>2023-07-14T09:01:25.949Z</time>
      </trkpt>
      <trkpt lat="48.51117" lon="12.43499">
        <ele>469.896739</ele>
        <time>2023-07-14T09:01:27.947Z</time>
      </trkpt>
      <trkpt lat="48.51128" lon="12.43502">
        <ele>469.865103</ele>
        <time>2023-07-14T09:01:29.956Z</time>
      </trkpt>
      <trkpt lat="48.51138" lon="12.43505">
        <ele>469.834043</ele>
        <time>2023-07-14T09:01:31.953Z</time>
      </trkpt>
      <trkpt lat="48.51149" lon="12.43508">
        <ele>469.801829</ele>
        <time>2023-07-14T09:01:33.934Z</time>
      </trkpt>
      <trkpt lat="48.5116" lon="12.43511">
        <ele>469.769939</ele>
        <time>2023-07-14T09:01:35.955Z</time>
      </trkpt>
      <trkpt lat="48.51171" lon="12.43514">
        <ele>469.737944</ele>
        <time>2023-07-14T09:01:37.953Z</time>
      </trkpt>
      <trkpt lat="48.51181" lon="12.43515">
        <ele>469.70611</ele>
        <time>2023-07-14T09:01:39.951Z</time>
      </trkpt>
      <trkpt lat="48.51192" lon="12.43517">
        <ele>469.674506</ele>
        <time>2023-07-14T09:01:41.950Z</time>
      </trkpt>
      <trkpt lat="48.51203" lon="12.4352">
        <ele>469.642616</ele>
        <time>2023-07-14T09:01:43.990Z</time>
      </trkpt>
      <trkpt lat="48.51213" lon="12.43524">
        <ele>469.611701</ele>
        <time>2023-07-14T09:01:45.960Z</time>
      </trkpt>
      <trkpt lat="48.51223" lon="12.43528">
        <ele>469.580864</ele>
        <time>2023-07-14T09:01:47.929Z</time>
      </trkpt>
      <trkpt lat="48.51233" lon="12.43533">
        <ele>469.55058</ele>
        <time>2023-07-14T09:01:49.950Z</time>
      </trkpt>
      <trkpt lat="48.51243" lon="12.43538">
        <ele>469.522474</ele>
        <time>2023-07-14T09:01:51.946Z</time>
      </trkpt>
      <trkpt lat="48.51252" lon="12.43544">
        <ele>469.501765</ele>
        <time>2023-07-14T09:01:53.947Z</time>
      </trkpt>
      <trkpt lat="48.51262" lon="12.4355">
        <ele>469.481238</ele>
        <time>2023-07-14T09:01:55.945Z</time>
      </trkpt>
      <trkpt lat="48.51272" lon="12.43556">
        <ele>469.45905</ele>
        <time>2023-07-14T09:01:57.953Z</time>
      </trkpt>
      <trkpt lat="48.51282" lon="12.43564">
        <ele>469.437534</ele>
        <time>2023-07-14T09:01:59.956Z</time>
      </trkpt>
      <trkpt lat="48.51292" lon="12.43571">
        <ele>469.415779</ele>
        <time>2023-07-14T09:02:01.958Z</time>
      </trkpt>
      <trkpt lat="48.51301" lon="12.43578">
        <ele>469.394493</ele>
        <time>2023-07-14T09:02:03.947Z</time>
      </trkpt>
      <trkpt lat="48.51311" lon="12.43586">
        <ele>469.373448</ele>
        <time>2023-07-14T09:02:05.967Z</time>
      </trkpt>
      <trkpt lat="48.5132" lon="12.43592">
        <ele>469.353349</ele>
        <time>2023-07-14T09:02:07.956Z</time>
      </trkpt>
      <trkpt lat="48.51329" lon="12.436">
        <ele>469.333367</ele>
        <time>2023-07-14T09:02:09.966Z</time>
      </trkpt>
      <trkpt lat="48.51338" lon="12.43606">
        <ele>469.313146</ele>
        <time>2023-07-14T09:02:11.949Z</time>
      </trkpt>
      <trkpt lat="48.51347" lon="12.43613">
        <ele>469.293995</ele>
        <time>2023-07-14T09:02:13.946Z</time>
      </trkpt>
      <trkpt lat="48.51355" lon="12.43619">
        <ele>469.274667</ele>
        <time>2023-07-14T09:02:15.950Z</time>
      </trkpt>
      <trkpt lat="48.51364" lon="12.43626">
        <ele>469.255691</ele>
        <time>2023-07-14T09:02:17.949Z</time>
      </trkpt>
      <trkpt lat="48.51372" lon="12.43632">
        <ele>469.236772</ele>
        <time>2023-07-14T09:02:19.949Z</time>
      </trkpt>
      <trkpt lat="48.51381" lon="12.43639">
        <ele>469.217263</ele>
        <time>2023-07-14T09:02:21.947Z</time>
      </trkpt>
      <trkpt lat="48.5139" lon="12.43645">
        <ele>469.198408</ele>
        <time>2023-07-14T09:02:23.943Z</time>
      </trkpt>
      <trkpt lat="48.51399" lon="12.43652">
        <ele>469.178309</ele>
        <time>2023-07-14T09:02:25.950Z</time>
      </trkpt>
      <trkpt lat="48.51407" lon="12.43659">
        <ele>469.180367</ele>
        <time>2023-07-14T09:02:27.952Z</time>
      </trkpt>
      <trkpt lat="48.51415" lon="12.43665">
        <ele>469.19875</ele>
        <time>2023-07-14T09:02:29.948Z</time>
      </trkpt>
      <trkpt lat="48.51425" lon="12.43671">
        <ele>469.217952</ele>
        <time>2023-07-14T09:02:31.950Z</time>
      </trkpt>
      <trkpt lat="48.51433" lon="12.43678">
        <ele>469.236566</ele>
        <time>2023-07-14T09:02:33.931Z</time>
      </trkpt>
      <trkpt lat="48.51442" lon="12.43686">
        <ele>469.255928</ele>
        <time>2023-07-14T09:02:35.945Z</time>
      </trkpt>
      <trkpt lat="48.51451" lon="12.43692">
        <ele>469.274771</ele>
        <time>2023-07-14T09:02:37.946Z</time>
      </trkpt>
      <trkpt lat="48.5146" lon="12.43699">
        <ele>469.293959</ele>
        <time>2023-07-14T09:02:39.944Z</time>
      </trkpt>
      <trkpt lat="48.51469" lon="12.43706">
        <ele>469.31344</ele>
        <time>2023-07-14T09:02:41.953Z</time>
      </trkpt>
      <trkpt lat="48.51477" lon="12.43713">
        <ele>469.332401</ele>
        <time>2023-07-14T09:02:43.929Z</time>
      </trkpt>
      <trkpt lat="48.51486" lon="12.43719">
        <ele>469.3512</ele>
        <time>2023-07-14T09:02:45.957Z</time>
      </trkpt>
      <trkpt lat="48.51495" lon="12.43725">
        <ele>469.369649</ele>
        <time>2023-07-14T09:02:47.947Z</time>
      </trkpt>
      <trkpt lat="48.51504" lon="12.43731">
        <ele>469.388676</ele>
        <time>2023-07-14T09:02:49.958Z</time>
      </trkpt>
      <trkpt lat="48.51512" lon="12.43738">
        <ele>469.406601</ele>
        <time>2023-07-14T09:02:51.947Z</time>
      </trkpt>
      <trkpt lat="48.5152" lon="12.43744">
        <ele>469.424244</ele>
        <time>2023-07-14T09:02:53.946Z</time>
      </trkpt>
      <trkpt lat="48.51532" lon="12.43755">
        <ele>469.450193</ele>
        <time>2023-07-14T09:02:56.971Z</time>
      </trkpt>
      <trkpt lat="48.5154" lon="12.43761">
        <ele>469.468355</ele>
        <time>2023-07-14T09:02:58.926Z</time>
      </trkpt>
      <trkpt lat="48.51548" lon="12.43769">
        <ele>469.48637</ele>
        <time>2023-07-14T09:03:00.943Z</time>
      </trkpt>
      <trkpt lat="48.5156" lon="12.43779">
        <ele>469.511957</ele>
        <time>2023-07-14T09:03:03.946Z</time>
      </trkpt>
      <trkpt lat="48.51571" lon="12.4379">
        <ele>469.639826</ele>
        <time>2023-07-14T09:03:06.946Z</time>
      </trkpt>
      <trkpt lat="48.51579" lon="12.43798">
        <ele>469.744538</ele>
        <time>2023-07-14T09:03:08.947Z</time>
      </trkpt>
      <trkpt lat="48.51586" lon="12.43807">
        <ele>469.844426</ele>
        <time>2023-07-14T09:03:10.960Z</time>
      </trkpt>
      <trkpt lat="48.51593" lon="12.43815">
        <ele>469.945192</ele>
        <time>2023-07-14T09:03:12.944Z</time>
      </trkpt>
      <trkpt lat="48.51601" lon="12.43824">
        <ele>470.051225</ele>
        <time>2023-07-14T09:03:14.940Z</time>
      </trkpt>
      <trkpt lat="48.51608" lon="12.43833">
        <ele>470.156921</ele>
        <time>2023-07-14T09:03:16.952Z</time>
      </trkpt>
      <trkpt lat="48.51616" lon="12.43843">
        <ele>470.261775</ele>
        <time>2023-07-14T09:03:18.969Z</time>
      </trkpt>
      <trkpt lat="48.51623" lon="12.43852">
        <ele>470.365793</ele>
        <time>2023-07-14T09:03:20.961Z</time>
      </trkpt>
      <trkpt lat="48.5163" lon="12.43862">
        <ele>470.472699</ele>
        <time>2023-07-14T09:03:22.948Z</time>
      </trkpt>
      <trkpt lat="48.51638" lon="12.43871">
        <ele>470.578284</ele>
        <time>2023-07-14T09:03:24.949Z</time>
      </trkpt>
      <trkpt lat="48.51645" lon="12.4388">
        <ele>470.683138</ele>
        <time>2023-07-14T09:03:27.011Z</time>
      </trkpt>
      <trkpt lat="48.51652" lon="12.43889">
        <ele>470.786546</ele>
        <time>2023-07-14T09:03:28.957Z</time>
      </trkpt>
      <trkpt lat="48.51659" lon="12.43898">
        <ele>470.888315</ele>
        <time>2023-07-14T09:03:30.958Z</time>
      </trkpt>
      <trkpt lat="48.51666" lon="12.43907">
        <ele>470.991319</ele>
        <time>2023-07-14T09:03:32.955Z</time>
      </trkpt>
      <trkpt lat="48.51673" lon="12.43916">
        <ele>471.09347</ele>
        <time>2023-07-14T09:03:34.943Z</time>
      </trkpt>
      <trkpt lat="48.5168" lon="12.43925">
        <ele>471.193931</ele>
        <time>2023-07-14T09:03:36.940Z</time>
      </trkpt>
      <trkpt lat="48.51687" lon="12.43934">
        <ele>471.295336</ele>
        <time>2023-07-14T09:03:38.944Z</time>
      </trkpt>
      <trkpt lat="48.51697" lon="12.43947">
        <ele>471.436081</ele>
        <time>2023-07-14T09:03:41.968Z</time>
      </trkpt>
      <trkpt lat="48.51707" lon="12.4396">
        <ele>471.548502</ele>
        <time>2023-07-14T09:03:44.968Z</time>
      </trkpt>
      <trkpt lat="48.51714" lon="12.43969">
        <ele>471.61122</ele>
        <time>2023-07-14T09:03:46.975Z</time>
      </trkpt>
      <trkpt lat="48.51722" lon="12.43978">
        <ele>471.676837</ele>
        <time>2023-07-14T09:03:48.955Z</time>
      </trkpt>
      <trkpt lat="48.51732" lon="12.43991">
        <ele>471.770188</ele>
        <time>2023-07-14T09:03:51.953Z</time>
      </trkpt>
      <trkpt lat="48.51739" lon="12.44">
        <ele>471.835017</ele>
        <time>2023-07-14T09:03:53.950Z</time>
      </trkpt>
      <trkpt lat="48.51746" lon="12.44009">
        <ele>471.898258</ele>
        <time>2023-07-14T09:03:55.953Z</time>
      </trkpt>
      <trkpt lat="48.51753" lon="12.44017">
        <ele>471.961434</ele>
        <time>2023-07-14T09:03:57.959Z</time>
      </trkpt>
      <trkpt lat="48.5176" lon="12.44026">
        <ele>472.026222</ele>
        <time>2023-07-14T09:03:59.945Z</time>
      </trkpt>
      <trkpt lat="48.51768" lon="12.44035">
        <ele>472.089932</ele>
        <time>2023-07-14T09:04:01.947Z</time>
      </trkpt>
      <trkpt lat="48.51775" lon="12.44044">
        <ele>472.155212</ele>
        <time>2023-07-14T09:04:03.925Z</time>
      </trkpt>
      <trkpt lat="48.51782" lon="12.44054">
        <ele>472.222816</ele>
        <time>2023-07-14T09:04:05.949Z</time>
      </trkpt>
      <trkpt lat="48.51789" lon="12.44064">
        <ele>472.289339</ele>
        <time>2023-07-14T09:04:07.957Z</time>
      </trkpt>
      <trkpt lat="48.51796" lon="12.44073">
        <ele>472.351755</ele>
        <time>2023-07-14T09:04:09.931Z</time>
      </trkpt>
      <trkpt lat="48.51803" lon="12.44082">
        <ele>472.41712</ele>
        <time>2023-07-14T09:04:11.953Z</time>
      </trkpt>
      <trkpt lat="48.5181" lon="12.44091">
        <ele>472.480662</ele>
        <time>2023-07-14T09:04:13.941Z</time>
      </trkpt>
      <trkpt lat="48.51817" lon="12.44099">
        <ele>472.544335</ele>
        <time>2023-07-14T09:04:15.947Z</time>
      </trkpt>
      <trkpt lat="48.51828" lon="12.44112">
        <ele>472.636507</ele>
        <time>2023-07-14T09:04:18.945Z</time>
      </trkpt>
      <trkpt lat="48.51835" lon="12.44121">
        <ele>472.699224</ele>
        <time>2023-07-14T09:04:20.948Z</time>
      </trkpt>
      <trkpt lat="48.51845" lon="12.44134">
        <ele>472.817216</ele>
        <time>2023-07-14T09:04:23.941Z</time>
      </trkpt>
      <trkpt lat="48.51855" lon="12.44147">
        <ele>472.953109</ele>
        <time>2023-07-14T09:04:26.944Z</time>
      </trkpt>
      <trkpt lat="48.51862" lon="12.44155">
        <ele>473.044219</ele>
        <time>2023-07-14T09:04:28.946Z</time>
      </trkpt>
      <trkpt lat="48.51869" lon="12.44164">
        <ele>473.135451</ele>
        <time>2023-07-14T09:04:30.949Z</time>
      </trkpt>
      <trkpt lat="48.5188" lon="12.44176">
        <ele>473.269773</ele>
        <time>2023-07-14T09:04:33.957Z</time>
      </trkpt>
      <trkpt lat="48.5189" lon="12.44189">
        <ele>473.402966</ele>
        <time>2023-07-14T09:04:36.980Z</time>
      </trkpt>
      <trkpt lat="48.51899" lon="12.44201">
        <ele>473.530484</ele>
        <time>2023-07-14T09:04:39.957Z</time>
      </trkpt>
      <trkpt lat="48.51909" lon="12.44213">
        <ele>473.657513</ele>
        <time>2023-07-14T09:04:42.948Z</time>
      </trkpt>
      <trkpt lat="48.51919" lon="12.44226">
        <ele>473.791835</ele>
        <time>2023-07-14T09:04:45.945Z</time>
      </trkpt>
      <trkpt lat="48.5193" lon="12.44238">
        <ele>473.924066</ele>
        <time>2023-07-14T09:04:48.950Z</time>
      </trkpt>
      <trkpt lat="48.51937" lon="12.44247">
        <ele>474.017983</ele>
        <time>2023-07-14T09:04:50.925Z</time>
      </trkpt>
      <trkpt lat="48.51945" lon="12.44255">
        <ele>474.111095</ele>
        <time>2023-07-14T09:04:52.948Z</time>
      </trkpt>
      <trkpt lat="48.51955" lon="12.44268">
        <ele>474.247472</ele>
        <time>2023-07-14T09:04:55.949Z</time>
      </trkpt>
      <trkpt lat="48.51965" lon="12.44281">
        <ele>474.382217</ele>
        <time>2023-07-14T09:04:58.948Z</time>
      </trkpt>
      <trkpt lat="48.51972" lon="12.4429">
        <ele>474.473882</ele>
        <time>2023-07-14T09:05:00.945Z</time>
      </trkpt>
      <trkpt lat="48.51979" lon="12.44298">
        <ele>474.557432</ele>
        <time>2023-07-14T09:05:02.938Z</time>
      </trkpt>
      <trkpt lat="48.51987" lon="12.44307">
        <ele>474.57986</ele>
        <time>2023-07-14T09:05:04.946Z</time>
      </trkpt>
      <trkpt lat="48.51997" lon="12.4432">
        <ele>474.613187</ele>
        <time>2023-07-14T09:05:07.943Z</time>
      </trkpt>
      <trkpt lat="48.52004" lon="12.44328">
        <ele>474.635418</ele>
        <time>2023-07-14T09:05:09.965Z</time>
      </trkpt>
      <trkpt lat="48.52015" lon="12.4434">
        <ele>474.668567</ele>
        <time>2023-07-14T09:05:12.949Z</time>
      </trkpt>
      <trkpt lat="48.52022" lon="12.44349">
        <ele>474.691191</ele>
        <time>2023-07-14T09:05:14.944Z</time>
      </trkpt>
      <trkpt lat="48.52029" lon="12.44357">
        <ele>474.714217</ele>
        <time>2023-07-14T09:05:16.945Z</time>
      </trkpt>
      <trkpt lat="48.52037" lon="12.44366">
        <ele>474.736841</ele>
        <time>2023-07-14T09:05:18.943Z</time>
      </trkpt>
      <trkpt lat="48.52044" lon="12.44374">
        <ele>474.759366</ele>
        <time>2023-07-14T09:05:20.948Z</time>
      </trkpt>
      <trkpt lat="48.52051" lon="12.44383">
        <ele>474.782722</ele>
        <time>2023-07-14T09:05:22.956Z</time>
      </trkpt>
      <trkpt lat="48.52059" lon="12.44392">
        <ele>474.806133</ele>
        <time>2023-07-14T09:05:24.942Z</time>
      </trkpt>
      <trkpt lat="48.52066" lon="12.44401">
        <ele>474.830337</ele>
        <time>2023-07-14T09:05:26.972Z</time>
      </trkpt>
      <trkpt lat="48.52074" lon="12.4441">
        <ele>474.854246</ele>
        <time>2023-07-14T09:05:28.941Z</time>
      </trkpt>
      <trkpt lat="48.52082" lon="12.4442">
        <ele>474.878257</ele>
        <time>2023-07-14T09:05:30.921Z</time>
      </trkpt>
      <trkpt lat="48.52089" lon="12.44429">
        <ele>474.901488</ele>
        <time>2023-07-14T09:05:32.952Z</time>
      </trkpt>
      <trkpt lat="48.52097" lon="12.44437">
        <ele>474.925587</ele>
        <time>2023-07-14T09:05:34.942Z</time>
      </trkpt>
      <trkpt lat="48.52104" lon="12.44446">
        <ele>474.949395</ele>
        <time>2023-07-14T09:05:36.942Z</time>
      </trkpt>
      <trkpt lat="48.52112" lon="12.44456">
        <ele>474.973692</ele>
        <time>2023-07-14T09:05:38.943Z</time>
      </trkpt>
      <trkpt lat="48.5212" lon="12.44465">
        <ele>474.997896</ele>
        <time>2023-07-14T09:05:40.947Z</time>
      </trkpt>
      <trkpt lat="48.52128" lon="12.44474">
        <ele>474.931554</ele>
        <time>2023-07-14T09:05:42.946Z</time>
      </trkpt>
      <trkpt lat="48.52136" lon="12.44483">
        <ele>474.86564</ele>
        <time>2023-07-14T09:05:44.945Z</time>
      </trkpt>
      <trkpt lat="48.52144" lon="12.44493">
        <ele>474.800963</ele>
        <time>2023-07-14T09:05:46.945Z</time>
      </trkpt>
      <trkpt lat="48.52152" lon="12.44501">
        <ele>474.737603</ele>
        <time>2023-07-14T09:05:48.936Z</time>
      </trkpt>
      <trkpt lat="48.52159" lon="12.44511">
        <ele>474.675183</ele>
        <time>2023-07-14T09:05:50.944Z</time>
      </trkpt>
      <trkpt lat="48.5217" lon="12.44523">
        <ele>474.588549</ele>
        <time>2023-07-14T09:05:53.955Z</time>
      </trkpt>
      <trkpt lat="48.52178" lon="12.44532">
        <ele>474.526258</ele>
        <time>2023-07-14T09:05:55.928Z</time>
      </trkpt>
      <trkpt lat="48.52185" lon="12.44542">
        <ele>474.463472</ele>
        <time>2023-07-14T09:05:57.954Z</time>
      </trkpt>
      <trkpt lat="48.52193" lon="12.44553">
        <ele>474.394925</ele>
        <time>2023-07-14T09:05:59.954Z</time>
      </trkpt>
      <trkpt lat="48.522" lon="12.44564">
        <ele>474.328419</ele>
        <time>2023-07-14T09:06:01.947Z</time>
      </trkpt>
      <trkpt lat="48.52207" lon="12.44575">
        <ele>474.261215</ele>
        <time>2023-07-14T09:06:03.958Z</time>
      </trkpt>
      <trkpt lat="48.52213" lon="12.44588">
        <ele>474.191564</ele>
        <time>2023-07-14T09:06:05.947Z</time>
      </trkpt>
      <trkpt lat="48.52219" lon="12.44602">
        <ele>474.121104</ele>
        <time>2023-07-14T09:06:07.962Z</time>
      </trkpt>
      <trkpt lat="48.52225" lon="12.44616">
        <ele>474.048498</ele>
        <time>2023-07-14T09:06:09.950Z</time>
      </trkpt>
      <trkpt lat="48.52232" lon="12.44631">
        <ele>473.972649</ele>
        <time>2023-07-14T09:06:11.951Z</time>
      </trkpt>
      <trkpt lat="48.52237" lon="12.44647">
        <ele>473.896838</ele>
        <time>2023-07-14T09:06:13.972Z</time>
      </trkpt>
      <trkpt lat="48.52242" lon="12.44663">
        <ele>473.817119</ele>
        <time>2023-07-14T09:06:15.948Z</time>
      </trkpt>
      <trkpt lat="48.52246" lon="12.44678">
        <ele>473.708497</ele>
        <time>2023-07-14T09:06:17.946Z</time>
      </trkpt>
      <trkpt lat="48.52251" lon="12.44694">
        <ele>473.596786</ele>
        <time>2023-07-14T09:06:19.947Z</time>
      </trkpt>
      <trkpt lat="48.52255" lon="12.44711">
        <ele>473.482829</ele>
        <time>2023-07-14T09:06:21.966Z</time>
      </trkpt>
      <trkpt lat="48.5226" lon="12.44728">
        <ele>473.370143</ele>
        <time>2023-07-14T09:06:23.926Z</time>
      </trkpt>
      <trkpt lat="48.52265" lon="12.44744">
        <ele>473.254379</ele>
        <time>2023-07-14T09:06:25.952Z</time>
      </trkpt>
      <trkpt lat="48.52269" lon="12.44761">
        <ele>473.141478</ele>
        <time>2023-07-14T09:06:27.941Z</time>
      </trkpt>
      <trkpt lat="48.52274" lon="12.44777">
        <ele>473.028209</ele>
        <time>2023-07-14T09:06:29.939Z</time>
      </trkpt>
      <trkpt lat="48.52278" lon="12.44794">
        <ele>472.915081</ele>
        <time>2023-07-14T09:06:31.922Z</time>
      </trkpt>
      <trkpt lat="48.52283" lon="12.44812">
        <ele>472.794653</ele>
        <time>2023-07-14T09:06:33.916Z</time>
      </trkpt>
      <trkpt lat="48.52288" lon="12.44828">
        <ele>472.681396</ele>
        <time>2023-07-14T09:06:35.953Z</time>
      </trkpt>
      <trkpt lat="48.52292" lon="12.44844">
        <ele>472.569664</ele>
        <time>2023-07-14T09:06:37.954Z</time>
      </trkpt>
      <trkpt lat="48.52296" lon="12.44861">
        <ele>472.458819</ele>
        <time>2023-07-14T09:06:39.962Z</time>
      </trkpt>
      <trkpt lat="48.52301" lon="12.44877">
        <ele>472.346338</ele>
        <time>2023-07-14T09:06:41.945Z</time>
      </trkpt>
      <trkpt lat="48.52305" lon="12.44894">
        <ele>472.233562</ele>
        <time>2023-07-14T09:06:43.939Z</time>
      </trkpt>
      <trkpt lat="48.5231" lon="12.4491">
        <ele>472.122997</ele>
        <time>2023-07-14T09:06:45.946Z</time>
      </trkpt>
      <trkpt lat="48.52314" lon="12.44926">
        <ele>472.066022</ele>
        <time>2023-07-14T09:06:47.972Z</time>
      </trkpt>
      <trkpt lat="48.52318" lon="12.44942">
        <ele>472.013154</ele>
        <time>2023-07-14T09:06:49.960Z</time>
      </trkpt>
      <trkpt lat="48.52322" lon="12.44959">
        <ele>471.9604</ele>
        <time>2023-07-14T09:06:51.955Z</time>
      </trkpt>
      <trkpt lat="48.52326" lon="12.44975">
        <ele>471.907392</ele>
        <time>2023-07-14T09:06:53.945Z</time>
      </trkpt>
      <trkpt lat="48.5233" lon="12.44992">
        <ele>471.854825</ele>
        <time>2023-07-14T09:06:55.943Z</time>
      </trkpt>
      <trkpt lat="48.52333" lon="12.45009">
        <ele>471.8018</ele>
        <time>2023-07-14T09:06:57.949Z</time>
      </trkpt>
      <trkpt lat="48.52336" lon="12.45025">
        <ele>471.749894</ele>
        <time>2023-07-14T09:06:59.957Z</time>
      </trkpt>
      <trkpt lat="48.52339" lon="12.45041">
        <ele>471.700302</ele>
        <time>2023-07-14T09:07:01.952Z</time>
      </trkpt>
      <trkpt lat="48.52342" lon="12.45057">
        <ele>471.650498</ele>
        <time>2023-07-14T09:07:03.949Z</time>
      </trkpt>
      <trkpt lat="48.52346" lon="12.45073">
        <ele>471.600073</ele>
        <time>2023-07-14T09:07:05.949Z</time>
      </trkpt>
      <trkpt lat="48.52349" lon="12.45089">
        <ele>471.54893</ele>
        <time>2023-07-14T09:07:07.951Z</time>
      </trkpt>
      <trkpt lat="48.52352" lon="12.45105">
        <ele>471.499495</ele>
        <time>2023-07-14T09:07:09.935Z</time>
      </trkpt>
      <trkpt lat="48.52356" lon="12.45121">
        <ele>471.449779</ele>
        <time>2023-07-14T09:07:11.951Z</time>
      </trkpt>
      <trkpt lat="48.52359" lon="12.45136">
        <ele>471.402066</ele>
        <time>2023-07-14T09:07:13.935Z</time>
      </trkpt>
      <trkpt lat="48.52363" lon="12.45151">
        <ele>471.353068</ele>
        <time>2023-07-14T09:07:15.944Z</time>
      </trkpt>
      <trkpt lat="48.52366" lon="12.45166">
        <ele>471.3045</ele>
        <time>2023-07-14T09:07:17.962Z</time>
      </trkpt>
      <trkpt lat="48.52369" lon="12.45182">
        <ele>471.195328</ele>
        <time>2023-07-14T09:07:19.958Z</time>
      </trkpt>
      <trkpt lat="48.52372" lon="12.45197">
        <ele>471.076197</ele>
        <time>2023-07-14T09:07:21.967Z</time>
      </trkpt>
      <trkpt lat="48.52375" lon="12.45212">
        <ele>470.956249</ele>
        <time>2023-07-14T09:07:23.950Z</time>
      </trkpt>
      <trkpt lat="48.52379" lon="12.45227">
        <ele>470.838511</ele>
        <time>2023-07-14T09:07:25.951Z</time>
      </trkpt>
      <trkpt lat="48.52382" lon="12.45241">
        <ele>470.721865</ele>
        <time>2023-07-14T09:07:27.954Z</time>
      </trkpt>
      <trkpt lat="48.52386" lon="12.45256">
        <ele>470.603737</ele>
        <time>2023-07-14T09:07:29.939Z</time>
      </trkpt>
      <trkpt lat="48.5239" lon="12.4527">
        <ele>470.484681</ele>
        <time>2023-07-14T09:07:31.929Z</time>
      </trkpt>
      <trkpt lat="48.52394" lon="12.45285">
        <ele>470.366312</ele>
        <time>2023-07-14T09:07:33.958Z</time>
      </trkpt>
      <trkpt lat="48.52399" lon="12.45299">
        <ele>470.246787</ele>
        <time>2023-07-14T09:07:35.965Z</time>
      </trkpt>
      <trkpt lat="48.52403" lon="12.45313">
        <ele>470.132028</ele>
        <time>2023-07-14T09:07:37.951Z</time>
      </trkpt>
      <trkpt lat="48.52407" lon="12.45326">
        <ele>470.022506</ele>
        <time>2023-07-14T09:07:39.965Z</time>
      </trkpt>
      <trkpt lat="48.52411" lon="12.45339">
        <ele>469.911252</ele>
        <time>2023-07-14T09:07:41.948Z</time>
      </trkpt>
      <trkpt lat="48.52416" lon="12.45352">
        <ele>469.804261</ele>
        <time>2023-07-14T09:07:43.937Z</time>
      </trkpt>
      <trkpt lat="48.52421" lon="12.4537">
        <ele>469.652033</ele>
        <time>2023-07-14T09:07:46.953Z</time>
      </trkpt>
      <trkpt lat="48.52425" lon="12.45382">
        <ele>469.548247</ele>
        <time>2023-07-14T09:07:48.941Z</time>
      </trkpt>
      <trkpt lat="48.5243" lon="12.45395">
        <ele>469.444207</ele>
        <time>2023-07-14T09:07:50.945Z</time>
      </trkpt>
      <trkpt lat="48.52434" lon="12.45408">
        <ele>469.332154</ele>
        <time>2023-07-14T09:07:52.968Z</time>
      </trkpt>
      <trkpt lat="48.52439" lon="12.45421">
        <ele>469.215708</ele>
        <time>2023-07-14T09:07:54.947Z</time>
      </trkpt>
      <trkpt lat="48.52445" lon="12.45434">
        <ele>469.089477</ele>
        <time>2023-07-14T09:07:56.957Z</time>
      </trkpt>
      <trkpt lat="48.52449" lon="12.45448">
        <ele>468.962191</ele>
        <time>2023-07-14T09:07:58.956Z</time>
      </trkpt>
      <trkpt lat="48.52454" lon="12.45462">
        <ele>468.83527</ele>
        <time>2023-07-14T09:08:00.942Z</time>
      </trkpt>
      <trkpt lat="48.52458" lon="12.45476">
        <ele>468.711634</ele>
        <time>2023-07-14T09:08:02.931Z</time>
      </trkpt>
      <trkpt lat="48.52463" lon="12.4549">
        <ele>468.585994</ele>
        <time>2023-07-14T09:08:04.943Z</time>
      </trkpt>
      <trkpt lat="48.52467" lon="12.45503">
        <ele>468.464361</ele>
        <time>2023-07-14T09:08:06.939Z</time>
      </trkpt>
      <trkpt lat="48.52471" lon="12.45517">
        <ele>468.342601</ele>
        <time>2023-07-14T09:08:08.961Z</time>
      </trkpt>
      <trkpt lat="48.52475" lon="12.4553">
        <ele>468.223185</ele>
        <time>2023-07-14T09:08:10.943Z</time>
      </trkpt>
      <trkpt lat="48.52479" lon="12.45545">
        <ele>468.09788</ele>
        <time>2023-07-14T09:08:12.943Z</time>
      </trkpt>
      <trkpt lat="48.52483" lon="12.45559">
        <ele>467.969854</ele>
        <time>2023-07-14T09:08:14.948Z</time>
      </trkpt>
      <trkpt lat="48.52486" lon="12.45574">
        <ele>467.843618</ele>
        <time>2023-07-14T09:08:16.957Z</time>
      </trkpt>
      <trkpt lat="48.52488" lon="12.45589">
        <ele>467.71575</ele>
        <time>2023-07-14T09:08:18.943Z</time>
      </trkpt>
      <trkpt lat="48.52491" lon="12.45606">
        <ele>467.579898</ele>
        <time>2023-07-14T09:08:20.943Z</time>
      </trkpt>
      <trkpt lat="48.52493" lon="12.45621">
        <ele>467.448845</ele>
        <time>2023-07-14T09:08:22.943Z</time>
      </trkpt>
      <trkpt lat="48.52495" lon="12.45638">
        <ele>467.312243</ele>
        <time>2023-07-14T09:08:24.945Z</time>
      </trkpt>
      <trkpt lat="48.52496" lon="12.45654">
        <ele>467.176962</ele>
        <time>2023-07-14T09:08:26.941Z</time>
      </trkpt>
      <trkpt lat="48.52497" lon="12.45671">
        <ele>467.041932</ele>
        <time>2023-07-14T09:08:28.945Z</time>
      </trkpt>
      <trkpt lat="48.52498" lon="12.45687">
        <ele>466.987164</ele>
        <time>2023-07-14T09:08:30.945Z</time>
      </trkpt>
      <trkpt lat="48.525" lon="12.45703">
        <ele>466.933648</ele>
        <time>2023-07-14T09:08:32.958Z</time>
      </trkpt>
      <trkpt lat="48.525" lon="12.45719">
        <ele>466.879733</ele>
        <time>2023-07-14T09:08:34.941Z</time>
      </trkpt>
      <trkpt lat="48.52501" lon="12.45735">
        <ele>466.826303</ele>
        <time>2023-07-14T09:08:36.943Z</time>
      </trkpt>
      <trkpt lat="48.52502" lon="12.45751">
        <ele>466.77316</ele>
        <time>2023-07-14T09:08:38.943Z</time>
      </trkpt>
      <trkpt lat="48.52504" lon="12.45766">
        <ele>466.721283</ele>
        <time>2023-07-14T09:08:40.942Z</time>
      </trkpt>
      <trkpt lat="48.52506" lon="12.4578">
        <ele>466.673762</ele>
        <time>2023-07-14T09:08:42.947Z</time>
      </trkpt>
      <trkpt lat="48.52509" lon="12.45799">
        <ele>466.607732</ele>
        <time>2023-07-14T09:08:45.962Z</time>
      </trkpt>
      <trkpt lat="48.52513" lon="12.45817">
        <ele>466.54241</ele>
        <time>2023-07-14T09:08:48.960Z</time>
      </trkpt>
      <trkpt lat="48.52518" lon="12.45835">
        <ele>466.479423</ele>
        <time>2023-07-14T09:08:51.949Z</time>
      </trkpt>
      <trkpt lat="48.52522" lon="12.45851">
        <ele>466.420917</ele>
        <time>2023-07-14T09:08:54.954Z</time>
      </trkpt>
      <trkpt lat="48.52527" lon="12.45867">
        <ele>466.362068</ele>
        <time>2023-07-14T09:08:57.953Z</time>
      </trkpt>
      <trkpt lat="48.52533" lon="12.45882">
        <ele>466.305381</ele>
        <time>2023-07-14T09:09:00.945Z</time>
      </trkpt>
      <trkpt lat="48.52538" lon="12.45897">
        <ele>466.246647</ele>
        <time>2023-07-14T09:09:03.949Z</time>
      </trkpt>
      <trkpt lat="48.52546" lon="12.45912">
        <ele>466.185397</ele>
        <time>2023-07-14T09:09:06.941Z</time>
      </trkpt>
      <trkpt lat="48.52553" lon="12.45926">
        <ele>466.135853</ele>
        <time>2023-07-14T09:09:09.953Z</time>
      </trkpt>
      <trkpt lat="48.5256" lon="12.4594">
        <ele>466.162265</ele>
        <time>2023-07-14T09:09:12.945Z</time>
      </trkpt>
      <trkpt lat="48.52567" lon="12.45954">
        <ele>466.188508</ele>
        <time>2023-07-14T09:09:15.956Z</time>
      </trkpt>
      <trkpt lat="48.52574" lon="12.45968">
        <ele>466.214511</ele>
        <time>2023-07-14T09:09:18.953Z</time>
      </trkpt>
      <trkpt lat="48.52581" lon="12.45983">
        <ele>466.242038</ele>
        <time>2023-07-14T09:09:21.939Z</time>
      </trkpt>
      <trkpt lat="48.52588" lon="12.45998">
        <ele>466.269149</ele>
        <time>2023-07-14T09:09:24.953Z</time>
      </trkpt>
      <trkpt lat="48.52595" lon="12.46012">
        <ele>466.295282</ele>
        <time>2023-07-14T09:09:27.950Z</time>
      </trkpt>
      <trkpt lat="48.52601" lon="12.46027">
        <ele>466.32152</ele>
        <time>2023-07-14T09:09:30.951Z</time>
      </trkpt>
      <trkpt lat="48.52608" lon="12.4604">
        <ele>466.346089</ele>
        <time>2023-07-14T09:09:33.950Z</time>
      </trkpt>
      <trkpt lat="48.52615" lon="12.46054">
        <ele>466.371971</ele>
        <time>2023-07-14T09:09:36.946Z</time>
      </trkpt>
      <trkpt lat="48.52621" lon="12.46069">
        <ele>466.397477</ele>
        <time>2023-07-14T09:09:39.954Z</time>
      </trkpt>
      <trkpt lat="48.52627" lon="12.46083">
        <ele>466.423096</ele>
        <time>2023-07-14T09:09:42.961Z</time>
      </trkpt>
      <trkpt lat="48.52634" lon="12.46098">
        <ele>466.449333</ele>
        <time>2023-07-14T09:09:45.957Z</time>
      </trkpt>
      <trkpt lat="48.5264" lon="12.46113">
        <ele>466.475833</ele>
        <time>2023-07-14T09:09:48.946Z</time>
      </trkpt>
      <trkpt lat="48.52647" lon="12.46128">
        <ele>466.503437</ele>
        <time>2023-07-14T09:09:51.950Z</time>
      </trkpt>
      <trkpt lat="48.52653" lon="12.46145">
        <ele>466.531727</ele>
        <time>2023-07-14T09:09:54.965Z</time>
      </trkpt>
      <trkpt lat="48.52659" lon="12.46161">
        <ele>466.442535</ele>
        <time>2023-07-14T09:09:57.947Z</time>
      </trkpt>
      <trkpt lat="48.52665" lon="12.46179">
        <ele>466.325003</ele>
        <time>2023-07-14T09:10:00.945Z</time>
      </trkpt>
      <trkpt lat="48.5267" lon="12.46192">
        <ele>466.242371</ele>
        <time>2023-07-14T09:10:02.950Z</time>
      </trkpt>
      <trkpt lat="48.52674" lon="12.46205">
        <ele>466.156011</ele>
        <time>2023-07-14T09:10:04.948Z</time>
      </trkpt>
      <trkpt lat="48.5268" lon="12.46217">
        <ele>466.067813</ele>
        <time>2023-07-14T09:10:06.945Z</time>
      </trkpt>
      <trkpt lat="48.52685" lon="12.4623">
        <ele>465.980832</ele>
        <time>2023-07-14T09:10:08.959Z</time>
      </trkpt>
      <trkpt lat="48.5269" lon="12.46245">
        <ele>465.885202</ele>
        <time>2023-07-14T09:10:10.949Z</time>
      </trkpt>
      <trkpt lat="48.52695" lon="12.46258">
        <ele>465.796399</ele>
        <time>2023-07-14T09:10:12.953Z</time>
      </trkpt>
      <trkpt lat="48.527" lon="12.46271">
        <ele>465.707532</ele>
        <time>2023-07-14T09:10:14.948Z</time>
      </trkpt>
      <trkpt lat="48.52705" lon="12.46283">
        <ele>465.62635</ele>
        <time>2023-07-14T09:10:16.973Z</time>
      </trkpt>
      <trkpt lat="48.5271" lon="12.46297">
        <ele>465.534507</ele>
        <time>2023-07-14T09:10:18.950Z</time>
      </trkpt>
      <trkpt lat="48.52715" lon="12.4631">
        <ele>465.446148</ele>
        <time>2023-07-14T09:10:20.961Z</time>
      </trkpt>
      <trkpt lat="48.52719" lon="12.46322">
        <ele>465.365384</ele>
        <time>2023-07-14T09:10:22.943Z</time>
      </trkpt>
      <trkpt lat="48.52723" lon="12.46334">
        <ele>465.284912</ele>
        <time>2023-07-14T09:10:24.933Z</time>
      </trkpt>
      <trkpt lat="48.52727" lon="12.46347">
        <ele>465.202478</ele>
        <time>2023-07-14T09:10:26.972Z</time>
      </trkpt>
      <trkpt lat="48.52732" lon="12.46359">
        <ele>465.118038</ele>
        <time>2023-07-14T09:10:28.952Z</time>
      </trkpt>
      <trkpt lat="48.52738" lon="12.46371">
        <ele>465.03556</ele>
        <time>2023-07-14T09:10:30.946Z</time>
      </trkpt>
      <trkpt lat="48.52742" lon="12.46383">
        <ele>464.952129</ele>
        <time>2023-07-14T09:10:32.941Z</time>
      </trkpt>
      <trkpt lat="48.52747" lon="12.46395">
        <ele>464.938001</ele>
        <time>2023-07-14T09:10:34.960Z</time>
      </trkpt>
      <trkpt lat="48.52753" lon="12.46413">
        <ele>464.922473</ele>
        <time>2023-07-14T09:10:37.963Z</time>
      </trkpt>
      <trkpt lat="48.52757" lon="12.46428">
        <ele>464.909733</ele>
        <time>2023-07-14T09:10:40.967Z</time>
      </trkpt>
      <trkpt lat="48.52761" lon="12.46442">
        <ele>464.896904</ele>
        <time>2023-07-14T09:10:43.942Z</time>
      </trkpt>
      <trkpt lat="48.52768" lon="12.46453">
        <ele>464.884732</ele>
        <time>2023-07-14T09:10:47.946Z</time>
      </trkpt>
      <trkpt lat="48.52777" lon="12.46462">
        <ele>464.872348</ele>
        <time>2023-07-14T09:10:53.947Z</time>
      </trkpt>
      <trkpt lat="48.52784" lon="12.46473">
        <ele>464.859668</ele>
        <time>2023-07-14T09:10:57.956Z</time>
      </trkpt>
      <trkpt lat="48.5279" lon="12.46485">
        <ele>464.847693</ele>
        <time>2023-07-14T09:11:00.941Z</time>
      </trkpt>
      <trkpt lat="48.52798" lon="12.46495">
        <ele>464.835336</ele>
        <time>2023-07-14T09:11:04.943Z</time>
      </trkpt>
      <trkpt lat="48.52807" lon="12.46486">
        <ele>464.822519</ele>
        <time>2023-07-14T09:11:08.946Z</time>
      </trkpt>
      <trkpt lat="48.52807" lon="12.46472">
        <ele>464.811502</ele>
        <time>2023-07-14T09:11:12.946Z</time>
      </trkpt>
      <trkpt lat="48.52802" lon="12.46461">
        <ele>464.800318</ele>
        <time>2023-07-14T09:11:23.947Z</time>
      </trkpt>
      <trkpt lat="48.52794" lon="12.46455">
        <ele>464.789442</ele>
        <time>2023-07-14T09:11:40.928Z</time>
      </trkpt>
      <trkpt lat="48.52792" lon="12.46455">
        <ele>464.788107</ele>
        <time>2023-07-14T09:11:47.981Z</time>
      </trkpt>
      <trkpt lat="48.52807" lon="12.46467">
        <ele>464.768291</ele>
        <time>2023-07-14T09:37:29.943Z</time>
      </trkpt>
      <trkpt lat="48.52807" lon="12.46482">
        <ele>464.756242</ele>
        <time>2023-07-14T09:37:35.953Z</time>
      </trkpt>
      <trkpt lat="48.52802" lon="12.46494">
        <ele>464.745124</ele>
        <time>2023-07-14T09:37:38.949Z</time>
      </trkpt>
      <trkpt lat="48.528" lon="12.4651">
        <ele>464.732195</ele>
        <time>2023-07-14T09:37:42.957Z</time>
      </trkpt>
      <trkpt lat="48.528" lon="12.46526">
        <ele>464.655124</ele>
        <time>2023-07-14T09:37:47.950Z</time>
      </trkpt>
      <trkpt lat="48.52803" lon="12.46539">
        <ele>464.588051</ele>
        <time>2023-07-14T09:37:54.929Z</time>
      </trkpt>
      <trkpt lat="48.5281" lon="12.46549">
        <ele>464.521472</ele>
        <time>2023-07-14T09:37:58.963Z</time>
      </trkpt>
      <trkpt lat="48.52815" lon="12.46563">
        <ele>464.440693</ele>
        <time>2023-07-14T09:38:02.959Z</time>
      </trkpt>
      <trkpt lat="48.5282" lon="12.46578">
        <ele>464.357504</ele>
        <time>2023-07-14T09:38:06.939Z</time>
      </trkpt>
      <trkpt lat="48.52825" lon="12.46592">
        <ele>464.282759</ele>
        <time>2023-07-14T09:38:09.970Z</time>
      </trkpt>
      <trkpt lat="48.52832" lon="12.46604">
        <ele>464.205556</ele>
        <time>2023-07-14T09:38:12.942Z</time>
      </trkpt>
      <trkpt lat="48.52839" lon="12.46615">
        <ele>464.128229</ele>
        <time>2023-07-14T09:38:15.961Z</time>
      </trkpt>
      <trkpt lat="48.52847" lon="12.46625">
        <ele>464.052076</ele>
        <time>2023-07-14T09:38:18.942Z</time>
      </trkpt>
      <trkpt lat="48.52856" lon="12.46634">
        <ele>463.974713</ele>
        <time>2023-07-14T09:38:21.955Z</time>
      </trkpt>
      <trkpt lat="48.52866" lon="12.46644">
        <ele>463.886535</ele>
        <time>2023-07-14T09:38:24.968Z</time>
      </trkpt>
      <trkpt lat="48.52876" lon="12.46653">
        <ele>463.795257</ele>
        <time>2023-07-14T09:38:27.953Z</time>
      </trkpt>
      <trkpt lat="48.52887" lon="12.46661">
        <ele>463.707138</ele>
        <time>2023-07-14T09:38:30.953Z</time>
      </trkpt>
      <trkpt lat="48.52899" lon="12.46669">
        <ele>463.607707</ele>
        <time>2023-07-14T09:38:33.950Z</time>
      </trkpt>
      <trkpt lat="48.52911" lon="12.46678">
        <ele>463.513374</ele>
        <time>2023-07-14T09:38:36.961Z</time>
      </trkpt>
      <trkpt lat="48.52922" lon="12.46685">
        <ele>463.426016</ele>
        <time>2023-07-14T09:38:39.950Z</time>
      </trkpt>
      <trkpt lat="48.52932" lon="12.46689">
        <ele>463.509176</ele>
        <time>2023-07-14T09:38:42.945Z</time>
      </trkpt>
      <trkpt lat="48.52943" lon="12.46696">
        <ele>463.667909</ele>
        <time>2023-07-14T09:38:45.957Z</time>
      </trkpt>
      <trkpt lat="48.52953" lon="12.46702">
        <ele>463.824032</ele>
        <time>2023-07-14T09:38:48.954Z</time>
      </trkpt>
      <trkpt lat="48.52965" lon="12.46709">
        <ele>463.98839</ele>
        <time>2023-07-14T09:38:51.954Z</time>
      </trkpt>
      <trkpt lat="48.52976" lon="12.46715">
        <ele>464.153738</ele>
        <time>2023-07-14T09:38:54.931Z</time>
      </trkpt>
      <trkpt lat="48.52987" lon="12.46721">
        <ele>464.306034</ele>
        <time>2023-07-14T09:38:57.953Z</time>
      </trkpt>
      <trkpt lat="48.52997" lon="12.46728">
        <ele>464.455872</ele>
        <time>2023-07-14T09:39:00.951Z</time>
      </trkpt>
      <trkpt lat="48.53008" lon="12.46733">
        <ele>464.613006</ele>
        <time>2023-07-14T09:39:03.953Z</time>
      </trkpt>
      <trkpt lat="48.53019" lon="12.46738">
        <ele>464.766048</ele>
        <time>2023-07-14T09:39:06.948Z</time>
      </trkpt>
      <trkpt lat="48.53029" lon="12.46744">
        <ele>464.9193</ele>
        <time>2023-07-14T09:39:09.965Z</time>
      </trkpt>
      <trkpt lat="48.53041" lon="12.46748">
        <ele>465.080913</ele>
        <time>2023-07-14T09:39:12.952Z</time>
      </trkpt>
      <trkpt lat="48.53053" lon="12.46752">
        <ele>465.25008</ele>
        <time>2023-07-14T09:39:15.953Z</time>
      </trkpt>
      <trkpt lat="48.53066" lon="12.46756">
        <ele>465.435204</ele>
        <time>2023-07-14T09:39:18.946Z</time>
      </trkpt>
      <trkpt lat="48.53075" lon="12.46759">
        <ele>465.557993</ele>
        <time>2023-07-14T09:39:20.962Z</time>
      </trkpt>
      <trkpt lat="48.53088" lon="12.46763">
        <ele>465.730385</ele>
        <time>2023-07-14T09:39:23.947Z</time>
      </trkpt>
      <trkpt lat="48.53097" lon="12.46766">
        <ele>465.858546</ele>
        <time>2023-07-14T09:39:25.970Z</time>
      </trkpt>
      <trkpt lat="48.5311" lon="12.4677">
        <ele>466.046354</ele>
        <time>2023-07-14T09:39:28.950Z</time>
      </trkpt>
      <trkpt lat="48.5312" lon="12.46772">
        <ele>466.179141</ele>
        <time>2023-07-14T09:39:30.969Z</time>
      </trkpt>
      <trkpt lat="48.53129" lon="12.46776">
        <ele>466.307911</ele>
        <time>2023-07-14T09:39:32.954Z</time>
      </trkpt>
      <trkpt lat="48.53139" lon="12.46779">
        <ele>466.445834</ele>
        <time>2023-07-14T09:39:34.946Z</time>
      </trkpt>
      <trkpt lat="48.53148" lon="12.46782">
        <ele>466.578456</ele>
        <time>2023-07-14T09:39:36.962Z</time>
      </trkpt>
      <trkpt lat="48.53157" lon="12.46784">
        <ele>466.701457</ele>
        <time>2023-07-14T09:39:38.949Z</time>
      </trkpt>
      <trkpt lat="48.53166" lon="12.46788">
        <ele>466.831561</ele>
        <time>2023-07-14T09:39:40.952Z</time>
      </trkpt>
      <trkpt lat="48.53175" lon="12.4679">
        <ele>466.958454</ele>
        <time>2023-07-14T09:39:42.949Z</time>
      </trkpt>
      <trkpt lat="48.53184" lon="12.46793">
        <ele>467.084865</ele>
        <time>2023-07-14T09:39:44.925Z</time>
      </trkpt>
      <trkpt lat="48.53193" lon="12.46795">
        <ele>467.210734</ele>
        <time>2023-07-14T09:39:46.951Z</time>
      </trkpt>
      <trkpt lat="48.53202" lon="12.46798">
        <ele>467.337953</ele>
        <time>2023-07-14T09:39:48.943Z</time>
      </trkpt>
      <trkpt lat="48.53216" lon="12.46801">
        <ele>467.521892</ele>
        <time>2023-07-14T09:39:51.970Z</time>
      </trkpt>
      <trkpt lat="48.53225" lon="12.46804">
        <ele>467.649987</ele>
        <time>2023-07-14T09:39:53.944Z</time>
      </trkpt>
      <trkpt lat="48.53238" lon="12.46804">
        <ele>467.834136</ele>
        <time>2023-07-14T09:39:56.946Z</time>
      </trkpt>
      <trkpt lat="48.53251" lon="12.46806">
        <ele>468.003719</ele>
        <time>2023-07-14T09:39:59.973Z</time>
      </trkpt>
      <trkpt lat="48.53263" lon="12.46805">
        <ele>468.17035</ele>
        <time>2023-07-14T09:40:02.957Z</time>
      </trkpt>
      <trkpt lat="48.53275" lon="12.46801">
        <ele>468.297517</ele>
        <time>2023-07-14T09:40:05.962Z</time>
      </trkpt>
      <trkpt lat="48.53286" lon="12.46796">
        <ele>468.181014</ele>
        <time>2023-07-14T09:40:08.959Z</time>
      </trkpt>
      <trkpt lat="48.53297" lon="12.46792">
        <ele>468.075126</ele>
        <time>2023-07-14T09:40:11.952Z</time>
      </trkpt>
      <trkpt lat="48.53308" lon="12.46789">
        <ele>467.963922</ele>
        <time>2023-07-14T09:40:15.949Z</time>
      </trkpt>
      <trkpt lat="48.53318" lon="12.46786">
        <ele>467.865594</ele>
        <time>2023-07-14T09:40:19.948Z</time>
      </trkpt>
      <trkpt lat="48.53328" lon="12.46794">
        <ele>467.75548</ele>
        <time>2023-07-14T09:40:23.936Z</time>
      </trkpt>
      <trkpt lat="48.53334" lon="12.46805">
        <ele>467.658023</ele>
        <time>2023-07-14T09:40:26.940Z</time>
      </trkpt>
      <trkpt lat="48.53342" lon="12.46815">
        <ele>467.553519</ele>
        <time>2023-07-14T09:40:29.945Z</time>
      </trkpt>
      <trkpt lat="48.5335" lon="12.46827">
        <ele>467.444551</ele>
        <time>2023-07-14T09:40:32.952Z</time>
      </trkpt>
      <trkpt lat="48.5336" lon="12.46841">
        <ele>467.316177</ele>
        <time>2023-07-14T09:40:35.956Z</time>
      </trkpt>
      <trkpt lat="48.53367" lon="12.4685">
        <ele>467.224609</ele>
        <time>2023-07-14T09:40:37.958Z</time>
      </trkpt>
      <trkpt lat="48.53373" lon="12.4686">
        <ele>467.131997</ele>
        <time>2023-07-14T09:40:39.957Z</time>
      </trkpt>
      <trkpt lat="48.53379" lon="12.46873">
        <ele>467.034513</ele>
        <time>2023-07-14T09:40:41.965Z</time>
      </trkpt>
      <trkpt lat="48.53383" lon="12.46886">
        <ele>466.936809</ele>
        <time>2023-07-14T09:40:43.942Z</time>
      </trkpt>
      <trkpt lat="48.53388" lon="12.46901">
        <ele>466.831795</ele>
        <time>2023-07-14T09:40:45.930Z</time>
      </trkpt>
      <trkpt lat="48.53393" lon="12.46915">
        <ele>466.724619</ele>
        <time>2023-07-14T09:40:47.956Z</time>
      </trkpt>
      <trkpt lat="48.53398" lon="12.46931">
        <ele>466.616496</ele>
        <time>2023-07-14T09:40:49.950Z</time>
      </trkpt>
      <trkpt lat="48.53402" lon="12.46946">
        <ele>466.508222</ele>
        <time>2023-07-14T09:40:51.976Z</time>
      </trkpt>
      <trkpt lat="48.53407" lon="12.46962">
        <ele>466.387866</ele>
        <time>2023-07-14T09:40:53.969Z</time>
      </trkpt>
      <trkpt lat="48.53413" lon="12.46977">
        <ele>466.264694</ele>
        <time>2023-07-14T09:40:55.949Z</time>
      </trkpt>
      <trkpt lat="48.5342" lon="12.46991">
        <ele>466.140828</ele>
        <time>2023-07-14T09:40:57.938Z</time>
      </trkpt>
      <trkpt lat="48.5343" lon="12.47003">
        <ele>466.013779</ele>
        <time>2023-07-14T09:40:59.949Z</time>
      </trkpt>
      <trkpt lat="48.53437" lon="12.47018">
        <ele>465.887921</ele>
        <time>2023-07-14T09:41:01.968Z</time>
      </trkpt>
      <trkpt lat="48.53443" lon="12.47034">
        <ele>465.75921</ele>
        <time>2023-07-14T09:41:03.952Z</time>
      </trkpt>
      <trkpt lat="48.53448" lon="12.47051">
        <ele>465.632271</ele>
        <time>2023-07-14T09:41:05.933Z</time>
      </trkpt>
      <trkpt lat="48.53452" lon="12.47067">
        <ele>465.51065</ele>
        <time>2023-07-14T09:41:07.952Z</time>
      </trkpt>
      <trkpt lat="48.53457" lon="12.47083">
        <ele>465.389459</ele>
        <time>2023-07-14T09:41:09.965Z</time>
      </trkpt>
      <trkpt lat="48.53462" lon="12.471">
        <ele>465.268473</ele>
        <time>2023-07-14T09:41:11.954Z</time>
      </trkpt>
      <trkpt lat="48.53467" lon="12.47116">
        <ele>465.146228</ele>
        <time>2023-07-14T09:41:13.967Z</time>
      </trkpt>
      <trkpt lat="48.53473" lon="12.47131">
        <ele>465.026022</ele>
        <time>2023-07-14T09:41:15.957Z</time>
      </trkpt>
      <trkpt lat="48.53479" lon="12.47146">
        <ele>464.904027</ele>
        <time>2023-07-14T09:41:17.951Z</time>
      </trkpt>
      <trkpt lat="48.53485" lon="12.47163">
        <ele>464.775542</ele>
        <time>2023-07-14T09:41:19.952Z</time>
      </trkpt>
      <trkpt lat="48.53491" lon="12.47179">
        <ele>464.645879</ele>
        <time>2023-07-14T09:41:21.957Z</time>
      </trkpt>
      <trkpt lat="48.53497" lon="12.47196">
        <ele>464.512476</ele>
        <time>2023-07-14T09:41:23.961Z</time>
      </trkpt>
      <trkpt lat="48.53504" lon="12.47212">
        <ele>464.381637</ele>
        <time>2023-07-14T09:41:25.950Z</time>
      </trkpt>
      <trkpt lat="48.5351" lon="12.47229">
        <ele>464.24388</ele>
        <time>2023-07-14T09:41:27.950Z</time>
      </trkpt>
      <trkpt lat="48.53515" lon="12.47248">
        <ele>464.105834</ele>
        <time>2023-07-14T09:41:29.960Z</time>
      </trkpt>
      <trkpt lat="48.53519" lon="12.47266">
        <ele>463.970403</ele>
        <time>2023-07-14T09:41:31.946Z</time>
      </trkpt>
      <trkpt lat="48.53525" lon="12.47283">
        <ele>463.836284</ele>
        <time>2023-07-14T09:41:33.948Z</time>
      </trkpt>
      <trkpt lat="48.53531" lon="12.47299">
        <ele>463.70874</ele>
        <time>2023-07-14T09:41:35.953Z</time>
      </trkpt>
      <trkpt lat="48.53537" lon="12.47315">
        <ele>463.585851</ele>
        <time>2023-07-14T09:41:37.952Z</time>
      </trkpt>
      <trkpt lat="48.53541" lon="12.4733">
        <ele>463.46768</ele>
        <time>2023-07-14T09:41:39.965Z</time>
      </trkpt>
      <trkpt lat="48.53546" lon="12.47346">
        <ele>463.345955</ele>
        <time>2023-07-14T09:41:41.960Z</time>
      </trkpt>
      <trkpt lat="48.53552" lon="12.47361">
        <ele>463.223226</ele>
        <time>2023-07-14T09:41:43.945Z</time>
      </trkpt>
      <trkpt lat="48.53558" lon="12.47377">
        <ele>463.099208</ele>
        <time>2023-07-14T09:41:45.969Z</time>
      </trkpt>
      <trkpt lat="48.53564" lon="12.47392">
        <ele>462.973912</ele>
        <time>2023-07-14T09:41:47.954Z</time>
      </trkpt>
      <trkpt lat="48.5357" lon="12.47408">
        <ele>462.848861</ele>
        <time>2023-07-14T09:41:49.950Z</time>
      </trkpt>
      <trkpt lat="48.53576" lon="12.47423">
        <ele>462.759455</ele>
        <time>2023-07-14T09:41:51.969Z</time>
      </trkpt>
      <trkpt lat="48.53582" lon="12.47438">
        <ele>462.686961</ele>
        <time>2023-07-14T09:41:53.956Z</time>
      </trkpt>
      <trkpt lat="48.53588" lon="12.47453">
        <ele>462.6167</ele>
        <time>2023-07-14T09:41:55.970Z</time>
      </trkpt>
      <trkpt lat="48.53593" lon="12.47468">
        <ele>462.545237</ele>
        <time>2023-07-14T09:41:57.951Z</time>
      </trkpt>
      <trkpt lat="48.53599" lon="12.47483">
        <ele>462.474751</ele>
        <time>2023-07-14T09:41:59.961Z</time>
      </trkpt>
      <trkpt lat="48.53605" lon="12.47498">
        <ele>462.402603</ele>
        <time>2023-07-14T09:42:01.964Z</time>
      </trkpt>
      <trkpt lat="48.53611" lon="12.47513">
        <ele>462.332815</ele>
        <time>2023-07-14T09:42:03.943Z</time>
      </trkpt>
      <trkpt lat="48.53617" lon="12.47527">
        <ele>462.263412</ele>
        <time>2023-07-14T09:42:05.966Z</time>
      </trkpt>
      <trkpt lat="48.53624" lon="12.47541">
        <ele>462.191936</ele>
        <time>2023-07-14T09:42:07.966Z</time>
      </trkpt>
      <trkpt lat="48.53631" lon="12.47555">
        <ele>462.121054</ele>
        <time>2023-07-14T09:42:09.956Z</time>
      </trkpt>
      <trkpt lat="48.53637" lon="12.47569">
        <ele>462.054031</ele>
        <time>2023-07-14T09:42:11.957Z</time>
      </trkpt>
      <trkpt lat="48.53642" lon="12.47581">
        <ele>461.994837</ele>
        <time>2023-07-14T09:42:13.954Z</time>
      </trkpt>
      <trkpt lat="48.53649" lon="12.4759">
        <ele>461.938528</ele>
        <time>2023-07-14T09:42:15.950Z</time>
      </trkpt>
      <trkpt lat="48.53656" lon="12.47599">
        <ele>461.882924</ele>
        <time>2023-07-14T09:42:17.959Z</time>
      </trkpt>
      <trkpt lat="48.53661" lon="12.47611">
        <ele>461.825421</ele>
        <time>2023-07-14T09:42:19.949Z</time>
      </trkpt>
      <trkpt lat="48.53667" lon="12.47622">
        <ele>461.76574</ele>
        <time>2023-07-14T09:42:21.956Z</time>
      </trkpt>
      <trkpt lat="48.53672" lon="12.47636">
        <ele>461.701001</ele>
        <time>2023-07-14T09:42:23.938Z</time>
      </trkpt>
      <trkpt lat="48.53678" lon="12.4765">
        <ele>461.679426</ele>
        <time>2023-07-14T09:42:25.947Z</time>
      </trkpt>
      <trkpt lat="48.53684" lon="12.47663">
        <ele>461.6637</ele>
        <time>2023-07-14T09:42:27.951Z</time>
      </trkpt>
      <trkpt lat="48.5369" lon="12.47677">
        <ele>461.647898</ele>
        <time>2023-07-14T09:42:29.937Z</time>
      </trkpt>
      <trkpt lat="48.53696" lon="12.47691">
        <ele>461.631934</ele>
        <time>2023-07-14T09:42:31.932Z</time>
      </trkpt>
      <trkpt lat="48.53702" lon="12.47705">
        <ele>461.616042</ele>
        <time>2023-07-14T09:42:33.941Z</time>
      </trkpt>
      <trkpt lat="48.53707" lon="12.47719">
        <ele>461.600068</ele>
        <time>2023-07-14T09:42:35.956Z</time>
      </trkpt>
      <trkpt lat="48.53712" lon="12.47733">
        <ele>461.585135</ele>
        <time>2023-07-14T09:42:37.963Z</time>
      </trkpt>
      <trkpt lat="48.53716" lon="12.47748">
        <ele>461.569676</ele>
        <time>2023-07-14T09:42:39.960Z</time>
      </trkpt>
      <trkpt lat="48.5372" lon="12.47763">
        <ele>461.554128</ele>
        <time>2023-07-14T09:42:41.957Z</time>
      </trkpt>
      <trkpt lat="48.53724" lon="12.47778">
        <ele>461.538305</ele>
        <time>2023-07-14T09:42:43.952Z</time>
      </trkpt>
      <trkpt lat="48.53728" lon="12.47793">
        <ele>461.522892</ele>
        <time>2023-07-14T09:42:45.962Z</time>
      </trkpt>
      <trkpt lat="48.53732" lon="12.47807">
        <ele>461.508123</ele>
        <time>2023-07-14T09:42:47.966Z</time>
      </trkpt>
      <trkpt lat="48.53735" lon="12.47822">
        <ele>461.493646</ele>
        <time>2023-07-14T09:42:49.952Z</time>
      </trkpt>
      <trkpt lat="48.53738" lon="12.47836">
        <ele>461.479578</ele>
        <time>2023-07-14T09:42:51.954Z</time>
      </trkpt>
      <trkpt lat="48.53741" lon="12.4785">
        <ele>461.464964</ele>
        <time>2023-07-14T09:42:53.948Z</time>
      </trkpt>
      <trkpt lat="48.53744" lon="12.47864">
        <ele>461.451129</ele>
        <time>2023-07-14T09:42:55.969Z</time>
      </trkpt>
      <trkpt lat="48.53747" lon="12.47882">
        <ele>461.432717</ele>
        <time>2023-07-14T09:42:58.952Z</time>
      </trkpt>
      <trkpt lat="48.53751" lon="12.479">
        <ele>461.525345</ele>
        <time>2023-07-14T09:43:01.965Z</time>
      </trkpt>
      <trkpt lat="48.53755" lon="12.47919">
        <ele>461.632496</ele>
        <time>2023-07-14T09:43:04.957Z</time>
      </trkpt>
      <trkpt lat="48.53759" lon="12.47933">
        <ele>461.70702</ele>
        <time>2023-07-14T09:43:06.950Z</time>
      </trkpt>
      <trkpt lat="48.53763" lon="12.47947">
        <ele>461.785485</ele>
        <time>2023-07-14T09:43:08.947Z</time>
      </trkpt>
      <trkpt lat="48.53768" lon="12.47961">
        <ele>461.870453</ele>
        <time>2023-07-14T09:43:10.943Z</time>
      </trkpt>
      <trkpt lat="48.53773" lon="12.47975">
        <ele>461.953764</ele>
        <time>2023-07-14T09:43:12.968Z</time>
      </trkpt>
      <trkpt lat="48.5378" lon="12.47989">
        <ele>462.040455</ele>
        <time>2023-07-14T09:43:14.968Z</time>
      </trkpt>
      <trkpt lat="48.53786" lon="12.48002">
        <ele>462.125418</ele>
        <time>2023-07-14T09:43:16.970Z</time>
      </trkpt>
      <trkpt lat="48.53793" lon="12.48014">
        <ele>462.211266</ele>
        <time>2023-07-14T09:43:18.948Z</time>
      </trkpt>
      <trkpt lat="48.53801" lon="12.48026">
        <ele>462.297958</ele>
        <time>2023-07-14T09:43:20.964Z</time>
      </trkpt>
      <trkpt lat="48.53808" lon="12.48038">
        <ele>462.382896</ele>
        <time>2023-07-14T09:43:22.955Z</time>
      </trkpt>
      <trkpt lat="48.53815" lon="12.4805">
        <ele>462.461771</ele>
        <time>2023-07-14T09:43:24.955Z</time>
      </trkpt>
      <trkpt lat="48.53821" lon="12.48062">
        <ele>462.54071</ele>
        <time>2023-07-14T09:43:26.953Z</time>
      </trkpt>
      <trkpt lat="48.53827" lon="12.48075">
        <ele>462.623923</ele>
        <time>2023-07-14T09:43:28.955Z</time>
      </trkpt>
      <trkpt lat="48.53832" lon="12.48088">
        <ele>462.703679</ele>
        <time>2023-07-14T09:43:30.946Z</time>
      </trkpt>
      <trkpt lat="48.53839" lon="12.48098">
        <ele>462.781856</ele>
        <time>2023-07-14T09:43:32.963Z</time>
      </trkpt>
      <trkpt lat="48.53848" lon="12.48114">
        <ele>462.921151</ele>
        <time>2023-07-14T09:43:35.964Z</time>
      </trkpt>
      <trkpt lat="48.53858" lon="12.48128">
        <ele>463.101677</ele>
        <time>2023-07-14T09:43:38.948Z</time>
      </trkpt>
      <trkpt lat="48.53866" lon="12.48141">
        <ele>463.274743</ele>
        <time>2023-07-14T09:43:41.962Z</time>
      </trkpt>
      <trkpt lat="48.53876" lon="12.48154">
        <ele>463.449827</ele>
        <time>2023-07-14T09:43:44.954Z</time>
      </trkpt>
      <trkpt lat="48.53885" lon="12.48167">
        <ele>463.628952</ele>
        <time>2023-07-14T09:43:47.954Z</time>
      </trkpt>
      <trkpt lat="48.53895" lon="12.4818">
        <ele>463.810186</ele>
        <time>2023-07-14T09:43:50.954Z</time>
      </trkpt>
      <trkpt lat="48.53906" lon="12.48192">
        <ele>463.987491</ele>
        <time>2023-07-14T09:43:53.956Z</time>
      </trkpt>
      <trkpt lat="48.53916" lon="12.48204">
        <ele>464.167532</ele>
        <time>2023-07-14T09:43:56.945Z</time>
      </trkpt>
      <trkpt lat="48.53926" lon="12.48216">
        <ele>464.340413</ele>
        <time>2023-07-14T09:43:59.963Z</time>
      </trkpt>
      <trkpt lat="48.53936" lon="12.48228">
        <ele>464.521016</ele>
        <time>2023-07-14T09:44:02.967Z</time>
      </trkpt>
      <trkpt lat="48.53943" lon="12.48236">
        <ele>464.645458</ele>
        <time>2023-07-14T09:44:04.953Z</time>
      </trkpt>
      <trkpt lat="48.53954" lon="12.48248">
        <ele>464.825481</ele>
        <time>2023-07-14T09:44:07.963Z</time>
      </trkpt>
      <trkpt lat="48.53965" lon="12.48259">
        <ele>465.005722</ele>
        <time>2023-07-14T09:44:10.940Z</time>
      </trkpt>
      <trkpt lat="48.53972" lon="12.48267">
        <ele>465.131295</ele>
        <time>2023-07-14T09:44:12.959Z</time>
      </trkpt>
      <trkpt lat="48.53978" lon="12.48277">
        <ele>465.256848</ele>
        <time>2023-07-14T09:44:14.954Z</time>
      </trkpt>
      <trkpt lat="48.53989" lon="12.48289">
        <ele>465.320829</ele>
        <time>2023-07-14T09:44:17.966Z</time>
      </trkpt>
      <trkpt lat="48.53999" lon="12.48302">
        <ele>465.31344</ele>
        <time>2023-07-14T09:44:20.946Z</time>
      </trkpt>
      <trkpt lat="48.54006" lon="12.48311">
        <ele>465.308424</ele>
        <time>2023-07-14T09:44:22.943Z</time>
      </trkpt>
      <trkpt lat="48.54013" lon="12.4832">
        <ele>465.303349</ele>
        <time>2023-07-14T09:44:24.957Z</time>
      </trkpt>
      <trkpt lat="48.54019" lon="12.48329">
        <ele>465.298263</ele>
        <time>2023-07-14T09:44:26.951Z</time>
      </trkpt>
      <trkpt lat="48.54029" lon="12.48343">
        <ele>465.290802</ele>
        <time>2023-07-14T09:44:29.970Z</time>
      </trkpt>
      <trkpt lat="48.54038" lon="12.48357">
        <ele>465.283484</ele>
        <time>2023-07-14T09:44:32.964Z</time>
      </trkpt>
      <trkpt lat="48.54047" lon="12.48372">
        <ele>465.276343</ele>
        <time>2023-07-14T09:44:35.968Z</time>
      </trkpt>
      <trkpt lat="48.54053" lon="12.48382">
        <ele>465.271123</ele>
        <time>2023-07-14T09:44:37.967Z</time>
      </trkpt>
      <trkpt lat="48.54059" lon="12.48392">
        <ele>465.265949</ele>
        <time>2023-07-14T09:44:39.965Z</time>
      </trkpt>
      <trkpt lat="48.54068" lon="12.48407">
        <ele>465.258619</ele>
        <time>2023-07-14T09:44:42.953Z</time>
      </trkpt>
      <trkpt lat="48.54073" lon="12.48418">
        <ele>465.253455</ele>
        <time>2023-07-14T09:44:44.956Z</time>
      </trkpt>
      <trkpt lat="48.54079" lon="12.4843">
        <ele>465.248055</ele>
        <time>2023-07-14T09:44:46.954Z</time>
      </trkpt>
      <trkpt lat="48.54085" lon="12.48441">
        <ele>465.242921</ele>
        <time>2023-07-14T09:44:48.953Z</time>
      </trkpt>
      <trkpt lat="48.54091" lon="12.48452">
        <ele>465.237537</ele>
        <time>2023-07-14T09:44:50.940Z</time>
      </trkpt>
      <trkpt lat="48.54096" lon="12.48464">
        <ele>465.232379</ele>
        <time>2023-07-14T09:44:52.952Z</time>
      </trkpt>
      <trkpt lat="48.54101" lon="12.48476">
        <ele>465.227099</ele>
        <time>2023-07-14T09:44:54.952Z</time>
      </trkpt>
      <trkpt lat="48.54106" lon="12.48488">
        <ele>465.176302</ele>
        <time>2023-07-14T09:44:56.943Z</time>
      </trkpt>
      <trkpt lat="48.54111" lon="12.485">
        <ele>465.091824</ele>
        <time>2023-07-14T09:44:58.949Z</time>
      </trkpt>
      <trkpt lat="48.54116" lon="12.48512">
        <ele>465.006181</ele>
        <time>2023-07-14T09:45:00.954Z</time>
      </trkpt>
      <trkpt lat="48.54121" lon="12.48525">
        <ele>464.916199</ele>
        <time>2023-07-14T09:45:02.958Z</time>
      </trkpt>
      <trkpt lat="48.54126" lon="12.48537">
        <ele>464.828726</ele>
        <time>2023-07-14T09:45:04.954Z</time>
      </trkpt>
      <trkpt lat="48.5413" lon="12.4855">
        <ele>464.741622</ele>
        <time>2023-07-14T09:45:06.950Z</time>
      </trkpt>
      <trkpt lat="48.54135" lon="12.48564">
        <ele>464.649668</ele>
        <time>2023-07-14T09:45:08.950Z</time>
      </trkpt>
      <trkpt lat="48.5414" lon="12.48577">
        <ele>464.558776</ele>
        <time>2023-07-14T09:45:10.942Z</time>
      </trkpt>
      <trkpt lat="48.54145" lon="12.4859">
        <ele>464.467353</ele>
        <time>2023-07-14T09:45:12.954Z</time>
      </trkpt>
      <trkpt lat="48.54149" lon="12.48604">
        <ele>464.375149</ele>
        <time>2023-07-14T09:45:14.957Z</time>
      </trkpt>
      <trkpt lat="48.54154" lon="12.48618">
        <ele>464.282664</ele>
        <time>2023-07-14T09:45:16.949Z</time>
      </trkpt>
      <trkpt lat="48.54158" lon="12.48632">
        <ele>464.192329</ele>
        <time>2023-07-14T09:45:18.944Z</time>
      </trkpt>
      <trkpt lat="48.54163" lon="12.48645">
        <ele>464.100656</ele>
        <time>2023-07-14T09:45:20.949Z</time>
      </trkpt>
      <trkpt lat="48.54168" lon="12.48658">
        <ele>464.010389</ele>
        <time>2023-07-14T09:45:22.930Z</time>
      </trkpt>
      <trkpt lat="48.54173" lon="12.48672">
        <ele>463.91811</ele>
        <time>2023-07-14T09:45:24.949Z</time>
      </trkpt>
      <trkpt lat="48.54177" lon="12.48685">
        <ele>463.825907</ele>
        <time>2023-07-14T09:45:26.965Z</time>
      </trkpt>
      <trkpt lat="48.54182" lon="12.48698">
        <ele>463.736165</ele>
        <time>2023-07-14T09:45:28.952Z</time>
      </trkpt>
      <trkpt lat="48.54187" lon="12.48712">
        <ele>463.642092</ele>
        <time>2023-07-14T09:45:30.948Z</time>
      </trkpt>
      <trkpt lat="48.54193" lon="12.48725">
        <ele>463.568641</ele>
        <time>2023-07-14T09:45:32.956Z</time>
      </trkpt>
      <trkpt lat="48.54199" lon="12.48738">
        <ele>463.508692</ele>
        <time>2023-07-14T09:45:34.947Z</time>
      </trkpt>
      <trkpt lat="48.54204" lon="12.48751">
        <ele>463.450299</ele>
        <time>2023-07-14T09:45:36.965Z</time>
      </trkpt>
      <trkpt lat="48.5421" lon="12.48764">
        <ele>463.391895</ele>
        <time>2023-07-14T09:45:38.959Z</time>
      </trkpt>
      <trkpt lat="48.54216" lon="12.48777">
        <ele>463.333778</ele>
        <time>2023-07-14T09:45:40.973Z</time>
      </trkpt>
      <trkpt lat="48.54221" lon="12.48791">
        <ele>463.276526</ele>
        <time>2023-07-14T09:45:42.951Z</time>
      </trkpt>
      <trkpt lat="48.54227" lon="12.48804">
        <ele>463.216269</ele>
        <time>2023-07-14T09:45:44.941Z</time>
      </trkpt>
      <trkpt lat="48.54233" lon="12.48818">
        <ele>463.155081</ele>
        <time>2023-07-14T09:45:46.943Z</time>
      </trkpt>
      <trkpt lat="48.54238" lon="12.48832">
        <ele>463.09293</ele>
        <time>2023-07-14T09:45:48.968Z</time>
      </trkpt>
      <trkpt lat="48.54244" lon="12.48846">
        <ele>463.032856</ele>
        <time>2023-07-14T09:45:50.952Z</time>
      </trkpt>
      <trkpt lat="48.54249" lon="12.4886">
        <ele>462.970387</ele>
        <time>2023-07-14T09:45:52.966Z</time>
      </trkpt>
      <trkpt lat="48.54255" lon="12.48874">
        <ele>462.91044</ele>
        <time>2023-07-14T09:45:54.947Z</time>
      </trkpt>
      <trkpt lat="48.5426" lon="12.48887">
        <ele>462.854138</ele>
        <time>2023-07-14T09:45:56.949Z</time>
      </trkpt>
      <trkpt lat="48.54265" lon="12.48901">
        <ele>462.796071</ele>
        <time>2023-07-14T09:45:58.945Z</time>
      </trkpt>
      <trkpt lat="48.5427" lon="12.48915">
        <ele>462.736358</ele>
        <time>2023-07-14T09:46:00.939Z</time>
      </trkpt>
      <trkpt lat="48.54275" lon="12.48929">
        <ele>462.675789</ele>
        <time>2023-07-14T09:46:02.960Z</time>
      </trkpt>
      <trkpt lat="48.5428" lon="12.48943">
        <ele>462.617891</ele>
        <time>2023-07-14T09:46:04.949Z</time>
      </trkpt>
      <trkpt lat="48.54285" lon="12.48958">
        <ele>462.52745</ele>
        <time>2023-07-14T09:46:06.953Z</time>
      </trkpt>
      <trkpt lat="48.54289" lon="12.48973">
        <ele>462.406527</ele>
        <time>2023-07-14T09:46:08.945Z</time>
      </trkpt>
      <trkpt lat="48.54294" lon="12.48987">
        <ele>462.288789</ele>
        <time>2023-07-14T09:46:10.946Z</time>
      </trkpt>
      <trkpt lat="48.54298" lon="12.49001">
        <ele>462.170071</ele>
        <time>2023-07-14T09:46:12.961Z</time>
      </trkpt>
      <trkpt lat="48.54303" lon="12.49016">
        <ele>462.046477</ele>
        <time>2023-07-14T09:46:14.946Z</time>
      </trkpt>
      <trkpt lat="48.54308" lon="12.4903">
        <ele>461.926217</ele>
        <time>2023-07-14T09:46:16.938Z</time>
      </trkpt>
      <trkpt lat="48.54312" lon="12.49045">
        <ele>461.80178</ele>
        <time>2023-07-14T09:46:18.946Z</time>
      </trkpt>
      <trkpt lat="48.54317" lon="12.4906">
        <ele>461.680541</ele>
        <time>2023-07-14T09:46:20.962Z</time>
      </trkpt>
      <trkpt lat="48.54322" lon="12.49074">
        <ele>461.558779</ele>
        <time>2023-07-14T09:46:22.955Z</time>
      </trkpt>
      <trkpt lat="48.54327" lon="12.49089">
        <ele>461.433054</ele>
        <time>2023-07-14T09:46:24.951Z</time>
      </trkpt>
      <trkpt lat="48.54332" lon="12.49105">
        <ele>461.300867</ele>
        <time>2023-07-14T09:46:26.962Z</time>
      </trkpt>
      <trkpt lat="48.54336" lon="12.4912">
        <ele>461.173993</ele>
        <time>2023-07-14T09:46:28.968Z</time>
      </trkpt>
      <trkpt lat="48.5434" lon="12.49136">
        <ele>461.048364</ele>
        <time>2023-07-14T09:46:30.944Z</time>
      </trkpt>
      <trkpt lat="48.54345" lon="12.4915">
        <ele>460.92951</ele>
        <time>2023-07-14T09:46:32.950Z</time>
      </trkpt>
      <trkpt lat="48.54349" lon="12.49165">
        <ele>460.811282</ele>
        <time>2023-07-14T09:46:34.945Z</time>
      </trkpt>
      <trkpt lat="48.54353" lon="12.49179">
        <ele>460.692427</ele>
        <time>2023-07-14T09:46:36.962Z</time>
      </trkpt>
      <trkpt lat="48.54357" lon="12.49194">
        <ele>460.570125</ele>
        <time>2023-07-14T09:46:38.952Z</time>
      </trkpt>
      <trkpt lat="48.54362" lon="12.4921">
        <ele>460.487417</ele>
        <time>2023-07-14T09:46:40.947Z</time>
      </trkpt>
      <trkpt lat="48.54365" lon="12.49225">
        <ele>460.418687</ele>
        <time>2023-07-14T09:46:42.964Z</time>
      </trkpt>
      <trkpt lat="48.54369" lon="12.4924">
        <ele>460.350821</ele>
        <time>2023-07-14T09:46:44.954Z</time>
      </trkpt>
      <trkpt lat="48.54374" lon="12.49255">
        <ele>460.282578</ele>
        <time>2023-07-14T09:46:46.954Z</time>
      </trkpt>
      <trkpt lat="48.54378" lon="12.49269">
        <ele>460.215738</ele>
        <time>2023-07-14T09:46:48.947Z</time>
      </trkpt>
      <trkpt lat="48.54382" lon="12.49284">
        <ele>460.14977</ele>
        <time>2023-07-14T09:46:50.948Z</time>
      </trkpt>
      <trkpt lat="48.54385" lon="12.49299">
        <ele>460.082492</ele>
        <time>2023-07-14T09:46:52.951Z</time>
      </trkpt>
      <trkpt lat="48.54389" lon="12.49313">
        <ele>460.016757</ele>
        <time>2023-07-14T09:46:54.944Z</time>
      </trkpt>
      <trkpt lat="48.54393" lon="12.49328">
        <ele>459.948501</ele>
        <time>2023-07-14T09:46:56.969Z</time>
      </trkpt>
      <trkpt lat="48.54397" lon="12.49343">
        <ele>459.880167</ele>
        <time>2023-07-14T09:46:58.965Z</time>
      </trkpt>
      <trkpt lat="48.544" lon="12.49358">
        <ele>459.812091</ele>
        <time>2023-07-14T09:47:00.948Z</time>
      </trkpt>
      <trkpt lat="48.54404" lon="12.49373">
        <ele>459.748215</ele>
        <time>2023-07-14T09:47:02.953Z</time>
      </trkpt>
      <trkpt lat="48.54407" lon="12.49387">
        <ele>459.682347</ele>
        <time>2023-07-14T09:47:04.955Z</time>
      </trkpt>
      <trkpt lat="48.54411" lon="12.49402">
        <ele>459.616141</ele>
        <time>2023-07-14T09:47:06.960Z</time>
      </trkpt>
      <trkpt lat="48.54414" lon="12.49417">
        <ele>459.548474</ele>
        <time>2023-07-14T09:47:08.948Z</time>
      </trkpt>
      <trkpt lat="48.54418" lon="12.49432">
        <ele>459.482814</ele>
        <time>2023-07-14T09:47:10.949Z</time>
      </trkpt>
      <trkpt lat="48.54421" lon="12.49447">
        <ele>459.412319</ele>
        <time>2023-07-14T09:47:12.952Z</time>
      </trkpt>
      <trkpt lat="48.54425" lon="12.49463">
        <ele>459.340966</ele>
        <time>2023-07-14T09:47:14.947Z</time>
      </trkpt>
      <trkpt lat="48.54429" lon="12.49477">
        <ele>459.273205</ele>
        <time>2023-07-14T09:47:16.952Z</time>
      </trkpt>
      <trkpt lat="48.54432" lon="12.49492">
        <ele>459.206139</ele>
        <time>2023-07-14T09:47:18.948Z</time>
      </trkpt>
      <trkpt lat="48.54435" lon="12.49507">
        <ele>459.13869</ele>
        <time>2023-07-14T09:47:20.943Z</time>
      </trkpt>
      <trkpt lat="48.54438" lon="12.49522">
        <ele>459.069993</ele>
        <time>2023-07-14T09:47:22.948Z</time>
      </trkpt>
      <trkpt lat="48.54442" lon="12.49537">
        <ele>458.998834</ele>
        <time>2023-07-14T09:47:24.965Z</time>
      </trkpt>
      <trkpt lat="48.54445" lon="12.49552">
        <ele>458.931995</ele>
        <time>2023-07-14T09:47:26.944Z</time>
      </trkpt>
      <trkpt lat="48.54449" lon="12.49567">
        <ele>458.861248</ele>
        <time>2023-07-14T09:47:28.953Z</time>
      </trkpt>
      <trkpt lat="48.54452" lon="12.49583">
        <ele>458.790472</ele>
        <time>2023-07-14T09:47:30.949Z</time>
      </trkpt>
      <trkpt lat="48.54456" lon="12.49598">
        <ele>458.721791</ele>
        <time>2023-07-14T09:47:32.959Z</time>
      </trkpt>
      <trkpt lat="48.54459" lon="12.49612">
        <ele>458.655361</ele>
        <time>2023-07-14T09:47:34.943Z</time>
      </trkpt>
      <trkpt lat="48.54462" lon="12.49627">
        <ele>458.586255</ele>
        <time>2023-07-14T09:47:36.930Z</time>
      </trkpt>
      <trkpt lat="48.54466" lon="12.49642">
        <ele>458.516739</ele>
        <time>2023-07-14T09:47:38.948Z</time>
      </trkpt>
      <trkpt lat="48.54469" lon="12.49657">
        <ele>458.447233</ele>
        <time>2023-07-14T09:47:40.949Z</time>
      </trkpt>
      <trkpt lat="48.54473" lon="12.49672">
        <ele>458.378552</ele>
        <time>2023-07-14T09:47:42.954Z</time>
      </trkpt>
      <trkpt lat="48.54476" lon="12.49688">
        <ele>458.308427</ele>
        <time>2023-07-14T09:47:44.950Z</time>
      </trkpt>
      <trkpt lat="48.54479" lon="12.49702">
        <ele>458.240777</ele>
        <time>2023-07-14T09:47:46.949Z</time>
      </trkpt>
      <trkpt lat="48.54482" lon="12.49718">
        <ele>458.200475</ele>
        <time>2023-07-14T09:47:48.963Z</time>
      </trkpt>
      <trkpt lat="48.54486" lon="12.49733">
        <ele>458.177916</ele>
        <time>2023-07-14T09:47:50.943Z</time>
      </trkpt>
      <trkpt lat="48.54489" lon="12.49748">
        <ele>458.155496</ele>
        <time>2023-07-14T09:47:52.951Z</time>
      </trkpt>
      <trkpt lat="48.54492" lon="12.49762">
        <ele>458.13343</ele>
        <time>2023-07-14T09:47:54.947Z</time>
      </trkpt>
      <trkpt lat="48.54495" lon="12.49778">
        <ele>458.110887</ele>
        <time>2023-07-14T09:47:56.959Z</time>
      </trkpt>
      <trkpt lat="48.54498" lon="12.49793">
        <ele>458.088143</ele>
        <time>2023-07-14T09:47:58.946Z</time>
      </trkpt>
      <trkpt lat="48.54502" lon="12.49808">
        <ele>458.065392</ele>
        <time>2023-07-14T09:48:00.954Z</time>
      </trkpt>
      <trkpt lat="48.54505" lon="12.49823">
        <ele>458.04209</ele>
        <time>2023-07-14T09:48:02.945Z</time>
      </trkpt>
      <trkpt lat="48.54508" lon="12.49838">
        <ele>458.019683</ele>
        <time>2023-07-14T09:48:04.957Z</time>
      </trkpt>
      <trkpt lat="48.54511" lon="12.49854">
        <ele>457.996867</ele>
        <time>2023-07-14T09:48:06.949Z</time>
      </trkpt>
      <trkpt lat="48.54514" lon="12.49869">
        <ele>457.974187</ele>
        <time>2023-07-14T09:48:08.968Z</time>
      </trkpt>
      <trkpt lat="48.54518" lon="12.49883">
        <ele>457.952045</ele>
        <time>2023-07-14T09:48:10.974Z</time>
      </trkpt>
      <trkpt lat="48.5452" lon="12.49899">
        <ele>457.929135</ele>
        <time>2023-07-14T09:48:12.965Z</time>
      </trkpt>
      <trkpt lat="48.54524" lon="12.49914">
        <ele>457.906596</ele>
        <time>2023-07-14T09:48:14.953Z</time>
      </trkpt>
      <trkpt lat="48.54527" lon="12.49929">
        <ele>457.884597</ele>
        <time>2023-07-14T09:48:16.947Z</time>
      </trkpt>
      <trkpt lat="48.5453" lon="12.49943">
        <ele>457.863276</ele>
        <time>2023-07-14T09:48:18.950Z</time>
      </trkpt>
      <trkpt lat="48.54533" lon="12.49956">
        <ele>457.842835</ele>
        <time>2023-07-14T09:48:20.972Z</time>
      </trkpt>
      <trkpt lat="48.54536" lon="12.4997">
        <ele>457.824735</ele>
        <time>2023-07-14T09:48:22.953Z</time>
      </trkpt>
      <trkpt lat="48.54539" lon="12.49984">
        <ele>457.812551</ele>
        <time>2023-07-14T09:48:24.961Z</time>
      </trkpt>
      <trkpt lat="48.54542" lon="12.49999">
        <ele>457.800891</ele>
        <time>2023-07-14T09:48:26.941Z</time>
      </trkpt>
      <trkpt lat="48.54546" lon="12.50013">
        <ele>457.788895</ele>
        <time>2023-07-14T09:48:28.950Z</time>
      </trkpt>
      <trkpt lat="48.54549" lon="12.50028">
        <ele>457.776563</ele>
        <time>2023-07-14T09:48:30.958Z</time>
      </trkpt>
      <trkpt lat="48.54552" lon="12.50043">
        <ele>457.764421</ele>
        <time>2023-07-14T09:48:32.961Z</time>
      </trkpt>
      <trkpt lat="48.54557" lon="12.50056">
        <ele>457.752258</ele>
        <time>2023-07-14T09:48:34.951Z</time>
      </trkpt>
      <trkpt lat="48.54561" lon="12.5007">
        <ele>457.740195</ele>
        <time>2023-07-14T09:48:36.949Z</time>
      </trkpt>
      <trkpt lat="48.54565" lon="12.50084">
        <ele>457.728327</ele>
        <time>2023-07-14T09:48:38.957Z</time>
      </trkpt>
      <trkpt lat="48.54569" lon="12.50099">
        <ele>457.71609</ele>
        <time>2023-07-14T09:48:40.949Z</time>
      </trkpt>
      <trkpt lat="48.54573" lon="12.50113">
        <ele>457.704116</ele>
        <time>2023-07-14T09:48:42.953Z</time>
      </trkpt>
      <trkpt lat="48.54577" lon="12.50128">
        <ele>457.691481</ele>
        <time>2023-07-14T09:48:44.947Z</time>
      </trkpt>
      <trkpt lat="48.54581" lon="12.50142">
        <ele>457.67934</ele>
        <time>2023-07-14T09:48:46.958Z</time>
      </trkpt>
      <trkpt lat="48.54586" lon="12.50155">
        <ele>457.66751</ele>
        <time>2023-07-14T09:48:48.967Z</time>
      </trkpt>
      <trkpt lat="48.54591" lon="12.50169">
        <ele>457.655562</ele>
        <time>2023-07-14T09:48:50.942Z</time>
      </trkpt>
      <trkpt lat="48.54595" lon="12.50182">
        <ele>457.644121</ele>
        <time>2023-07-14T09:48:52.971Z</time>
      </trkpt>
      <trkpt lat="48.546" lon="12.50195">
        <ele>457.631983</ele>
        <time>2023-07-14T09:48:54.968Z</time>
      </trkpt>
      <trkpt lat="48.54603" lon="12.50209">
        <ele>457.620436</ele>
        <time>2023-07-14T09:48:56.963Z</time>
      </trkpt>
      <trkpt lat="48.54608" lon="12.50221">
        <ele>457.581838</ele>
        <time>2023-07-14T09:48:58.941Z</time>
      </trkpt>
      <trkpt lat="48.54614" lon="12.50234">
        <ele>457.509588</ele>
        <time>2023-07-14T09:49:00.953Z</time>
      </trkpt>
      <trkpt lat="48.54618" lon="12.50247">
        <ele>457.43674</ele>
        <time>2023-07-14T09:49:02.961Z</time>
      </trkpt>
      <trkpt lat="48.54624" lon="12.50259">
        <ele>457.364074</ele>
        <time>2023-07-14T09:49:04.963Z</time>
      </trkpt>
      <trkpt lat="48.54629" lon="12.50272">
        <ele>457.288988</ele>
        <time>2023-07-14T09:49:06.959Z</time>
      </trkpt>
      <trkpt lat="48.54634" lon="12.50286">
        <ele>457.211918</ele>
        <time>2023-07-14T09:49:08.949Z</time>
      </trkpt>
      <trkpt lat="48.5464" lon="12.50299">
        <ele>457.136395</ele>
        <time>2023-07-14T09:49:10.943Z</time>
      </trkpt>
      <trkpt lat="48.54645" lon="12.50313">
        <ele>457.057892</ele>
        <time>2023-07-14T09:49:12.966Z</time>
      </trkpt>
      <trkpt lat="48.5465" lon="12.50327">
        <ele>456.980473</ele>
        <time>2023-07-14T09:49:14.961Z</time>
      </trkpt>
      <trkpt lat="48.54655" lon="12.50341">
        <ele>456.904614</ele>
        <time>2023-07-14T09:49:16.952Z</time>
      </trkpt>
      <trkpt lat="48.5466" lon="12.50355">
        <ele>456.827267</ele>
        <time>2023-07-14T09:49:18.952Z</time>
      </trkpt>
      <trkpt lat="48.54665" lon="12.50368">
        <ele>456.751989</ele>
        <time>2023-07-14T09:49:20.953Z</time>
      </trkpt>
      <trkpt lat="48.5467" lon="12.50382">
        <ele>456.672636</ele>
        <time>2023-07-14T09:49:22.967Z</time>
      </trkpt>
      <trkpt lat="48.54675" lon="12.50396">
        <ele>456.593144</ele>
        <time>2023-07-14T09:49:24.954Z</time>
      </trkpt>
      <trkpt lat="48.5468" lon="12.5041">
        <ele>456.516322</ele>
        <time>2023-07-14T09:49:26.948Z</time>
      </trkpt>
      <trkpt lat="48.54685" lon="12.50424">
        <ele>456.438729</ele>
        <time>2023-07-14T09:49:28.954Z</time>
      </trkpt>
      <trkpt lat="48.54689" lon="12.50438">
        <ele>456.362005</ele>
        <time>2023-07-14T09:49:30.950Z</time>
      </trkpt>
      <trkpt lat="48.54694" lon="12.50452">
        <ele>456.288034</ele>
        <time>2023-07-14T09:49:32.966Z</time>
      </trkpt>
      <trkpt lat="48.54699" lon="12.50466">
        <ele>456.226617</ele>
        <time>2023-07-14T09:49:34.951Z</time>
      </trkpt>
      <trkpt lat="48.54703" lon="12.50479">
        <ele>456.169411</ele>
        <time>2023-07-14T09:49:36.962Z</time>
      </trkpt>
      <trkpt lat="48.54707" lon="12.50493">
        <ele>456.112494</ele>
        <time>2023-07-14T09:49:38.951Z</time>
      </trkpt>
      <trkpt lat="48.54711" lon="12.50507">
        <ele>456.053888</ele>
        <time>2023-07-14T09:49:40.966Z</time>
      </trkpt>
      <trkpt lat="48.54715" lon="12.50522">
        <ele>455.990027</ele>
        <time>2023-07-14T09:49:42.943Z</time>
      </trkpt>
      <trkpt lat="48.5472" lon="12.50537">
        <ele>455.927059</ele>
        <time>2023-07-14T09:49:44.954Z</time>
      </trkpt>
      <trkpt lat="48.54724" lon="12.50552">
        <ele>455.864092</ele>
        <time>2023-07-14T09:49:46.971Z</time>
      </trkpt>
      <trkpt lat="48.54729" lon="12.50566">
        <ele>455.801914</ele>
        <time>2023-07-14T09:49:48.973Z</time>
      </trkpt>
      <trkpt lat="48.54733" lon="12.50581">
        <ele>455.73908</ele>
        <time>2023-07-14T09:49:50.950Z</time>
      </trkpt>
      <trkpt lat="48.54738" lon="12.50596">
        <ele>455.677539</ele>
        <time>2023-07-14T09:49:52.953Z</time>
      </trkpt>
      <trkpt lat="48.54742" lon="12.50611">
        <ele>455.613648</ele>
        <time>2023-07-14T09:49:54.946Z</time>
      </trkpt>
      <trkpt lat="48.54746" lon="12.50626">
        <ele>455.550343</ele>
        <time>2023-07-14T09:49:56.949Z</time>
      </trkpt>
      <trkpt lat="48.54751" lon="12.50641">
        <ele>455.487509</ele>
        <time>2023-07-14T09:49:58.960Z</time>
      </trkpt>
      <trkpt lat="48.54756" lon="12.50656">
        <ele>455.423518</ele>
        <time>2023-07-14T09:50:00.953Z</time>
      </trkpt>
      <trkpt lat="48.5476" lon="12.50671">
        <ele>455.360684</ele>
        <time>2023-07-14T09:50:02.969Z</time>
      </trkpt>
      <trkpt lat="48.54765" lon="12.50685">
        <ele>455.297378</ele>
        <time>2023-07-14T09:50:04.955Z</time>
      </trkpt>
      <trkpt lat="48.5477" lon="12.50699">
        <ele>455.238111</ele>
        <time>2023-07-14T09:50:06.950Z</time>
      </trkpt>
      <trkpt lat="48.54775" lon="12.50713">
        <ele>455.2396</ele>
        <time>2023-07-14T09:50:08.950Z</time>
      </trkpt>
      <trkpt lat="48.5478" lon="12.50727">
        <ele>455.241131</ele>
        <time>2023-07-14T09:50:10.949Z</time>
      </trkpt>
      <trkpt lat="48.54785" lon="12.50741">
        <ele>455.242632</ele>
        <time>2023-07-14T09:50:12.971Z</time>
      </trkpt>
      <trkpt lat="48.5479" lon="12.50754">
        <ele>455.244062</ele>
        <time>2023-07-14T09:50:14.956Z</time>
      </trkpt>
      <trkpt lat="48.54796" lon="12.50767">
        <ele>455.245513</ele>
        <time>2023-07-14T09:50:16.932Z</time>
      </trkpt>
      <trkpt lat="48.54801" lon="12.50781">
        <ele>455.246995</ele>
        <time>2023-07-14T09:50:18.951Z</time>
      </trkpt>
      <trkpt lat="48.54807" lon="12.50793">
        <ele>455.248447</ele>
        <time>2023-07-14T09:50:20.955Z</time>
      </trkpt>
      <trkpt lat="48.54813" lon="12.50806">
        <ele>455.249992</ele>
        <time>2023-07-14T09:50:22.947Z</time>
      </trkpt>
      <trkpt lat="48.5482" lon="12.5082">
        <ele>455.25154</ele>
        <time>2023-07-14T09:50:24.950Z</time>
      </trkpt>
      <trkpt lat="48.54826" lon="12.50832">
        <ele>455.253016</ele>
        <time>2023-07-14T09:50:26.970Z</time>
      </trkpt>
      <trkpt lat="48.54833" lon="12.50844">
        <ele>455.254514</ele>
        <time>2023-07-14T09:50:28.969Z</time>
      </trkpt>
      <trkpt lat="48.5484" lon="12.50857">
        <ele>455.256104</ele>
        <time>2023-07-14T09:50:30.952Z</time>
      </trkpt>
      <trkpt lat="48.54847" lon="12.5087">
        <ele>455.257672</ele>
        <time>2023-07-14T09:50:32.956Z</time>
      </trkpt>
      <trkpt lat="48.54854" lon="12.50883">
        <ele>455.259293</ele>
        <time>2023-07-14T09:50:34.955Z</time>
      </trkpt>
      <trkpt lat="48.54861" lon="12.50897">
        <ele>455.260888</ele>
        <time>2023-07-14T09:50:36.952Z</time>
      </trkpt>
      <trkpt lat="48.54867" lon="12.50911">
        <ele>455.262464</ele>
        <time>2023-07-14T09:50:38.949Z</time>
      </trkpt>
      <trkpt lat="48.54873" lon="12.50925">
        <ele>455.255495</ele>
        <time>2023-07-14T09:50:40.949Z</time>
      </trkpt>
      <trkpt lat="48.54879" lon="12.50939">
        <ele>455.217473</ele>
        <time>2023-07-14T09:50:42.957Z</time>
      </trkpt>
      <trkpt lat="48.54885" lon="12.50952">
        <ele>455.18001</ele>
        <time>2023-07-14T09:50:44.967Z</time>
      </trkpt>
      <trkpt lat="48.5489" lon="12.50966">
        <ele>455.142167</ele>
        <time>2023-07-14T09:50:46.967Z</time>
      </trkpt>
      <trkpt lat="48.54896" lon="12.5098">
        <ele>455.104288</ele>
        <time>2023-07-14T09:50:48.946Z</time>
      </trkpt>
      <trkpt lat="48.54901" lon="12.50994">
        <ele>455.068413</ele>
        <time>2023-07-14T09:50:50.961Z</time>
      </trkpt>
      <trkpt lat="48.54905" lon="12.51008">
        <ele>455.03277</ele>
        <time>2023-07-14T09:50:52.955Z</time>
      </trkpt>
      <trkpt lat="48.5491" lon="12.51022">
        <ele>454.996359</ele>
        <time>2023-07-14T09:50:54.968Z</time>
      </trkpt>
      <trkpt lat="48.54915" lon="12.51036">
        <ele>454.9588</ele>
        <time>2023-07-14T09:50:56.953Z</time>
      </trkpt>
      <trkpt lat="48.5492" lon="12.51051">
        <ele>454.921735</ele>
        <time>2023-07-14T09:50:58.950Z</time>
      </trkpt>
      <trkpt lat="48.54924" lon="12.51065">
        <ele>454.884161</ele>
        <time>2023-07-14T09:51:00.952Z</time>
      </trkpt>
      <trkpt lat="48.54929" lon="12.51079">
        <ele>454.848011</ele>
        <time>2023-07-14T09:51:02.965Z</time>
      </trkpt>
      <trkpt lat="48.54935" lon="12.51093">
        <ele>454.810885</ele>
        <time>2023-07-14T09:51:04.958Z</time>
      </trkpt>
      <trkpt lat="48.5494" lon="12.51106">
        <ele>454.774559</ele>
        <time>2023-07-14T09:51:06.946Z</time>
      </trkpt>
      <trkpt lat="48.54946" lon="12.51119">
        <ele>454.737867</ele>
        <time>2023-07-14T09:51:08.955Z</time>
      </trkpt>
      <trkpt lat="48.54952" lon="12.51132">
        <ele>454.701364</ele>
        <time>2023-07-14T09:51:10.969Z</time>
      </trkpt>
      <trkpt lat="48.54958" lon="12.51144">
        <ele>454.665398</ele>
        <time>2023-07-14T09:51:12.954Z</time>
      </trkpt>
      <trkpt lat="48.54965" lon="12.51156">
        <ele>454.638478</ele>
        <time>2023-07-14T09:51:14.958Z</time>
      </trkpt>
      <trkpt lat="48.54972" lon="12.51167">
        <ele>454.666747</ele>
        <time>2023-07-14T09:51:16.952Z</time>
      </trkpt>
      <trkpt lat="48.5498" lon="12.51177">
        <ele>454.694994</ele>
        <time>2023-07-14T09:51:18.951Z</time>
      </trkpt>
      <trkpt lat="48.54988" lon="12.51186">
        <ele>454.721617</ele>
        <time>2023-07-14T09:51:20.953Z</time>
      </trkpt>
      <trkpt lat="48.54995" lon="12.51196">
        <ele>454.748122</ele>
        <time>2023-07-14T09:51:22.954Z</time>
      </trkpt>
      <trkpt lat="48.55003" lon="12.51204">
        <ele>454.773507</ele>
        <time>2023-07-14T09:51:24.973Z</time>
      </trkpt>
      <trkpt lat="48.5501" lon="12.51213">
        <ele>454.799224</ele>
        <time>2023-07-14T09:51:26.964Z</time>
      </trkpt>
      <trkpt lat="48.55018" lon="12.51221">
        <ele>454.825058</ele>
        <time>2023-07-14T09:51:28.961Z</time>
      </trkpt>
      <trkpt lat="48.55026" lon="12.5123">
        <ele>454.851413</ele>
        <time>2023-07-14T09:51:31.046Z</time>
      </trkpt>
      <trkpt lat="48.55034" lon="12.51238">
        <ele>454.878331</ele>
        <time>2023-07-14T09:51:32.972Z</time>
      </trkpt>
      <trkpt lat="48.55042" lon="12.51247">
        <ele>454.905026</ele>
        <time>2023-07-14T09:51:34.958Z</time>
      </trkpt>
      <trkpt lat="48.5505" lon="12.51255">
        <ele>454.932264</ele>
        <time>2023-07-14T09:51:36.934Z</time>
      </trkpt>
      <trkpt lat="48.55058" lon="12.51262">
        <ele>454.957679</ele>
        <time>2023-07-14T09:51:38.953Z</time>
      </trkpt>
      <trkpt lat="48.55066" lon="12.51269">
        <ele>454.982456</ele>
        <time>2023-07-14T09:51:40.958Z</time>
      </trkpt>
      <trkpt lat="48.55074" lon="12.51277">
        <ele>455.008852</ele>
        <time>2023-07-14T09:51:42.944Z</time>
      </trkpt>
      <trkpt lat="48.55082" lon="12.51285">
        <ele>455.034342</ele>
        <time>2023-07-14T09:51:44.959Z</time>
      </trkpt>
      <trkpt lat="48.55089" lon="12.51294">
        <ele>455.060478</ele>
        <time>2023-07-14T09:51:46.946Z</time>
      </trkpt>
      <trkpt lat="48.55097" lon="12.51302">
        <ele>455.08576</ele>
        <time>2023-07-14T09:51:48.952Z</time>
      </trkpt>
      <trkpt lat="48.55105" lon="12.5131">
        <ele>455.111904</ele>
        <time>2023-07-14T09:51:50.946Z</time>
      </trkpt>
      <trkpt lat="48.55112" lon="12.51319">
        <ele>455.107361</ele>
        <time>2023-07-14T09:51:52.961Z</time>
      </trkpt>
      <trkpt lat="48.55119" lon="12.51329">
        <ele>455.06815</ele>
        <time>2023-07-14T09:51:54.969Z</time>
      </trkpt>
      <trkpt lat="48.55127" lon="12.51339">
        <ele>455.027033</ele>
        <time>2023-07-14T09:51:56.959Z</time>
      </trkpt>
      <trkpt lat="48.55134" lon="12.51349">
        <ele>454.987748</ele>
        <time>2023-07-14T09:51:58.963Z</time>
      </trkpt>
      <trkpt lat="48.5514" lon="12.51359">
        <ele>454.948474</ele>
        <time>2023-07-14T09:52:00.960Z</time>
      </trkpt>
      <trkpt lat="48.55147" lon="12.51369">
        <ele>454.909</ele>
        <time>2023-07-14T09:52:02.938Z</time>
      </trkpt>
      <trkpt lat="48.55153" lon="12.51381">
        <ele>454.869603</ele>
        <time>2023-07-14T09:52:04.942Z</time>
      </trkpt>
      <trkpt lat="48.5516" lon="12.51392">
        <ele>454.829428</ele>
        <time>2023-07-14T09:52:06.928Z</time>
      </trkpt>
      <trkpt lat="48.55166" lon="12.51404">
        <ele>454.788577</ele>
        <time>2023-07-14T09:52:08.951Z</time>
      </trkpt>
      <trkpt lat="48.55172" lon="12.51417">
        <ele>454.745683</ele>
        <time>2023-07-14T09:52:10.946Z</time>
      </trkpt>
      <trkpt lat="48.55178" lon="12.51429">
        <ele>454.703027</ele>
        <time>2023-07-14T09:52:12.955Z</time>
      </trkpt>
      <trkpt lat="48.55183" lon="12.51442">
        <ele>454.661976</ele>
        <time>2023-07-14T09:52:14.965Z</time>
      </trkpt>
      <trkpt lat="48.55188" lon="12.51455">
        <ele>454.621345</ele>
        <time>2023-07-14T09:52:16.947Z</time>
      </trkpt>
      <trkpt lat="48.55193" lon="12.51467">
        <ele>454.582513</ele>
        <time>2023-07-14T09:52:18.966Z</time>
      </trkpt>
      <trkpt lat="48.55198" lon="12.51481">
        <ele>454.540679</ele>
        <time>2023-07-14T09:52:20.953Z</time>
      </trkpt>
      <trkpt lat="48.55203" lon="12.51495">
        <ele>454.497369</ele>
        <time>2023-07-14T09:52:22.954Z</time>
      </trkpt>
      <trkpt lat="48.55208" lon="12.51509">
        <ele>454.453576</ele>
        <time>2023-07-14T09:52:24.986Z</time>
      </trkpt>
      <trkpt lat="48.55213" lon="12.51523">
        <ele>454.4119</ele>
        <time>2023-07-14T09:52:26.947Z</time>
      </trkpt>
      <trkpt lat="48.55217" lon="12.51537">
        <ele>454.340395</ele>
        <time>2023-07-14T09:52:28.948Z</time>
      </trkpt>
      <trkpt lat="48.55222" lon="12.51551">
        <ele>454.225932</ele>
        <time>2023-07-14T09:52:30.951Z</time>
      </trkpt>
      <trkpt lat="48.55226" lon="12.51566">
        <ele>454.108205</ele>
        <time>2023-07-14T09:52:32.949Z</time>
      </trkpt>
      <trkpt lat="48.5523" lon="12.51581">
        <ele>453.993094</ele>
        <time>2023-07-14T09:52:34.943Z</time>
      </trkpt>
      <trkpt lat="48.55235" lon="12.51596">
        <ele>453.875938</ele>
        <time>2023-07-14T09:52:36.947Z</time>
      </trkpt>
      <trkpt lat="48.5524" lon="12.51611">
        <ele>453.756382</ele>
        <time>2023-07-14T09:52:38.959Z</time>
      </trkpt>
      <trkpt lat="48.55245" lon="12.51627">
        <ele>453.630614</ele>
        <time>2023-07-14T09:52:40.955Z</time>
      </trkpt>
      <trkpt lat="48.5525" lon="12.51643">
        <ele>453.505905</ele>
        <time>2023-07-14T09:52:42.947Z</time>
      </trkpt>
      <trkpt lat="48.55254" lon="12.51659">
        <ele>453.38057</ele>
        <time>2023-07-14T09:52:44.929Z</time>
      </trkpt>
      <trkpt lat="48.55259" lon="12.51675">
        <ele>453.253711</ele>
        <time>2023-07-14T09:52:46.958Z</time>
      </trkpt>
      <trkpt lat="48.55263" lon="12.51692">
        <ele>453.126024</ele>
        <time>2023-07-14T09:52:48.933Z</time>
      </trkpt>
      <trkpt lat="48.55268" lon="12.51707">
        <ele>453.005903</ele>
        <time>2023-07-14T09:52:50.947Z</time>
      </trkpt>
      <trkpt lat="48.55272" lon="12.51723">
        <ele>452.884276</ele>
        <time>2023-07-14T09:52:52.953Z</time>
      </trkpt>
      <trkpt lat="48.55276" lon="12.51739">
        <ele>452.763453</ele>
        <time>2023-07-14T09:52:54.951Z</time>
      </trkpt>
      <trkpt lat="48.5528" lon="12.51754">
        <ele>452.646936</ele>
        <time>2023-07-14T09:52:56.951Z</time>
      </trkpt>
      <trkpt lat="48.55283" lon="12.51768">
        <ele>452.535952</ele>
        <time>2023-07-14T09:52:58.945Z</time>
      </trkpt>
      <trkpt lat="48.55287" lon="12.51782">
        <ele>452.459226</ele>
        <time>2023-07-14T09:53:00.949Z</time>
      </trkpt>
      <trkpt lat="48.5529" lon="12.51796">
        <ele>452.570292</ele>
        <time>2023-07-14T09:53:02.945Z</time>
      </trkpt>
      <trkpt lat="48.55292" lon="12.5181">
        <ele>452.676559</ele>
        <time>2023-07-14T09:53:04.964Z</time>
      </trkpt>
      <trkpt lat="48.55295" lon="12.51824">
        <ele>452.786155</ele>
        <time>2023-07-14T09:53:06.948Z</time>
      </trkpt>
      <trkpt lat="48.55298" lon="12.51838">
        <ele>452.893989</ele>
        <time>2023-07-14T09:53:08.966Z</time>
      </trkpt>
      <trkpt lat="48.55301" lon="12.51851">
        <ele>452.995807</ele>
        <time>2023-07-14T09:53:10.949Z</time>
      </trkpt>
      <trkpt lat="48.55304" lon="12.51864">
        <ele>453.098343</ele>
        <time>2023-07-14T09:53:12.953Z</time>
      </trkpt>
      <trkpt lat="48.55308" lon="12.51883">
        <ele>453.248239</ele>
        <time>2023-07-14T09:53:15.951Z</time>
      </trkpt>
      <trkpt lat="48.55311" lon="12.51896">
        <ele>453.350764</ele>
        <time>2023-07-14T09:53:17.952Z</time>
      </trkpt>
      <trkpt lat="48.55315" lon="12.51915">
        <ele>453.498201</ele>
        <time>2023-07-14T09:53:20.950Z</time>
      </trkpt>
      <trkpt lat="48.55318" lon="12.51928">
        <ele>453.602492</ele>
        <time>2023-07-14T09:53:22.956Z</time>
      </trkpt>
      <trkpt lat="48.55321" lon="12.51941">
        <ele>453.706075</ele>
        <time>2023-07-14T09:53:24.956Z</time>
      </trkpt>
      <trkpt lat="48.55326" lon="12.5196">
        <ele>453.856281</ele>
        <time>2023-07-14T09:53:27.955Z</time>
      </trkpt>
      <trkpt lat="48.55332" lon="12.51979">
        <ele>454.009143</ele>
        <time>2023-07-14T09:53:30.934Z</time>
      </trkpt>
      <trkpt lat="48.55335" lon="12.51991">
        <ele>454.112976</ele>
        <time>2023-07-14T09:53:32.948Z</time>
      </trkpt>
      <trkpt lat="48.5534" lon="12.5201">
        <ele>454.259048</ele>
        <time>2023-07-14T09:53:35.966Z</time>
      </trkpt>
      <trkpt lat="48.55344" lon="12.52023">
        <ele>454.364888</ele>
        <time>2023-07-14T09:53:37.949Z</time>
      </trkpt>
      <trkpt lat="48.5535" lon="12.5204">
        <ele>454.468615</ele>
        <time>2023-07-14T09:53:40.971Z</time>
      </trkpt>
      <trkpt lat="48.55355" lon="12.52058">
        <ele>454.469208</ele>
        <time>2023-07-14T09:53:43.949Z</time>
      </trkpt>
      <trkpt lat="48.55361" lon="12.52076">
        <ele>454.46982</ele>
        <time>2023-07-14T09:53:46.952Z</time>
      </trkpt>
      <trkpt lat="48.55365" lon="12.52089">
        <ele>454.470239</ele>
        <time>2023-07-14T09:53:48.960Z</time>
      </trkpt>
      <trkpt lat="48.55372" lon="12.52106">
        <ele>454.470842</ele>
        <time>2023-07-14T09:53:51.952Z</time>
      </trkpt>
      <trkpt lat="48.55378" lon="12.52124">
        <ele>454.471472</ele>
        <time>2023-07-14T09:53:54.945Z</time>
      </trkpt>
      <trkpt lat="48.55382" lon="12.52137">
        <ele>454.471896</ele>
        <time>2023-07-14T09:53:56.967Z</time>
      </trkpt>
      <trkpt lat="48.55387" lon="12.52155">
        <ele>454.472498</ele>
        <time>2023-07-14T09:53:59.952Z</time>
      </trkpt>
      <trkpt lat="48.5539" lon="12.52175">
        <ele>454.473103</ele>
        <time>2023-07-14T09:54:02.933Z</time>
      </trkpt>
      <trkpt lat="48.55393" lon="12.52188">
        <ele>454.473524</ele>
        <time>2023-07-14T09:54:04.953Z</time>
      </trkpt>
      <trkpt lat="48.55397" lon="12.52207">
        <ele>454.474121</ele>
        <time>2023-07-14T09:54:07.978Z</time>
      </trkpt>
      <trkpt lat="48.55398" lon="12.52221">
        <ele>454.474562</ele>
        <time>2023-07-14T09:54:09.928Z</time>
      </trkpt>
      <trkpt lat="48.55401" lon="12.52235">
        <ele>454.475004</ele>
        <time>2023-07-14T09:54:11.967Z</time>
      </trkpt>
      <trkpt lat="48.55403" lon="12.5225">
        <ele>454.475475</ele>
        <time>2023-07-14T09:54:13.955Z</time>
      </trkpt>
      <trkpt lat="48.55404" lon="12.52267">
        <ele>454.475979</ele>
        <time>2023-07-14T09:54:15.962Z</time>
      </trkpt>
      <trkpt lat="48.55404" lon="12.52285">
        <ele>454.476537</ele>
        <time>2023-07-14T09:54:17.949Z</time>
      </trkpt>
      <trkpt lat="48.55405" lon="12.52304">
        <ele>454.369529</ele>
        <time>2023-07-14T09:54:19.948Z</time>
      </trkpt>
      <trkpt lat="48.55404" lon="12.52323">
        <ele>454.215963</ele>
        <time>2023-07-14T09:54:22.023Z</time>
      </trkpt>
      <trkpt lat="48.55404" lon="12.52342">
        <ele>454.072261</ele>
        <time>2023-07-14T09:54:23.937Z</time>
      </trkpt>
      <trkpt lat="48.55401" lon="12.52361">
        <ele>453.919835</ele>
        <time>2023-07-14T09:54:25.951Z</time>
      </trkpt>
      <trkpt lat="48.55399" lon="12.52379">
        <ele>453.774521</ele>
        <time>2023-07-14T09:54:27.955Z</time>
      </trkpt>
      <trkpt lat="48.55395" lon="12.52395">
        <ele>453.640474</ele>
        <time>2023-07-14T09:54:29.950Z</time>
      </trkpt>
      <trkpt lat="48.55391" lon="12.52412">
        <ele>453.498333</ele>
        <time>2023-07-14T09:54:32.947Z</time>
      </trkpt>
      <trkpt lat="48.55399" lon="12.52423">
        <ele>453.372779</ele>
        <time>2023-07-14T09:54:37.948Z</time>
      </trkpt>
      <trkpt lat="48.55409" lon="12.5243">
        <ele>453.23816</ele>
        <time>2023-07-14T09:54:41.955Z</time>
      </trkpt>
      <trkpt lat="48.55416" lon="12.52443">
        <ele>453.112327</ele>
        <time>2023-07-14T09:54:44.942Z</time>
      </trkpt>
      <trkpt lat="48.55423" lon="12.52458">
        <ele>452.968022</ele>
        <time>2023-07-14T09:54:47.964Z</time>
      </trkpt>
      <trkpt lat="48.55432" lon="12.52469">
        <ele>452.827932</ele>
        <time>2023-07-14T09:54:50.939Z</time>
      </trkpt>
      <trkpt lat="48.55443" lon="12.5248">
        <ele>452.678134</ele>
        <time>2023-07-14T09:54:53.950Z</time>
      </trkpt>
      <trkpt lat="48.55451" lon="12.52488">
        <ele>452.56321</ele>
        <time>2023-07-14T09:54:55.969Z</time>
      </trkpt>
      <trkpt lat="48.55459" lon="12.52496">
        <ele>452.445589</ele>
        <time>2023-07-14T09:54:57.953Z</time>
      </trkpt>
      <trkpt lat="48.55468" lon="12.52505">
        <ele>452.346194</ele>
        <time>2023-07-14T09:54:59.941Z</time>
      </trkpt>
      <trkpt lat="48.55477" lon="12.52514">
        <ele>452.299895</ele>
        <time>2023-07-14T09:55:01.963Z</time>
      </trkpt>
      <trkpt lat="48.55486" lon="12.52522">
        <ele>452.253651</ele>
        <time>2023-07-14T09:55:03.939Z</time>
      </trkpt>
      <trkpt lat="48.55495" lon="12.52534">
        <ele>452.201855</ele>
        <time>2023-07-14T09:55:05.949Z</time>
      </trkpt>
      <trkpt lat="48.55504" lon="12.52545">
        <ele>452.152343</ele>
        <time>2023-07-14T09:55:07.961Z</time>
      </trkpt>
      <trkpt lat="48.55511" lon="12.52559">
        <ele>452.103176</ele>
        <time>2023-07-14T09:55:09.948Z</time>
      </trkpt>
      <trkpt lat="48.55517" lon="12.52574">
        <ele>452.05413</ele>
        <time>2023-07-14T09:55:11.948Z</time>
      </trkpt>
      <trkpt lat="48.5552" lon="12.52589">
        <ele>452.008068</ele>
        <time>2023-07-14T09:55:13.959Z</time>
      </trkpt>
      <trkpt lat="48.55522" lon="12.52605">
        <ele>451.96209</ele>
        <time>2023-07-14T09:55:15.918Z</time>
      </trkpt>
      <trkpt lat="48.55522" lon="12.52621">
        <ele>451.918248</ele>
        <time>2023-07-14T09:55:17.946Z</time>
      </trkpt>
      <trkpt lat="48.55521" lon="12.52636">
        <ele>451.874322</ele>
        <time>2023-07-14T09:55:19.946Z</time>
      </trkpt>
      <trkpt lat="48.55519" lon="12.52651">
        <ele>451.831061</ele>
        <time>2023-07-14T09:55:21.950Z</time>
      </trkpt>
      <trkpt lat="48.55515" lon="12.52665">
        <ele>451.788191</ele>
        <time>2023-07-14T09:55:23.938Z</time>
      </trkpt>
      <trkpt lat="48.55509" lon="12.52683">
        <ele>451.730248</ele>
        <time>2023-07-14T09:55:26.966Z</time>
      </trkpt>
      <trkpt lat="48.55505" lon="12.527">
        <ele>451.676862</ele>
        <time>2023-07-14T09:55:29.951Z</time>
      </trkpt>
      <trkpt lat="48.55508" lon="12.52718">
        <ele>451.624923</ele>
        <time>2023-07-14T09:55:32.946Z</time>
      </trkpt>
      <trkpt lat="48.55515" lon="12.52734">
        <ele>451.593121</ele>
        <time>2023-07-14T09:55:35.937Z</time>
      </trkpt>
      <trkpt lat="48.55519" lon="12.52746">
        <ele>451.611229</ele>
        <time>2023-07-14T09:55:37.959Z</time>
      </trkpt>
      <trkpt lat="48.55526" lon="12.52762">
        <ele>451.63598</ele>
        <time>2023-07-14T09:55:40.946Z</time>
      </trkpt>
      <trkpt lat="48.55534" lon="12.52778">
        <ele>451.661603</ele>
        <time>2023-07-14T09:55:43.945Z</time>
      </trkpt>
      <trkpt lat="48.55538" lon="12.5279">
        <ele>451.679543</ele>
        <time>2023-07-14T09:55:45.970Z</time>
      </trkpt>
      <trkpt lat="48.55543" lon="12.52802">
        <ele>451.69756</ele>
        <time>2023-07-14T09:55:47.947Z</time>
      </trkpt>
      <trkpt lat="48.55549" lon="12.52819">
        <ele>451.723742</ele>
        <time>2023-07-14T09:55:50.948Z</time>
      </trkpt>
      <trkpt lat="48.55553" lon="12.52832">
        <ele>451.741531</ele>
        <time>2023-07-14T09:55:52.961Z</time>
      </trkpt>
      <trkpt lat="48.55558" lon="12.5285">
        <ele>451.767456</ele>
        <time>2023-07-14T09:55:55.956Z</time>
      </trkpt>
      <trkpt lat="48.55563" lon="12.52868">
        <ele>451.792508</ele>
        <time>2023-07-14T09:55:58.954Z</time>
      </trkpt>
      <trkpt lat="48.55569" lon="12.52886">
        <ele>451.818628</ele>
        <time>2023-07-14T09:56:01.959Z</time>
      </trkpt>
      <trkpt lat="48.55572" lon="12.52899">
        <ele>451.836874</ele>
        <time>2023-07-14T09:56:03.946Z</time>
      </trkpt>
      <trkpt lat="48.55577" lon="12.52912">
        <ele>451.855793</ele>
        <time>2023-07-14T09:56:05.952Z</time>
      </trkpt>
      <trkpt lat="48.55581" lon="12.52925">
        <ele>451.874304</ele>
        <time>2023-07-14T09:56:07.947Z</time>
      </trkpt>
      <trkpt lat="48.55585" lon="12.52937">
        <ele>451.892437</ele>
        <time>2023-07-14T09:56:09.950Z</time>
      </trkpt>
      <trkpt lat="48.5559" lon="12.5295">
        <ele>451.911492</ele>
        <time>2023-07-14T09:56:11.953Z</time>
      </trkpt>
      <trkpt lat="48.55594" lon="12.52963">
        <ele>451.930965</ele>
        <time>2023-07-14T09:56:13.945Z</time>
      </trkpt>
      <trkpt lat="48.55598" lon="12.52977">
        <ele>451.892413</ele>
        <time>2023-07-14T09:56:15.955Z</time>
      </trkpt>
      <trkpt lat="48.55602" lon="12.5299">
        <ele>451.813048</ele>
        <time>2023-07-14T09:56:17.937Z</time>
      </trkpt>
      <trkpt lat="48.55607" lon="12.53004">
        <ele>451.728648</ele>
        <time>2023-07-14T09:56:19.951Z</time>
      </trkpt>
      <trkpt lat="48.5561" lon="12.53019">
        <ele>451.645545</ele>
        <time>2023-07-14T09:56:21.940Z</time>
      </trkpt>
      <trkpt lat="48.55615" lon="12.53033">
        <ele>451.558269</ele>
        <time>2023-07-14T09:56:23.964Z</time>
      </trkpt>
      <trkpt lat="48.55619" lon="12.53046">
        <ele>451.473711</ele>
        <time>2023-07-14T09:56:25.942Z</time>
      </trkpt>
      <trkpt lat="48.55623" lon="12.53061">
        <ele>451.388152</ele>
        <time>2023-07-14T09:56:27.950Z</time>
      </trkpt>
      <trkpt lat="48.55627" lon="12.53075">
        <ele>451.30182</ele>
        <time>2023-07-14T09:56:29.950Z</time>
      </trkpt>
      <trkpt lat="48.55631" lon="12.53089">
        <ele>451.21967</ele>
        <time>2023-07-14T09:56:31.934Z</time>
      </trkpt>
      <trkpt lat="48.55636" lon="12.53102">
        <ele>451.136561</ele>
        <time>2023-07-14T09:56:33.964Z</time>
      </trkpt>
      <trkpt lat="48.5564" lon="12.53116">
        <ele>451.052732</ele>
        <time>2023-07-14T09:56:35.948Z</time>
      </trkpt>
      <trkpt lat="48.55645" lon="12.53129">
        <ele>450.971759</ele>
        <time>2023-07-14T09:56:37.950Z</time>
      </trkpt>
      <trkpt lat="48.55649" lon="12.53144">
        <ele>450.884244</ele>
        <time>2023-07-14T09:56:39.958Z</time>
      </trkpt>
      <trkpt lat="48.55654" lon="12.53159">
        <ele>450.794808</ele>
        <time>2023-07-14T09:56:41.954Z</time>
      </trkpt>
      <trkpt lat="48.55659" lon="12.53174">
        <ele>450.69889</ele>
        <time>2023-07-14T09:56:43.938Z</time>
      </trkpt>
      <trkpt lat="48.55665" lon="12.53189">
        <ele>450.605771</ele>
        <time>2023-07-14T09:56:45.950Z</time>
      </trkpt>
      <trkpt lat="48.55671" lon="12.53203">
        <ele>450.511954</ele>
        <time>2023-07-14T09:56:47.947Z</time>
      </trkpt>
      <trkpt lat="48.55677" lon="12.53217">
        <ele>450.485107</ele>
        <time>2023-07-14T09:56:49.950Z</time>
      </trkpt>
      <trkpt lat="48.55684" lon="12.5323">
        <ele>450.593464</ele>
        <time>2023-07-14T09:56:51.955Z</time>
      </trkpt>
      <trkpt lat="48.55691" lon="12.53243">
        <ele>450.699221</ele>
        <time>2023-07-14T09:56:53.933Z</time>
      </trkpt>
      <trkpt lat="48.55698" lon="12.53254">
        <ele>450.801491</ele>
        <time>2023-07-14T09:56:55.952Z</time>
      </trkpt>
      <trkpt lat="48.55705" lon="12.53265">
        <ele>450.901652</ele>
        <time>2023-07-14T09:56:57.946Z</time>
      </trkpt>
      <trkpt lat="48.55711" lon="12.53276">
        <ele>450.995162</ele>
        <time>2023-07-14T09:56:59.966Z</time>
      </trkpt>
      <trkpt lat="48.55719" lon="12.53285">
        <ele>451.093701</ele>
        <time>2023-07-14T09:57:01.948Z</time>
      </trkpt>
      <trkpt lat="48.55726" lon="12.53295">
        <ele>451.18732</ele>
        <time>2023-07-14T09:57:03.944Z</time>
      </trkpt>
      <trkpt lat="48.55733" lon="12.53303">
        <ele>451.281492</ele>
        <time>2023-07-14T09:57:05.960Z</time>
      </trkpt>
      <trkpt lat="48.55741" lon="12.53312">
        <ele>451.372513</ele>
        <time>2023-07-14T09:57:07.945Z</time>
      </trkpt>
      <trkpt lat="48.55748" lon="12.53321">
        <ele>451.465184</ele>
        <time>2023-07-14T09:57:09.947Z</time>
      </trkpt>
      <trkpt lat="48.55755" lon="12.53329">
        <ele>451.555799</ele>
        <time>2023-07-14T09:57:11.947Z</time>
      </trkpt>
      <trkpt lat="48.55765" lon="12.53342">
        <ele>451.685447</ele>
        <time>2023-07-14T09:57:14.955Z</time>
      </trkpt>
      <trkpt lat="48.55775" lon="12.53354">
        <ele>451.811683</ele>
        <time>2023-07-14T09:57:17.935Z</time>
      </trkpt>
      <trkpt lat="48.55782" lon="12.53363">
        <ele>451.901572</ele>
        <time>2023-07-14T09:57:19.950Z</time>
      </trkpt>
      <trkpt lat="48.55789" lon="12.53372">
        <ele>451.991357</ele>
        <time>2023-07-14T09:57:21.952Z</time>
      </trkpt>
      <trkpt lat="48.55799" lon="12.53384">
        <ele>452.122316</ele>
        <time>2023-07-14T09:57:24.950Z</time>
      </trkpt>
      <trkpt lat="48.55806" lon="12.53393">
        <ele>452.211746</ele>
        <time>2023-07-14T09:57:26.949Z</time>
      </trkpt>
      <trkpt lat="48.55813" lon="12.53401">
        <ele>452.274813</ele>
        <time>2023-07-14T09:57:28.952Z</time>
      </trkpt>
      <trkpt lat="48.55821" lon="12.53409">
        <ele>452.330239</ele>
        <time>2023-07-14T09:57:30.943Z</time>
      </trkpt>
      <trkpt lat="48.5583" lon="12.53422">
        <ele>452.409458</ele>
        <time>2023-07-14T09:57:33.945Z</time>
      </trkpt>
      <trkpt lat="48.5584" lon="12.53434">
        <ele>452.486441</ele>
        <time>2023-07-14T09:57:36.967Z</time>
      </trkpt>
      <trkpt lat="48.55851" lon="12.53446">
        <ele>452.567505</ele>
        <time>2023-07-14T09:57:39.955Z</time>
      </trkpt>
      <trkpt lat="48.55858" lon="12.53455">
        <ele>452.625374</ele>
        <time>2023-07-14T09:57:41.946Z</time>
      </trkpt>
      <trkpt lat="48.55868" lon="12.53467">
        <ele>452.70429</ele>
        <time>2023-07-14T09:57:44.965Z</time>
      </trkpt>
      <trkpt lat="48.55878" lon="12.53479">
        <ele>452.784159</ele>
        <time>2023-07-14T09:57:47.962Z</time>
      </trkpt>
      <trkpt lat="48.55888" lon="12.53492">
        <ele>452.863588</ele>
        <time>2023-07-14T09:57:50.944Z</time>
      </trkpt>
      <trkpt lat="48.55898" lon="12.53505">
        <ele>452.943211</ele>
        <time>2023-07-14T09:57:53.925Z</time>
      </trkpt>
      <trkpt lat="48.55907" lon="12.53516">
        <ele>453.014491</ele>
        <time>2023-07-14T09:57:56.958Z</time>
      </trkpt>
      <trkpt lat="48.55916" lon="12.53527">
        <ele>453.084077</ele>
        <time>2023-07-14T09:57:59.919Z</time>
      </trkpt>
      <trkpt lat="48.55925" lon="12.53539">
        <ele>453.15913</ele>
        <time>2023-07-14T09:58:02.953Z</time>
      </trkpt>
      <trkpt lat="48.55935" lon="12.5355">
        <ele>453.234576</ele>
        <time>2023-07-14T09:58:05.943Z</time>
      </trkpt>
      <trkpt lat="48.55946" lon="12.53559">
        <ele>453.308859</ele>
        <time>2023-07-14T09:58:08.956Z</time>
      </trkpt>
      <trkpt lat="48.55956" lon="12.53568">
        <ele>453.368432</ele>
        <time>2023-07-14T09:58:11.922Z</time>
      </trkpt>
      <trkpt lat="48.55967" lon="12.53576">
        <ele>453.419514</ele>
        <time>2023-07-14T09:58:14.947Z</time>
      </trkpt>
      <trkpt lat="48.55978" lon="12.53583">
        <ele>453.469662</ele>
        <time>2023-07-14T09:58:17.942Z</time>
      </trkpt>
      <trkpt lat="48.55989" lon="12.53588">
        <ele>453.518033</ele>
        <time>2023-07-14T09:58:20.951Z</time>
      </trkpt>
      <trkpt lat="48.55999" lon="12.53593">
        <ele>453.564356</ele>
        <time>2023-07-14T09:58:23.951Z</time>
      </trkpt>
      <trkpt lat="48.5601" lon="12.53597">
        <ele>453.611945</ele>
        <time>2023-07-14T09:58:26.939Z</time>
      </trkpt>
      <trkpt lat="48.56019" lon="12.536">
        <ele>453.652362</ele>
        <time>2023-07-14T09:58:29.952Z</time>
      </trkpt>
      <trkpt lat="48.56028" lon="12.53612">
        <ele>453.701115</ele>
        <time>2023-07-14T09:58:33.946Z</time>
      </trkpt>
      <trkpt lat="48.56039" lon="12.53616">
        <ele>453.75266</ele>
        <time>2023-07-14T09:58:37.943Z</time>
      </trkpt>
      <trkpt lat="48.5605" lon="12.53616">
        <ele>453.796628</ele>
        <time>2023-07-14T09:58:40.941Z</time>
      </trkpt>
      <trkpt lat="48.56059" lon="12.53623">
        <ele>453.841101</ele>
        <time>2023-07-14T09:58:43.954Z</time>
      </trkpt>
      <trkpt lat="48.56067" lon="12.53631">
        <ele>453.883377</ele>
        <time>2023-07-14T09:58:46.950Z</time>
      </trkpt>
      <trkpt lat="48.56076" lon="12.5364">
        <ele>453.926007</ele>
        <time>2023-07-14T09:58:49.945Z</time>
      </trkpt>
      <trkpt lat="48.56079" lon="12.53654">
        <ele>453.969186</ele>
        <time>2023-07-14T09:58:52.961Z</time>
      </trkpt>
      <trkpt lat="48.56079" lon="12.53669">
        <ele>454.012123</ele>
        <time>2023-07-14T09:58:55.934Z</time>
      </trkpt>
      <trkpt lat="48.56081" lon="12.53684">
        <ele>454.054268</ele>
        <time>2023-07-14T09:58:58.978Z</time>
      </trkpt>
      <trkpt lat="48.56081" lon="12.537">
        <ele>454.099555</ele>
        <time>2023-07-14T09:59:01.946Z</time>
      </trkpt>
      <trkpt lat="48.5608" lon="12.53716">
        <ele>454.015658</ele>
        <time>2023-07-14T09:59:04.950Z</time>
      </trkpt>
      <trkpt lat="48.56079" lon="12.53731">
        <ele>453.936363</ele>
        <time>2023-07-14T09:59:07.945Z</time>
      </trkpt>
      <trkpt lat="48.56078" lon="12.53745">
        <ele>453.861472</ele>
        <time>2023-07-14T09:59:10.938Z</time>
      </trkpt>
      <trkpt lat="48.56076" lon="12.53759">
        <ele>453.785829</ele>
        <time>2023-07-14T09:59:13.935Z</time>
      </trkpt>
      <trkpt lat="48.56076" lon="12.53773">
        <ele>453.712776</ele>
        <time>2023-07-14T09:59:16.941Z</time>
      </trkpt>
      <trkpt lat="48.56074" lon="12.5379">
        <ele>453.620161</ele>
        <time>2023-07-14T09:59:20.961Z</time>
      </trkpt>
      <trkpt lat="48.56073" lon="12.53809">
        <ele>453.520491</ele>
        <time>2023-07-14T09:59:24.963Z</time>
      </trkpt>
      <trkpt lat="48.56071" lon="12.53825">
        <ele>453.433796</ele>
        <time>2023-07-14T09:59:27.953Z</time>
      </trkpt>
      <trkpt lat="48.56069" lon="12.5384">
        <ele>453.350238</ele>
        <time>2023-07-14T09:59:30.945Z</time>
      </trkpt>
      <trkpt lat="48.56067" lon="12.5386">
        <ele>453.244484</ele>
        <time>2023-07-14T09:59:33.939Z</time>
      </trkpt>
      <trkpt lat="48.56064" lon="12.53873">
        <ele>453.171086</ele>
        <time>2023-07-14T09:59:35.951Z</time>
      </trkpt>
      <trkpt lat="48.56062" lon="12.53887">
        <ele>453.092215</ele>
        <time>2023-07-14T09:59:37.943Z</time>
      </trkpt>
      <trkpt lat="48.56061" lon="12.53902">
        <ele>453.012476</ele>
        <time>2023-07-14T09:59:39.944Z</time>
      </trkpt>
      <trkpt lat="48.56061" lon="12.53919">
        <ele>452.921959</ele>
        <time>2023-07-14T09:59:41.937Z</time>
      </trkpt>
      <trkpt lat="48.5606" lon="12.53936">
        <ele>452.830687</ele>
        <time>2023-07-14T09:59:44.941Z</time>
      </trkpt>
      <trkpt lat="48.56063" lon="12.53952">
        <ele>452.743221</ele>
        <time>2023-07-14T09:59:48.950Z</time>
      </trkpt>
      <trkpt lat="48.56072" lon="12.53958">
        <ele>452.663866</ele>
        <time>2023-07-14T09:59:52.936Z</time>
      </trkpt>
      <trkpt lat="48.56077" lon="12.53975">
        <ele>452.590854</ele>
        <time>2023-07-14T09:59:56.939Z</time>
      </trkpt>
      <trkpt lat="48.56082" lon="12.53992">
        <ele>452.51871</ele>
        <time>2023-07-14T09:59:59.957Z</time>
      </trkpt>
      <trkpt lat="48.56086" lon="12.54005">
        <ele>452.465069</ele>
        <time>2023-07-14T10:00:01.948Z</time>
      </trkpt>
      <trkpt lat="48.56091" lon="12.54017">
        <ele>452.411311</ele>
        <time>2023-07-14T10:00:03.940Z</time>
      </trkpt>
      <trkpt lat="48.56097" lon="12.54029">
        <ele>452.355331</ele>
        <time>2023-07-14T10:00:05.943Z</time>
      </trkpt>
      <trkpt lat="48.56103" lon="12.54041">
        <ele>452.299635</ele>
        <time>2023-07-14T10:00:07.944Z</time>
      </trkpt>
      <trkpt lat="48.56108" lon="12.54053">
        <ele>452.244311</ele>
        <time>2023-07-14T10:00:09.951Z</time>
      </trkpt>
      <trkpt lat="48.56113" lon="12.54065">
        <ele>452.188987</ele>
        <time>2023-07-14T10:00:11.964Z</time>
      </trkpt>
      <trkpt lat="48.56119" lon="12.54077">
        <ele>452.132077</ele>
        <time>2023-07-14T10:00:13.948Z</time>
      </trkpt>
      <trkpt lat="48.56124" lon="12.5409">
        <ele>452.075788</ele>
        <time>2023-07-14T10:00:15.952Z</time>
      </trkpt>
      <trkpt lat="48.56129" lon="12.54102">
        <ele>452.018243</ele>
        <time>2023-07-14T10:00:17.948Z</time>
      </trkpt>
      <trkpt lat="48.56135" lon="12.54116">
        <ele>451.956565</ele>
        <time>2023-07-14T10:00:19.921Z</time>
      </trkpt>
      <trkpt lat="48.56141" lon="12.5413">
        <ele>451.893838</ele>
        <time>2023-07-14T10:00:21.948Z</time>
      </trkpt>
      <trkpt lat="48.56147" lon="12.54143">
        <ele>451.832477</ele>
        <time>2023-07-14T10:00:23.935Z</time>
      </trkpt>
      <trkpt lat="48.56152" lon="12.54157">
        <ele>451.77046</ele>
        <time>2023-07-14T10:00:25.940Z</time>
      </trkpt>
      <trkpt lat="48.56159" lon="12.54171">
        <ele>451.707813</ele>
        <time>2023-07-14T10:00:27.965Z</time>
      </trkpt>
      <trkpt lat="48.56165" lon="12.54185">
        <ele>451.643583</ele>
        <time>2023-07-14T10:00:29.949Z</time>
      </trkpt>
      <trkpt lat="48.56171" lon="12.54197">
        <ele>451.648899</ele>
        <time>2023-07-14T10:00:31.947Z</time>
      </trkpt>
      <trkpt lat="48.56177" lon="12.54211">
        <ele>451.703147</ele>
        <time>2023-07-14T10:00:33.925Z</time>
      </trkpt>
      <trkpt lat="48.56183" lon="12.54225">
        <ele>451.757413</ele>
        <time>2023-07-14T10:00:35.957Z</time>
      </trkpt>
      <trkpt lat="48.56188" lon="12.54238">
        <ele>451.809521</ele>
        <time>2023-07-14T10:00:37.940Z</time>
      </trkpt>
      <trkpt lat="48.56193" lon="12.54251">
        <ele>451.859104</ele>
        <time>2023-07-14T10:00:39.944Z</time>
      </trkpt>
      <trkpt lat="48.56198" lon="12.54265">
        <ele>451.913119</ele>
        <time>2023-07-14T10:00:41.958Z</time>
      </trkpt>
      <trkpt lat="48.56203" lon="12.54279">
        <ele>451.966094</ele>
        <time>2023-07-14T10:00:43.946Z</time>
      </trkpt>
      <trkpt lat="48.56211" lon="12.54294">
        <ele>452.027798</ele>
        <time>2023-07-14T10:00:46.942Z</time>
      </trkpt>
      <trkpt lat="48.56218" lon="12.54304">
        <ele>452.074318</ele>
        <time>2023-07-14T10:00:49.932Z</time>
      </trkpt>
      <trkpt lat="48.56225" lon="12.54315">
        <ele>452.126285</ele>
        <time>2023-07-14T10:00:53.945Z</time>
      </trkpt>
      <trkpt lat="48.56229" lon="12.54328">
        <ele>452.175066</ele>
        <time>2023-07-14T10:00:56.950Z</time>
      </trkpt>
      <trkpt lat="48.56233" lon="12.54341">
        <ele>452.223324</ele>
        <time>2023-07-14T10:00:58.951Z</time>
      </trkpt>
      <trkpt lat="48.56239" lon="12.54355">
        <ele>452.277063</ele>
        <time>2023-07-14T10:01:00.948Z</time>
      </trkpt>
      <trkpt lat="48.56244" lon="12.54368">
        <ele>452.329684</ele>
        <time>2023-07-14T10:01:02.919Z</time>
      </trkpt>
      <trkpt lat="48.5625" lon="12.54382">
        <ele>452.386157</ele>
        <time>2023-07-14T10:01:04.950Z</time>
      </trkpt>
      <trkpt lat="48.56256" lon="12.54396">
        <ele>452.440181</ele>
        <time>2023-07-14T10:01:06.919Z</time>
      </trkpt>
      <trkpt lat="48.56261" lon="12.54409">
        <ele>452.492257</ele>
        <time>2023-07-14T10:01:08.971Z</time>
      </trkpt>
      <trkpt lat="48.56267" lon="12.54423">
        <ele>452.567743</ele>
        <time>2023-07-14T10:01:10.932Z</time>
      </trkpt>
      <trkpt lat="48.56272" lon="12.54436">
        <ele>452.67904</ele>
        <time>2023-07-14T10:01:12.942Z</time>
      </trkpt>
      <trkpt lat="48.56277" lon="12.54448">
        <ele>452.784075</ele>
        <time>2023-07-14T10:01:14.932Z</time>
      </trkpt>
      <trkpt lat="48.56284" lon="12.54464">
        <ele>452.928191</ele>
        <time>2023-07-14T10:01:17.944Z</time>
      </trkpt>
      <trkpt lat="48.5629" lon="12.54479">
        <ele>453.058422</ele>
        <time>2023-07-14T10:01:20.942Z</time>
      </trkpt>
      <trkpt lat="48.56296" lon="12.54495">
        <ele>453.185814</ele>
        <time>2023-07-14T10:01:23.935Z</time>
      </trkpt>
      <trkpt lat="48.563" lon="12.54511">
        <ele>453.314308</ele>
        <time>2023-07-14T10:01:26.952Z</time>
      </trkpt>
      <trkpt lat="48.56305" lon="12.54529">
        <ele>453.452473</ele>
        <time>2023-07-14T10:01:29.930Z</time>
      </trkpt>
      <trkpt lat="48.56308" lon="12.54546">
        <ele>453.583875</ele>
        <time>2023-07-14T10:01:32.939Z</time>
      </trkpt>
      <trkpt lat="48.56312" lon="12.54562">
        <ele>453.706578</ele>
        <time>2023-07-14T10:01:35.919Z</time>
      </trkpt>
      <trkpt lat="48.56316" lon="12.54577">
        <ele>453.834097</ele>
        <time>2023-07-14T10:01:38.944Z</time>
      </trkpt>
      <trkpt lat="48.56321" lon="12.54593">
        <ele>453.957168</ele>
        <time>2023-07-14T10:01:41.939Z</time>
      </trkpt>
      <trkpt lat="48.56326" lon="12.54607">
        <ele>454.0756</ele>
        <time>2023-07-14T10:01:44.942Z</time>
      </trkpt>
      <trkpt lat="48.56331" lon="12.54622">
        <ele>454.194031</ele>
        <time>2023-07-14T10:01:47.969Z</time>
      </trkpt>
      <trkpt lat="48.56334" lon="12.54636">
        <ele>454.309443</ele>
        <time>2023-07-14T10:01:50.936Z</time>
      </trkpt>
      <trkpt lat="48.56337" lon="12.54653">
        <ele>454.433042</ele>
        <time>2023-07-14T10:01:53.945Z</time>
      </trkpt>
      <trkpt lat="48.56339" lon="12.54672">
        <ele>454.421945</ele>
        <time>2023-07-14T10:01:56.945Z</time>
      </trkpt>
      <trkpt lat="48.56343" lon="12.5469">
        <ele>454.207448</ele>
        <time>2023-07-14T10:01:59.954Z</time>
      </trkpt>
      <trkpt lat="48.56345" lon="12.5471">
        <ele>453.979336</ele>
        <time>2023-07-14T10:02:02.974Z</time>
      </trkpt>
      <trkpt lat="48.56348" lon="12.5473">
        <ele>453.758736</ele>
        <time>2023-07-14T10:02:05.953Z</time>
      </trkpt>
      <trkpt lat="48.56348" lon="12.54749">
        <ele>453.546019</ele>
        <time>2023-07-14T10:02:08.952Z</time>
      </trkpt>
      <trkpt lat="48.56337" lon="12.54757">
        <ele>453.344288</ele>
        <time>2023-07-14T10:02:11.944Z</time>
      </trkpt>
      <trkpt lat="48.56339" lon="12.54776">
        <ele>453.13068</ele>
        <time>2023-07-14T10:02:14.936Z</time>
      </trkpt>
      <trkpt lat="48.56342" lon="12.5479">
        <ele>452.960756</ele>
        <time>2023-07-14T10:02:16.932Z</time>
      </trkpt>
      <trkpt lat="48.56347" lon="12.54805">
        <ele>452.779632</ele>
        <time>2023-07-14T10:02:18.931Z</time>
      </trkpt>
      <trkpt lat="48.56351" lon="12.5482">
        <ele>452.590282</ele>
        <time>2023-07-14T10:02:20.937Z</time>
      </trkpt>
      <trkpt lat="48.56355" lon="12.54837">
        <ele>452.386412</ele>
        <time>2023-07-14T10:02:22.945Z</time>
      </trkpt>
      <trkpt lat="48.56359" lon="12.54852">
        <ele>452.212134</ele>
        <time>2023-07-14T10:02:24.963Z</time>
      </trkpt>
      <trkpt lat="48.56364" lon="12.54864">
        <ele>452.052816</ele>
        <time>2023-07-14T10:02:26.938Z</time>
      </trkpt>
      <trkpt lat="48.56371" lon="12.54882">
        <ele>451.823267</ele>
        <time>2023-07-14T10:02:29.937Z</time>
      </trkpt>
      <trkpt lat="48.56375" lon="12.54897">
        <ele>451.640699</ele>
        <time>2023-07-14T10:02:31.961Z</time>
      </trkpt>
      <trkpt lat="48.5638" lon="12.54913">
        <ele>451.462584</ele>
        <time>2023-07-14T10:02:33.938Z</time>
      </trkpt>
      <trkpt lat="48.56385" lon="12.54928">
        <ele>451.389791</ele>
        <time>2023-07-14T10:02:35.957Z</time>
      </trkpt>
      <trkpt lat="48.5639" lon="12.54943">
        <ele>451.315843</ele>
        <time>2023-07-14T10:02:37.950Z</time>
      </trkpt>
      <trkpt lat="48.56395" lon="12.54958">
        <ele>451.244562</ele>
        <time>2023-07-14T10:02:39.949Z</time>
      </trkpt>
      <trkpt lat="48.564" lon="12.54972">
        <ele>451.174488</ele>
        <time>2023-07-14T10:02:41.949Z</time>
      </trkpt>
      <trkpt lat="48.56405" lon="12.54986">
        <ele>451.106799</ele>
        <time>2023-07-14T10:02:43.930Z</time>
      </trkpt>
      <trkpt lat="48.56409" lon="12.55001">
        <ele>451.035563</ele>
        <time>2023-07-14T10:02:45.946Z</time>
      </trkpt>
      <trkpt lat="48.56414" lon="12.55015">
        <ele>450.967713</ele>
        <time>2023-07-14T10:02:47.948Z</time>
      </trkpt>
      <trkpt lat="48.56419" lon="12.55029">
        <ele>450.899275</ele>
        <time>2023-07-14T10:02:49.948Z</time>
      </trkpt>
      <trkpt lat="48.56423" lon="12.55042">
        <ele>450.83556</ele>
        <time>2023-07-14T10:02:51.949Z</time>
      </trkpt>
      <trkpt lat="48.56428" lon="12.55056">
        <ele>450.769324</ele>
        <time>2023-07-14T10:02:53.952Z</time>
      </trkpt>
      <trkpt lat="48.56432" lon="12.5507">
        <ele>450.700495</ele>
        <time>2023-07-14T10:02:55.947Z</time>
      </trkpt>
      <trkpt lat="48.56438" lon="12.55085">
        <ele>450.628072</ele>
        <time>2023-07-14T10:02:57.947Z</time>
      </trkpt>
      <trkpt lat="48.56443" lon="12.551">
        <ele>450.555185</ele>
        <time>2023-07-14T10:02:59.939Z</time>
      </trkpt>
      <trkpt lat="48.56447" lon="12.55114">
        <ele>450.489784</ele>
        <time>2023-07-14T10:03:01.949Z</time>
      </trkpt>
      <trkpt lat="48.5645" lon="12.55127">
        <ele>450.427305</ele>
        <time>2023-07-14T10:03:03.950Z</time>
      </trkpt>
      <trkpt lat="48.56457" lon="12.55143">
        <ele>450.346207</ele>
        <time>2023-07-14T10:03:06.933Z</time>
      </trkpt>
      <trkpt lat="48.56469" lon="12.55141">
        <ele>450.254688</ele>
        <time>2023-07-14T10:03:10.942Z</time>
      </trkpt>
      <trkpt lat="48.56471" lon="12.55156">
        <ele>450.142841</ele>
        <time>2023-07-14T10:03:16.942Z</time>
      </trkpt>
      <trkpt lat="48.56475" lon="12.55175">
        <ele>450.008506</ele>
        <time>2023-07-14T10:03:19.942Z</time>
      </trkpt>
      <trkpt lat="48.56478" lon="12.55188">
        <ele>449.914176</ele>
        <time>2023-07-14T10:03:21.931Z</time>
      </trkpt>
      <trkpt lat="48.56484" lon="12.55205">
        <ele>449.776156</ele>
        <time>2023-07-14T10:03:24.947Z</time>
      </trkpt>
      <trkpt lat="48.56488" lon="12.55219">
        <ele>449.675776</ele>
        <time>2023-07-14T10:03:26.942Z</time>
      </trkpt>
      <trkpt lat="48.56492" lon="12.55232">
        <ele>449.57509</ele>
        <time>2023-07-14T10:03:28.919Z</time>
      </trkpt>
      <trkpt lat="48.56497" lon="12.55246">
        <ele>449.467466</ele>
        <time>2023-07-14T10:03:30.937Z</time>
      </trkpt>
      <trkpt lat="48.56502" lon="12.5526">
        <ele>449.360343</ele>
        <time>2023-07-14T10:03:32.938Z</time>
      </trkpt>
      <trkpt lat="48.56507" lon="12.55274">
        <ele>449.24824</ele>
        <time>2023-07-14T10:03:34.940Z</time>
      </trkpt>
      <trkpt lat="48.56511" lon="12.55288">
        <ele>449.141693</ele>
        <time>2023-07-14T10:03:36.938Z</time>
      </trkpt>
      <trkpt lat="48.56516" lon="12.55301">
        <ele>449.037753</ele>
        <time>2023-07-14T10:03:38.942Z</time>
      </trkpt>
      <trkpt lat="48.56521" lon="12.55315">
        <ele>448.930276</ele>
        <time>2023-07-14T10:03:40.945Z</time>
      </trkpt>
      <trkpt lat="48.56526" lon="12.55329">
        <ele>448.824756</ele>
        <time>2023-07-14T10:03:42.948Z</time>
      </trkpt>
      <trkpt lat="48.5653" lon="12.55342">
        <ele>448.721419</ele>
        <time>2023-07-14T10:03:44.955Z</time>
      </trkpt>
      <trkpt lat="48.56534" lon="12.55356">
        <ele>448.615947</ele>
        <time>2023-07-14T10:03:46.934Z</time>
      </trkpt>
      <trkpt lat="48.56539" lon="12.55369">
        <ele>448.511737</ele>
        <time>2023-07-14T10:03:48.941Z</time>
      </trkpt>
      <trkpt lat="48.56543" lon="12.55383">
        <ele>448.455401</ele>
        <time>2023-07-14T10:03:50.940Z</time>
      </trkpt>
      <trkpt lat="48.56548" lon="12.55396">
        <ele>448.586688</ele>
        <time>2023-07-14T10:03:52.951Z</time>
      </trkpt>
      <trkpt lat="48.56552" lon="12.55409">
        <ele>448.713768</ele>
        <time>2023-07-14T10:03:54.953Z</time>
      </trkpt>
      <trkpt lat="48.56557" lon="12.55422">
        <ele>448.842622</ele>
        <time>2023-07-14T10:03:56.945Z</time>
      </trkpt>
      <trkpt lat="48.56561" lon="12.55435">
        <ele>448.969499</ele>
        <time>2023-07-14T10:03:58.938Z</time>
      </trkpt>
      <trkpt lat="48.56565" lon="12.55447">
        <ele>449.093417</ele>
        <time>2023-07-14T10:04:00.954Z</time>
      </trkpt>
      <trkpt lat="48.5657" lon="12.55466">
        <ele>449.268604</ele>
        <time>2023-07-14T10:04:03.949Z</time>
      </trkpt>
      <trkpt lat="48.56577" lon="12.55483">
        <ele>449.447492</ele>
        <time>2023-07-14T10:04:06.938Z</time>
      </trkpt>
      <trkpt lat="48.56584" lon="12.555">
        <ele>449.618946</ele>
        <time>2023-07-14T10:04:09.944Z</time>
      </trkpt>
      <trkpt lat="48.56589" lon="12.55517">
        <ele>449.788041</ele>
        <time>2023-07-14T10:04:12.944Z</time>
      </trkpt>
      <trkpt lat="48.56595" lon="12.55534">
        <ele>449.948639</ele>
        <time>2023-07-14T10:04:15.941Z</time>
      </trkpt>
      <trkpt lat="48.566" lon="12.55549">
        <ele>450.102375</ele>
        <time>2023-07-14T10:04:18.939Z</time>
      </trkpt>
      <trkpt lat="48.56605" lon="12.55563">
        <ele>450.242114</ele>
        <time>2023-07-14T10:04:21.941Z</time>
      </trkpt>
      <trkpt lat="48.56609" lon="12.55576">
        <ele>450.368412</ele>
        <time>2023-07-14T10:04:24.942Z</time>
      </trkpt>
      <trkpt lat="48.56613" lon="12.5559">
        <ele>450.504381</ele>
        <time>2023-07-14T10:04:28.943Z</time>
      </trkpt>
      <trkpt lat="48.56616" lon="12.55603">
        <ele>450.629058</ele>
        <time>2023-07-14T10:04:31.945Z</time>
      </trkpt>
      <trkpt lat="48.56619" lon="12.55617">
        <ele>450.758303</ele>
        <time>2023-07-14T10:04:34.948Z</time>
      </trkpt>
      <trkpt lat="48.56622" lon="12.55634">
        <ele>450.768005</ele>
        <time>2023-07-14T10:04:38.941Z</time>
      </trkpt>
      <trkpt lat="48.56626" lon="12.55651">
        <ele>450.668842</ele>
        <time>2023-07-14T10:04:42.960Z</time>
      </trkpt>
      <trkpt lat="48.56629" lon="12.55668">
        <ele>450.569421</ele>
        <time>2023-07-14T10:04:46.934Z</time>
      </trkpt>
      <trkpt lat="48.56634" lon="12.55683">
        <ele>450.475744</ele>
        <time>2023-07-14T10:04:49.933Z</time>
      </trkpt>
      <trkpt lat="48.56639" lon="12.55697">
        <ele>450.384188</ele>
        <time>2023-07-14T10:04:52.941Z</time>
      </trkpt>
      <trkpt lat="48.56644" lon="12.55712">
        <ele>450.290632</ele>
        <time>2023-07-14T10:04:55.945Z</time>
      </trkpt>
      <trkpt lat="48.5665" lon="12.55726">
        <ele>450.198048</ele>
        <time>2023-07-14T10:04:58.939Z</time>
      </trkpt>
      <trkpt lat="48.56655" lon="12.55741">
        <ele>450.099027</ele>
        <time>2023-07-14T10:05:01.944Z</time>
      </trkpt>
      <trkpt lat="48.5666" lon="12.55758">
        <ele>449.995986</ele>
        <time>2023-07-14T10:05:04.939Z</time>
      </trkpt>
      <trkpt lat="48.56665" lon="12.55776">
        <ele>449.883859</ele>
        <time>2023-07-14T10:05:07.940Z</time>
      </trkpt>
      <trkpt lat="48.5667" lon="12.55789">
        <ele>449.804542</ele>
        <time>2023-07-14T10:05:09.947Z</time>
      </trkpt>
      <trkpt lat="48.56673" lon="12.55803">
        <ele>449.718993</ele>
        <time>2023-07-14T10:05:11.953Z</time>
      </trkpt>
      <trkpt lat="48.56676" lon="12.55816">
        <ele>449.642289</ele>
        <time>2023-07-14T10:05:13.934Z</time>
      </trkpt>
      <trkpt lat="48.5668" lon="12.55829">
        <ele>449.561705</ele>
        <time>2023-07-14T10:05:15.945Z</time>
      </trkpt>
      <trkpt lat="48.56682" lon="12.55844">
        <ele>449.4781</ele>
        <time>2023-07-14T10:05:17.955Z</time>
      </trkpt>
      <trkpt lat="48.56684" lon="12.55858">
        <ele>449.394532</ele>
        <time>2023-07-14T10:05:19.929Z</time>
      </trkpt>
      <trkpt lat="48.56686" lon="12.55873">
        <ele>449.308991</ele>
        <time>2023-07-14T10:05:21.949Z</time>
      </trkpt>
      <trkpt lat="48.56688" lon="12.55886">
        <ele>449.322251</ele>
        <time>2023-07-14T10:05:23.914Z</time>
      </trkpt>
      <trkpt lat="48.56689" lon="12.55901">
        <ele>449.361173</ele>
        <time>2023-07-14T10:05:25.941Z</time>
      </trkpt>
      <trkpt lat="48.56691" lon="12.55916">
        <ele>449.40286</ele>
        <time>2023-07-14T10:05:27.959Z</time>
      </trkpt>
      <trkpt lat="48.56693" lon="12.55932">
        <ele>449.446074</ele>
        <time>2023-07-14T10:05:29.942Z</time>
      </trkpt>
      <trkpt lat="48.56695" lon="12.55949">
        <ele>449.490989</ele>
        <time>2023-07-14T10:05:31.944Z</time>
      </trkpt>
      <trkpt lat="48.56696" lon="12.55966">
        <ele>449.538585</ele>
        <time>2023-07-14T10:05:33.957Z</time>
      </trkpt>
      <trkpt lat="48.56697" lon="12.55985">
        <ele>449.589685</ele>
        <time>2023-07-14T10:05:35.945Z</time>
      </trkpt>
      <trkpt lat="48.56697" lon="12.56004">
        <ele>449.638549</ele>
        <time>2023-07-14T10:05:37.957Z</time>
      </trkpt>
      <trkpt lat="48.56698" lon="12.56021">
        <ele>449.684223</ele>
        <time>2023-07-14T10:05:39.954Z</time>
      </trkpt>
      <trkpt lat="48.56698" lon="12.56037">
        <ele>449.728287</ele>
        <time>2023-07-14T10:05:41.955Z</time>
      </trkpt>
      <trkpt lat="48.56698" lon="12.56053">
        <ele>449.769673</ele>
        <time>2023-07-14T10:05:43.929Z</time>
      </trkpt>
      <trkpt lat="48.56697" lon="12.56068">
        <ele>449.809775</ele>
        <time>2023-07-14T10:05:45.945Z</time>
      </trkpt>
      <trkpt lat="48.56697" lon="12.56087">
        <ele>449.861866</ele>
        <time>2023-07-14T10:05:48.941Z</time>
      </trkpt>
      <trkpt lat="48.56698" lon="12.56109">
        <ele>449.918881</ele>
        <time>2023-07-14T10:05:51.932Z</time>
      </trkpt>
      <trkpt lat="48.56698" lon="12.56123">
        <ele>449.956538</ele>
        <time>2023-07-14T10:05:53.946Z</time>
      </trkpt>
      <trkpt lat="48.56698" lon="12.56143">
        <ele>450.009678</ele>
        <time>2023-07-14T10:05:56.960Z</time>
      </trkpt>
      <trkpt lat="48.56699" lon="12.56161">
        <ele>449.966393</ele>
        <time>2023-07-14T10:05:59.948Z</time>
      </trkpt>
      <trkpt lat="48.56699" lon="12.56179">
        <ele>449.905166</ele>
        <time>2023-07-14T10:06:02.957Z</time>
      </trkpt>
      <trkpt lat="48.567" lon="12.56197">
        <ele>449.844896</ele>
        <time>2023-07-14T10:06:05.961Z</time>
      </trkpt>
      <trkpt lat="48.567" lon="12.56213">
        <ele>449.787554</ele>
        <time>2023-07-14T10:06:08.959Z</time>
      </trkpt>
      <trkpt lat="48.56702" lon="12.5623">
        <ele>449.728859</ele>
        <time>2023-07-14T10:06:11.961Z</time>
      </trkpt>
      <trkpt lat="48.56702" lon="12.56247">
        <ele>449.671115</ele>
        <time>2023-07-14T10:06:14.928Z</time>
      </trkpt>
      <trkpt lat="48.56704" lon="12.56265">
        <ele>449.608601</ele>
        <time>2023-07-14T10:06:17.965Z</time>
      </trkpt>
      <trkpt lat="48.56705" lon="12.56285">
        <ele>449.53977</ele>
        <time>2023-07-14T10:06:20.947Z</time>
      </trkpt>
      <trkpt lat="48.56706" lon="12.563">
        <ele>449.489712</ele>
        <time>2023-07-14T10:06:22.939Z</time>
      </trkpt>
      <trkpt lat="48.56707" lon="12.56315">
        <ele>449.438289</ele>
        <time>2023-07-14T10:06:24.961Z</time>
      </trkpt>
      <trkpt lat="48.56708" lon="12.5633">
        <ele>449.384574</ele>
        <time>2023-07-14T10:06:26.943Z</time>
      </trkpt>
      <trkpt lat="48.5671" lon="12.56346">
        <ele>449.329351</ele>
        <time>2023-07-14T10:06:28.951Z</time>
      </trkpt>
      <trkpt lat="48.56711" lon="12.56362">
        <ele>449.272771</ele>
        <time>2023-07-14T10:06:30.959Z</time>
      </trkpt>
      <trkpt lat="48.56713" lon="12.56379">
        <ele>449.214491</ele>
        <time>2023-07-14T10:06:32.950Z</time>
      </trkpt>
      <trkpt lat="48.56715" lon="12.56395">
        <ele>449.158581</ele>
        <time>2023-07-14T10:06:34.954Z</time>
      </trkpt>
      <trkpt lat="48.56717" lon="12.56412">
        <ele>449.100398</ele>
        <time>2023-07-14T10:06:36.944Z</time>
      </trkpt>
      <trkpt lat="48.56719" lon="12.56429">
        <ele>448.903359</ele>
        <time>2023-07-14T10:06:38.952Z</time>
      </trkpt>
      <trkpt lat="48.56721" lon="12.56446">
        <ele>448.653065</ele>
        <time>2023-07-14T10:06:40.945Z</time>
      </trkpt>
      <trkpt lat="48.56723" lon="12.56462">
        <ele>448.409988</ele>
        <time>2023-07-14T10:06:42.941Z</time>
      </trkpt>
      <trkpt lat="48.56726" lon="12.56479">
        <ele>448.165852</ele>
        <time>2023-07-14T10:06:44.957Z</time>
      </trkpt>
      <trkpt lat="48.56728" lon="12.56495">
        <ele>447.927848</ele>
        <time>2023-07-14T10:06:46.951Z</time>
      </trkpt>
      <trkpt lat="48.56731" lon="12.56511">
        <ele>447.693619</ele>
        <time>2023-07-14T10:06:48.939Z</time>
      </trkpt>
      <trkpt lat="48.56733" lon="12.56528">
        <ele>447.449618</ele>
        <time>2023-07-14T10:06:50.951Z</time>
      </trkpt>
      <trkpt lat="48.56736" lon="12.56544">
        <ele>447.206522</ele>
        <time>2023-07-14T10:06:52.955Z</time>
      </trkpt>
      <trkpt lat="48.56738" lon="12.56561">
        <ele>446.966691</ele>
        <time>2023-07-14T10:06:54.950Z</time>
      </trkpt>
      <trkpt lat="48.5674" lon="12.56577">
        <ele>446.721761</ele>
        <time>2023-07-14T10:06:56.954Z</time>
      </trkpt>
      <trkpt lat="48.56742" lon="12.56593">
        <ele>446.485165</ele>
        <time>2023-07-14T10:06:58.961Z</time>
      </trkpt>
      <trkpt lat="48.56744" lon="12.56611">
        <ele>446.231669</ele>
        <time>2023-07-14T10:07:00.947Z</time>
      </trkpt>
      <trkpt lat="48.56747" lon="12.56627">
        <ele>445.992259</ele>
        <time>2023-07-14T10:07:02.947Z</time>
      </trkpt>
      <trkpt lat="48.56749" lon="12.56645">
        <ele>445.736957</ele>
        <time>2023-07-14T10:07:04.952Z</time>
      </trkpt>
      <trkpt lat="48.56751" lon="12.56662">
        <ele>445.478963</ele>
        <time>2023-07-14T10:07:06.936Z</time>
      </trkpt>
      <trkpt lat="48.56754" lon="12.5668">
        <ele>445.22001</ele>
        <time>2023-07-14T10:07:08.951Z</time>
      </trkpt>
      <trkpt lat="48.56757" lon="12.56698">
        <ele>445.141573</ele>
        <time>2023-07-14T10:07:10.943Z</time>
      </trkpt>
      <trkpt lat="48.5676" lon="12.56715">
        <ele>445.086029</ele>
        <time>2023-07-14T10:07:12.962Z</time>
      </trkpt>
      <trkpt lat="48.56763" lon="12.56733">
        <ele>445.030423</ele>
        <time>2023-07-14T10:07:14.948Z</time>
      </trkpt>
      <trkpt lat="48.56766" lon="12.56751">
        <ele>444.974272</ele>
        <time>2023-07-14T10:07:16.953Z</time>
      </trkpt>
      <trkpt lat="48.5677" lon="12.56769">
        <ele>444.91854</ele>
        <time>2023-07-14T10:07:18.947Z</time>
      </trkpt>
      <trkpt lat="48.56773" lon="12.56786">
        <ele>444.864854</ele>
        <time>2023-07-14T10:07:20.946Z</time>
      </trkpt>
      <trkpt lat="48.56776" lon="12.56802">
        <ele>444.814808</ele>
        <time>2023-07-14T10:07:22.955Z</time>
      </trkpt>
      <trkpt lat="48.56779" lon="12.56816">
        <ele>444.77031</ele>
        <time>2023-07-14T10:07:24.954Z</time>
      </trkpt>
      <trkpt lat="48.56782" lon="12.56829">
        <ele>444.726508</ele>
        <time>2023-07-14T10:07:26.948Z</time>
      </trkpt>
      <trkpt lat="48.56786" lon="12.56843">
        <ele>444.682005</ele>
        <time>2023-07-14T10:07:28.944Z</time>
      </trkpt>
      <trkpt lat="48.5679" lon="12.56856">
        <ele>444.638292</ele>
        <time>2023-07-14T10:07:30.929Z</time>
      </trkpt>
      <trkpt lat="48.56793" lon="12.5687">
        <ele>444.592754</ele>
        <time>2023-07-14T10:07:32.947Z</time>
      </trkpt>
      <trkpt lat="48.56797" lon="12.56885">
        <ele>444.546157</ele>
        <time>2023-07-14T10:07:34.941Z</time>
      </trkpt>
      <trkpt lat="48.56802" lon="12.569">
        <ele>444.495774</ele>
        <time>2023-07-14T10:07:36.961Z</time>
      </trkpt>
      <trkpt lat="48.56806" lon="12.56916">
        <ele>444.440796</ele>
        <time>2023-07-14T10:07:38.954Z</time>
      </trkpt>
      <trkpt lat="48.56811" lon="12.56933">
        <ele>444.386442</ele>
        <time>2023-07-14T10:07:40.959Z</time>
      </trkpt>
      <trkpt lat="48.56815" lon="12.5695">
        <ele>444.371925</ele>
        <time>2023-07-14T10:07:42.937Z</time>
      </trkpt>
      <trkpt lat="48.56819" lon="12.56967">
        <ele>444.377675</ele>
        <time>2023-07-14T10:07:44.945Z</time>
      </trkpt>
      <trkpt lat="48.56824" lon="12.56984">
        <ele>444.383506</ele>
        <time>2023-07-14T10:07:46.942Z</time>
      </trkpt>
      <trkpt lat="48.56828" lon="12.57">
        <ele>444.389136</ele>
        <time>2023-07-14T10:07:48.961Z</time>
      </trkpt>
      <trkpt lat="48.56833" lon="12.57017">
        <ele>444.394758</ele>
        <time>2023-07-14T10:07:50.951Z</time>
      </trkpt>
      <trkpt lat="48.56837" lon="12.57034">
        <ele>444.400525</ele>
        <time>2023-07-14T10:07:52.947Z</time>
      </trkpt>
      <trkpt lat="48.56841" lon="12.5705">
        <ele>444.406106</ele>
        <time>2023-07-14T10:07:54.934Z</time>
      </trkpt>
      <trkpt lat="48.56845" lon="12.57066">
        <ele>444.411436</ele>
        <time>2023-07-14T10:07:56.945Z</time>
      </trkpt>
      <trkpt lat="48.56848" lon="12.5708">
        <ele>444.416148</ele>
        <time>2023-07-14T10:07:58.955Z</time>
      </trkpt>
      <trkpt lat="48.56851" lon="12.57095">
        <ele>444.421175</ele>
        <time>2023-07-14T10:08:00.948Z</time>
      </trkpt>
      <trkpt lat="48.56855" lon="12.5711">
        <ele>444.42631</ele>
        <time>2023-07-14T10:08:02.974Z</time>
      </trkpt>
      <trkpt lat="48.56859" lon="12.57124">
        <ele>444.43104</ele>
        <time>2023-07-14T10:08:04.945Z</time>
      </trkpt>
      <trkpt lat="48.56862" lon="12.57138">
        <ele>444.435962</ele>
        <time>2023-07-14T10:08:06.944Z</time>
      </trkpt>
      <trkpt lat="48.56865" lon="12.57153">
        <ele>444.440764</ele>
        <time>2023-07-14T10:08:08.968Z</time>
      </trkpt>
      <trkpt lat="48.56869" lon="12.57167">
        <ele>444.445569</ele>
        <time>2023-07-14T10:08:10.953Z</time>
      </trkpt>
      <trkpt lat="48.56872" lon="12.5718">
        <ele>444.449934</ele>
        <time>2023-07-14T10:08:12.943Z</time>
      </trkpt>
      <trkpt lat="48.56876" lon="12.57199">
        <ele>444.47811</ele>
        <time>2023-07-14T10:08:15.947Z</time>
      </trkpt>
      <trkpt lat="48.56879" lon="12.57212">
        <ele>444.530218</ele>
        <time>2023-07-14T10:08:17.971Z</time>
      </trkpt>
      <trkpt lat="48.56884" lon="12.5723">
        <ele>444.605331</ele>
        <time>2023-07-14T10:08:20.943Z</time>
      </trkpt>
      <trkpt lat="48.56888" lon="12.57249">
        <ele>444.678787</ele>
        <time>2023-07-14T10:08:23.935Z</time>
      </trkpt>
      <trkpt lat="48.56891" lon="12.57265">
        <ele>444.74428</ele>
        <time>2023-07-14T10:08:26.942Z</time>
      </trkpt>
      <trkpt lat="48.56896" lon="12.57282">
        <ele>444.811367</ele>
        <time>2023-07-14T10:08:29.942Z</time>
      </trkpt>
      <trkpt lat="48.569" lon="12.57299">
        <ele>444.882856</ele>
        <time>2023-07-14T10:08:32.946Z</time>
      </trkpt>
      <trkpt lat="48.56906" lon="12.57316">
        <ele>444.954031</ele>
        <time>2023-07-14T10:08:35.963Z</time>
      </trkpt>
      <trkpt lat="48.56911" lon="12.57333">
        <ele>445.027484</ele>
        <time>2023-07-14T10:08:38.945Z</time>
      </trkpt>
      <trkpt lat="48.56917" lon="12.5735">
        <ele>445.09975</ele>
        <time>2023-07-14T10:08:41.944Z</time>
      </trkpt>
      <trkpt lat="48.56923" lon="12.57365">
        <ele>445.168446</ele>
        <time>2023-07-14T10:08:44.948Z</time>
      </trkpt>
      <trkpt lat="48.56932" lon="12.5738">
        <ele>445.244501</ele>
        <time>2023-07-14T10:08:47.966Z</time>
      </trkpt>
      <trkpt lat="48.5694" lon="12.57395">
        <ele>445.319759</ele>
        <time>2023-07-14T10:08:50.942Z</time>
      </trkpt>
      <trkpt lat="48.56949" lon="12.5741">
        <ele>445.396078</ele>
        <time>2023-07-14T10:08:53.927Z</time>
      </trkpt>
      <trkpt lat="48.56959" lon="12.57423">
        <ele>445.470314</ele>
        <time>2023-07-14T10:08:56.960Z</time>
      </trkpt>
      <trkpt lat="48.56969" lon="12.57437">
        <ele>445.666748</ele>
        <time>2023-07-14T10:08:59.958Z</time>
      </trkpt>
      <trkpt lat="48.56975" lon="12.57447">
        <ele>445.831172</ele>
        <time>2023-07-14T10:09:01.949Z</time>
      </trkpt>
      <trkpt lat="48.56981" lon="12.57457">
        <ele>445.991905</ele>
        <time>2023-07-14T10:09:03.946Z</time>
      </trkpt>
      <trkpt lat="48.56991" lon="12.57471">
        <ele>446.226426</ele>
        <time>2023-07-14T10:09:06.954Z</time>
      </trkpt>
      <trkpt lat="48.56998" lon="12.57479">
        <ele>446.391718</ele>
        <time>2023-07-14T10:09:08.946Z</time>
      </trkpt>
      <trkpt lat="48.57009" lon="12.57491">
        <ele>446.626148</ele>
        <time>2023-07-14T10:09:11.925Z</time>
      </trkpt>
      <trkpt lat="48.57016" lon="12.575">
        <ele>446.786808</ele>
        <time>2023-07-14T10:09:13.945Z</time>
      </trkpt>
      <trkpt lat="48.57026" lon="12.57512">
        <ele>447.024075</ele>
        <time>2023-07-14T10:09:16.945Z</time>
      </trkpt>
      <trkpt lat="48.57037" lon="12.57523">
        <ele>447.261354</ele>
        <time>2023-07-14T10:09:19.946Z</time>
      </trkpt>
      <trkpt lat="48.57048" lon="12.57534">
        <ele>447.50452</ele>
        <time>2023-07-14T10:09:22.958Z</time>
      </trkpt>
      <trkpt lat="48.5706" lon="12.57545">
        <ele>447.73715</ele>
        <time>2023-07-14T10:09:25.962Z</time>
      </trkpt>
      <trkpt lat="48.5707" lon="12.57553">
        <ele>447.945068</ele>
        <time>2023-07-14T10:09:28.946Z</time>
      </trkpt>
      <trkpt lat="48.5708" lon="12.57561">
        <ele>448.150962</ele>
        <time>2023-07-14T10:09:31.925Z</time>
      </trkpt>
      <trkpt lat="48.57089" lon="12.57568">
        <ele>448.334411</ele>
        <time>2023-07-14T10:09:34.956Z</time>
      </trkpt>
      <trkpt lat="48.57098" lon="12.57576">
        <ele>448.511156</ele>
        <time>2023-07-14T10:09:37.942Z</time>
      </trkpt>
      <trkpt lat="48.57106" lon="12.57583">
        <ele>448.68079</ele>
        <time>2023-07-14T10:09:40.967Z</time>
      </trkpt>
      <trkpt lat="48.57116" lon="12.57591">
        <ele>448.538155</ele>
        <time>2023-07-14T10:09:44.946Z</time>
      </trkpt>
      <trkpt lat="48.57124" lon="12.57601">
        <ele>448.361909</ele>
        <time>2023-07-14T10:09:48.943Z</time>
      </trkpt>
      <trkpt lat="48.57132" lon="12.57608">
        <ele>448.208163</ele>
        <time>2023-07-14T10:09:52.955Z</time>
      </trkpt>
      <trkpt lat="48.57125" lon="12.57623">
        <ele>448.002387</ele>
        <time>2023-07-14T10:10:28.952Z</time>
      </trkpt>
      <trkpt lat="48.57119" lon="12.57639">
        <ele>447.807264</ele>
        <time>2023-07-14T10:10:32.964Z</time>
      </trkpt>
      <trkpt lat="48.57109" lon="12.57653">
        <ele>447.583082</ele>
        <time>2023-07-14T10:10:35.954Z</time>
      </trkpt>
      <trkpt lat="48.571" lon="12.57665">
        <ele>447.388688</ele>
        <time>2023-07-14T10:10:37.954Z</time>
      </trkpt>
      <trkpt lat="48.57091" lon="12.57678">
        <ele>447.173041</ele>
        <time>2023-07-14T10:10:39.952Z</time>
      </trkpt>
      <trkpt lat="48.57079" lon="12.57692">
        <ele>446.926513</ele>
        <time>2023-07-14T10:10:41.945Z</time>
      </trkpt>
      <trkpt lat="48.57065" lon="12.57708">
        <ele>446.645077</ele>
        <time>2023-07-14T10:10:43.925Z</time>
      </trkpt>
      <trkpt lat="48.57052" lon="12.57723">
        <ele>446.375538</ele>
        <time>2023-07-14T10:10:45.952Z</time>
      </trkpt>
      <trkpt lat="48.5704" lon="12.57737">
        <ele>446.123071</ele>
        <time>2023-07-14T10:10:47.959Z</time>
      </trkpt>
      <trkpt lat="48.5703" lon="12.5775">
        <ele>445.902119</ele>
        <time>2023-07-14T10:10:50.002Z</time>
      </trkpt>
      <trkpt lat="48.5702" lon="12.57762">
        <ele>445.661776</ele>
        <time>2023-07-14T10:10:51.965Z</time>
      </trkpt>
      <trkpt lat="48.5701" lon="12.57772">
        <ele>445.3023</ele>
        <time>2023-07-14T10:10:53.962Z</time>
      </trkpt>
      <trkpt lat="48.57001" lon="12.57783">
        <ele>444.956461</ele>
        <time>2023-07-14T10:10:55.946Z</time>
      </trkpt>
      <trkpt lat="48.56993" lon="12.57793">
        <ele>444.64811</ele>
        <time>2023-07-14T10:10:57.955Z</time>
      </trkpt>
      <trkpt lat="48.56985" lon="12.57802">
        <ele>444.354047</ele>
        <time>2023-07-14T10:10:59.958Z</time>
      </trkpt>
      <trkpt lat="48.56977" lon="12.57811">
        <ele>444.079938</ele>
        <time>2023-07-14T10:11:01.940Z</time>
      </trkpt>
      <trkpt lat="48.56967" lon="12.57821">
        <ele>443.727012</ele>
        <time>2023-07-14T10:11:04.952Z</time>
      </trkpt>
      <trkpt lat="48.56958" lon="12.57829">
        <ele>443.40346</ele>
        <time>2023-07-14T10:11:08.959Z</time>
      </trkpt>
      <trkpt lat="48.56953" lon="12.57842">
        <ele>443.123852</ele>
        <time>2023-07-14T10:11:13.949Z</time>
      </trkpt>
      <trkpt lat="48.56944" lon="12.57853">
        <ele>442.788516</ele>
        <time>2023-07-14T10:11:17.953Z</time>
      </trkpt>
      <trkpt lat="48.56935" lon="12.57863">
        <ele>442.444127</ele>
        <time>2023-07-14T10:11:21.952Z</time>
      </trkpt>
      <trkpt lat="48.56927" lon="12.57874">
        <ele>442.141764</ele>
        <time>2023-07-14T10:11:26.942Z</time>
      </trkpt>
      <trkpt lat="48.56931" lon="12.57886">
        <ele>441.878465</ele>
        <time>2023-07-14T10:11:50.942Z</time>
      </trkpt>
      <trkpt lat="48.5693" lon="12.57886">
        <ele>441.850297</ele>
        <time>2023-07-14T10:11:59.909Z</time>
      </trkpt>
      <trkpt lat="48.56933" lon="12.57871">
        <ele>441.555973</ele>
        <time>2023-07-14T10:52:46.973Z</time>
      </trkpt>
      <trkpt lat="48.5694" lon="12.5786">
        <ele>441.256631</ele>
        <time>2023-07-14T10:52:53.943Z</time>
      </trkpt>
      <trkpt lat="48.56947" lon="12.57852">
        <ele>440.991902</ele>
        <time>2023-07-14T10:52:59.947Z</time>
      </trkpt>
      <trkpt lat="48.56954" lon="12.57842">
        <ele>440.693441</ele>
        <time>2023-07-14T10:53:04.942Z</time>
      </trkpt>
      <trkpt lat="48.5696" lon="12.57829">
        <ele>440.503964</ele>
        <time>2023-07-14T10:53:09.977Z</time>
      </trkpt>
      <trkpt lat="48.56969" lon="12.57822">
        <ele>440.763679</ele>
        <time>2023-07-14T10:53:14.957Z</time>
      </trkpt>
      <trkpt lat="48.56977" lon="12.57814">
        <ele>441.019393</ele>
        <time>2023-07-14T10:53:18.949Z</time>
      </trkpt>
      <trkpt lat="48.56987" lon="12.57803">
        <ele>441.327608</ele>
        <time>2023-07-14T10:53:22.954Z</time>
      </trkpt>
      <trkpt lat="48.56996" lon="12.57791">
        <ele>441.636294</ele>
        <time>2023-07-14T10:53:26.974Z</time>
      </trkpt>
      <trkpt lat="48.57003" lon="12.57782">
        <ele>441.882502</ele>
        <time>2023-07-14T10:53:29.959Z</time>
      </trkpt>
      <trkpt lat="48.57012" lon="12.57773">
        <ele>442.158577</ele>
        <time>2023-07-14T10:53:32.950Z</time>
      </trkpt>
      <trkpt lat="48.57021" lon="12.57763">
        <ele>442.438214</ele>
        <time>2023-07-14T10:53:35.958Z</time>
      </trkpt>
      <trkpt lat="48.5703" lon="12.57754">
        <ele>442.720999</ele>
        <time>2023-07-14T10:53:38.954Z</time>
      </trkpt>
      <trkpt lat="48.57039" lon="12.57742">
        <ele>443.017797</ele>
        <time>2023-07-14T10:53:41.963Z</time>
      </trkpt>
      <trkpt lat="48.57048" lon="12.5773">
        <ele>443.330234</ele>
        <time>2023-07-14T10:53:44.940Z</time>
      </trkpt>
      <trkpt lat="48.57058" lon="12.5772">
        <ele>443.630321</ele>
        <time>2023-07-14T10:53:47.973Z</time>
      </trkpt>
      <trkpt lat="48.57067" lon="12.5771">
        <ele>443.911154</ele>
        <time>2023-07-14T10:53:50.951Z</time>
      </trkpt>
      <trkpt lat="48.57077" lon="12.57701">
        <ele>444.201951</ele>
        <time>2023-07-14T10:53:53.935Z</time>
      </trkpt>
      <trkpt lat="48.57084" lon="12.57693">
        <ele>444.449053</ele>
        <time>2023-07-14T10:53:56.948Z</time>
      </trkpt>
      <trkpt lat="48.57092" lon="12.57685">
        <ele>444.693268</ele>
        <time>2023-07-14T10:54:00.961Z</time>
      </trkpt>
      <trkpt lat="48.57098" lon="12.57675">
        <ele>444.925994</ele>
        <time>2023-07-14T10:54:06.941Z</time>
      </trkpt>
      <trkpt lat="48.57105" lon="12.57664">
        <ele>445.203161</ele>
        <time>2023-07-14T10:54:14.945Z</time>
      </trkpt>
      <trkpt lat="48.57112" lon="12.57652">
        <ele>445.505722</ele>
        <time>2023-07-14T10:54:20.931Z</time>
      </trkpt>
      <trkpt lat="48.57119" lon="12.57642">
        <ele>445.799827</ele>
        <time>2023-07-14T10:54:27.933Z</time>
      </trkpt>
      <trkpt lat="48.57127" lon="12.57636">
        <ele>446.072389</ele>
        <time>2023-07-14T10:54:33.948Z</time>
      </trkpt>
      <trkpt lat="48.57138" lon="12.57637">
        <ele>446.375897</ele>
        <time>2023-07-14T10:54:42.928Z</time>
      </trkpt>
      <trkpt lat="48.57147" lon="12.57647">
        <ele>446.699906</ele>
        <time>2023-07-14T10:54:47.935Z</time>
      </trkpt>
      <trkpt lat="48.57154" lon="12.57655">
        <ele>446.972477</ele>
        <time>2023-07-14T10:54:51.951Z</time>
      </trkpt>
      <trkpt lat="48.57161" lon="12.57665">
        <ele>447.252656</ele>
        <time>2023-07-14T10:54:55.957Z</time>
      </trkpt>
      <trkpt lat="48.57168" lon="12.57675">
        <ele>447.543992</ele>
        <time>2023-07-14T10:54:59.950Z</time>
      </trkpt>
      <trkpt lat="48.57174" lon="12.57686">
        <ele>447.837065</ele>
        <time>2023-07-14T10:55:03.928Z</time>
      </trkpt>
      <trkpt lat="48.57181" lon="12.57698">
        <ele>448.154696</ele>
        <time>2023-07-14T10:55:07.955Z</time>
      </trkpt>
      <trkpt lat="48.57187" lon="12.57711">
        <ele>448.466108</ele>
        <time>2023-07-14T10:55:11.940Z</time>
      </trkpt>
      <trkpt lat="48.57193" lon="12.57726">
        <ele>448.808729</ele>
        <time>2023-07-14T10:55:15.953Z</time>
      </trkpt>
      <trkpt lat="48.57199" lon="12.57737">
        <ele>449.086971</ele>
        <time>2023-07-14T10:55:18.938Z</time>
      </trkpt>
      <trkpt lat="48.57203" lon="12.5775">
        <ele>449.372422</ele>
        <time>2023-07-14T10:55:21.946Z</time>
      </trkpt>
      <trkpt lat="48.57207" lon="12.57765">
        <ele>449.680554</ele>
        <time>2023-07-14T10:55:24.957Z</time>
      </trkpt>
      <trkpt lat="48.57211" lon="12.5778">
        <ele>450.001487</ele>
        <time>2023-07-14T10:55:27.951Z</time>
      </trkpt>
      <trkpt lat="48.57215" lon="12.57796">
        <ele>450.342475</ele>
        <time>2023-07-14T10:55:30.957Z</time>
      </trkpt>
      <trkpt lat="48.57218" lon="12.57813">
        <ele>450.228825</ele>
        <time>2023-07-14T10:55:33.936Z</time>
      </trkpt>
      <trkpt lat="48.57221" lon="12.5783">
        <ele>449.961148</ele>
        <time>2023-07-14T10:55:36.947Z</time>
      </trkpt>
      <trkpt lat="48.57222" lon="12.57849">
        <ele>449.687461</ele>
        <time>2023-07-14T10:55:39.941Z</time>
      </trkpt>
      <trkpt lat="48.57223" lon="12.57867">
        <ele>449.428591</ele>
        <time>2023-07-14T10:55:42.940Z</time>
      </trkpt>
      <trkpt lat="48.57223" lon="12.57885">
        <ele>449.167102</ele>
        <time>2023-07-14T10:55:45.958Z</time>
      </trkpt>
      <trkpt lat="48.57224" lon="12.57899">
        <ele>448.954182</ele>
        <time>2023-07-14T10:55:47.945Z</time>
      </trkpt>
      <trkpt lat="48.57225" lon="12.57914">
        <ele>448.731072</ele>
        <time>2023-07-14T10:55:49.961Z</time>
      </trkpt>
      <trkpt lat="48.57226" lon="12.57931">
        <ele>448.478674</ele>
        <time>2023-07-14T10:55:51.955Z</time>
      </trkpt>
      <trkpt lat="48.57226" lon="12.5795">
        <ele>448.201156</ele>
        <time>2023-07-14T10:55:53.929Z</time>
      </trkpt>
      <trkpt lat="48.57227" lon="12.5797">
        <ele>447.914661</ele>
        <time>2023-07-14T10:55:55.956Z</time>
      </trkpt>
      <trkpt lat="48.57227" lon="12.57991">
        <ele>447.61494</ele>
        <time>2023-07-14T10:55:57.953Z</time>
      </trkpt>
      <trkpt lat="48.57229" lon="12.58012">
        <ele>447.305203</ele>
        <time>2023-07-14T10:55:59.941Z</time>
      </trkpt>
      <trkpt lat="48.5723" lon="12.58032">
        <ele>447.002459</ele>
        <time>2023-07-14T10:56:01.945Z</time>
      </trkpt>
      <trkpt lat="48.5723" lon="12.58053">
        <ele>446.70592</ele>
        <time>2023-07-14T10:56:03.944Z</time>
      </trkpt>
      <trkpt lat="48.5723" lon="12.58073">
        <ele>446.44913</ele>
        <time>2023-07-14T10:56:05.948Z</time>
      </trkpt>
      <trkpt lat="48.57231" lon="12.58093">
        <ele>446.435231</ele>
        <time>2023-07-14T10:56:07.949Z</time>
      </trkpt>
      <trkpt lat="48.57232" lon="12.58112">
        <ele>446.421683</ele>
        <time>2023-07-14T10:56:09.947Z</time>
      </trkpt>
      <trkpt lat="48.57232" lon="12.58131">
        <ele>446.408425</ele>
        <time>2023-07-14T10:56:11.945Z</time>
      </trkpt>
      <trkpt lat="48.57231" lon="12.5815">
        <ele>446.395151</ele>
        <time>2023-07-14T10:56:13.941Z</time>
      </trkpt>
      <trkpt lat="48.5723" lon="12.58168">
        <ele>446.382252</ele>
        <time>2023-07-14T10:56:15.925Z</time>
      </trkpt>
      <trkpt lat="48.57227" lon="12.58186">
        <ele>446.36952</ele>
        <time>2023-07-14T10:56:17.952Z</time>
      </trkpt>
      <trkpt lat="48.57224" lon="12.58202">
        <ele>446.358072</ele>
        <time>2023-07-14T10:56:19.959Z</time>
      </trkpt>
      <trkpt lat="48.57221" lon="12.58218">
        <ele>446.346117</ele>
        <time>2023-07-14T10:56:21.949Z</time>
      </trkpt>
      <trkpt lat="48.57217" lon="12.58234">
        <ele>446.334297</ele>
        <time>2023-07-14T10:56:23.941Z</time>
      </trkpt>
      <trkpt lat="48.57214" lon="12.5825">
        <ele>446.322718</ele>
        <time>2023-07-14T10:56:25.959Z</time>
      </trkpt>
      <trkpt lat="48.57211" lon="12.58266">
        <ele>446.310887</ele>
        <time>2023-07-14T10:56:27.990Z</time>
      </trkpt>
      <trkpt lat="48.57208" lon="12.58282">
        <ele>446.299604</ele>
        <time>2023-07-14T10:56:29.954Z</time>
      </trkpt>
      <trkpt lat="48.57205" lon="12.58297">
        <ele>446.288053</ele>
        <time>2023-07-14T10:56:31.941Z</time>
      </trkpt>
      <trkpt lat="48.57202" lon="12.58313">
        <ele>446.276904</ele>
        <time>2023-07-14T10:56:33.925Z</time>
      </trkpt>
      <trkpt lat="48.57199" lon="12.58328">
        <ele>446.265853</ele>
        <time>2023-07-14T10:56:35.933Z</time>
      </trkpt>
      <trkpt lat="48.57196" lon="12.58342">
        <ele>446.233277</ele>
        <time>2023-07-14T10:56:37.956Z</time>
      </trkpt>
      <trkpt lat="48.57193" lon="12.58356">
        <ele>446.183814</ele>
        <time>2023-07-14T10:56:39.943Z</time>
      </trkpt>
      <trkpt lat="48.5719" lon="12.5837">
        <ele>446.133877</ele>
        <time>2023-07-14T10:56:41.941Z</time>
      </trkpt>
      <trkpt lat="48.57187" lon="12.58384">
        <ele>446.082498</ele>
        <time>2023-07-14T10:56:43.930Z</time>
      </trkpt>
      <trkpt lat="48.57184" lon="12.58399">
        <ele>446.031602</ele>
        <time>2023-07-14T10:56:45.934Z</time>
      </trkpt>
      <trkpt lat="48.57181" lon="12.58412">
        <ele>445.98114</ele>
        <time>2023-07-14T10:56:47.953Z</time>
      </trkpt>
      <trkpt lat="48.57178" lon="12.58426">
        <ele>445.934443</ele>
        <time>2023-07-14T10:56:49.944Z</time>
      </trkpt>
      <trkpt lat="48.57175" lon="12.58439">
        <ele>445.887111</ele>
        <time>2023-07-14T10:56:51.953Z</time>
      </trkpt>
      <trkpt lat="48.57172" lon="12.58452">
        <ele>445.840102</ele>
        <time>2023-07-14T10:56:53.948Z</time>
      </trkpt>
      <trkpt lat="48.57168" lon="12.58471">
        <ele>445.770554</ele>
        <time>2023-07-14T10:56:56.957Z</time>
      </trkpt>
      <trkpt lat="48.57162" lon="12.5849">
        <ele>445.700666</ele>
        <time>2023-07-14T10:56:59.956Z</time>
      </trkpt>
      <trkpt lat="48.57158" lon="12.58508">
        <ele>445.632867</ele>
        <time>2023-07-14T10:57:02.933Z</time>
      </trkpt>
      <trkpt lat="48.57153" lon="12.58526">
        <ele>445.567782</ele>
        <time>2023-07-14T10:57:05.963Z</time>
      </trkpt>
      <trkpt lat="48.57148" lon="12.58543">
        <ele>445.50463</ele>
        <time>2023-07-14T10:57:08.927Z</time>
      </trkpt>
      <trkpt lat="48.57143" lon="12.58562">
        <ele>445.436781</ele>
        <time>2023-07-14T10:57:11.945Z</time>
      </trkpt>
      <trkpt lat="48.57138" lon="12.5858">
        <ele>445.367428</ele>
        <time>2023-07-14T10:57:14.936Z</time>
      </trkpt>
      <trkpt lat="48.57133" lon="12.58598">
        <ele>445.38234</ele>
        <time>2023-07-14T10:57:17.953Z</time>
      </trkpt>
      <trkpt lat="48.5713" lon="12.58611">
        <ele>445.455225</ele>
        <time>2023-07-14T10:57:19.957Z</time>
      </trkpt>
      <trkpt lat="48.57125" lon="12.58628">
        <ele>445.556149</ele>
        <time>2023-07-14T10:57:22.949Z</time>
      </trkpt>
      <trkpt lat="48.5712" lon="12.58647">
        <ele>445.661176</ele>
        <time>2023-07-14T10:57:25.944Z</time>
      </trkpt>
      <trkpt lat="48.57115" lon="12.58665">
        <ele>445.76718</ele>
        <time>2023-07-14T10:57:28.935Z</time>
      </trkpt>
      <trkpt lat="48.57109" lon="12.58683">
        <ele>445.875462</ele>
        <time>2023-07-14T10:57:31.959Z</time>
      </trkpt>
      <trkpt lat="48.57103" lon="12.58701">
        <ele>445.981425</ele>
        <time>2023-07-14T10:57:34.948Z</time>
      </trkpt>
      <trkpt lat="48.57099" lon="12.58714">
        <ele>446.057117</ele>
        <time>2023-07-14T10:57:36.954Z</time>
      </trkpt>
      <trkpt lat="48.57094" lon="12.58732">
        <ele>446.164582</ele>
        <time>2023-07-14T10:57:39.961Z</time>
      </trkpt>
      <trkpt lat="48.57088" lon="12.5875">
        <ele>446.270593</ele>
        <time>2023-07-14T10:57:42.957Z</time>
      </trkpt>
      <trkpt lat="48.57082" lon="12.58769">
        <ele>446.380863</ele>
        <time>2023-07-14T10:57:45.941Z</time>
      </trkpt>
      <trkpt lat="48.57076" lon="12.58787">
        <ele>446.488662</ele>
        <time>2023-07-14T10:57:48.949Z</time>
      </trkpt>
      <trkpt lat="48.5707" lon="12.58805">
        <ele>446.593096</ele>
        <time>2023-07-14T10:57:51.954Z</time>
      </trkpt>
      <trkpt lat="48.57065" lon="12.58822">
        <ele>446.694173</ele>
        <time>2023-07-14T10:57:54.948Z</time>
      </trkpt>
      <trkpt lat="48.57059" lon="12.58839">
        <ele>446.786855</ele>
        <time>2023-07-14T10:57:57.953Z</time>
      </trkpt>
      <trkpt lat="48.57052" lon="12.58857">
        <ele>446.831739</ele>
        <time>2023-07-14T10:58:00.947Z</time>
      </trkpt>
      <trkpt lat="48.57046" lon="12.58874">
        <ele>446.87553</ele>
        <time>2023-07-14T10:58:03.937Z</time>
      </trkpt>
      <trkpt lat="48.5704" lon="12.58893">
        <ele>446.920504</ele>
        <time>2023-07-14T10:58:06.961Z</time>
      </trkpt>
      <trkpt lat="48.57034" lon="12.5891">
        <ele>446.964098</ele>
        <time>2023-07-14T10:58:09.940Z</time>
      </trkpt>
      <trkpt lat="48.57028" lon="12.58927">
        <ele>447.007581</ele>
        <time>2023-07-14T10:58:12.959Z</time>
      </trkpt>
      <trkpt lat="48.57022" lon="12.58944">
        <ele>447.050392</ele>
        <time>2023-07-14T10:58:15.961Z</time>
      </trkpt>
      <trkpt lat="48.57015" lon="12.5896">
        <ele>447.093189</ele>
        <time>2023-07-14T10:58:18.935Z</time>
      </trkpt>
      <trkpt lat="48.57008" lon="12.58976">
        <ele>447.13433</ele>
        <time>2023-07-14T10:58:21.947Z</time>
      </trkpt>
      <trkpt lat="48.57003" lon="12.58991">
        <ele>447.171518</ele>
        <time>2023-07-14T10:58:24.944Z</time>
      </trkpt>
      <trkpt lat="48.56997" lon="12.59007">
        <ele>447.212259</ele>
        <time>2023-07-14T10:58:27.961Z</time>
      </trkpt>
      <trkpt lat="48.56992" lon="12.59021">
        <ele>447.247934</ele>
        <time>2023-07-14T10:58:30.947Z</time>
      </trkpt>
      <trkpt lat="48.56986" lon="12.59034">
        <ele>447.283167</ele>
        <time>2023-07-14T10:58:33.924Z</time>
      </trkpt>
      <trkpt lat="48.5698" lon="12.59048">
        <ele>447.318785</ele>
        <time>2023-07-14T10:58:36.952Z</time>
      </trkpt>
      <trkpt lat="48.56975" lon="12.59061">
        <ele>447.353197</ele>
        <time>2023-07-14T10:58:39.959Z</time>
      </trkpt>
      <trkpt lat="48.56969" lon="12.59075">
        <ele>447.381438</ele>
        <time>2023-07-14T10:58:42.946Z</time>
      </trkpt>
      <trkpt lat="48.56963" lon="12.5909">
        <ele>447.384477</ele>
        <time>2023-07-14T10:58:45.959Z</time>
      </trkpt>
      <trkpt lat="48.56958" lon="12.59105">
        <ele>447.387311</ele>
        <time>2023-07-14T10:58:48.946Z</time>
      </trkpt>
      <trkpt lat="48.56952" lon="12.59121">
        <ele>447.390516</ele>
        <time>2023-07-14T10:58:51.952Z</time>
      </trkpt>
      <trkpt lat="48.56945" lon="12.59137">
        <ele>447.393686</ele>
        <time>2023-07-14T10:58:54.941Z</time>
      </trkpt>
      <trkpt lat="48.56939" lon="12.59152">
        <ele>447.396763</ele>
        <time>2023-07-14T10:58:57.957Z</time>
      </trkpt>
      <trkpt lat="48.56932" lon="12.59168">
        <ele>447.399976</ele>
        <time>2023-07-14T10:59:00.938Z</time>
      </trkpt>
      <trkpt lat="48.56926" lon="12.59184">
        <ele>447.403176</ele>
        <time>2023-07-14T10:59:03.940Z</time>
      </trkpt>
      <trkpt lat="48.56919" lon="12.592">
        <ele>447.406389</ele>
        <time>2023-07-14T10:59:06.950Z</time>
      </trkpt>
      <trkpt lat="48.56912" lon="12.59215">
        <ele>447.409559</ele>
        <time>2023-07-14T10:59:09.961Z</time>
      </trkpt>
      <trkpt lat="48.56905" lon="12.59232">
        <ele>447.412901</ele>
        <time>2023-07-14T10:59:12.962Z</time>
      </trkpt>
      <trkpt lat="48.56898" lon="12.59247">
        <ele>447.416114</ele>
        <time>2023-07-14T10:59:15.943Z</time>
      </trkpt>
      <trkpt lat="48.56891" lon="12.59263">
        <ele>447.419384</ele>
        <time>2023-07-14T10:59:18.955Z</time>
      </trkpt>
      <trkpt lat="48.56886" lon="12.59274">
        <ele>447.421713</ele>
        <time>2023-07-14T10:59:20.940Z</time>
      </trkpt>
      <trkpt lat="48.56878" lon="12.59291">
        <ele>447.425185</ele>
        <time>2023-07-14T10:59:23.938Z</time>
      </trkpt>
      <trkpt lat="48.56874" lon="12.59302">
        <ele>447.426144</ele>
        <time>2023-07-14T10:59:25.944Z</time>
      </trkpt>
      <trkpt lat="48.56866" lon="12.59318">
        <ele>447.410565</ele>
        <time>2023-07-14T10:59:28.936Z</time>
      </trkpt>
      <trkpt lat="48.56858" lon="12.59335">
        <ele>447.39446</ele>
        <time>2023-07-14T10:59:31.946Z</time>
      </trkpt>
      <trkpt lat="48.56851" lon="12.59352">
        <ele>447.378622</ele>
        <time>2023-07-14T10:59:34.965Z</time>
      </trkpt>
      <trkpt lat="48.56843" lon="12.59368">
        <ele>447.362751</ele>
        <time>2023-07-14T10:59:37.958Z</time>
      </trkpt>
      <trkpt lat="48.56837" lon="12.59379">
        <ele>447.351922</ele>
        <time>2023-07-14T10:59:39.955Z</time>
      </trkpt>
      <trkpt lat="48.56831" lon="12.5939">
        <ele>447.340958</ele>
        <time>2023-07-14T10:59:41.941Z</time>
      </trkpt>
      <trkpt lat="48.56826" lon="12.59401">
        <ele>447.330029</ele>
        <time>2023-07-14T10:59:43.931Z</time>
      </trkpt>
      <trkpt lat="48.56821" lon="12.59413">
        <ele>447.31916</ele>
        <time>2023-07-14T10:59:45.947Z</time>
      </trkpt>
      <trkpt lat="48.56812" lon="12.59429">
        <ele>447.303059</ele>
        <time>2023-07-14T10:59:48.959Z</time>
      </trkpt>
      <trkpt lat="48.56804" lon="12.59444">
        <ele>447.287109</ele>
        <time>2023-07-14T10:59:51.953Z</time>
      </trkpt>
      <trkpt lat="48.56798" lon="12.59455">
        <ele>447.276477</ele>
        <time>2023-07-14T10:59:53.932Z</time>
      </trkpt>
      <trkpt lat="48.56792" lon="12.59465">
        <ele>447.265708</ele>
        <time>2023-07-14T10:59:55.950Z</time>
      </trkpt>
      <trkpt lat="48.56784" lon="12.59481">
        <ele>447.249955</ele>
        <time>2023-07-14T10:59:58.940Z</time>
      </trkpt>
      <trkpt lat="48.56774" lon="12.59495">
        <ele>447.234054</ele>
        <time>2023-07-14T11:00:01.942Z</time>
      </trkpt>
      <trkpt lat="48.56765" lon="12.59509">
        <ele>447.218597</ele>
        <time>2023-07-14T11:00:04.948Z</time>
      </trkpt>
      <trkpt lat="48.56759" lon="12.59519">
        <ele>447.24584</ele>
        <time>2023-07-14T11:00:06.943Z</time>
      </trkpt>
      <trkpt lat="48.5675" lon="12.59533">
        <ele>447.323768</ele>
        <time>2023-07-14T11:00:09.939Z</time>
      </trkpt>
      <trkpt lat="48.5674" lon="12.59547">
        <ele>447.402262</ele>
        <time>2023-07-14T11:00:12.937Z</time>
      </trkpt>
      <trkpt lat="48.56731" lon="12.59562">
        <ele>447.483433</ele>
        <time>2023-07-14T11:00:15.953Z</time>
      </trkpt>
      <trkpt lat="48.56721" lon="12.59575">
        <ele>447.561962</ele>
        <time>2023-07-14T11:00:18.934Z</time>
      </trkpt>
      <trkpt lat="48.56712" lon="12.59588">
        <ele>447.638605</ele>
        <time>2023-07-14T11:00:21.954Z</time>
      </trkpt>
      <trkpt lat="48.56702" lon="12.596">
        <ele>447.713581</ele>
        <time>2023-07-14T11:00:24.954Z</time>
      </trkpt>
      <trkpt lat="48.56692" lon="12.59613">
        <ele>447.79274</ele>
        <time>2023-07-14T11:00:27.935Z</time>
      </trkpt>
      <trkpt lat="48.56682" lon="12.59625">
        <ele>447.871297</ele>
        <time>2023-07-14T11:00:30.959Z</time>
      </trkpt>
      <trkpt lat="48.56672" lon="12.59637">
        <ele>447.946467</ele>
        <time>2023-07-14T11:00:33.944Z</time>
      </trkpt>
      <trkpt lat="48.56662" lon="12.59648">
        <ele>448.020229</ele>
        <time>2023-07-14T11:00:36.948Z</time>
      </trkpt>
      <trkpt lat="48.56653" lon="12.59659">
        <ele>448.090859</ele>
        <time>2023-07-14T11:00:39.940Z</time>
      </trkpt>
      <trkpt lat="48.56643" lon="12.59668">
        <ele>448.161954</ele>
        <time>2023-07-14T11:00:42.933Z</time>
      </trkpt>
      <trkpt lat="48.56633" lon="12.59679">
        <ele>448.236736</ele>
        <time>2023-07-14T11:00:45.956Z</time>
      </trkpt>
      <trkpt lat="48.56622" lon="12.5969">
        <ele>448.246106</ele>
        <time>2023-07-14T11:00:48.944Z</time>
      </trkpt>
      <trkpt lat="48.56612" lon="12.597">
        <ele>448.05621</ele>
        <time>2023-07-14T11:00:51.942Z</time>
      </trkpt>
      <trkpt lat="48.56602" lon="12.59708">
        <ele>447.876527</ele>
        <time>2023-07-14T11:00:54.949Z</time>
      </trkpt>
      <trkpt lat="48.56593" lon="12.59716">
        <ele>447.709036</ele>
        <time>2023-07-14T11:00:57.962Z</time>
      </trkpt>
      <trkpt lat="48.56584" lon="12.59724">
        <ele>447.558701</ele>
        <time>2023-07-14T11:01:00.959Z</time>
      </trkpt>
      <trkpt lat="48.56576" lon="12.5973">
        <ele>447.414525</ele>
        <time>2023-07-14T11:01:04.946Z</time>
      </trkpt>
      <trkpt lat="48.56578" lon="12.59744">
        <ele>447.26825</ele>
        <time>2023-07-14T11:01:13.939Z</time>
      </trkpt>
      <trkpt lat="48.56581" lon="12.59758">
        <ele>447.117587</ele>
        <time>2023-07-14T11:01:18.952Z</time>
      </trkpt>
      <trkpt lat="48.56584" lon="12.59774">
        <ele>446.948037</ele>
        <time>2023-07-14T11:01:21.958Z</time>
      </trkpt>
      <trkpt lat="48.56587" lon="12.59787">
        <ele>446.80031</ele>
        <time>2023-07-14T11:01:23.947Z</time>
      </trkpt>
      <trkpt lat="48.5659" lon="12.59803">
        <ele>446.630156</ele>
        <time>2023-07-14T11:01:25.954Z</time>
      </trkpt>
      <trkpt lat="48.56593" lon="12.59822">
        <ele>446.430315</ele>
        <time>2023-07-14T11:01:27.946Z</time>
      </trkpt>
      <trkpt lat="48.56597" lon="12.59842">
        <ele>446.212919</ele>
        <time>2023-07-14T11:01:29.949Z</time>
      </trkpt>
      <trkpt lat="48.566" lon="12.59863">
        <ele>445.995198</ele>
        <time>2023-07-14T11:01:31.941Z</time>
      </trkpt>
      <trkpt lat="48.56602" lon="12.59885">
        <ele>445.76822</ele>
        <time>2023-07-14T11:01:33.951Z</time>
      </trkpt>
      <trkpt lat="48.56605" lon="12.59906">
        <ele>445.543725</ele>
        <time>2023-07-14T11:01:35.939Z</time>
      </trkpt>
      <trkpt lat="48.56607" lon="12.59926">
        <ele>445.382639</ele>
        <time>2023-07-14T11:01:37.959Z</time>
      </trkpt>
      <trkpt lat="48.56609" lon="12.59946">
        <ele>445.239933</ele>
        <time>2023-07-14T11:01:39.945Z</time>
      </trkpt>
      <trkpt lat="48.5661" lon="12.59965">
        <ele>445.103246</ele>
        <time>2023-07-14T11:01:41.954Z</time>
      </trkpt>
      <trkpt lat="48.56611" lon="12.59984">
        <ele>444.974033</ele>
        <time>2023-07-14T11:01:43.943Z</time>
      </trkpt>
      <trkpt lat="48.56611" lon="12.6">
        <ele>444.855738</ele>
        <time>2023-07-14T11:01:45.950Z</time>
      </trkpt>
      <trkpt lat="48.56612" lon="12.60016">
        <ele>444.740093</ele>
        <time>2023-07-14T11:01:47.938Z</time>
      </trkpt>
      <trkpt lat="48.56612" lon="12.60033">
        <ele>444.621876</ele>
        <time>2023-07-14T11:01:49.941Z</time>
      </trkpt>
      <trkpt lat="48.56613" lon="12.60049">
        <ele>444.509925</ele>
        <time>2023-07-14T11:01:51.955Z</time>
      </trkpt>
      <trkpt lat="48.56613" lon="12.60064">
        <ele>444.399536</ele>
        <time>2023-07-14T11:01:53.949Z</time>
      </trkpt>
      <trkpt lat="48.56614" lon="12.6008">
        <ele>444.287254</ele>
        <time>2023-07-14T11:01:55.963Z</time>
      </trkpt>
      <trkpt lat="48.56615" lon="12.60095">
        <ele>444.182558</ele>
        <time>2023-07-14T11:01:57.958Z</time>
      </trkpt>
      <trkpt lat="48.56615" lon="12.6011">
        <ele>444.07416</ele>
        <time>2023-07-14T11:01:59.938Z</time>
      </trkpt>
      <trkpt lat="48.56616" lon="12.60125">
        <ele>443.964399</ele>
        <time>2023-07-14T11:02:01.945Z</time>
      </trkpt>
      <trkpt lat="48.56616" lon="12.6014">
        <ele>443.859703</ele>
        <time>2023-07-14T11:02:03.934Z</time>
      </trkpt>
      <trkpt lat="48.56616" lon="12.60155">
        <ele>443.754256</ele>
        <time>2023-07-14T11:02:05.949Z</time>
      </trkpt>
      <trkpt lat="48.56617" lon="12.60169">
        <ele>443.64881</ele>
        <time>2023-07-14T11:02:07.946Z</time>
      </trkpt>
      <trkpt lat="48.56617" lon="12.60184">
        <ele>443.552542</ele>
        <time>2023-07-14T11:02:09.938Z</time>
      </trkpt>
      <trkpt lat="48.56618" lon="12.60198">
        <ele>443.511987</ele>
        <time>2023-07-14T11:02:11.943Z</time>
      </trkpt>
      <trkpt lat="48.56618" lon="12.60213">
        <ele>443.470847</ele>
        <time>2023-07-14T11:02:13.944Z</time>
      </trkpt>
      <trkpt lat="48.56619" lon="12.60229">
        <ele>443.426899</ele>
        <time>2023-07-14T11:02:15.939Z</time>
      </trkpt>
      <trkpt lat="48.56619" lon="12.60244">
        <ele>443.383794</ele>
        <time>2023-07-14T11:02:17.941Z</time>
      </trkpt>
      <trkpt lat="48.5662" lon="12.60259">
        <ele>443.340069</ele>
        <time>2023-07-14T11:02:19.929Z</time>
      </trkpt>
      <trkpt lat="48.56621" lon="12.60275">
        <ele>443.295841</ele>
        <time>2023-07-14T11:02:21.952Z</time>
      </trkpt>
      <trkpt lat="48.56621" lon="12.6029">
        <ele>443.253092</ele>
        <time>2023-07-14T11:02:23.944Z</time>
      </trkpt>
      <trkpt lat="48.56621" lon="12.60306">
        <ele>443.208648</ele>
        <time>2023-07-14T11:02:25.958Z</time>
      </trkpt>
      <trkpt lat="48.56622" lon="12.60322">
        <ele>443.164113</ele>
        <time>2023-07-14T11:02:27.946Z</time>
      </trkpt>
      <trkpt lat="48.56622" lon="12.60337">
        <ele>443.121311</ele>
        <time>2023-07-14T11:02:29.937Z</time>
      </trkpt>
      <trkpt lat="48.56623" lon="12.60351">
        <ele>443.081264</ele>
        <time>2023-07-14T11:02:31.943Z</time>
      </trkpt>
      <trkpt lat="48.56623" lon="12.60366">
        <ele>443.040991</ele>
        <time>2023-07-14T11:02:33.949Z</time>
      </trkpt>
      <trkpt lat="48.56624" lon="12.6038">
        <ele>442.999333</ele>
        <time>2023-07-14T11:02:35.959Z</time>
      </trkpt>
      <trkpt lat="48.56624" lon="12.60395">
        <ele>442.958271</ele>
        <time>2023-07-14T11:02:37.949Z</time>
      </trkpt>
      <trkpt lat="48.56624" lon="12.60409">
        <ele>442.918052</ele>
        <time>2023-07-14T11:02:39.922Z</time>
      </trkpt>
      <trkpt lat="48.56625" lon="12.60424">
        <ele>442.876253</ele>
        <time>2023-07-14T11:02:41.960Z</time>
      </trkpt>
      <trkpt lat="48.56625" lon="12.60439">
        <ele>442.835183</ele>
        <time>2023-07-14T11:02:43.941Z</time>
      </trkpt>
      <trkpt lat="48.56626" lon="12.60454">
        <ele>442.793384</ele>
        <time>2023-07-14T11:02:45.949Z</time>
      </trkpt>
      <trkpt lat="48.56626" lon="12.60469">
        <ele>442.682126</ele>
        <time>2023-07-14T11:02:47.941Z</time>
      </trkpt>
      <trkpt lat="48.56627" lon="12.60484">
        <ele>442.573367</ele>
        <time>2023-07-14T11:02:49.940Z</time>
      </trkpt>
      <trkpt lat="48.56627" lon="12.605">
        <ele>442.455224</ele>
        <time>2023-07-14T11:02:51.953Z</time>
      </trkpt>
      <trkpt lat="48.56628" lon="12.60516">
        <ele>442.337958</ele>
        <time>2023-07-14T11:02:53.937Z</time>
      </trkpt>
      <trkpt lat="48.56629" lon="12.60533">
        <ele>442.216625</ele>
        <time>2023-07-14T11:02:55.943Z</time>
      </trkpt>
      <trkpt lat="48.56631" lon="12.60549">
        <ele>442.095058</ele>
        <time>2023-07-14T11:02:57.945Z</time>
      </trkpt>
      <trkpt lat="48.56634" lon="12.60565">
        <ele>441.976631</ele>
        <time>2023-07-14T11:02:59.945Z</time>
      </trkpt>
      <trkpt lat="48.56638" lon="12.6058">
        <ele>441.856511</ele>
        <time>2023-07-14T11:03:01.949Z</time>
      </trkpt>
      <trkpt lat="48.56641" lon="12.60595">
        <ele>441.740381</ele>
        <time>2023-07-14T11:03:03.930Z</time>
      </trkpt>
      <trkpt lat="48.56646" lon="12.60609">
        <ele>441.622679</ele>
        <time>2023-07-14T11:03:05.964Z</time>
      </trkpt>
      <trkpt lat="48.56651" lon="12.60624">
        <ele>441.507716</ele>
        <time>2023-07-14T11:03:07.950Z</time>
      </trkpt>
      <trkpt lat="48.56655" lon="12.60638">
        <ele>441.390102</ele>
        <time>2023-07-14T11:03:09.924Z</time>
      </trkpt>
      <trkpt lat="48.56659" lon="12.60652">
        <ele>441.277297</ele>
        <time>2023-07-14T11:03:11.972Z</time>
      </trkpt>
      <trkpt lat="48.56664" lon="12.60666">
        <ele>441.165242</ele>
        <time>2023-07-14T11:03:13.935Z</time>
      </trkpt>
      <trkpt lat="48.56667" lon="12.60681">
        <ele>441.051661</ele>
        <time>2023-07-14T11:03:15.950Z</time>
      </trkpt>
      <trkpt lat="48.56671" lon="12.60695">
        <ele>440.940269</ele>
        <time>2023-07-14T11:03:17.947Z</time>
      </trkpt>
      <trkpt lat="48.56676" lon="12.60709">
        <ele>440.826884</ele>
        <time>2023-07-14T11:03:19.949Z</time>
      </trkpt>
      <trkpt lat="48.5668" lon="12.60723">
        <ele>440.838175</ele>
        <time>2023-07-14T11:03:21.945Z</time>
      </trkpt>
      <trkpt lat="48.56684" lon="12.60737">
        <ele>440.868924</ele>
        <time>2023-07-14T11:03:23.949Z</time>
      </trkpt>
      <trkpt lat="48.56689" lon="12.60751">
        <ele>440.899798</ele>
        <time>2023-07-14T11:03:25.953Z</time>
      </trkpt>
      <trkpt lat="48.56693" lon="12.60766">
        <ele>440.93085</ele>
        <time>2023-07-14T11:03:27.953Z</time>
      </trkpt>
      <trkpt lat="48.56697" lon="12.6078">
        <ele>440.96119</ele>
        <time>2023-07-14T11:03:29.949Z</time>
      </trkpt>
      <trkpt lat="48.56701" lon="12.60793">
        <ele>440.988874</ele>
        <time>2023-07-14T11:03:31.955Z</time>
      </trkpt>
      <trkpt lat="48.56705" lon="12.60805">
        <ele>441.015781</ele>
        <time>2023-07-14T11:03:33.942Z</time>
      </trkpt>
      <trkpt lat="48.5671" lon="12.60823">
        <ele>441.054411</ele>
        <time>2023-07-14T11:03:36.951Z</time>
      </trkpt>
      <trkpt lat="48.56716" lon="12.6084">
        <ele>441.092243</ele>
        <time>2023-07-14T11:03:39.957Z</time>
      </trkpt>
      <trkpt lat="48.5672" lon="12.60857">
        <ele>441.128935</ele>
        <time>2023-07-14T11:03:42.958Z</time>
      </trkpt>
      <trkpt lat="48.56725" lon="12.60874">
        <ele>441.163669</ele>
        <time>2023-07-14T11:03:45.961Z</time>
      </trkpt>
      <trkpt lat="48.5673" lon="12.6089">
        <ele>441.200091</ele>
        <time>2023-07-14T11:03:48.959Z</time>
      </trkpt>
      <trkpt lat="48.56736" lon="12.60907">
        <ele>441.236566</ele>
        <time>2023-07-14T11:03:51.946Z</time>
      </trkpt>
      <trkpt lat="48.5674" lon="12.60924">
        <ele>441.273534</ele>
        <time>2023-07-14T11:03:54.955Z</time>
      </trkpt>
      <trkpt lat="48.56746" lon="12.60941">
        <ele>441.309164</ele>
        <time>2023-07-14T11:03:57.961Z</time>
      </trkpt>
      <trkpt lat="48.5675" lon="12.60958">
        <ele>441.345557</ele>
        <time>2023-07-14T11:04:00.941Z</time>
      </trkpt>
      <trkpt lat="48.56756" lon="12.60974">
        <ele>441.378748</ele>
        <time>2023-07-14T11:04:03.940Z</time>
      </trkpt>
      <trkpt lat="48.56761" lon="12.60991">
        <ele>441.410746</ele>
        <time>2023-07-14T11:04:06.938Z</time>
      </trkpt>
      <trkpt lat="48.56765" lon="12.61007">
        <ele>441.442093</ele>
        <time>2023-07-14T11:04:09.942Z</time>
      </trkpt>
      <trkpt lat="48.5677" lon="12.61021">
        <ele>441.470459</ele>
        <time>2023-07-14T11:04:12.938Z</time>
      </trkpt>
      <trkpt lat="48.56774" lon="12.61035">
        <ele>441.497086</ele>
        <time>2023-07-14T11:04:15.949Z</time>
      </trkpt>
      <trkpt lat="48.56777" lon="12.6105">
        <ele>441.524819</ele>
        <time>2023-07-14T11:04:18.957Z</time>
      </trkpt>
      <trkpt lat="48.56782" lon="12.61064">
        <ele>441.55337</ele>
        <time>2023-07-14T11:04:21.951Z</time>
      </trkpt>
      <trkpt lat="48.56787" lon="12.61079">
        <ele>441.583577</ele>
        <time>2023-07-14T11:04:24.954Z</time>
      </trkpt>
      <trkpt lat="48.56792" lon="12.61096">
        <ele>441.615954</ele>
        <time>2023-07-14T11:04:27.948Z</time>
      </trkpt>
      <trkpt lat="48.56797" lon="12.61113">
        <ele>441.649923</ele>
        <time>2023-07-14T11:04:30.948Z</time>
      </trkpt>
      <trkpt lat="48.56802" lon="12.61132">
        <ele>441.685732</ele>
        <time>2023-07-14T11:04:33.941Z</time>
      </trkpt>
      <trkpt lat="48.56804" lon="12.61146">
        <ele>441.711319</ele>
        <time>2023-07-14T11:04:35.945Z</time>
      </trkpt>
      <trkpt lat="48.56805" lon="12.61161">
        <ele>441.737634</ele>
        <time>2023-07-14T11:04:37.953Z</time>
      </trkpt>
      <trkpt lat="48.56807" lon="12.61175">
        <ele>441.763949</ele>
        <time>2023-07-14T11:04:39.953Z</time>
      </trkpt>
      <trkpt lat="48.56809" lon="12.6119">
        <ele>441.790533</ele>
        <time>2023-07-14T11:04:41.944Z</time>
      </trkpt>
      <trkpt lat="48.56811" lon="12.61206">
        <ele>441.819788</ele>
        <time>2023-07-14T11:04:43.928Z</time>
      </trkpt>
      <trkpt lat="48.56813" lon="12.61223">
        <ele>441.805159</ele>
        <time>2023-07-14T11:04:45.940Z</time>
      </trkpt>
      <trkpt lat="48.56815" lon="12.6124">
        <ele>441.76426</ele>
        <time>2023-07-14T11:04:47.942Z</time>
      </trkpt>
      <trkpt lat="48.56817" lon="12.61257">
        <ele>441.724916</ele>
        <time>2023-07-14T11:04:49.944Z</time>
      </trkpt>
      <trkpt lat="48.56818" lon="12.61273">
        <ele>441.685958</ele>
        <time>2023-07-14T11:04:51.941Z</time>
      </trkpt>
      <trkpt lat="48.5682" lon="12.6129">
        <ele>441.647129</ele>
        <time>2023-07-14T11:04:53.935Z</time>
      </trkpt>
      <trkpt lat="48.56822" lon="12.61306">
        <ele>441.610078</ele>
        <time>2023-07-14T11:04:55.949Z</time>
      </trkpt>
      <trkpt lat="48.56823" lon="12.61321">
        <ele>441.573086</ele>
        <time>2023-07-14T11:04:57.955Z</time>
      </trkpt>
      <trkpt lat="48.56825" lon="12.61336">
        <ele>441.538844</ele>
        <time>2023-07-14T11:04:59.938Z</time>
      </trkpt>
      <trkpt lat="48.56827" lon="12.6135">
        <ele>441.505841</ele>
        <time>2023-07-14T11:05:01.946Z</time>
      </trkpt>
      <trkpt lat="48.56828" lon="12.61365">
        <ele>441.471026</ele>
        <time>2023-07-14T11:05:03.930Z</time>
      </trkpt>
      <trkpt lat="48.56831" lon="12.61379">
        <ele>441.436947</ele>
        <time>2023-07-14T11:05:05.939Z</time>
      </trkpt>
      <trkpt lat="48.56833" lon="12.61393">
        <ele>441.40233</ele>
        <time>2023-07-14T11:05:07.959Z</time>
      </trkpt>
      <trkpt lat="48.56836" lon="12.61407">
        <ele>441.368868</ele>
        <time>2023-07-14T11:05:09.949Z</time>
      </trkpt>
      <trkpt lat="48.5684" lon="12.61421">
        <ele>441.333165</ele>
        <time>2023-07-14T11:05:11.942Z</time>
      </trkpt>
      <trkpt lat="48.56843" lon="12.61436">
        <ele>441.297623</ele>
        <time>2023-07-14T11:05:13.929Z</time>
      </trkpt>
      <trkpt lat="48.56847" lon="12.61451">
        <ele>441.260617</ele>
        <time>2023-07-14T11:05:15.947Z</time>
      </trkpt>
      <trkpt lat="48.5685" lon="12.61466">
        <ele>441.223487</ele>
        <time>2023-07-14T11:05:17.957Z</time>
      </trkpt>
      <trkpt lat="48.56855" lon="12.61481">
        <ele>441.204648</ele>
        <time>2023-07-14T11:05:19.952Z</time>
      </trkpt>
      <trkpt lat="48.56859" lon="12.61497">
        <ele>441.221749</ele>
        <time>2023-07-14T11:05:21.946Z</time>
      </trkpt>
      <trkpt lat="48.56863" lon="12.61512">
        <ele>441.238816</ele>
        <time>2023-07-14T11:05:23.942Z</time>
      </trkpt>
      <trkpt lat="48.56868" lon="12.61527">
        <ele>441.256419</ele>
        <time>2023-07-14T11:05:25.959Z</time>
      </trkpt>
      <trkpt lat="48.56872" lon="12.61542">
        <ele>441.273453</ele>
        <time>2023-07-14T11:05:27.954Z</time>
      </trkpt>
      <trkpt lat="48.56876" lon="12.61557">
        <ele>441.289984</ele>
        <time>2023-07-14T11:05:29.949Z</time>
      </trkpt>
      <trkpt lat="48.5688" lon="12.61571">
        <ele>441.305762</ele>
        <time>2023-07-14T11:05:31.939Z</time>
      </trkpt>
      <trkpt lat="48.56886" lon="12.61588">
        <ele>441.325351</ele>
        <time>2023-07-14T11:05:34.942Z</time>
      </trkpt>
      <trkpt lat="48.5689" lon="12.61605">
        <ele>441.343314</ele>
        <time>2023-07-14T11:05:37.941Z</time>
      </trkpt>
      <trkpt lat="48.56894" lon="12.61622">
        <ele>441.361889</ele>
        <time>2023-07-14T11:05:40.952Z</time>
      </trkpt>
      <trkpt lat="48.56898" lon="12.61638">
        <ele>441.379756</ele>
        <time>2023-07-14T11:05:43.932Z</time>
      </trkpt>
      <trkpt lat="48.56902" lon="12.61653">
        <ele>441.396917</ele>
        <time>2023-07-14T11:05:46.938Z</time>
      </trkpt>
      <trkpt lat="48.56906" lon="12.61668">
        <ele>441.413596</ele>
        <time>2023-07-14T11:05:49.956Z</time>
      </trkpt>
      <trkpt lat="48.5691" lon="12.61683">
        <ele>441.430027</ele>
        <time>2023-07-14T11:05:52.973Z</time>
      </trkpt>
      <trkpt lat="48.56914" lon="12.61698">
        <ele>441.446684</ele>
        <time>2023-07-14T11:05:55.953Z</time>
      </trkpt>
      <trkpt lat="48.56919" lon="12.61711">
        <ele>441.462581</ele>
        <time>2023-07-14T11:05:58.943Z</time>
      </trkpt>
      <trkpt lat="48.56923" lon="12.61724">
        <ele>441.477263</ele>
        <time>2023-07-14T11:06:01.945Z</time>
      </trkpt>
      <trkpt lat="48.56928" lon="12.61738">
        <ele>441.42188</ele>
        <time>2023-07-14T11:06:04.940Z</time>
      </trkpt>
      <trkpt lat="48.56934" lon="12.61753">
        <ele>441.352104</ele>
        <time>2023-07-14T11:06:07.947Z</time>
      </trkpt>
      <trkpt lat="48.5694" lon="12.61767">
        <ele>441.280305</ele>
        <time>2023-07-14T11:06:10.946Z</time>
      </trkpt>
      <trkpt lat="48.56948" lon="12.61783">
        <ele>441.202434</ele>
        <time>2023-07-14T11:06:13.945Z</time>
      </trkpt>
      <trkpt lat="48.56955" lon="12.61799">
        <ele>441.12492</ele>
        <time>2023-07-14T11:06:16.958Z</time>
      </trkpt>
      <trkpt lat="48.56961" lon="12.61816">
        <ele>441.047539</ele>
        <time>2023-07-14T11:06:19.937Z</time>
      </trkpt>
      <trkpt lat="48.56966" lon="12.61828">
        <ele>440.991565</ele>
        <time>2023-07-14T11:06:21.945Z</time>
      </trkpt>
      <trkpt lat="48.5697" lon="12.61841">
        <ele>440.932636</ele>
        <time>2023-07-14T11:06:23.935Z</time>
      </trkpt>
      <trkpt lat="48.56975" lon="12.61853">
        <ele>440.873266</ele>
        <time>2023-07-14T11:06:25.963Z</time>
      </trkpt>
      <trkpt lat="48.56981" lon="12.61871">
        <ele>440.791979</ele>
        <time>2023-07-14T11:06:28.943Z</time>
      </trkpt>
      <trkpt lat="48.56986" lon="12.61883">
        <ele>440.736367</ele>
        <time>2023-07-14T11:06:30.936Z</time>
      </trkpt>
      <trkpt lat="48.56993" lon="12.619">
        <ele>440.655472</ele>
        <time>2023-07-14T11:06:33.946Z</time>
      </trkpt>
      <trkpt lat="48.56999" lon="12.6191">
        <ele>440.598951</ele>
        <time>2023-07-14T11:06:35.956Z</time>
      </trkpt>
      <trkpt lat="48.57004" lon="12.61922">
        <ele>440.541967</ele>
        <time>2023-07-14T11:06:37.952Z</time>
      </trkpt>
      <trkpt lat="48.5701" lon="12.61934">
        <ele>440.484675</ele>
        <time>2023-07-14T11:06:39.945Z</time>
      </trkpt>
      <trkpt lat="48.57014" lon="12.61945">
        <ele>440.429062</ele>
        <time>2023-07-14T11:06:41.950Z</time>
      </trkpt>
      <trkpt lat="48.57018" lon="12.61959">
        <ele>440.374707</ele>
        <time>2023-07-14T11:06:43.932Z</time>
      </trkpt>
      <trkpt lat="48.57022" lon="12.61972">
        <ele>440.338303</ele>
        <time>2023-07-14T11:06:45.959Z</time>
      </trkpt>
      <trkpt lat="48.57027" lon="12.61985">
        <ele>440.302874</ele>
        <time>2023-07-14T11:06:47.958Z</time>
      </trkpt>
      <trkpt lat="48.57032" lon="12.61998">
        <ele>440.266552</ele>
        <time>2023-07-14T11:06:49.947Z</time>
      </trkpt>
      <trkpt lat="48.57036" lon="12.6201">
        <ele>440.232809</ele>
        <time>2023-07-14T11:06:51.962Z</time>
      </trkpt>
      <trkpt lat="48.5704" lon="12.62023">
        <ele>440.198558</ele>
        <time>2023-07-14T11:06:53.939Z</time>
      </trkpt>
      <trkpt lat="48.57048" lon="12.6204">
        <ele>440.149594</ele>
        <time>2023-07-14T11:06:56.934Z</time>
      </trkpt>
      <trkpt lat="48.57053" lon="12.62051">
        <ele>440.115588</ele>
        <time>2023-07-14T11:06:58.931Z</time>
      </trkpt>
      <trkpt lat="48.57059" lon="12.62063">
        <ele>440.079572</ele>
        <time>2023-07-14T11:07:00.940Z</time>
      </trkpt>
      <trkpt lat="48.57063" lon="12.62076">
        <ele>440.045724</ele>
        <time>2023-07-14T11:07:02.942Z</time>
      </trkpt>
      <trkpt lat="48.57067" lon="12.62089">
        <ele>440.010287</ele>
        <time>2023-07-14T11:07:04.944Z</time>
      </trkpt>
      <trkpt lat="48.57071" lon="12.62102">
        <ele>439.975371</ele>
        <time>2023-07-14T11:07:06.941Z</time>
      </trkpt>
      <trkpt lat="48.57076" lon="12.62115">
        <ele>439.939473</ele>
        <time>2023-07-14T11:07:08.936Z</time>
      </trkpt>
      <trkpt lat="48.57082" lon="12.62127">
        <ele>439.902696</ele>
        <time>2023-07-14T11:07:10.942Z</time>
      </trkpt>
      <trkpt lat="48.5709" lon="12.62138">
        <ele>439.863917</ele>
        <time>2023-07-14T11:07:12.923Z</time>
      </trkpt>
      <trkpt lat="48.57097" lon="12.6215">
        <ele>439.823594</ele>
        <time>2023-07-14T11:07:14.955Z</time>
      </trkpt>
      <trkpt lat="48.57104" lon="12.62163">
        <ele>439.783326</ele>
        <time>2023-07-14T11:07:16.928Z</time>
      </trkpt>
      <trkpt lat="48.5711" lon="12.62177">
        <ele>439.743474</ele>
        <time>2023-07-14T11:07:18.947Z</time>
      </trkpt>
      <trkpt lat="48.57116" lon="12.62191">
        <ele>439.683756</ele>
        <time>2023-07-14T11:07:20.945Z</time>
      </trkpt>
      <trkpt lat="48.57122" lon="12.62206">
        <ele>439.598513</ele>
        <time>2023-07-14T11:07:22.962Z</time>
      </trkpt>
      <trkpt lat="48.57127" lon="12.6222">
        <ele>439.514142</ele>
        <time>2023-07-14T11:07:24.941Z</time>
      </trkpt>
      <trkpt lat="48.57132" lon="12.62236">
        <ele>439.428995</ele>
        <time>2023-07-14T11:07:26.926Z</time>
      </trkpt>
      <trkpt lat="48.57137" lon="12.62251">
        <ele>439.344738</ele>
        <time>2023-07-14T11:07:28.941Z</time>
      </trkpt>
      <trkpt lat="48.57142" lon="12.62265">
        <ele>439.264585</ele>
        <time>2023-07-14T11:07:30.950Z</time>
      </trkpt>
      <trkpt lat="48.57146" lon="12.62278">
        <ele>439.190133</ele>
        <time>2023-07-14T11:07:32.937Z</time>
      </trkpt>
      <trkpt lat="48.57152" lon="12.62291">
        <ele>439.113051</ele>
        <time>2023-07-14T11:07:34.942Z</time>
      </trkpt>
      <trkpt lat="48.57158" lon="12.62304">
        <ele>439.033051</ele>
        <time>2023-07-14T11:07:36.938Z</time>
      </trkpt>
      <trkpt lat="48.57164" lon="12.62319">
        <ele>438.948466</ele>
        <time>2023-07-14T11:07:38.945Z</time>
      </trkpt>
      <trkpt lat="48.57169" lon="12.62333">
        <ele>438.866066</ele>
        <time>2023-07-14T11:07:40.922Z</time>
      </trkpt>
      <trkpt lat="48.57175" lon="12.62348">
        <ele>438.778403</ele>
        <time>2023-07-14T11:07:42.955Z</time>
      </trkpt>
      <trkpt lat="48.57181" lon="12.62364">
        <ele>438.691484</ele>
        <time>2023-07-14T11:07:44.941Z</time>
      </trkpt>
      <trkpt lat="48.57186" lon="12.62378">
        <ele>438.608415</ele>
        <time>2023-07-14T11:07:46.943Z</time>
      </trkpt>
      <trkpt lat="48.57192" lon="12.62392">
        <ele>438.523417</ele>
        <time>2023-07-14T11:07:48.949Z</time>
      </trkpt>
      <trkpt lat="48.57199" lon="12.62406">
        <ele>438.437578</ele>
        <time>2023-07-14T11:07:50.942Z</time>
      </trkpt>
      <trkpt lat="48.57206" lon="12.62419">
        <ele>438.35427</ele>
        <time>2023-07-14T11:07:52.939Z</time>
      </trkpt>
      <trkpt lat="48.57213" lon="12.62431">
        <ele>438.269959</ele>
        <time>2023-07-14T11:07:54.932Z</time>
      </trkpt>
      <trkpt lat="48.57219" lon="12.62443">
        <ele>438.193216</ele>
        <time>2023-07-14T11:07:56.953Z</time>
      </trkpt>
      <trkpt lat="48.57223" lon="12.62456">
        <ele>438.11628</ele>
        <time>2023-07-14T11:07:58.955Z</time>
      </trkpt>
      <trkpt lat="48.57229" lon="12.62469">
        <ele>438.036509</ele>
        <time>2023-07-14T11:08:00.936Z</time>
      </trkpt>
      <trkpt lat="48.57235" lon="12.6248">
        <ele>437.963166</ele>
        <time>2023-07-14T11:08:02.941Z</time>
      </trkpt>
      <trkpt lat="48.57241" lon="12.62492">
        <ele>437.882371</ele>
        <time>2023-07-14T11:08:04.936Z</time>
      </trkpt>
      <trkpt lat="48.57246" lon="12.62504">
        <ele>437.806883</ele>
        <time>2023-07-14T11:08:06.942Z</time>
      </trkpt>
      <trkpt lat="48.57252" lon="12.62516">
        <ele>437.733601</ele>
        <time>2023-07-14T11:08:08.950Z</time>
      </trkpt>
      <trkpt lat="48.57257" lon="12.62528">
        <ele>437.657266</ele>
        <time>2023-07-14T11:08:10.921Z</time>
      </trkpt>
      <trkpt lat="48.57263" lon="12.6254">
        <ele>437.579651</ele>
        <time>2023-07-14T11:08:12.943Z</time>
      </trkpt>
      <trkpt lat="48.57268" lon="12.62551">
        <ele>437.508031</ele>
        <time>2023-07-14T11:08:14.936Z</time>
      </trkpt>
      <trkpt lat="48.57275" lon="12.62563">
        <ele>437.428805</ele>
        <time>2023-07-14T11:08:16.934Z</time>
      </trkpt>
      <trkpt lat="48.5728" lon="12.62574">
        <ele>437.353977</ele>
        <time>2023-07-14T11:08:18.933Z</time>
      </trkpt>
      <trkpt lat="48.57287" lon="12.62585">
        <ele>437.277832</ele>
        <time>2023-07-14T11:08:20.932Z</time>
      </trkpt>
      <trkpt lat="48.57292" lon="12.62598">
        <ele>437.20066</ele>
        <time>2023-07-14T11:08:22.938Z</time>
      </trkpt>
      <trkpt lat="48.57299" lon="12.62608">
        <ele>437.121886</ele>
        <time>2023-07-14T11:08:25.025Z</time>
      </trkpt>
      <trkpt lat="48.57306" lon="12.6262">
        <ele>437.04405</ele>
        <time>2023-07-14T11:08:26.937Z</time>
      </trkpt>
      <trkpt lat="48.57313" lon="12.62634">
        <ele>436.951581</ele>
        <time>2023-07-14T11:08:29.934Z</time>
      </trkpt>
      <trkpt lat="48.57316" lon="12.62651">
        <ele>437.249447</ele>
        <time>2023-07-14T11:08:33.927Z</time>
      </trkpt>
      <trkpt lat="48.57318" lon="12.62666">
        <ele>437.505064</ele>
        <time>2023-07-14T11:08:37.931Z</time>
      </trkpt>
      <trkpt lat="48.57312" lon="12.62676">
        <ele>437.743292</ele>
        <time>2023-07-14T11:08:41.930Z</time>
      </trkpt>
      <trkpt lat="48.57303" lon="12.62686">
        <ele>438.030047</ele>
        <time>2023-07-14T11:08:45.934Z</time>
      </trkpt>
      <trkpt lat="48.57296" lon="12.62695">
        <ele>438.272441</ele>
        <time>2023-07-14T11:08:48.961Z</time>
      </trkpt>
      <trkpt lat="48.57288" lon="12.62704">
        <ele>438.531365</ele>
        <time>2023-07-14T11:08:51.944Z</time>
      </trkpt>
      <trkpt lat="48.5728" lon="12.62712">
        <ele>438.78227</ele>
        <time>2023-07-14T11:08:54.931Z</time>
      </trkpt>
      <trkpt lat="48.57272" lon="12.62721">
        <ele>439.047405</ele>
        <time>2023-07-14T11:08:57.938Z</time>
      </trkpt>
      <trkpt lat="48.57263" lon="12.6273">
        <ele>439.30956</ele>
        <time>2023-07-14T11:09:00.942Z</time>
      </trkpt>
      <trkpt lat="48.57256" lon="12.6274">
        <ele>439.564802</ele>
        <time>2023-07-14T11:09:03.925Z</time>
      </trkpt>
      <trkpt lat="48.57247" lon="12.62749">
        <ele>439.828937</ele>
        <time>2023-07-14T11:09:07.011Z</time>
      </trkpt>
      <trkpt lat="48.57239" lon="12.62759">
        <ele>440.101278</ele>
        <time>2023-07-14T11:09:09.950Z</time>
      </trkpt>
      <trkpt lat="48.57231" lon="12.62768">
        <ele>440.377713</ele>
        <time>2023-07-14T11:09:12.946Z</time>
      </trkpt>
      <trkpt lat="48.57222" lon="12.62778">
        <ele>440.64797</ele>
        <time>2023-07-14T11:09:15.944Z</time>
      </trkpt>
      <trkpt lat="48.57214" lon="12.62787">
        <ele>440.906912</ele>
        <time>2023-07-14T11:09:18.951Z</time>
      </trkpt>
      <trkpt lat="48.57206" lon="12.62795">
        <ele>441.164851</ele>
        <time>2023-07-14T11:09:21.953Z</time>
      </trkpt>
      <trkpt lat="48.57199" lon="12.62805">
        <ele>441.413705</ele>
        <time>2023-07-14T11:09:24.962Z</time>
      </trkpt>
      <trkpt lat="48.57191" lon="12.62813">
        <ele>441.603796</ele>
        <time>2023-07-14T11:09:27.946Z</time>
      </trkpt>
      <trkpt lat="48.57183" lon="12.62823">
        <ele>441.619706</ele>
        <time>2023-07-14T11:09:32.948Z</time>
      </trkpt>
      <trkpt lat="48.57186" lon="12.62838">
        <ele>441.634791</ele>
        <time>2023-07-14T11:09:38.927Z</time>
      </trkpt>
      <trkpt lat="48.57194" lon="12.62848">
        <ele>441.650812</ele>
        <time>2023-07-14T11:09:42.922Z</time>
      </trkpt>
      <trkpt lat="48.57203" lon="12.62858">
        <ele>441.668358</ele>
        <time>2023-07-14T11:09:46.949Z</time>
      </trkpt>
      <trkpt lat="48.57211" lon="12.62868">
        <ele>441.684442</ele>
        <time>2023-07-14T11:09:49.954Z</time>
      </trkpt>
      <trkpt lat="48.57222" lon="12.62879">
        <ele>441.704954</ele>
        <time>2023-07-14T11:09:52.942Z</time>
      </trkpt>
      <trkpt lat="48.57231" lon="12.62886">
        <ele>441.720089</ele>
        <time>2023-07-14T11:09:54.935Z</time>
      </trkpt>
      <trkpt lat="48.57241" lon="12.62892">
        <ele>441.736796</ele>
        <time>2023-07-14T11:09:56.940Z</time>
      </trkpt>
      <trkpt lat="48.57252" lon="12.62896">
        <ele>441.753992</ele>
        <time>2023-07-14T11:09:58.946Z</time>
      </trkpt>
      <trkpt lat="48.57262" lon="12.62901">
        <ele>441.769909</ele>
        <time>2023-07-14T11:10:00.938Z</time>
      </trkpt>
      <trkpt lat="48.57273" lon="12.62906">
        <ele>441.787337</ele>
        <time>2023-07-14T11:10:02.936Z</time>
      </trkpt>
      <trkpt lat="48.57283" lon="12.62912">
        <ele>441.803755</ele>
        <time>2023-07-14T11:10:04.935Z</time>
      </trkpt>
      <trkpt lat="48.57293" lon="12.62919">
        <ele>441.82098</ele>
        <time>2023-07-14T11:10:06.958Z</time>
      </trkpt>
      <trkpt lat="48.57304" lon="12.62926">
        <ele>441.838708</ele>
        <time>2023-07-14T11:10:08.943Z</time>
      </trkpt>
      <trkpt lat="48.57314" lon="12.62932">
        <ele>441.856254</ele>
        <time>2023-07-14T11:10:10.938Z</time>
      </trkpt>
      <trkpt lat="48.57324" lon="12.62939">
        <ele>441.872919</ele>
        <time>2023-07-14T11:10:12.948Z</time>
      </trkpt>
      <trkpt lat="48.57335" lon="12.62945">
        <ele>441.774834</ele>
        <time>2023-07-14T11:10:14.942Z</time>
      </trkpt>
      <trkpt lat="48.57346" lon="12.62952">
        <ele>441.643915</ele>
        <time>2023-07-14T11:10:16.942Z</time>
      </trkpt>
      <trkpt lat="48.57357" lon="12.62956">
        <ele>441.513968</ele>
        <time>2023-07-14T11:10:18.947Z</time>
      </trkpt>
      <trkpt lat="48.57369" lon="12.62959">
        <ele>441.389836</ele>
        <time>2023-07-14T11:10:20.952Z</time>
      </trkpt>
      <trkpt lat="48.57379" lon="12.62961">
        <ele>441.273627</ele>
        <time>2023-07-14T11:10:22.921Z</time>
      </trkpt>
      <trkpt lat="48.57388" lon="12.62966">
        <ele>441.166242</ele>
        <time>2023-07-14T11:10:24.932Z</time>
      </trkpt>
      <trkpt lat="48.57399" lon="12.62968">
        <ele>441.052488</ele>
        <time>2023-07-14T11:10:26.938Z</time>
      </trkpt>
      <trkpt lat="48.57409" lon="12.62967">
        <ele>440.936691</ele>
        <time>2023-07-14T11:10:28.940Z</time>
      </trkpt>
      <trkpt lat="48.57419" lon="12.62967">
        <ele>440.83111</ele>
        <time>2023-07-14T11:10:30.947Z</time>
      </trkpt>
      <trkpt lat="48.57429" lon="12.62968">
        <ele>440.720019</ele>
        <time>2023-07-14T11:10:32.947Z</time>
      </trkpt>
      <trkpt lat="48.57438" lon="12.62967">
        <ele>440.620979</ele>
        <time>2023-07-14T11:10:34.951Z</time>
      </trkpt>
      <trkpt lat="48.57447" lon="12.62966">
        <ele>440.515286</ele>
        <time>2023-07-14T11:10:36.962Z</time>
      </trkpt>
      <trkpt lat="48.57457" lon="12.62966">
        <ele>440.404214</ele>
        <time>2023-07-14T11:10:38.935Z</time>
      </trkpt>
      <trkpt lat="48.57468" lon="12.62967">
        <ele>440.285411</ele>
        <time>2023-07-14T11:10:40.946Z</time>
      </trkpt>
      <trkpt lat="48.57479" lon="12.62967">
        <ele>440.169941</ele>
        <time>2023-07-14T11:10:42.947Z</time>
      </trkpt>
      <trkpt lat="48.57489" lon="12.62968">
        <ele>440.053098</ele>
        <time>2023-07-14T11:10:44.941Z</time>
      </trkpt>
      <trkpt lat="48.575" lon="12.62969">
        <ele>439.940249</ele>
        <time>2023-07-14T11:10:46.934Z</time>
      </trkpt>
      <trkpt lat="48.5751" lon="12.62972">
        <ele>439.869581</ele>
        <time>2023-07-14T11:10:48.928Z</time>
      </trkpt>
      <trkpt lat="48.5752" lon="12.62975">
        <ele>439.821619</ele>
        <time>2023-07-14T11:10:50.952Z</time>
      </trkpt>
      <trkpt lat="48.5753" lon="12.6298">
        <ele>439.774205</ele>
        <time>2023-07-14T11:10:52.927Z</time>
      </trkpt>
      <trkpt lat="48.5754" lon="12.62986">
        <ele>439.725882</ele>
        <time>2023-07-14T11:10:54.927Z</time>
      </trkpt>
      <trkpt lat="48.5755" lon="12.62993">
        <ele>439.676763</ele>
        <time>2023-07-14T11:10:56.945Z</time>
      </trkpt>
      <trkpt lat="48.5756" lon="12.62999">
        <ele>439.628706</ele>
        <time>2023-07-14T11:10:58.954Z</time>
      </trkpt>
      <trkpt lat="48.57569" lon="12.63007">
        <ele>439.582005</ele>
        <time>2023-07-14T11:11:00.940Z</time>
      </trkpt>
      <trkpt lat="48.57578" lon="12.63016">
        <ele>439.533375</ele>
        <time>2023-07-14T11:11:02.947Z</time>
      </trkpt>
      <trkpt lat="48.57587" lon="12.63024">
        <ele>439.486223</ele>
        <time>2023-07-14T11:11:04.927Z</time>
      </trkpt>
      <trkpt lat="48.57595" lon="12.63034">
        <ele>439.437367</ele>
        <time>2023-07-14T11:11:06.932Z</time>
      </trkpt>
      <trkpt lat="48.57604" lon="12.63046">
        <ele>439.385362</ele>
        <time>2023-07-14T11:11:08.913Z</time>
      </trkpt>
      <trkpt lat="48.57611" lon="12.63059">
        <ele>439.334961</ele>
        <time>2023-07-14T11:11:10.938Z</time>
      </trkpt>
      <trkpt lat="48.57618" lon="12.63072">
        <ele>439.283918</ele>
        <time>2023-07-14T11:11:12.944Z</time>
      </trkpt>
      <trkpt lat="48.57624" lon="12.63087">
        <ele>439.232202</ele>
        <time>2023-07-14T11:11:14.922Z</time>
      </trkpt>
      <trkpt lat="48.5763" lon="12.63102">
        <ele>439.181227</ele>
        <time>2023-07-14T11:11:16.928Z</time>
      </trkpt>
      <trkpt lat="48.57635" lon="12.63116">
        <ele>439.133529</ele>
        <time>2023-07-14T11:11:18.947Z</time>
      </trkpt>
      <trkpt lat="48.57638" lon="12.63129">
        <ele>439.093055</ele>
        <time>2023-07-14T11:11:20.938Z</time>
      </trkpt>
      <trkpt lat="48.57643" lon="12.63141">
        <ele>439.106071</ele>
        <time>2023-07-14T11:11:22.931Z</time>
      </trkpt>
      <trkpt lat="48.57647" lon="12.63153">
        <ele>439.125303</ele>
        <time>2023-07-14T11:11:24.924Z</time>
      </trkpt>
      <trkpt lat="48.57654" lon="12.63169">
        <ele>439.152522</ele>
        <time>2023-07-14T11:11:27.949Z</time>
      </trkpt>
      <trkpt lat="48.5766" lon="12.63186">
        <ele>439.179392</ele>
        <time>2023-07-14T11:11:30.948Z</time>
      </trkpt>
      <trkpt lat="48.57668" lon="12.63202">
        <ele>439.206718</ele>
        <time>2023-07-14T11:11:33.920Z</time>
      </trkpt>
      <trkpt lat="48.57672" lon="12.63214">
        <ele>439.226353</ele>
        <time>2023-07-14T11:11:35.958Z</time>
      </trkpt>
      <trkpt lat="48.57679" lon="12.63229">
        <ele>439.252751</ele>
        <time>2023-07-14T11:11:38.941Z</time>
      </trkpt>
      <trkpt lat="48.57686" lon="12.63245">
        <ele>439.279261</ele>
        <time>2023-07-14T11:11:41.922Z</time>
      </trkpt>
      <trkpt lat="48.57693" lon="12.6326">
        <ele>439.304018</ele>
        <time>2023-07-14T11:11:44.931Z</time>
      </trkpt>
      <trkpt lat="48.57703" lon="12.63259">
        <ele>439.326293</ele>
        <time>2023-07-14T11:12:03.931Z</time>
      </trkpt>
      <trkpt lat="48.57703" lon="12.63249">
        <ele>439.340022</ele>
        <time>2023-07-14T11:12:26.057Z</time>
      </trkpt>
      <trkpt lat="48.57707" lon="12.63267">
        <ele>439.366637</ele>
        <time>2023-07-14T11:52:06.936Z</time>
      </trkpt>
      <trkpt lat="48.57713" lon="12.63279">
        <ele>439.387679</ele>
        <time>2023-07-14T11:52:10.958Z</time>
      </trkpt>
      <trkpt lat="48.5772" lon="12.63293">
        <ele>439.412319</ele>
        <time>2023-07-14T11:52:14.918Z</time>
      </trkpt>
      <trkpt lat="48.57726" lon="12.63308">
        <ele>439.436844</ele>
        <time>2023-07-14T11:52:18.927Z</time>
      </trkpt>
      <trkpt lat="48.57733" lon="12.63321">
        <ele>439.459862</ele>
        <time>2023-07-14T11:52:22.926Z</time>
      </trkpt>
      <trkpt lat="48.57738" lon="12.63335">
        <ele>439.398084</ele>
        <time>2023-07-14T11:52:26.959Z</time>
      </trkpt>
      <trkpt lat="48.57743" lon="12.63349">
        <ele>439.266856</ele>
        <time>2023-07-14T11:52:31.948Z</time>
      </trkpt>
      <trkpt lat="48.57747" lon="12.63363">
        <ele>439.147095</ele>
        <time>2023-07-14T11:52:35.970Z</time>
      </trkpt>
      <trkpt lat="48.57752" lon="12.6338">
        <ele>439.006088</ele>
        <time>2023-07-14T11:52:39.959Z</time>
      </trkpt>
      <trkpt lat="48.57756" lon="12.63395">
        <ele>438.879774</ele>
        <time>2023-07-14T11:52:43.950Z</time>
      </trkpt>
      <trkpt lat="48.5776" lon="12.63408">
        <ele>438.759254</ele>
        <time>2023-07-14T11:52:47.941Z</time>
      </trkpt>
      <trkpt lat="48.57764" lon="12.63423">
        <ele>438.63615</ele>
        <time>2023-07-14T11:52:51.943Z</time>
      </trkpt>
      <trkpt lat="48.57768" lon="12.63438">
        <ele>438.504995</ele>
        <time>2023-07-14T11:52:55.936Z</time>
      </trkpt>
      <trkpt lat="48.57773" lon="12.63451">
        <ele>438.387616</ele>
        <time>2023-07-14T11:52:59.948Z</time>
      </trkpt>
      <trkpt lat="48.57782" lon="12.63454">
        <ele>438.273714</ele>
        <time>2023-07-14T11:53:03.937Z</time>
      </trkpt>
      <trkpt lat="48.57789" lon="12.63463">
        <ele>438.165551</ele>
        <time>2023-07-14T11:53:07.955Z</time>
      </trkpt>
      <trkpt lat="48.57794" lon="12.63478">
        <ele>438.034794</ele>
        <time>2023-07-14T11:53:11.947Z</time>
      </trkpt>
      <trkpt lat="48.57791" lon="12.63494">
        <ele>437.896744</ele>
        <time>2023-07-14T11:53:15.950Z</time>
      </trkpt>
      <trkpt lat="48.57788" lon="12.63508">
        <ele>437.783802</ele>
        <time>2023-07-14T11:53:18.955Z</time>
      </trkpt>
      <trkpt lat="48.57789" lon="12.63524">
        <ele>437.657494</ele>
        <time>2023-07-14T11:53:22.950Z</time>
      </trkpt>
      <trkpt lat="48.57792" lon="12.6354">
        <ele>437.528801</ele>
        <time>2023-07-14T11:53:26.979Z</time>
      </trkpt>
      <trkpt lat="48.57795" lon="12.63553">
        <ele>437.415897</ele>
        <time>2023-07-14T11:53:30.947Z</time>
      </trkpt>
      <trkpt lat="48.57798" lon="12.63567">
        <ele>437.277949</ele>
        <time>2023-07-14T11:53:34.947Z</time>
      </trkpt>
      <trkpt lat="48.57804" lon="12.63579">
        <ele>437.081796</ele>
        <time>2023-07-14T11:53:42.938Z</time>
      </trkpt>
      <trkpt lat="48.57813" lon="12.63577">
        <ele>436.883509</ele>
        <time>2023-07-14T11:53:48.941Z</time>
      </trkpt>
      <trkpt lat="48.57823" lon="12.63574">
        <ele>436.668885</ele>
        <time>2023-07-14T11:53:55.954Z</time>
      </trkpt>
      <trkpt lat="48.57827" lon="12.63587">
        <ele>436.475801</ele>
        <time>2023-07-14T11:54:02.945Z</time>
      </trkpt>
      <trkpt lat="48.57836" lon="12.63591">
        <ele>436.26784</ele>
        <time>2023-07-14T11:54:07.945Z</time>
      </trkpt>
      <trkpt lat="48.57846" lon="12.63585">
        <ele>436.042654</ele>
        <time>2023-07-14T11:54:11.942Z</time>
      </trkpt>
      <trkpt lat="48.57857" lon="12.63586">
        <ele>435.825385</ele>
        <time>2023-07-14T11:54:15.949Z</time>
      </trkpt>
      <trkpt lat="48.57855" lon="12.63601">
        <ele>435.61691</ele>
        <time>2023-07-14T11:54:19.936Z</time>
      </trkpt>
      <trkpt lat="48.57848" lon="12.63612">
        <ele>435.396809</ele>
        <time>2023-07-14T11:54:23.967Z</time>
      </trkpt>
      <trkpt lat="48.5785" lon="12.63627">
        <ele>435.181464</ele>
        <time>2023-07-14T11:54:29.955Z</time>
      </trkpt>
      <trkpt lat="48.57856" lon="12.63638">
        <ele>434.980513</ele>
        <time>2023-07-14T11:54:35.939Z</time>
      </trkpt>
      <trkpt lat="48.57854" lon="12.63632">
        <ele>434.88256</ele>
        <time>2023-07-14T11:55:12.830Z</time>
      </trkpt>
      <trkpt lat="48.57854" lon="12.6366">
        <ele>434.490181</ele>
        <time>2023-07-14T12:15:12.963Z</time>
      </trkpt>
      <trkpt lat="48.57844" lon="12.63666">
        <ele>434.271327</ele>
        <time>2023-07-14T12:15:18.948Z</time>
      </trkpt>
      <trkpt lat="48.57836" lon="12.63673">
        <ele>434.071962</ele>
        <time>2023-07-14T12:15:24.946Z</time>
      </trkpt>
      <trkpt lat="48.57829" lon="12.63661">
        <ele>433.841942</ele>
        <time>2023-07-14T12:15:31.942Z</time>
      </trkpt>
      <trkpt lat="48.57825" lon="12.63646">
        <ele>433.618891</ele>
        <time>2023-07-14T12:15:35.941Z</time>
      </trkpt>
      <trkpt lat="48.57821" lon="12.63631">
        <ele>433.513709</ele>
        <time>2023-07-14T12:15:39.931Z</time>
      </trkpt>
      <trkpt lat="48.5782" lon="12.63615">
        <ele>433.544478</ele>
        <time>2023-07-14T12:15:43.942Z</time>
      </trkpt>
      <trkpt lat="48.57821" lon="12.636">
        <ele>433.576267</ele>
        <time>2023-07-14T12:15:47.933Z</time>
      </trkpt>
      <trkpt lat="48.57818" lon="12.63585">
        <ele>433.606429</ele>
        <time>2023-07-14T12:15:51.927Z</time>
      </trkpt>
      <trkpt lat="48.57807" lon="12.6358">
        <ele>433.640108</ele>
        <time>2023-07-14T12:15:55.934Z</time>
      </trkpt>
      <trkpt lat="48.57798" lon="12.63586">
        <ele>433.668718</ele>
        <time>2023-07-14T12:16:00.953Z</time>
      </trkpt>
      <trkpt lat="48.57792" lon="12.63596">
        <ele>433.696185</ele>
        <time>2023-07-14T12:16:14.934Z</time>
      </trkpt>
      <trkpt lat="48.57791" lon="12.63611">
        <ele>433.725122</ele>
        <time>2023-07-14T12:16:19.938Z</time>
      </trkpt>
      <trkpt lat="48.57795" lon="12.63627">
        <ele>433.759905</ele>
        <time>2023-07-14T12:16:23.937Z</time>
      </trkpt>
      <trkpt lat="48.57799" lon="12.63642">
        <ele>433.791221</ele>
        <time>2023-07-14T12:16:26.924Z</time>
      </trkpt>
      <trkpt lat="48.57804" lon="12.63658">
        <ele>433.825663</ele>
        <time>2023-07-14T12:16:29.934Z</time>
      </trkpt>
      <trkpt lat="48.5781" lon="12.63675">
        <ele>433.86448</ele>
        <time>2023-07-14T12:16:32.949Z</time>
      </trkpt>
      <trkpt lat="48.57814" lon="12.63688">
        <ele>433.891388</ele>
        <time>2023-07-14T12:16:34.937Z</time>
      </trkpt>
      <trkpt lat="48.5782" lon="12.63703">
        <ele>433.926784</ele>
        <time>2023-07-14T12:16:37.954Z</time>
      </trkpt>
      <trkpt lat="48.57825" lon="12.63716">
        <ele>433.957655</ele>
        <time>2023-07-14T12:16:40.956Z</time>
      </trkpt>
      <trkpt lat="48.5783" lon="12.63731">
        <ele>433.991701</ele>
        <time>2023-07-14T12:16:45.935Z</time>
      </trkpt>
      <trkpt lat="48.57836" lon="12.63745">
        <ele>434.02242</ele>
        <time>2023-07-14T12:16:48.938Z</time>
      </trkpt>
      <trkpt lat="48.57843" lon="12.63759">
        <ele>434.150947</ele>
        <time>2023-07-14T12:16:51.933Z</time>
      </trkpt>
      <trkpt lat="48.57849" lon="12.63773">
        <ele>434.332332</ele>
        <time>2023-07-14T12:16:54.936Z</time>
      </trkpt>
      <trkpt lat="48.57856" lon="12.63787">
        <ele>434.517599</ele>
        <time>2023-07-14T12:16:57.943Z</time>
      </trkpt>
      <trkpt lat="48.57862" lon="12.63803">
        <ele>434.719446</ele>
        <time>2023-07-14T12:17:00.935Z</time>
      </trkpt>
      <trkpt lat="48.5787" lon="12.63819">
        <ele>434.923315</ele>
        <time>2023-07-14T12:17:03.953Z</time>
      </trkpt>
      <trkpt lat="48.57877" lon="12.63834">
        <ele>435.129768</ele>
        <time>2023-07-14T12:17:06.928Z</time>
      </trkpt>
      <trkpt lat="48.57883" lon="12.63845">
        <ele>435.280739</ele>
        <time>2023-07-14T12:17:08.936Z</time>
      </trkpt>
      <trkpt lat="48.57889" lon="12.63856">
        <ele>435.426041</ele>
        <time>2023-07-14T12:17:10.953Z</time>
      </trkpt>
      <trkpt lat="48.57896" lon="12.63872">
        <ele>435.633248</ele>
        <time>2023-07-14T12:17:13.921Z</time>
      </trkpt>
      <trkpt lat="48.57901" lon="12.63892">
        <ele>435.852899</ele>
        <time>2023-07-14T12:17:16.934Z</time>
      </trkpt>
      <trkpt lat="48.57906" lon="12.63905">
        <ele>436.020948</ele>
        <time>2023-07-14T12:17:18.941Z</time>
      </trkpt>
      <trkpt lat="48.57912" lon="12.63917">
        <ele>436.186349</ele>
        <time>2023-07-14T12:17:20.936Z</time>
      </trkpt>
      <trkpt lat="48.57919" lon="12.63931">
        <ele>436.360923</ele>
        <time>2023-07-14T12:17:22.933Z</time>
      </trkpt>
      <trkpt lat="48.57925" lon="12.63943">
        <ele>436.529103</ele>
        <time>2023-07-14T12:17:24.942Z</time>
      </trkpt>
      <trkpt lat="48.5793" lon="12.63955">
        <ele>436.681197</ele>
        <time>2023-07-14T12:17:26.932Z</time>
      </trkpt>
      <trkpt lat="48.57936" lon="12.63972">
        <ele>436.881441</ele>
        <time>2023-07-14T12:17:29.955Z</time>
      </trkpt>
      <trkpt lat="48.57942" lon="12.63987">
        <ele>436.927089</ele>
        <time>2023-07-14T12:17:32.952Z</time>
      </trkpt>
      <trkpt lat="48.57946" lon="12.64">
        <ele>436.918027</ele>
        <time>2023-07-14T12:17:35.957Z</time>
      </trkpt>
      <trkpt lat="48.57951" lon="12.64016">
        <ele>436.906841</ele>
        <time>2023-07-14T12:17:39.940Z</time>
      </trkpt>
      <trkpt lat="48.57955" lon="12.64033">
        <ele>436.895863</ele>
        <time>2023-07-14T12:17:43.947Z</time>
      </trkpt>
      <trkpt lat="48.57959" lon="12.64045">
        <ele>436.887386</ele>
        <time>2023-07-14T12:17:46.948Z</time>
      </trkpt>
      <trkpt lat="48.57962" lon="12.6406">
        <ele>436.87818</ele>
        <time>2023-07-14T12:17:49.939Z</time>
      </trkpt>
      <trkpt lat="48.57966" lon="12.64074">
        <ele>436.868276</ele>
        <time>2023-07-14T12:17:52.937Z</time>
      </trkpt>
      <trkpt lat="48.57968" lon="12.64091">
        <ele>436.857789</ele>
        <time>2023-07-14T12:17:55.942Z</time>
      </trkpt>
      <trkpt lat="48.57972" lon="12.64109">
        <ele>436.845988</ele>
        <time>2023-07-14T12:17:58.943Z</time>
      </trkpt>
      <trkpt lat="48.57975" lon="12.64126">
        <ele>436.834968</ele>
        <time>2023-07-14T12:18:01.936Z</time>
      </trkpt>
      <trkpt lat="48.57978" lon="12.64143">
        <ele>436.823939</ele>
        <time>2023-07-14T12:18:04.938Z</time>
      </trkpt>
      <trkpt lat="48.57982" lon="12.64159">
        <ele>436.813297</ele>
        <time>2023-07-14T12:18:07.946Z</time>
      </trkpt>
      <trkpt lat="48.57988" lon="12.64177">
        <ele>436.801447</ele>
        <time>2023-07-14T12:18:10.940Z</time>
      </trkpt>
      <trkpt lat="48.57994" lon="12.64193">
        <ele>436.789383</ele>
        <time>2023-07-14T12:18:13.931Z</time>
      </trkpt>
      <trkpt lat="48.58" lon="12.6421">
        <ele>436.777665</ele>
        <time>2023-07-14T12:18:16.942Z</time>
      </trkpt>
      <trkpt lat="48.58007" lon="12.64226">
        <ele>436.770077</ele>
        <time>2023-07-14T12:18:19.951Z</time>
      </trkpt>
      <trkpt lat="48.58013" lon="12.64243">
        <ele>436.887177</ele>
        <time>2023-07-14T12:18:22.938Z</time>
      </trkpt>
      <trkpt lat="48.58019" lon="12.6426">
        <ele>437.006183</ele>
        <time>2023-07-14T12:18:25.941Z</time>
      </trkpt>
      <trkpt lat="48.58024" lon="12.64272">
        <ele>437.091643</ele>
        <time>2023-07-14T12:18:27.955Z</time>
      </trkpt>
      <trkpt lat="48.58029" lon="12.64285">
        <ele>437.177452</ele>
        <time>2023-07-14T12:18:29.961Z</time>
      </trkpt>
      <trkpt lat="48.58034" lon="12.64296">
        <ele>437.261695</ele>
        <time>2023-07-14T12:18:31.947Z</time>
      </trkpt>
      <trkpt lat="48.58039" lon="12.64308">
        <ele>437.346451</ele>
        <time>2023-07-14T12:18:33.942Z</time>
      </trkpt>
      <trkpt lat="48.58044" lon="12.64321">
        <ele>437.434124</ele>
        <time>2023-07-14T12:18:35.936Z</time>
      </trkpt>
      <trkpt lat="48.58047" lon="12.64334">
        <ele>437.518543</ele>
        <time>2023-07-14T12:18:37.941Z</time>
      </trkpt>
      <trkpt lat="48.5805" lon="12.64347">
        <ele>437.604459</ele>
        <time>2023-07-14T12:18:39.918Z</time>
      </trkpt>
      <trkpt lat="48.58052" lon="12.64361">
        <ele>437.688532</ele>
        <time>2023-07-14T12:18:41.943Z</time>
      </trkpt>
      <trkpt lat="48.58054" lon="12.64375">
        <ele>437.773014</ele>
        <time>2023-07-14T12:18:43.934Z</time>
      </trkpt>
      <trkpt lat="48.58056" lon="12.64388">
        <ele>437.855158</ele>
        <time>2023-07-14T12:18:45.941Z</time>
      </trkpt>
      <trkpt lat="48.5806" lon="12.64406">
        <ele>437.972703</ele>
        <time>2023-07-14T12:18:48.952Z</time>
      </trkpt>
      <trkpt lat="48.58063" lon="12.64425">
        <ele>438.089893</ele>
        <time>2023-07-14T12:18:51.934Z</time>
      </trkpt>
      <trkpt lat="48.58065" lon="12.64438">
        <ele>438.173521</ele>
        <time>2023-07-14T12:18:53.939Z</time>
      </trkpt>
      <trkpt lat="48.58069" lon="12.64457">
        <ele>438.294696</ele>
        <time>2023-07-14T12:18:56.949Z</time>
      </trkpt>
      <trkpt lat="48.58073" lon="12.64477">
        <ele>438.400518</ele>
        <time>2023-07-14T12:18:59.936Z</time>
      </trkpt>
      <trkpt lat="48.58076" lon="12.64496">
        <ele>438.180329</ele>
        <time>2023-07-14T12:19:02.935Z</time>
      </trkpt>
      <trkpt lat="48.5808" lon="12.64514">
        <ele>437.968622</ele>
        <time>2023-07-14T12:19:05.940Z</time>
      </trkpt>
      <trkpt lat="48.58082" lon="12.64533">
        <ele>437.745029</ele>
        <time>2023-07-14T12:19:08.933Z</time>
      </trkpt>
      <trkpt lat="48.58086" lon="12.64553">
        <ele>437.518653</ele>
        <time>2023-07-14T12:19:11.952Z</time>
      </trkpt>
      <trkpt lat="48.5809" lon="12.64571">
        <ele>437.299227</ele>
        <time>2023-07-14T12:19:14.944Z</time>
      </trkpt>
      <trkpt lat="48.58094" lon="12.6459">
        <ele>437.074021</ele>
        <time>2023-07-14T12:19:17.955Z</time>
      </trkpt>
      <trkpt lat="48.58097" lon="12.64604">
        <ele>436.909652</ele>
        <time>2023-07-14T12:19:19.950Z</time>
      </trkpt>
      <trkpt lat="48.581" lon="12.64618">
        <ele>436.739945</ele>
        <time>2023-07-14T12:19:21.947Z</time>
      </trkpt>
      <trkpt lat="48.58103" lon="12.64633">
        <ele>436.568077</ele>
        <time>2023-07-14T12:19:23.935Z</time>
      </trkpt>
      <trkpt lat="48.58107" lon="12.64648">
        <ele>436.393012</ele>
        <time>2023-07-14T12:19:25.936Z</time>
      </trkpt>
      <trkpt lat="48.5811" lon="12.64662">
        <ele>436.220068</ele>
        <time>2023-07-14T12:19:27.939Z</time>
      </trkpt>
      <trkpt lat="48.58114" lon="12.64677">
        <ele>436.041596</ele>
        <time>2023-07-14T12:19:29.959Z</time>
      </trkpt>
      <trkpt lat="48.58117" lon="12.64692">
        <ele>435.859084</ele>
        <time>2023-07-14T12:19:31.944Z</time>
      </trkpt>
      <trkpt lat="48.58121" lon="12.64708">
        <ele>435.674757</ele>
        <time>2023-07-14T12:19:33.954Z</time>
      </trkpt>
      <trkpt lat="48.58125" lon="12.64723">
        <ele>435.492526</ele>
        <time>2023-07-14T12:19:35.953Z</time>
      </trkpt>
      <trkpt lat="48.58129" lon="12.64739">
        <ele>435.33827</ele>
        <time>2023-07-14T12:19:37.960Z</time>
      </trkpt>
      <trkpt lat="48.58134" lon="12.64756">
        <ele>435.274671</ele>
        <time>2023-07-14T12:19:39.952Z</time>
      </trkpt>
      <trkpt lat="48.58138" lon="12.64772">
        <ele>435.211874</ele>
        <time>2023-07-14T12:19:41.954Z</time>
      </trkpt>
      <trkpt lat="48.58143" lon="12.6479">
        <ele>435.146643</ele>
        <time>2023-07-14T12:19:43.934Z</time>
      </trkpt>
      <trkpt lat="48.58148" lon="12.64808">
        <ele>435.078449</ele>
        <time>2023-07-14T12:19:45.940Z</time>
      </trkpt>
      <trkpt lat="48.58153" lon="12.64827">
        <ele>435.008599</ele>
        <time>2023-07-14T12:19:47.945Z</time>
      </trkpt>
      <trkpt lat="48.58159" lon="12.64846">
        <ele>434.936919</ele>
        <time>2023-07-14T12:19:49.955Z</time>
      </trkpt>
      <trkpt lat="48.58165" lon="12.64864">
        <ele>434.865532</ele>
        <time>2023-07-14T12:19:51.938Z</time>
      </trkpt>
      <trkpt lat="48.58171" lon="12.64882">
        <ele>434.794656</ele>
        <time>2023-07-14T12:19:53.943Z</time>
      </trkpt>
      <trkpt lat="48.58177" lon="12.649">
        <ele>434.723762</ele>
        <time>2023-07-14T12:19:55.918Z</time>
      </trkpt>
      <trkpt lat="48.58184" lon="12.64918">
        <ele>434.651612</ele>
        <time>2023-07-14T12:19:57.942Z</time>
      </trkpt>
      <trkpt lat="48.58191" lon="12.64935">
        <ele>434.585047</ele>
        <time>2023-07-14T12:19:59.956Z</time>
      </trkpt>
      <trkpt lat="48.58197" lon="12.6495">
        <ele>434.520569</ele>
        <time>2023-07-14T12:20:01.940Z</time>
      </trkpt>
      <trkpt lat="48.58203" lon="12.64966">
        <ele>434.460006</ele>
        <time>2023-07-14T12:20:03.948Z</time>
      </trkpt>
      <trkpt lat="48.58209" lon="12.64981">
        <ele>434.465002</ele>
        <time>2023-07-14T12:20:05.957Z</time>
      </trkpt>
      <trkpt lat="48.58214" lon="12.64994">
        <ele>434.697663</ele>
        <time>2023-07-14T12:20:07.934Z</time>
      </trkpt>
      <trkpt lat="48.58219" lon="12.65006">
        <ele>434.926392</ele>
        <time>2023-07-14T12:20:09.958Z</time>
      </trkpt>
      <trkpt lat="48.58225" lon="12.65019">
        <ele>435.159158</ele>
        <time>2023-07-14T12:20:11.959Z</time>
      </trkpt>
      <trkpt lat="48.58232" lon="12.65036">
        <ele>435.461738</ele>
        <time>2023-07-14T12:20:14.936Z</time>
      </trkpt>
      <trkpt lat="48.58238" lon="12.65053">
        <ele>435.759218</ele>
        <time>2023-07-14T12:20:17.952Z</time>
      </trkpt>
      <trkpt lat="48.58245" lon="12.65068">
        <ele>436.040067</ele>
        <time>2023-07-14T12:20:20.935Z</time>
      </trkpt>
      <trkpt lat="48.5825" lon="12.65083">
        <ele>436.297819</ele>
        <time>2023-07-14T12:20:23.954Z</time>
      </trkpt>
      <trkpt lat="48.58256" lon="12.65096">
        <ele>436.540578</ele>
        <time>2023-07-14T12:20:26.936Z</time>
      </trkpt>
      <trkpt lat="48.58262" lon="12.65109">
        <ele>436.775746</ele>
        <time>2023-07-14T12:20:29.943Z</time>
      </trkpt>
      <trkpt lat="48.58268" lon="12.6512">
        <ele>437.000879</ele>
        <time>2023-07-14T12:20:32.931Z</time>
      </trkpt>
      <trkpt lat="48.58275" lon="12.65133">
        <ele>437.258901</ele>
        <time>2023-07-14T12:20:36.931Z</time>
      </trkpt>
      <trkpt lat="48.58282" lon="12.65146">
        <ele>437.513106</ele>
        <time>2023-07-14T12:20:40.954Z</time>
      </trkpt>
      <trkpt lat="48.58288" lon="12.65158">
        <ele>437.743501</ele>
        <time>2023-07-14T12:20:44.933Z</time>
      </trkpt>
      <trkpt lat="48.58294" lon="12.65169">
        <ele>437.960718</ele>
        <time>2023-07-14T12:20:48.939Z</time>
      </trkpt>
      <trkpt lat="48.58301" lon="12.65179">
        <ele>438.178642</ele>
        <time>2023-07-14T12:20:52.923Z</time>
      </trkpt>
      <trkpt lat="48.58308" lon="12.65191">
        <ele>438.419734</ele>
        <time>2023-07-14T12:20:56.934Z</time>
      </trkpt>
      <trkpt lat="48.58314" lon="12.65202">
        <ele>438.538525</ele>
        <time>2023-07-14T12:20:59.938Z</time>
      </trkpt>
      <trkpt lat="48.58321" lon="12.65215">
        <ele>438.49238</ele>
        <time>2023-07-14T12:21:02.956Z</time>
      </trkpt>
      <trkpt lat="48.58329" lon="12.65228">
        <ele>438.444527</ele>
        <time>2023-07-14T12:21:05.922Z</time>
      </trkpt>
      <trkpt lat="48.58337" lon="12.65244">
        <ele>438.389269</ele>
        <time>2023-07-14T12:21:08.938Z</time>
      </trkpt>
      <trkpt lat="48.58343" lon="12.65255">
        <ele>438.349993</ele>
        <time>2023-07-14T12:21:10.944Z</time>
      </trkpt>
      <trkpt lat="48.58349" lon="12.65266">
        <ele>438.30939</ele>
        <time>2023-07-14T12:21:12.921Z</time>
      </trkpt>
      <trkpt lat="48.58356" lon="12.65277">
        <ele>438.267492</ele>
        <time>2023-07-14T12:21:14.944Z</time>
      </trkpt>
      <trkpt lat="48.58363" lon="12.65289">
        <ele>438.224418</ele>
        <time>2023-07-14T12:21:16.940Z</time>
      </trkpt>
      <trkpt lat="48.5837" lon="12.65302">
        <ele>438.177334</ele>
        <time>2023-07-14T12:21:18.937Z</time>
      </trkpt>
      <trkpt lat="48.58378" lon="12.65315">
        <ele>438.130018</ele>
        <time>2023-07-14T12:21:20.944Z</time>
      </trkpt>
      <trkpt lat="48.58385" lon="12.65328">
        <ele>438.080992</ele>
        <time>2023-07-14T12:21:22.942Z</time>
      </trkpt>
      <trkpt lat="48.58393" lon="12.65342">
        <ele>438.030425</ele>
        <time>2023-07-14T12:21:24.937Z</time>
      </trkpt>
      <trkpt lat="48.58401" lon="12.65356">
        <ele>437.979123</ele>
        <time>2023-07-14T12:21:26.952Z</time>
      </trkpt>
      <trkpt lat="48.5841" lon="12.6537">
        <ele>437.925998</ele>
        <time>2023-07-14T12:21:28.935Z</time>
      </trkpt>
      <trkpt lat="48.58418" lon="12.65384">
        <ele>437.873108</ele>
        <time>2023-07-14T12:21:30.949Z</time>
      </trkpt>
      <trkpt lat="48.58428" lon="12.65399">
        <ele>437.817741</ele>
        <time>2023-07-14T12:21:32.937Z</time>
      </trkpt>
      <trkpt lat="48.58437" lon="12.65413">
        <ele>437.788185</ele>
        <time>2023-07-14T12:21:34.923Z</time>
      </trkpt>
      <trkpt lat="48.58446" lon="12.65429">
        <ele>437.768805</ele>
        <time>2023-07-14T12:21:36.962Z</time>
      </trkpt>
      <trkpt lat="48.58456" lon="12.65445">
        <ele>437.748096</ele>
        <time>2023-07-14T12:21:38.943Z</time>
      </trkpt>
      <trkpt lat="48.58466" lon="12.65461">
        <ele>437.727027</ele>
        <time>2023-07-14T12:21:40.922Z</time>
      </trkpt>
      <trkpt lat="48.58476" lon="12.65479">
        <ele>437.704565</ele>
        <time>2023-07-14T12:21:42.944Z</time>
      </trkpt>
      <trkpt lat="48.58487" lon="12.65498">
        <ele>437.680967</ele>
        <time>2023-07-14T12:21:44.941Z</time>
      </trkpt>
      <trkpt lat="48.58499" lon="12.65518">
        <ele>437.655569</ele>
        <time>2023-07-14T12:21:46.937Z</time>
      </trkpt>
      <trkpt lat="48.58511" lon="12.65536">
        <ele>437.631013</ele>
        <time>2023-07-14T12:21:48.933Z</time>
      </trkpt>
      <trkpt lat="48.58521" lon="12.65553">
        <ele>437.609287</ele>
        <time>2023-07-14T12:21:50.938Z</time>
      </trkpt>
      <trkpt lat="48.58529" lon="12.65568">
        <ele>437.59102</ele>
        <time>2023-07-14T12:21:52.944Z</time>
      </trkpt>
      <trkpt lat="48.58537" lon="12.65581">
        <ele>437.574457</ele>
        <time>2023-07-14T12:21:54.931Z</time>
      </trkpt>
      <trkpt lat="48.58544" lon="12.65595">
        <ele>437.557457</ele>
        <time>2023-07-14T12:21:56.934Z</time>
      </trkpt>
      <trkpt lat="48.5855" lon="12.65609">
        <ele>437.53164</ele>
        <time>2023-07-14T12:21:58.927Z</time>
      </trkpt>
      <trkpt lat="48.58556" lon="12.65622">
        <ele>437.461947</ele>
        <time>2023-07-14T12:22:00.948Z</time>
      </trkpt>
      <trkpt lat="48.58562" lon="12.65636">
        <ele>437.394766</ele>
        <time>2023-07-14T12:22:02.933Z</time>
      </trkpt>
      <trkpt lat="48.58566" lon="12.65649">
        <ele>437.329945</ele>
        <time>2023-07-14T12:22:04.946Z</time>
      </trkpt>
      <trkpt lat="48.58571" lon="12.65662">
        <ele>437.265687</ele>
        <time>2023-07-14T12:22:06.941Z</time>
      </trkpt>
      <trkpt lat="48.58575" lon="12.65676">
        <ele>437.20143</ele>
        <time>2023-07-14T12:22:08.937Z</time>
      </trkpt>
      <trkpt lat="48.58579" lon="12.65689">
        <ele>437.138236</ele>
        <time>2023-07-14T12:22:10.935Z</time>
      </trkpt>
      <trkpt lat="48.58583" lon="12.65703">
        <ele>437.073699</ele>
        <time>2023-07-14T12:22:12.955Z</time>
      </trkpt>
      <trkpt lat="48.58586" lon="12.65716">
        <ele>437.010844</ele>
        <time>2023-07-14T12:22:14.934Z</time>
      </trkpt>
      <trkpt lat="48.5859" lon="12.6573">
        <ele>436.945414</ele>
        <time>2023-07-14T12:22:16.932Z</time>
      </trkpt>
      <trkpt lat="48.58594" lon="12.65744">
        <ele>436.879677</ele>
        <time>2023-07-14T12:22:18.939Z</time>
      </trkpt>
      <trkpt lat="48.58597" lon="12.65758">
        <ele>436.816652</ele>
        <time>2023-07-14T12:22:20.936Z</time>
      </trkpt>
      <trkpt lat="48.586" lon="12.65773">
        <ele>436.751405</ele>
        <time>2023-07-14T12:22:22.942Z</time>
      </trkpt>
      <trkpt lat="48.58604" lon="12.65788">
        <ele>436.68311</ele>
        <time>2023-07-14T12:22:24.934Z</time>
      </trkpt>
      <trkpt lat="48.58607" lon="12.65802">
        <ele>436.61768</ele>
        <time>2023-07-14T12:22:26.933Z</time>
      </trkpt>
      <trkpt lat="48.5861" lon="12.65817">
        <ele>436.55041</ele>
        <time>2023-07-14T12:22:28.955Z</time>
      </trkpt>
      <trkpt lat="48.58614" lon="12.65831">
        <ele>436.484272</ele>
        <time>2023-07-14T12:22:30.944Z</time>
      </trkpt>
      <trkpt lat="48.58617" lon="12.65846">
        <ele>436.415722</ele>
        <time>2023-07-14T12:22:32.933Z</time>
      </trkpt>
      <trkpt lat="48.58621" lon="12.65862">
        <ele>436.33373</ele>
        <time>2023-07-14T12:22:34.933Z</time>
      </trkpt>
      <trkpt lat="48.58625" lon="12.65876">
        <ele>436.237802</ele>
        <time>2023-07-14T12:22:36.938Z</time>
      </trkpt>
      <trkpt lat="48.58628" lon="12.65891">
        <ele>436.141301</ele>
        <time>2023-07-14T12:22:38.941Z</time>
      </trkpt>
      <trkpt lat="48.58632" lon="12.65905">
        <ele>436.04775</ele>
        <time>2023-07-14T12:22:40.927Z</time>
      </trkpt>
      <trkpt lat="48.58635" lon="12.65919">
        <ele>435.955349</ele>
        <time>2023-07-14T12:22:42.948Z</time>
      </trkpt>
      <trkpt lat="48.58639" lon="12.65933">
        <ele>435.864903</ele>
        <time>2023-07-14T12:22:44.937Z</time>
      </trkpt>
      <trkpt lat="48.58643" lon="12.65945">
        <ele>435.781214</ele>
        <time>2023-07-14T12:22:46.951Z</time>
      </trkpt>
      <trkpt lat="48.5865" lon="12.65962">
        <ele>435.656865</ele>
        <time>2023-07-14T12:22:49.936Z</time>
      </trkpt>
      <trkpt lat="48.58655" lon="12.65974">
        <ele>435.572394</ele>
        <time>2023-07-14T12:22:51.955Z</time>
      </trkpt>
      <trkpt lat="48.58658" lon="12.65987">
        <ele>435.483515</ele>
        <time>2023-07-14T12:22:53.942Z</time>
      </trkpt>
      <trkpt lat="48.58661" lon="12.66002">
        <ele>435.391426</ele>
        <time>2023-07-14T12:22:55.952Z</time>
      </trkpt>
      <trkpt lat="48.58664" lon="12.66016">
        <ele>435.297641</ele>
        <time>2023-07-14T12:22:57.939Z</time>
      </trkpt>
      <trkpt lat="48.58668" lon="12.66031">
        <ele>435.199325</ele>
        <time>2023-07-14T12:22:59.941Z</time>
      </trkpt>
      <trkpt lat="48.58672" lon="12.66047">
        <ele>435.096216</ele>
        <time>2023-07-14T12:23:01.938Z</time>
      </trkpt>
      <trkpt lat="48.58675" lon="12.66064">
        <ele>434.987431</ele>
        <time>2023-07-14T12:23:03.936Z</time>
      </trkpt>
      <trkpt lat="48.58677" lon="12.66082">
        <ele>434.877962</ele>
        <time>2023-07-14T12:23:05.958Z</time>
      </trkpt>
      <trkpt lat="48.58679" lon="12.661">
        <ele>434.764099</ele>
        <time>2023-07-14T12:23:07.948Z</time>
      </trkpt>
      <trkpt lat="48.58682" lon="12.66119">
        <ele>434.690394</ele>
        <time>2023-07-14T12:23:09.929Z</time>
      </trkpt>
      <trkpt lat="48.58686" lon="12.66137">
        <ele>434.660254</ele>
        <time>2023-07-14T12:23:11.934Z</time>
      </trkpt>
      <trkpt lat="48.58692" lon="12.66155">
        <ele>434.629695</ele>
        <time>2023-07-14T12:23:13.933Z</time>
      </trkpt>
      <trkpt lat="48.58698" lon="12.66173">
        <ele>434.597611</ele>
        <time>2023-07-14T12:23:15.938Z</time>
      </trkpt>
      <trkpt lat="48.58705" lon="12.6619">
        <ele>434.566262</ele>
        <time>2023-07-14T12:23:17.936Z</time>
      </trkpt>
      <trkpt lat="48.58713" lon="12.66207">
        <ele>434.535032</ele>
        <time>2023-07-14T12:23:19.952Z</time>
      </trkpt>
      <trkpt lat="48.58721" lon="12.66222">
        <ele>434.504957</ele>
        <time>2023-07-14T12:23:21.933Z</time>
      </trkpt>
      <trkpt lat="48.58728" lon="12.66237">
        <ele>434.475768</ele>
        <time>2023-07-14T12:23:23.925Z</time>
      </trkpt>
      <trkpt lat="48.58734" lon="12.66252">
        <ele>434.448822</ele>
        <time>2023-07-14T12:23:25.927Z</time>
      </trkpt>
      <trkpt lat="48.5874" lon="12.66266">
        <ele>434.423292</ele>
        <time>2023-07-14T12:23:27.933Z</time>
      </trkpt>
      <trkpt lat="48.58745" lon="12.66279">
        <ele>434.398944</ele>
        <time>2023-07-14T12:23:29.942Z</time>
      </trkpt>
      <trkpt lat="48.5875" lon="12.66292">
        <ele>434.376153</ele>
        <time>2023-07-14T12:23:31.931Z</time>
      </trkpt>
      <trkpt lat="48.58755" lon="12.66304">
        <ele>434.354419</ele>
        <time>2023-07-14T12:23:33.934Z</time>
      </trkpt>
      <trkpt lat="48.58761" lon="12.6632">
        <ele>434.325576</ele>
        <time>2023-07-14T12:23:36.937Z</time>
      </trkpt>
      <trkpt lat="48.58767" lon="12.66336">
        <ele>434.297578</ele>
        <time>2023-07-14T12:23:39.939Z</time>
      </trkpt>
      <trkpt lat="48.58772" lon="12.66351">
        <ele>434.333799</ele>
        <time>2023-07-14T12:23:42.938Z</time>
      </trkpt>
      <trkpt lat="48.58779" lon="12.66365">
        <ele>434.454578</ele>
        <time>2023-07-14T12:23:45.947Z</time>
      </trkpt>
      <trkpt lat="48.58785" lon="12.66381">
        <ele>434.578449</ele>
        <time>2023-07-14T12:23:48.935Z</time>
      </trkpt>
      <trkpt lat="48.58789" lon="12.66393">
        <ele>434.671885</ele>
        <time>2023-07-14T12:23:50.938Z</time>
      </trkpt>
      <trkpt lat="48.58794" lon="12.66406">
        <ele>434.769864</ele>
        <time>2023-07-14T12:23:52.941Z</time>
      </trkpt>
      <trkpt lat="48.58799" lon="12.66419">
        <ele>434.87374</ele>
        <time>2023-07-14T12:23:54.951Z</time>
      </trkpt>
      <trkpt lat="48.58806" lon="12.66432">
        <ele>434.98443</ele>
        <time>2023-07-14T12:23:56.942Z</time>
      </trkpt>
      <trkpt lat="48.58813" lon="12.66444">
        <ele>435.095409</ele>
        <time>2023-07-14T12:23:58.956Z</time>
      </trkpt>
      <trkpt lat="48.5882" lon="12.66456">
        <ele>435.20673</ele>
        <time>2023-07-14T12:24:00.932Z</time>
      </trkpt>
      <trkpt lat="48.58828" lon="12.66468">
        <ele>435.316732</ele>
        <time>2023-07-14T12:24:02.932Z</time>
      </trkpt>
      <trkpt lat="48.58835" lon="12.66479">
        <ele>435.418824</ele>
        <time>2023-07-14T12:24:04.954Z</time>
      </trkpt>
      <trkpt lat="48.58842" lon="12.66489">
        <ele>435.52068</ele>
        <time>2023-07-14T12:24:06.948Z</time>
      </trkpt>
      <trkpt lat="48.5885" lon="12.66498">
        <ele>435.621563</ele>
        <time>2023-07-14T12:24:08.929Z</time>
      </trkpt>
      <trkpt lat="48.58857" lon="12.66506">
        <ele>435.713378</ele>
        <time>2023-07-14T12:24:10.935Z</time>
      </trkpt>
      <trkpt lat="48.58867" lon="12.66519">
        <ele>435.846853</ele>
        <time>2023-07-14T12:24:13.928Z</time>
      </trkpt>
      <trkpt lat="48.58878" lon="12.66531">
        <ele>435.979488</ele>
        <time>2023-07-14T12:24:16.945Z</time>
      </trkpt>
      <trkpt lat="48.58887" lon="12.66543">
        <ele>436.107785</ele>
        <time>2023-07-14T12:24:19.939Z</time>
      </trkpt>
      <trkpt lat="48.58896" lon="12.66554">
        <ele>436.120351</ele>
        <time>2023-07-14T12:24:22.939Z</time>
      </trkpt>
      <trkpt lat="48.58904" lon="12.66567">
        <ele>436.116939</ele>
        <time>2023-07-14T12:24:25.957Z</time>
      </trkpt>
      <trkpt lat="48.58913" lon="12.66579">
        <ele>436.113574</ele>
        <time>2023-07-14T12:24:28.943Z</time>
      </trkpt>
      <trkpt lat="48.58921" lon="12.66593">
        <ele>436.110087</ele>
        <time>2023-07-14T12:24:31.935Z</time>
      </trkpt>
      <trkpt lat="48.58928" lon="12.66607">
        <ele>436.106761</ele>
        <time>2023-07-14T12:24:34.944Z</time>
      </trkpt>
      <trkpt lat="48.58935" lon="12.66621">
        <ele>436.10349</ele>
        <time>2023-07-14T12:24:37.931Z</time>
      </trkpt>
      <trkpt lat="48.58942" lon="12.66636">
        <ele>436.099998</ele>
        <time>2023-07-14T12:24:40.925Z</time>
      </trkpt>
      <trkpt lat="48.58949" lon="12.66652">
        <ele>436.096445</ele>
        <time>2023-07-14T12:24:43.943Z</time>
      </trkpt>
      <trkpt lat="48.58956" lon="12.66668">
        <ele>436.092735</ele>
        <time>2023-07-14T12:24:46.928Z</time>
      </trkpt>
      <trkpt lat="48.58963" lon="12.66686">
        <ele>436.088846</ele>
        <time>2023-07-14T12:24:49.933Z</time>
      </trkpt>
      <trkpt lat="48.58967" lon="12.66698">
        <ele>436.086271</ele>
        <time>2023-07-14T12:24:51.926Z</time>
      </trkpt>
      <trkpt lat="48.58972" lon="12.6671">
        <ele>436.08366</ele>
        <time>2023-07-14T12:24:53.932Z</time>
      </trkpt>
      <trkpt lat="48.58976" lon="12.66723">
        <ele>436.080897</ele>
        <time>2023-07-14T12:24:55.947Z</time>
      </trkpt>
      <trkpt lat="48.58982" lon="12.66735">
        <ele>436.078162</ele>
        <time>2023-07-14T12:24:57.946Z</time>
      </trkpt>
      <trkpt lat="48.58987" lon="12.66747">
        <ele>436.075489</ele>
        <time>2023-07-14T12:24:59.937Z</time>
      </trkpt>
      <trkpt lat="48.58991" lon="12.66759">
        <ele>436.072779</ele>
        <time>2023-07-14T12:25:01.937Z</time>
      </trkpt>
      <trkpt lat="48.58998" lon="12.66771">
        <ele>436.056247</ele>
        <time>2023-07-14T12:25:03.930Z</time>
      </trkpt>
      <trkpt lat="48.59005" lon="12.66782">
        <ele>436.03325</ele>
        <time>2023-07-14T12:25:05.944Z</time>
      </trkpt>
      <trkpt lat="48.59012" lon="12.66792">
        <ele>436.010376</ele>
        <time>2023-07-14T12:25:07.928Z</time>
      </trkpt>
      <trkpt lat="48.59019" lon="12.66801">
        <ele>435.988251</ele>
        <time>2023-07-14T12:25:09.929Z</time>
      </trkpt>
      <trkpt lat="48.59028" lon="12.6681">
        <ele>435.96471</ele>
        <time>2023-07-14T12:25:11.933Z</time>
      </trkpt>
      <trkpt lat="48.59036" lon="12.66819">
        <ele>435.941637</ele>
        <time>2023-07-14T12:25:13.934Z</time>
      </trkpt>
      <trkpt lat="48.59044" lon="12.66829">
        <ele>435.917822</ele>
        <time>2023-07-14T12:25:15.952Z</time>
      </trkpt>
      <trkpt lat="48.5905" lon="12.6684">
        <ele>435.895223</ele>
        <time>2023-07-14T12:25:17.937Z</time>
      </trkpt>
      <trkpt lat="48.59055" lon="12.66852">
        <ele>435.874106</ele>
        <time>2023-07-14T12:25:19.988Z</time>
      </trkpt>
      <trkpt lat="48.59063" lon="12.66868">
        <ele>435.843066</ele>
        <time>2023-07-14T12:25:22.921Z</time>
      </trkpt>
      <trkpt lat="48.59069" lon="12.66885">
        <ele>435.813842</ele>
        <time>2023-07-14T12:25:25.977Z</time>
      </trkpt>
      <trkpt lat="48.59074" lon="12.66903">
        <ele>435.784916</ele>
        <time>2023-07-14T12:25:28.945Z</time>
      </trkpt>
      <trkpt lat="48.5908" lon="12.66919">
        <ele>435.756134</ele>
        <time>2023-07-14T12:25:31.924Z</time>
      </trkpt>
      <trkpt lat="48.59085" lon="12.66935">
        <ele>435.72902</ele>
        <time>2023-07-14T12:25:34.918Z</time>
      </trkpt>
      <trkpt lat="48.5909" lon="12.66951">
        <ele>435.702631</ele>
        <time>2023-07-14T12:25:37.932Z</time>
      </trkpt>
      <trkpt lat="48.59097" lon="12.66965">
        <ele>435.676055</ele>
        <time>2023-07-14T12:25:40.917Z</time>
      </trkpt>
      <trkpt lat="48.59103" lon="12.66979">
        <ele>435.66473</ele>
        <time>2023-07-14T12:25:43.924Z</time>
      </trkpt>
      <trkpt lat="48.59111" lon="12.66994">
        <ele>435.691773</ele>
        <time>2023-07-14T12:25:46.944Z</time>
      </trkpt>
      <trkpt lat="48.59118" lon="12.67007">
        <ele>435.71676</ele>
        <time>2023-07-14T12:25:49.947Z</time>
      </trkpt>
      <trkpt lat="48.59125" lon="12.67022">
        <ele>435.742927</ele>
        <time>2023-07-14T12:25:52.943Z</time>
      </trkpt>
      <trkpt lat="48.59132" lon="12.67039">
        <ele>435.771444</ele>
        <time>2023-07-14T12:25:55.929Z</time>
      </trkpt>
      <trkpt lat="48.59138" lon="12.67056">
        <ele>435.799804</ele>
        <time>2023-07-14T12:25:58.926Z</time>
      </trkpt>
      <trkpt lat="48.59144" lon="12.67067">
        <ele>435.820373</ele>
        <time>2023-07-14T12:26:01.034Z</time>
      </trkpt>
      <trkpt lat="48.5915" lon="12.67078">
        <ele>435.841556</ele>
        <time>2023-07-14T12:26:02.934Z</time>
      </trkpt>
      <trkpt lat="48.59157" lon="12.67088">
        <ele>435.862347</ele>
        <time>2023-07-14T12:26:04.951Z</time>
      </trkpt>
      <trkpt lat="48.59164" lon="12.67098">
        <ele>435.88418</ele>
        <time>2023-07-14T12:26:06.936Z</time>
      </trkpt>
      <trkpt lat="48.59173" lon="12.67108">
        <ele>435.907204</ele>
        <time>2023-07-14T12:26:08.953Z</time>
      </trkpt>
      <trkpt lat="48.59181" lon="12.67118">
        <ele>435.929953</ele>
        <time>2023-07-14T12:26:10.914Z</time>
      </trkpt>
      <trkpt lat="48.59189" lon="12.67129">
        <ele>435.953992</ele>
        <time>2023-07-14T12:26:12.933Z</time>
      </trkpt>
      <trkpt lat="48.59197" lon="12.67139">
        <ele>435.977893</ele>
        <time>2023-07-14T12:26:14.931Z</time>
      </trkpt>
      <trkpt lat="48.59206" lon="12.6715">
        <ele>436.003352</ele>
        <time>2023-07-14T12:26:16.937Z</time>
      </trkpt>
      <trkpt lat="48.59215" lon="12.67162">
        <ele>436.029471</ele>
        <time>2023-07-14T12:26:18.948Z</time>
      </trkpt>
      <trkpt lat="48.59223" lon="12.67177">
        <ele>436.034348</ele>
        <time>2023-07-14T12:26:20.924Z</time>
      </trkpt>
      <trkpt lat="48.59231" lon="12.67192">
        <ele>435.919923</ele>
        <time>2023-07-14T12:26:22.939Z</time>
      </trkpt>
      <trkpt lat="48.59241" lon="12.67207">
        <ele>435.801923</ele>
        <time>2023-07-14T12:26:24.930Z</time>
      </trkpt>
      <trkpt lat="48.5925" lon="12.67222">
        <ele>435.684371</ele>
        <time>2023-07-14T12:26:26.932Z</time>
      </trkpt>
      <trkpt lat="48.59258" lon="12.67238">
        <ele>435.569742</ele>
        <time>2023-07-14T12:26:28.931Z</time>
      </trkpt>
      <trkpt lat="48.59266" lon="12.67255">
        <ele>435.455789</ele>
        <time>2023-07-14T12:26:30.921Z</time>
      </trkpt>
      <trkpt lat="48.59272" lon="12.67272">
        <ele>435.342251</ele>
        <time>2023-07-14T12:26:32.936Z</time>
      </trkpt>
      <trkpt lat="48.59278" lon="12.67289">
        <ele>435.233633</ele>
        <time>2023-07-14T12:26:34.934Z</time>
      </trkpt>
      <trkpt lat="48.59284" lon="12.67305">
        <ele>435.130484</ele>
        <time>2023-07-14T12:26:36.930Z</time>
      </trkpt>
      <trkpt lat="48.59288" lon="12.6732">
        <ele>435.034815</ele>
        <time>2023-07-14T12:26:38.937Z</time>
      </trkpt>
      <trkpt lat="48.59292" lon="12.67335">
        <ele>434.941373</ele>
        <time>2023-07-14T12:26:40.933Z</time>
      </trkpt>
      <trkpt lat="48.59296" lon="12.6735">
        <ele>434.854495</ele>
        <time>2023-07-14T12:26:42.961Z</time>
      </trkpt>
      <trkpt lat="48.59299" lon="12.67364">
        <ele>434.770994</ele>
        <time>2023-07-14T12:26:44.939Z</time>
      </trkpt>
      <trkpt lat="48.59302" lon="12.67377">
        <ele>434.687464</ele>
        <time>2023-07-14T12:26:46.927Z</time>
      </trkpt>
      <trkpt lat="48.59305" lon="12.6739">
        <ele>434.610179</ele>
        <time>2023-07-14T12:26:48.915Z</time>
      </trkpt>
      <trkpt lat="48.5931" lon="12.67409">
        <ele>434.49788</ele>
        <time>2023-07-14T12:26:51.946Z</time>
      </trkpt>
      <trkpt lat="48.59313" lon="12.67428">
        <ele>434.40135</ele>
        <time>2023-07-14T12:26:54.951Z</time>
      </trkpt>
      <trkpt lat="48.59318" lon="12.67446">
        <ele>434.306511</ele>
        <time>2023-07-14T12:26:57.937Z</time>
      </trkpt>
      <trkpt lat="48.59322" lon="12.67464">
        <ele>434.212794</ele>
        <time>2023-07-14T12:27:00.931Z</time>
      </trkpt>
      <trkpt lat="48.59326" lon="12.67484">
        <ele>434.111979</ele>
        <time>2023-07-14T12:27:03.936Z</time>
      </trkpt>
      <trkpt lat="48.59329" lon="12.67498">
        <ele>434.040995</ele>
        <time>2023-07-14T12:27:05.938Z</time>
      </trkpt>
      <trkpt lat="48.59332" lon="12.67511">
        <ele>433.972563</ele>
        <time>2023-07-14T12:27:07.946Z</time>
      </trkpt>
      <trkpt lat="48.59335" lon="12.67525">
        <ele>433.901807</ele>
        <time>2023-07-14T12:27:09.943Z</time>
      </trkpt>
      <trkpt lat="48.59337" lon="12.67538">
        <ele>433.833563</ele>
        <time>2023-07-14T12:27:11.913Z</time>
      </trkpt>
      <trkpt lat="48.5934" lon="12.67552">
        <ele>433.762774</ele>
        <time>2023-07-14T12:27:13.926Z</time>
      </trkpt>
      <trkpt lat="48.59343" lon="12.67565">
        <ele>433.695004</ele>
        <time>2023-07-14T12:27:15.943Z</time>
      </trkpt>
      <trkpt lat="48.59346" lon="12.67579">
        <ele>433.624467</ele>
        <time>2023-07-14T12:27:17.934Z</time>
      </trkpt>
      <trkpt lat="48.59349" lon="12.67593">
        <ele>433.553679</ele>
        <time>2023-07-14T12:27:19.942Z</time>
      </trkpt>
      <trkpt lat="48.59352" lon="12.67607">
        <ele>433.481479</ele>
        <time>2023-07-14T12:27:21.929Z</time>
      </trkpt>
      <trkpt lat="48.59356" lon="12.67621">
        <ele>433.405914</ele>
        <time>2023-07-14T12:27:23.937Z</time>
      </trkpt>
      <trkpt lat="48.5936" lon="12.67635">
        <ele>433.328855</ele>
        <time>2023-07-14T12:27:25.945Z</time>
      </trkpt>
      <trkpt lat="48.59364" lon="12.6765">
        <ele>433.249823</ele>
        <time>2023-07-14T12:27:27.950Z</time>
      </trkpt>
      <trkpt lat="48.59369" lon="12.67666">
        <ele>433.164183</ele>
        <time>2023-07-14T12:27:29.951Z</time>
      </trkpt>
      <trkpt lat="48.59373" lon="12.67682">
        <ele>433.080659</ele>
        <time>2023-07-14T12:27:31.950Z</time>
      </trkpt>
      <trkpt lat="48.59378" lon="12.67698">
        <ele>432.989883</ele>
        <time>2023-07-14T12:27:33.936Z</time>
      </trkpt>
      <trkpt lat="48.59383" lon="12.67714">
        <ele>432.898097</ele>
        <time>2023-07-14T12:27:35.953Z</time>
      </trkpt>
      <trkpt lat="48.59389" lon="12.6773">
        <ele>432.806668</ele>
        <time>2023-07-14T12:27:37.937Z</time>
      </trkpt>
      <trkpt lat="48.59395" lon="12.67746">
        <ele>432.713716</ele>
        <time>2023-07-14T12:27:39.946Z</time>
      </trkpt>
      <trkpt lat="48.59401" lon="12.67762">
        <ele>432.621026</ele>
        <time>2023-07-14T12:27:41.941Z</time>
      </trkpt>
      <trkpt lat="48.59407" lon="12.67778">
        <ele>432.528711</ele>
        <time>2023-07-14T12:27:43.932Z</time>
      </trkpt>
      <trkpt lat="48.59412" lon="12.67794">
        <ele>432.435508</ele>
        <time>2023-07-14T12:27:45.943Z</time>
      </trkpt>
      <trkpt lat="48.59418" lon="12.67811">
        <ele>432.342126</ele>
        <time>2023-07-14T12:27:47.950Z</time>
      </trkpt>
      <trkpt lat="48.59423" lon="12.67827">
        <ele>432.249839</ele>
        <time>2023-07-14T12:27:49.933Z</time>
      </trkpt>
      <trkpt lat="48.59428" lon="12.67844">
        <ele>432.158478</ele>
        <time>2023-07-14T12:27:51.941Z</time>
      </trkpt>
      <trkpt lat="48.59432" lon="12.6786">
        <ele>432.069112</ele>
        <time>2023-07-14T12:27:53.944Z</time>
      </trkpt>
      <trkpt lat="48.59437" lon="12.67876">
        <ele>431.980794</ele>
        <time>2023-07-14T12:27:55.933Z</time>
      </trkpt>
      <trkpt lat="48.59441" lon="12.67893">
        <ele>431.888619</ele>
        <time>2023-07-14T12:27:57.931Z</time>
      </trkpt>
      <trkpt lat="48.59445" lon="12.6791">
        <ele>431.79876</ele>
        <time>2023-07-14T12:27:59.949Z</time>
      </trkpt>
      <trkpt lat="48.59448" lon="12.67927">
        <ele>431.78228</ele>
        <time>2023-07-14T12:28:01.939Z</time>
      </trkpt>
      <trkpt lat="48.59451" lon="12.67944">
        <ele>431.766754</ele>
        <time>2023-07-14T12:28:03.947Z</time>
      </trkpt>
      <trkpt lat="48.59454" lon="12.67961">
        <ele>431.750601</ele>
        <time>2023-07-14T12:28:05.940Z</time>
      </trkpt>
      <trkpt lat="48.59456" lon="12.67978">
        <ele>431.734568</ele>
        <time>2023-07-14T12:28:07.940Z</time>
      </trkpt>
      <trkpt lat="48.59458" lon="12.67995">
        <ele>431.71853</ele>
        <time>2023-07-14T12:28:09.961Z</time>
      </trkpt>
      <trkpt lat="48.59461" lon="12.68011">
        <ele>431.703006</ele>
        <time>2023-07-14T12:28:11.931Z</time>
      </trkpt>
      <trkpt lat="48.59462" lon="12.68028">
        <ele>431.687449</ele>
        <time>2023-07-14T12:28:13.929Z</time>
      </trkpt>
      <trkpt lat="48.59463" lon="12.68045">
        <ele>431.671842</ele>
        <time>2023-07-14T12:28:15.938Z</time>
      </trkpt>
      <trkpt lat="48.59464" lon="12.68061">
        <ele>431.656611</ele>
        <time>2023-07-14T12:28:17.981Z</time>
      </trkpt>
      <trkpt lat="48.59465" lon="12.68078">
        <ele>431.641479</ele>
        <time>2023-07-14T12:28:19.958Z</time>
      </trkpt>
      <trkpt lat="48.59467" lon="12.68093">
        <ele>431.627036</ele>
        <time>2023-07-14T12:28:21.938Z</time>
      </trkpt>
      <trkpt lat="48.59469" lon="12.68109">
        <ele>431.612685</ele>
        <time>2023-07-14T12:28:23.915Z</time>
      </trkpt>
      <trkpt lat="48.5947" lon="12.68124">
        <ele>431.598606</ele>
        <time>2023-07-14T12:28:25.935Z</time>
      </trkpt>
      <trkpt lat="48.59471" lon="12.68139">
        <ele>431.584895</ele>
        <time>2023-07-14T12:28:27.939Z</time>
      </trkpt>
      <trkpt lat="48.59473" lon="12.68153">
        <ele>431.571515</ele>
        <time>2023-07-14T12:28:29.943Z</time>
      </trkpt>
      <trkpt lat="48.59474" lon="12.68168">
        <ele>431.557933</ele>
        <time>2023-07-14T12:28:31.950Z</time>
      </trkpt>
      <trkpt lat="48.59475" lon="12.68182">
        <ele>431.543053</ele>
        <time>2023-07-14T12:28:33.951Z</time>
      </trkpt>
      <trkpt lat="48.59477" lon="12.68196">
        <ele>431.526388</ele>
        <time>2023-07-14T12:28:35.937Z</time>
      </trkpt>
      <trkpt lat="48.59479" lon="12.68216">
        <ele>431.502441</ele>
        <time>2023-07-14T12:28:38.930Z</time>
      </trkpt>
      <trkpt lat="48.5948" lon="12.68236">
        <ele>431.478474</ele>
        <time>2023-07-14T12:28:41.965Z</time>
      </trkpt>
      <trkpt lat="48.59483" lon="12.68255">
        <ele>431.45553</ele>
        <time>2023-07-14T12:28:44.938Z</time>
      </trkpt>
      <trkpt lat="48.59484" lon="12.68271">
        <ele>431.435329</ele>
        <time>2023-07-14T12:28:47.956Z</time>
      </trkpt>
      <trkpt lat="48.59485" lon="12.68286">
        <ele>431.417203</ele>
        <time>2023-07-14T12:28:50.947Z</time>
      </trkpt>
      <trkpt lat="48.59489" lon="12.68299">
        <ele>431.400414</ele>
        <time>2023-07-14T12:28:54.944Z</time>
      </trkpt>
      <trkpt lat="48.59499" lon="12.68301">
        <ele>431.382568</ele>
        <time>2023-07-14T12:29:03.930Z</time>
      </trkpt>
      <trkpt lat="48.59508" lon="12.683">
        <ele>431.365927</ele>
        <time>2023-07-14T12:29:06.949Z</time>
      </trkpt>
      <trkpt lat="48.59517" lon="12.68304">
        <ele>431.34901</ele>
        <time>2023-07-14T12:29:09.940Z</time>
      </trkpt>
      <trkpt lat="48.59527" lon="12.68308">
        <ele>431.330911</ele>
        <time>2023-07-14T12:29:12.933Z</time>
      </trkpt>
      <trkpt lat="48.59538" lon="12.68312">
        <ele>431.309876</ele>
        <time>2023-07-14T12:29:15.950Z</time>
      </trkpt>
      <trkpt lat="48.59551" lon="12.68319">
        <ele>431.286119</ele>
        <time>2023-07-14T12:29:18.959Z</time>
      </trkpt>
      <trkpt lat="48.59558" lon="12.68328">
        <ele>431.26881</ele>
        <time>2023-07-14T12:29:20.930Z</time>
      </trkpt>
      <trkpt lat="48.59563" lon="12.68341">
        <ele>431.250817</ele>
        <time>2023-07-14T12:29:22.947Z</time>
      </trkpt>
      <trkpt lat="48.5957" lon="12.68353">
        <ele>431.232015</ele>
        <time>2023-07-14T12:29:24.931Z</time>
      </trkpt>
      <trkpt lat="48.59579" lon="12.6836">
        <ele>431.172362</ele>
        <time>2023-07-14T12:29:26.932Z</time>
      </trkpt>
      <trkpt lat="48.5959" lon="12.68364">
        <ele>431.067921</ele>
        <time>2023-07-14T12:29:28.937Z</time>
      </trkpt>
      <trkpt lat="48.59601" lon="12.68366">
        <ele>430.966474</ele>
        <time>2023-07-14T12:29:30.934Z</time>
      </trkpt>
      <trkpt lat="48.59611" lon="12.68366">
        <ele>430.8648</ele>
        <time>2023-07-14T12:29:32.951Z</time>
      </trkpt>
      <trkpt lat="48.59623" lon="12.68366">
        <ele>430.755687</ele>
        <time>2023-07-14T12:29:34.931Z</time>
      </trkpt>
      <trkpt lat="48.59635" lon="12.68367">
        <ele>430.64931</ele>
        <time>2023-07-14T12:29:36.908Z</time>
      </trkpt>
      <trkpt lat="48.59647" lon="12.68367">
        <ele>430.534628</ele>
        <time>2023-07-14T12:29:38.936Z</time>
      </trkpt>
      <trkpt lat="48.59658" lon="12.68367">
        <ele>430.430159</ele>
        <time>2023-07-14T12:29:40.921Z</time>
      </trkpt>
      <trkpt lat="48.59669" lon="12.68368">
        <ele>430.325587</ele>
        <time>2023-07-14T12:29:42.933Z</time>
      </trkpt>
      <trkpt lat="48.5968" lon="12.68367">
        <ele>430.222066</ele>
        <time>2023-07-14T12:29:44.934Z</time>
      </trkpt>
      <trkpt lat="48.59691" lon="12.68371">
        <ele>430.115383</ele>
        <time>2023-07-14T12:29:46.930Z</time>
      </trkpt>
      <trkpt lat="48.59699" lon="12.68385">
        <ele>430.006312</ele>
        <time>2023-07-14T12:29:48.929Z</time>
      </trkpt>
      <trkpt lat="48.59702" lon="12.68403">
        <ele>429.891619</ele>
        <time>2023-07-14T12:29:50.955Z</time>
      </trkpt>
      <trkpt lat="48.59704" lon="12.68422">
        <ele>429.771435</ele>
        <time>2023-07-14T12:29:52.940Z</time>
      </trkpt>
      <trkpt lat="48.59706" lon="12.68442">
        <ele>429.650949</ele>
        <time>2023-07-14T12:29:54.925Z</time>
      </trkpt>
      <trkpt lat="48.59709" lon="12.68461">
        <ele>429.550026</ele>
        <time>2023-07-14T12:29:56.925Z</time>
      </trkpt>
      <trkpt lat="48.59713" lon="12.68479">
        <ele>429.573273</ele>
        <time>2023-07-14T12:29:58.934Z</time>
      </trkpt>
      <trkpt lat="48.59717" lon="12.68497">
        <ele>429.595893</ele>
        <time>2023-07-14T12:30:00.944Z</time>
      </trkpt>
      <trkpt lat="48.5972" lon="12.68514">
        <ele>429.616573</ele>
        <time>2023-07-14T12:30:02.935Z</time>
      </trkpt>
      <trkpt lat="48.59723" lon="12.6853">
        <ele>429.636993</ele>
        <time>2023-07-14T12:30:04.931Z</time>
      </trkpt>
      <trkpt lat="48.59726" lon="12.68546">
        <ele>429.656416</ele>
        <time>2023-07-14T12:30:06.928Z</time>
      </trkpt>
      <trkpt lat="48.5973" lon="12.6856">
        <ele>429.675002</ele>
        <time>2023-07-14T12:30:08.918Z</time>
      </trkpt>
      <trkpt lat="48.59733" lon="12.68574">
        <ele>429.692002</ele>
        <time>2023-07-14T12:30:10.925Z</time>
      </trkpt>
      <trkpt lat="48.59738" lon="12.68592">
        <ele>429.716121</ele>
        <time>2023-07-14T12:30:13.937Z</time>
      </trkpt>
      <trkpt lat="48.59743" lon="12.6861">
        <ele>429.739622</ele>
        <time>2023-07-14T12:30:16.913Z</time>
      </trkpt>
      <trkpt lat="48.5975" lon="12.68627">
        <ele>429.763252</ele>
        <time>2023-07-14T12:30:19.914Z</time>
      </trkpt>
      <trkpt lat="48.59755" lon="12.68643">
        <ele>429.784538</ele>
        <time>2023-07-14T12:30:22.921Z</time>
      </trkpt>
      <trkpt lat="48.59761" lon="12.68658">
        <ele>429.805494</ele>
        <time>2023-07-14T12:30:25.954Z</time>
      </trkpt>
      <trkpt lat="48.59768" lon="12.68673">
        <ele>429.827923</ele>
        <time>2023-07-14T12:30:28.935Z</time>
      </trkpt>
      <trkpt lat="48.59773" lon="12.68685">
        <ele>429.844646</ele>
        <time>2023-07-14T12:30:30.928Z</time>
      </trkpt>
      <trkpt lat="48.59779" lon="12.68696">
        <ele>429.862243</ele>
        <time>2023-07-14T12:30:32.957Z</time>
      </trkpt>
      <trkpt lat="48.59785" lon="12.68707">
        <ele>429.863026</ele>
        <time>2023-07-14T12:30:34.928Z</time>
      </trkpt>
      <trkpt lat="48.59794" lon="12.68721">
        <ele>429.824106</ele>
        <time>2023-07-14T12:30:37.933Z</time>
      </trkpt>
      <trkpt lat="48.598" lon="12.68737">
        <ele>429.785827</ele>
        <time>2023-07-14T12:30:40.930Z</time>
      </trkpt>
      <trkpt lat="48.59809" lon="12.68751">
        <ele>429.746891</ele>
        <time>2023-07-14T12:30:43.961Z</time>
      </trkpt>
      <trkpt lat="48.59814" lon="12.68766">
        <ele>429.712497</ele>
        <time>2023-07-14T12:30:46.923Z</time>
      </trkpt>
      <trkpt lat="48.59818" lon="12.68782">
        <ele>429.67817</ele>
        <time>2023-07-14T12:30:49.936Z</time>
      </trkpt>
      <trkpt lat="48.59819" lon="12.68798">
        <ele>429.645468</ele>
        <time>2023-07-14T12:30:52.928Z</time>
      </trkpt>
      <trkpt lat="48.5982" lon="12.68813">
        <ele>429.61506</ele>
        <time>2023-07-14T12:30:55.944Z</time>
      </trkpt>
      <trkpt lat="48.59825" lon="12.68825">
        <ele>429.58637</ele>
        <time>2023-07-14T12:30:58.927Z</time>
      </trkpt>
      <trkpt lat="48.59833" lon="12.68831">
        <ele>429.558759</ele>
        <time>2023-07-14T12:31:01.922Z</time>
      </trkpt>
      <trkpt lat="48.59844" lon="12.68831">
        <ele>429.525906</ele>
        <time>2023-07-14T12:31:04.916Z</time>
      </trkpt>
      <trkpt lat="48.59856" lon="12.68831">
        <ele>429.487521</ele>
        <time>2023-07-14T12:31:07.942Z</time>
      </trkpt>
      <trkpt lat="48.59869" lon="12.68836">
        <ele>429.447315</ele>
        <time>2023-07-14T12:31:10.917Z</time>
      </trkpt>
      <trkpt lat="48.59875" lon="12.68854">
        <ele>429.405705</ele>
        <time>2023-07-14T12:31:13.957Z</time>
      </trkpt>
      <trkpt lat="48.59879" lon="12.68872">
        <ele>429.367333</ele>
        <time>2023-07-14T12:31:16.911Z</time>
      </trkpt>
      <trkpt lat="48.59883" lon="12.68888">
        <ele>429.332712</ele>
        <time>2023-07-14T12:31:19.930Z</time>
      </trkpt>
      <trkpt lat="48.59887" lon="12.68905">
        <ele>429.419265</ele>
        <time>2023-07-14T12:31:22.933Z</time>
      </trkpt>
      <trkpt lat="48.59891" lon="12.68921">
        <ele>429.563415</ele>
        <time>2023-07-14T12:31:25.930Z</time>
      </trkpt>
      <trkpt lat="48.59894" lon="12.68937">
        <ele>429.70197</ele>
        <time>2023-07-14T12:31:28.935Z</time>
      </trkpt>
      <trkpt lat="48.59899" lon="12.68955">
        <ele>429.861563</ele>
        <time>2023-07-14T12:31:31.935Z</time>
      </trkpt>
      <trkpt lat="48.59904" lon="12.68974">
        <ele>430.027811</ele>
        <time>2023-07-14T12:31:34.960Z</time>
      </trkpt>
      <trkpt lat="48.59907" lon="12.68987">
        <ele>430.145534</ele>
        <time>2023-07-14T12:31:36.935Z</time>
      </trkpt>
      <trkpt lat="48.5991" lon="12.69001">
        <ele>430.26744</ele>
        <time>2023-07-14T12:31:38.937Z</time>
      </trkpt>
      <trkpt lat="48.59913" lon="12.69014">
        <ele>430.388558</ele>
        <time>2023-07-14T12:31:40.934Z</time>
      </trkpt>
      <trkpt lat="48.59916" lon="12.6903">
        <ele>430.522424</ele>
        <time>2023-07-14T12:31:42.941Z</time>
      </trkpt>
      <trkpt lat="48.59919" lon="12.69044">
        <ele>430.646308</ele>
        <time>2023-07-14T12:31:44.932Z</time>
      </trkpt>
      <trkpt lat="48.59922" lon="12.69058">
        <ele>430.768425</ele>
        <time>2023-07-14T12:31:46.952Z</time>
      </trkpt>
      <trkpt lat="48.59927" lon="12.69077">
        <ele>430.932345</ele>
        <time>2023-07-14T12:31:49.931Z</time>
      </trkpt>
      <trkpt lat="48.59933" lon="12.69095">
        <ele>431.099296</ele>
        <time>2023-07-14T12:31:52.932Z</time>
      </trkpt>
      <trkpt lat="48.59936" lon="12.69108">
        <ele>431.22199</ele>
        <time>2023-07-14T12:31:54.940Z</time>
      </trkpt>
      <trkpt lat="48.59939" lon="12.69122">
        <ele>431.344701</ele>
        <time>2023-07-14T12:31:56.938Z</time>
      </trkpt>
      <trkpt lat="48.59943" lon="12.69135">
        <ele>431.459807</ele>
        <time>2023-07-14T12:31:58.935Z</time>
      </trkpt>
      <trkpt lat="48.59945" lon="12.69149">
        <ele>431.578296</ele>
        <time>2023-07-14T12:32:00.939Z</time>
      </trkpt>
      <trkpt lat="48.59946" lon="12.69163">
        <ele>431.489981</ele>
        <time>2023-07-14T12:32:02.963Z</time>
      </trkpt>
      <trkpt lat="48.59948" lon="12.69177">
        <ele>431.392869</ele>
        <time>2023-07-14T12:32:04.930Z</time>
      </trkpt>
      <trkpt lat="48.59952" lon="12.69189">
        <ele>431.300206</ele>
        <time>2023-07-14T12:32:06.937Z</time>
      </trkpt>
      <trkpt lat="48.59958" lon="12.692">
        <ele>431.206519</ele>
        <time>2023-07-14T12:32:08.938Z</time>
      </trkpt>
      <trkpt lat="48.59967" lon="12.69214">
        <ele>431.072672</ele>
        <time>2023-07-14T12:32:11.941Z</time>
      </trkpt>
      <trkpt lat="48.59975" lon="12.69229">
        <ele>430.942281</ele>
        <time>2023-07-14T12:32:14.936Z</time>
      </trkpt>
      <trkpt lat="48.59983" lon="12.69243">
        <ele>430.820648</ele>
        <time>2023-07-14T12:32:17.946Z</time>
      </trkpt>
      <trkpt lat="48.59992" lon="12.69257">
        <ele>430.684326</ele>
        <time>2023-07-14T12:32:20.938Z</time>
      </trkpt>
      <trkpt lat="48.60002" lon="12.6927">
        <ele>430.547995</ele>
        <time>2023-07-14T12:32:23.930Z</time>
      </trkpt>
      <trkpt lat="48.60009" lon="12.69279">
        <ele>430.45272</ele>
        <time>2023-07-14T12:32:25.923Z</time>
      </trkpt>
      <trkpt lat="48.60017" lon="12.69287">
        <ele>430.356469</ele>
        <time>2023-07-14T12:32:27.921Z</time>
      </trkpt>
      <trkpt lat="48.60025" lon="12.69296">
        <ele>430.255433</ele>
        <time>2023-07-14T12:32:29.944Z</time>
      </trkpt>
      <trkpt lat="48.60033" lon="12.69305">
        <ele>430.150663</ele>
        <time>2023-07-14T12:32:31.934Z</time>
      </trkpt>
      <trkpt lat="48.60042" lon="12.69314">
        <ele>430.040892</ele>
        <time>2023-07-14T12:32:33.961Z</time>
      </trkpt>
      <trkpt lat="48.60052" lon="12.69322">
        <ele>429.927286</ele>
        <time>2023-07-14T12:32:35.929Z</time>
      </trkpt>
      <trkpt lat="48.60063" lon="12.69328">
        <ele>429.804394</ele>
        <time>2023-07-14T12:32:37.930Z</time>
      </trkpt>
      <trkpt lat="48.60076" lon="12.69331">
        <ele>429.534403</ele>
        <time>2023-07-14T12:32:39.942Z</time>
      </trkpt>
      <trkpt lat="48.60089" lon="12.69335">
        <ele>429.072927</ele>
        <time>2023-07-14T12:32:41.941Z</time>
      </trkpt>
      <trkpt lat="48.60104" lon="12.69339">
        <ele>428.584402</ele>
        <time>2023-07-14T12:32:43.930Z</time>
      </trkpt>
      <trkpt lat="48.60119" lon="12.69344">
        <ele>428.09233</ele>
        <time>2023-07-14T12:32:45.937Z</time>
      </trkpt>
      <trkpt lat="48.60134" lon="12.6935">
        <ele>427.574364</ele>
        <time>2023-07-14T12:32:47.911Z</time>
      </trkpt>
      <trkpt lat="48.6015" lon="12.69357">
        <ele>427.038716</ele>
        <time>2023-07-14T12:32:49.931Z</time>
      </trkpt>
      <trkpt lat="48.60165" lon="12.69366">
        <ele>426.502928</ele>
        <time>2023-07-14T12:32:51.931Z</time>
      </trkpt>
      <trkpt lat="48.6018" lon="12.69376">
        <ele>425.9644</ele>
        <time>2023-07-14T12:32:53.953Z</time>
      </trkpt>
      <trkpt lat="48.60194" lon="12.69386">
        <ele>425.445766</ele>
        <time>2023-07-14T12:32:55.937Z</time>
      </trkpt>
      <trkpt lat="48.60207" lon="12.69386">
        <ele>425.024965</ele>
        <time>2023-07-14T12:32:57.937Z</time>
      </trkpt>
      <trkpt lat="48.6022" lon="12.69377">
        <ele>424.549262</ele>
        <time>2023-07-14T12:32:59.949Z</time>
      </trkpt>
      <trkpt lat="48.60233" lon="12.69367">
        <ele>424.060924</ele>
        <time>2023-07-14T12:33:01.941Z</time>
      </trkpt>
      <trkpt lat="48.60247" lon="12.69359">
        <ele>423.653028</ele>
        <time>2023-07-14T12:33:03.936Z</time>
      </trkpt>
      <trkpt lat="48.6026" lon="12.69354">
        <ele>423.322003</ele>
        <time>2023-07-14T12:33:05.932Z</time>
      </trkpt>
      <trkpt lat="48.60273" lon="12.69349">
        <ele>423.010333</ele>
        <time>2023-07-14T12:33:07.934Z</time>
      </trkpt>
      <trkpt lat="48.60287" lon="12.69346">
        <ele>422.679089</ele>
        <time>2023-07-14T12:33:09.932Z</time>
      </trkpt>
      <trkpt lat="48.60301" lon="12.69342">
        <ele>422.349688</ele>
        <time>2023-07-14T12:33:11.931Z</time>
      </trkpt>
      <trkpt lat="48.60314" lon="12.69339">
        <ele>422.040975</ele>
        <time>2023-07-14T12:33:13.928Z</time>
      </trkpt>
      <trkpt lat="48.60327" lon="12.69337">
        <ele>421.735178</ele>
        <time>2023-07-14T12:33:15.927Z</time>
      </trkpt>
      <trkpt lat="48.6034" lon="12.69335">
        <ele>421.430588</ele>
        <time>2023-07-14T12:33:17.933Z</time>
      </trkpt>
      <trkpt lat="48.60352" lon="12.69335">
        <ele>421.131587</ele>
        <time>2023-07-14T12:33:19.934Z</time>
      </trkpt>
      <trkpt lat="48.60365" lon="12.69334">
        <ele>420.834156</ele>
        <time>2023-07-14T12:33:21.942Z</time>
      </trkpt>
      <trkpt lat="48.60378" lon="12.69333">
        <ele>420.528072</ele>
        <time>2023-07-14T12:33:23.931Z</time>
      </trkpt>
      <trkpt lat="48.6039" lon="12.69332">
        <ele>420.235648</ele>
        <time>2023-07-14T12:33:25.933Z</time>
      </trkpt>
      <trkpt lat="48.60402" lon="12.69333">
        <ele>419.95058</ele>
        <time>2023-07-14T12:33:27.947Z</time>
      </trkpt>
      <trkpt lat="48.60414" lon="12.69333">
        <ele>419.670411</ele>
        <time>2023-07-14T12:33:29.954Z</time>
      </trkpt>
      <trkpt lat="48.60426" lon="12.69333">
        <ele>419.561766</ele>
        <time>2023-07-14T12:33:31.939Z</time>
      </trkpt>
      <trkpt lat="48.60439" lon="12.69332">
        <ele>419.520077</ele>
        <time>2023-07-14T12:33:33.944Z</time>
      </trkpt>
      <trkpt lat="48.60451" lon="12.69332">
        <ele>419.479729</ele>
        <time>2023-07-14T12:33:35.952Z</time>
      </trkpt>
      <trkpt lat="48.60463" lon="12.69332">
        <ele>419.440694</ele>
        <time>2023-07-14T12:33:37.970Z</time>
      </trkpt>
      <trkpt lat="48.60474" lon="12.69331">
        <ele>419.403666</ele>
        <time>2023-07-14T12:33:39.930Z</time>
      </trkpt>
      <trkpt lat="48.60485" lon="12.69331">
        <ele>419.365648</ele>
        <time>2023-07-14T12:33:41.933Z</time>
      </trkpt>
      <trkpt lat="48.60497" lon="12.69331">
        <ele>419.326293</ele>
        <time>2023-07-14T12:33:43.931Z</time>
      </trkpt>
      <trkpt lat="48.60508" lon="12.6933">
        <ele>419.288271</ele>
        <time>2023-07-14T12:33:45.941Z</time>
      </trkpt>
      <trkpt lat="48.60519" lon="12.69329">
        <ele>419.250816</ele>
        <time>2023-07-14T12:33:47.933Z</time>
      </trkpt>
      <trkpt lat="48.6053" lon="12.69327">
        <ele>419.213968</ele>
        <time>2023-07-14T12:33:49.930Z</time>
      </trkpt>
      <trkpt lat="48.60541" lon="12.69324">
        <ele>419.17849</ele>
        <time>2023-07-14T12:33:51.947Z</time>
      </trkpt>
      <trkpt lat="48.60551" lon="12.6932">
        <ele>419.143839</ele>
        <time>2023-07-14T12:33:53.934Z</time>
      </trkpt>
      <trkpt lat="48.6056" lon="12.69316">
        <ele>419.111529</ele>
        <time>2023-07-14T12:33:55.938Z</time>
      </trkpt>
      <trkpt lat="48.60571" lon="12.69306">
        <ele>419.068738</ele>
        <time>2023-07-14T12:33:58.940Z</time>
      </trkpt>
      <trkpt lat="48.6058" lon="12.693">
        <ele>419.035588</ele>
        <time>2023-07-14T12:34:01.938Z</time>
      </trkpt>
      <trkpt lat="48.60589" lon="12.69291">
        <ele>419.001641</ele>
        <time>2023-07-14T12:34:04.926Z</time>
      </trkpt>
      <trkpt lat="48.60598" lon="12.69284">
        <ele>419.021717</ele>
        <time>2023-07-14T12:34:07.952Z</time>
      </trkpt>
      <trkpt lat="48.6061" lon="12.69275">
        <ele>419.076021</ele>
        <time>2023-07-14T12:34:10.944Z</time>
      </trkpt>
      <trkpt lat="48.60619" lon="12.6927">
        <ele>419.11979</ele>
        <time>2023-07-14T12:34:12.936Z</time>
      </trkpt>
      <trkpt lat="48.60629" lon="12.69264">
        <ele>419.166692</ele>
        <time>2023-07-14T12:34:14.932Z</time>
      </trkpt>
      <trkpt lat="48.60639" lon="12.69257">
        <ele>419.21336</ele>
        <time>2023-07-14T12:34:16.933Z</time>
      </trkpt>
      <trkpt lat="48.60649" lon="12.69253">
        <ele>419.258283</ele>
        <time>2023-07-14T12:34:18.932Z</time>
      </trkpt>
      <trkpt lat="48.60659" lon="12.69251">
        <ele>419.301046</ele>
        <time>2023-07-14T12:34:20.930Z</time>
      </trkpt>
      <trkpt lat="48.60669" lon="12.69246">
        <ele>419.343881</ele>
        <time>2023-07-14T12:34:22.927Z</time>
      </trkpt>
      <trkpt lat="48.60678" lon="12.69241">
        <ele>419.388355</ele>
        <time>2023-07-14T12:34:24.928Z</time>
      </trkpt>
      <trkpt lat="48.60688" lon="12.69235">
        <ele>419.432732</ele>
        <time>2023-07-14T12:34:26.930Z</time>
      </trkpt>
      <trkpt lat="48.60697" lon="12.6923">
        <ele>419.475421</ele>
        <time>2023-07-14T12:34:28.944Z</time>
      </trkpt>
      <trkpt lat="48.60707" lon="12.69226">
        <ele>419.519928</ele>
        <time>2023-07-14T12:34:30.939Z</time>
      </trkpt>
      <trkpt lat="48.60717" lon="12.69221">
        <ele>419.562303</ele>
        <time>2023-07-14T12:34:32.951Z</time>
      </trkpt>
      <trkpt lat="48.60726" lon="12.69216">
        <ele>419.607213</ele>
        <time>2023-07-14T12:34:34.921Z</time>
      </trkpt>
      <trkpt lat="48.60736" lon="12.69211">
        <ele>419.652123</ele>
        <time>2023-07-14T12:34:36.911Z</time>
      </trkpt>
      <trkpt lat="48.60746" lon="12.69206">
        <ele>419.695311</ele>
        <time>2023-07-14T12:34:38.916Z</time>
      </trkpt>
      <trkpt lat="48.60756" lon="12.69202">
        <ele>419.738647</ele>
        <time>2023-07-14T12:34:40.912Z</time>
      </trkpt>
      <trkpt lat="48.60766" lon="12.69198">
        <ele>419.800537</ele>
        <time>2023-07-14T12:34:42.957Z</time>
      </trkpt>
      <trkpt lat="48.60775" lon="12.69194">
        <ele>419.883448</ele>
        <time>2023-07-14T12:34:44.934Z</time>
      </trkpt>
      <trkpt lat="48.60786" lon="12.69188">
        <ele>419.972779</ele>
        <time>2023-07-14T12:34:46.939Z</time>
      </trkpt>
      <trkpt lat="48.60796" lon="12.69184">
        <ele>420.063627</ele>
        <time>2023-07-14T12:34:48.933Z</time>
      </trkpt>
      <trkpt lat="48.60807" lon="12.69179">
        <ele>420.1512</ele>
        <time>2023-07-14T12:34:50.949Z</time>
      </trkpt>
      <trkpt lat="48.60817" lon="12.69174">
        <ele>420.237453</ele>
        <time>2023-07-14T12:34:52.947Z</time>
      </trkpt>
      <trkpt lat="48.60827" lon="12.69168">
        <ele>420.323885</ele>
        <time>2023-07-14T12:34:54.944Z</time>
      </trkpt>
      <trkpt lat="48.60837" lon="12.69163">
        <ele>420.411501</ele>
        <time>2023-07-14T12:34:56.937Z</time>
      </trkpt>
      <trkpt lat="48.60847" lon="12.69158">
        <ele>420.497678</ele>
        <time>2023-07-14T12:34:58.935Z</time>
      </trkpt>
      <trkpt lat="48.60857" lon="12.69153">
        <ele>420.584631</ele>
        <time>2023-07-14T12:35:00.934Z</time>
      </trkpt>
      <trkpt lat="48.60868" lon="12.69149">
        <ele>420.671192</ele>
        <time>2023-07-14T12:35:02.961Z</time>
      </trkpt>
      <trkpt lat="48.60878" lon="12.69147">
        <ele>420.754413</ele>
        <time>2023-07-14T12:35:04.922Z</time>
      </trkpt>
      <trkpt lat="48.60888" lon="12.69146">
        <ele>420.837503</ele>
        <time>2023-07-14T12:35:06.934Z</time>
      </trkpt>
      <trkpt lat="48.60899" lon="12.69149">
        <ele>420.92652</ele>
        <time>2023-07-14T12:35:08.935Z</time>
      </trkpt>
      <trkpt lat="48.60908" lon="12.69155">
        <ele>421.012989</ele>
        <time>2023-07-14T12:35:10.928Z</time>
      </trkpt>
      <trkpt lat="48.60916" lon="12.69165">
        <ele>421.095451</ele>
        <time>2023-07-14T12:35:12.952Z</time>
      </trkpt>
      <trkpt lat="48.60923" lon="12.69176">
        <ele>421.177944</ele>
        <time>2023-07-14T12:35:14.937Z</time>
      </trkpt>
      <trkpt lat="48.60929" lon="12.69189">
        <ele>421.228321</ele>
        <time>2023-07-14T12:35:16.936Z</time>
      </trkpt>
      <trkpt lat="48.60932" lon="12.69204">
        <ele>421.228321</ele>
        <time>2023-07-14T12:35:18.931Z</time>
      </trkpt>
      <trkpt lat="48.60934" lon="12.69219">
        <ele>421.228321</ele>
        <time>2023-07-14T12:35:20.938Z</time>
      </trkpt>
      <trkpt lat="48.60936" lon="12.69233">
        <ele>421.228321</ele>
        <time>2023-07-14T12:35:22.944Z</time>
      </trkpt>
      <trkpt lat="48.60938" lon="12.69247">
        <ele>421.228321</ele>
        <time>2023-07-14T12:35:24.941Z</time>
      </trkpt>
      <trkpt lat="48.6094" lon="12.6926">
        <ele>421.228321</ele>
        <time>2023-07-14T12:35:26.934Z</time>
      </trkpt>
      <trkpt lat="48.60943" lon="12.6928">
        <ele>421.228321</ele>
        <time>2023-07-14T12:35:29.957Z</time>
      </trkpt>
      <trkpt lat="48.60947" lon="12.69299">
        <ele>421.228321</ele>
        <time>2023-07-14T12:35:32.907Z</time>
      </trkpt>
      <trkpt lat="48.60949" lon="12.69312">
        <ele>421.228321</ele>
        <time>2023-07-14T12:35:34.944Z</time>
      </trkpt>
      <trkpt lat="48.60952" lon="12.69332">
        <ele>421.228321</ele>
        <time>2023-07-14T12:35:37.945Z</time>
      </trkpt>
      <trkpt lat="48.60955" lon="12.69351">
        <ele>421.228321</ele>
        <time>2023-07-14T12:35:40.942Z</time>
      </trkpt>
      <trkpt lat="48.60958" lon="12.6937">
        <ele>421.228321</ele>
        <time>2023-07-14T12:35:43.932Z</time>
      </trkpt>
      <trkpt lat="48.60962" lon="12.69388">
        <ele>421.228321</ele>
        <time>2023-07-14T12:35:46.989Z</time>
      </trkpt>
      <trkpt lat="48.60964" lon="12.69407">
        <ele>421.228321</ele>
        <time>2023-07-14T12:35:49.939Z</time>
      </trkpt>
      <trkpt lat="48.60967" lon="12.69425">
        <ele>421.228321</ele>
        <time>2023-07-14T12:35:52.932Z</time>
      </trkpt>
      <trkpt lat="48.6097" lon="12.69443">
        <ele>421.228321</ele>
        <time>2023-07-14T12:35:55.927Z</time>
      </trkpt>
      <trkpt lat="48.60973" lon="12.69461">
        <ele>421.228321</ele>
        <time>2023-07-14T12:35:58.935Z</time>
      </trkpt>
      <trkpt lat="48.60978" lon="12.69475">
        <ele>421.228321</ele>
        <time>2023-07-14T12:36:01.945Z</time>
      </trkpt>
      <trkpt lat="48.60987" lon="12.69483">
        <ele>421.228321</ele>
        <time>2023-07-14T12:36:04.963Z</time>
      </trkpt>
      <trkpt lat="48.60998" lon="12.69484">
        <ele>421.228321</ele>
        <time>2023-07-14T12:36:07.935Z</time>
      </trkpt>
      <trkpt lat="48.61007" lon="12.69484">
        <ele>421.228321</ele>
        <time>2023-07-14T12:36:10.952Z</time>
      </trkpt>
      <trkpt lat="48.61013" lon="12.69497">
        <ele>421.228321</ele>
        <time>2023-07-14T12:36:14.920Z</time>
      </trkpt>
      <trkpt lat="48.61012" lon="12.69512">
        <ele>421.228321</ele>
        <time>2023-07-14T12:36:19.935Z</time>
      </trkpt>
    </trkseg>
  </trk>
</gpx>